<?xml version="1.0" encoding="UTF-8" standalone="no" ?>
<gpx xmlns="http://www.topografix.com/GPX/1/1" xmlns:xsi="http://www.w3.org/2001/XMLSchema-instance" xsi:schemaLocation="http://www.topografix.com/GPX/1/1 http://www.topografix.com/GPX/1/1/gpx.xsd" version="1.1" creator="VisuGPX - https://www.visugpx.com">
  <metadata>
    <name>83-Me-Aups</name>
    <desc><![CDATA[83-Me-Aups : St Barthélémy - Les Gorges de Plérimond
2023-03-15]]></desc>
  </metadata>
  <trk>
    <name><![CDATA[2023-03-15-Me-Aups-unie]]></name>
    <extensions>
      <line xmlns="http://www.topografix.com/GPX/gpx_style/0/2">
        <width>4</width>
      </line>
    </extensions>
    <trkseg>
      <trkpt lat="43.58275" lon="6.2257">
        <ele>435.6</ele>
        <time>2023-03-15T08:02:47.000Z</time>
      </trkpt>
      <trkpt lat="43.58275" lon="6.2257">
        <ele>435.7</ele>
        <time>2023-03-15T08:02:48.000Z</time>
      </trkpt>
      <trkpt lat="43.58279" lon="6.22565">
        <ele>433.8</ele>
        <time>2023-03-15T08:10:40.000Z</time>
      </trkpt>
      <trkpt lat="43.58284" lon="6.22568">
        <ele>433.7</ele>
        <time>2023-03-15T08:10:46.000Z</time>
      </trkpt>
      <trkpt lat="43.58288" lon="6.22573">
        <ele>433.7</ele>
        <time>2023-03-15T08:10:51.000Z</time>
      </trkpt>
      <trkpt lat="43.58292" lon="6.22576">
        <ele>433.6</ele>
        <time>2023-03-15T08:10:56.000Z</time>
      </trkpt>
      <trkpt lat="43.58298" lon="6.22577">
        <ele>433.5</ele>
        <time>2023-03-15T08:11:01.000Z</time>
      </trkpt>
      <trkpt lat="43.58302" lon="6.2258">
        <ele>433.4</ele>
        <time>2023-03-15T08:11:05.000Z</time>
      </trkpt>
      <trkpt lat="43.58307" lon="6.22583">
        <ele>433.2</ele>
        <time>2023-03-15T08:11:10.000Z</time>
      </trkpt>
      <trkpt lat="43.58309" lon="6.22589">
        <ele>432.4</ele>
        <time>2023-03-15T08:11:18.000Z</time>
      </trkpt>
      <trkpt lat="43.58309" lon="6.22596">
        <ele>431.7</ele>
        <time>2023-03-15T08:11:28.000Z</time>
      </trkpt>
      <trkpt lat="43.58305" lon="6.22601">
        <ele>431.4</ele>
        <time>2023-03-15T08:11:34.000Z</time>
      </trkpt>
      <trkpt lat="43.58302" lon="6.22607">
        <ele>431</ele>
        <time>2023-03-15T08:11:40.000Z</time>
      </trkpt>
      <trkpt lat="43.583" lon="6.22613">
        <ele>430.8</ele>
        <time>2023-03-15T08:11:45.000Z</time>
      </trkpt>
      <trkpt lat="43.58296" lon="6.22618">
        <ele>430.5</ele>
        <time>2023-03-15T08:11:54.000Z</time>
      </trkpt>
      <trkpt lat="43.58294" lon="6.22625">
        <ele>430.5</ele>
        <time>2023-03-15T08:11:59.000Z</time>
      </trkpt>
      <trkpt lat="43.58291" lon="6.22631">
        <ele>430.4</ele>
        <time>2023-03-15T08:12:03.000Z</time>
      </trkpt>
      <trkpt lat="43.58289" lon="6.22636">
        <ele>430.3</ele>
        <time>2023-03-15T08:12:07.000Z</time>
      </trkpt>
      <trkpt lat="43.58285" lon="6.22641">
        <ele>430.2</ele>
        <time>2023-03-15T08:12:12.000Z</time>
      </trkpt>
      <trkpt lat="43.58283" lon="6.22648">
        <ele>430.2</ele>
        <time>2023-03-15T08:12:17.000Z</time>
      </trkpt>
      <trkpt lat="43.58281" lon="6.22655">
        <ele>430.1</ele>
        <time>2023-03-15T08:12:22.000Z</time>
      </trkpt>
      <trkpt lat="43.5828" lon="6.22661">
        <ele>430.1</ele>
        <time>2023-03-15T08:12:26.000Z</time>
      </trkpt>
      <trkpt lat="43.58277" lon="6.22667">
        <ele>430</ele>
        <time>2023-03-15T08:12:31.000Z</time>
      </trkpt>
      <trkpt lat="43.58274" lon="6.22674">
        <ele>430</ele>
        <time>2023-03-15T08:12:36.000Z</time>
      </trkpt>
      <trkpt lat="43.58271" lon="6.2268">
        <ele>430</ele>
        <time>2023-03-15T08:12:40.000Z</time>
      </trkpt>
      <trkpt lat="43.58268" lon="6.22686">
        <ele>430</ele>
        <time>2023-03-15T08:12:44.000Z</time>
      </trkpt>
      <trkpt lat="43.5827" lon="6.22692">
        <ele>430</ele>
        <time>2023-03-15T08:12:51.000Z</time>
      </trkpt>
      <trkpt lat="43.58273" lon="6.22699">
        <ele>430</ele>
        <time>2023-03-15T08:12:55.000Z</time>
      </trkpt>
      <trkpt lat="43.58273" lon="6.22705">
        <ele>430</ele>
        <time>2023-03-15T08:13:00.000Z</time>
      </trkpt>
      <trkpt lat="43.58274" lon="6.22712">
        <ele>430</ele>
        <time>2023-03-15T08:13:05.000Z</time>
      </trkpt>
      <trkpt lat="43.58279" lon="6.22717">
        <ele>429.9</ele>
        <time>2023-03-15T08:13:11.000Z</time>
      </trkpt>
      <trkpt lat="43.58283" lon="6.22719">
        <ele>429.9</ele>
        <time>2023-03-15T08:13:15.000Z</time>
      </trkpt>
      <trkpt lat="43.58288" lon="6.22721">
        <ele>429.7</ele>
        <time>2023-03-15T08:13:20.000Z</time>
      </trkpt>
      <trkpt lat="43.58293" lon="6.22723">
        <ele>429.4</ele>
        <time>2023-03-15T08:13:25.000Z</time>
      </trkpt>
      <trkpt lat="43.58298" lon="6.22724">
        <ele>429.2</ele>
        <time>2023-03-15T08:13:29.000Z</time>
      </trkpt>
      <trkpt lat="43.58303" lon="6.22726">
        <ele>429</ele>
        <time>2023-03-15T08:13:33.000Z</time>
      </trkpt>
      <trkpt lat="43.58307" lon="6.22728">
        <ele>428.7</ele>
        <time>2023-03-15T08:13:38.000Z</time>
      </trkpt>
      <trkpt lat="43.58312" lon="6.2273">
        <ele>428</ele>
        <time>2023-03-15T08:13:44.000Z</time>
      </trkpt>
      <trkpt lat="43.58317" lon="6.22732">
        <ele>427.2</ele>
        <time>2023-03-15T08:13:49.000Z</time>
      </trkpt>
      <trkpt lat="43.58321" lon="6.22735">
        <ele>426.2</ele>
        <time>2023-03-15T08:13:55.000Z</time>
      </trkpt>
      <trkpt lat="43.58326" lon="6.22737">
        <ele>425.3</ele>
        <time>2023-03-15T08:14:00.000Z</time>
      </trkpt>
      <trkpt lat="43.58331" lon="6.22739">
        <ele>423.8</ele>
        <time>2023-03-15T08:14:06.000Z</time>
      </trkpt>
      <trkpt lat="43.58336" lon="6.22739">
        <ele>422.3</ele>
        <time>2023-03-15T08:14:13.000Z</time>
      </trkpt>
      <trkpt lat="43.58341" lon="6.22743">
        <ele>421</ele>
        <time>2023-03-15T08:14:20.000Z</time>
      </trkpt>
      <trkpt lat="43.58345" lon="6.22746">
        <ele>420.2</ele>
        <time>2023-03-15T08:14:26.000Z</time>
      </trkpt>
      <trkpt lat="43.5835" lon="6.22745">
        <ele>419.1</ele>
        <time>2023-03-15T08:14:38.000Z</time>
      </trkpt>
      <trkpt lat="43.58355" lon="6.22747">
        <ele>418.2</ele>
        <time>2023-03-15T08:14:58.000Z</time>
      </trkpt>
      <trkpt lat="43.58351" lon="6.22751">
        <ele>417.8</ele>
        <time>2023-03-15T08:15:35.000Z</time>
      </trkpt>
      <trkpt lat="43.58348" lon="6.22755">
        <ele>417.9</ele>
        <time>2023-03-15T08:15:59.000Z</time>
      </trkpt>
      <trkpt lat="43.58344" lon="6.2276">
        <ele>417.8</ele>
        <time>2023-03-15T08:16:04.000Z</time>
      </trkpt>
      <trkpt lat="43.5834" lon="6.22763">
        <ele>417.5</ele>
        <time>2023-03-15T08:16:09.000Z</time>
      </trkpt>
      <trkpt lat="43.58337" lon="6.22768">
        <ele>417.2</ele>
        <time>2023-03-15T08:16:14.000Z</time>
      </trkpt>
      <trkpt lat="43.58333" lon="6.22773">
        <ele>416.9</ele>
        <time>2023-03-15T08:16:19.000Z</time>
      </trkpt>
      <trkpt lat="43.5833" lon="6.22778">
        <ele>416.6</ele>
        <time>2023-03-15T08:16:23.000Z</time>
      </trkpt>
      <trkpt lat="43.58326" lon="6.22782">
        <ele>416</ele>
        <time>2023-03-15T08:16:29.000Z</time>
      </trkpt>
      <trkpt lat="43.58323" lon="6.22789">
        <ele>415.4</ele>
        <time>2023-03-15T08:16:34.000Z</time>
      </trkpt>
      <trkpt lat="43.58319" lon="6.22794">
        <ele>414.6</ele>
        <time>2023-03-15T08:16:39.000Z</time>
      </trkpt>
      <trkpt lat="43.58316" lon="6.228">
        <ele>413.9</ele>
        <time>2023-03-15T08:16:44.000Z</time>
      </trkpt>
      <trkpt lat="43.58312" lon="6.22803">
        <ele>413.1</ele>
        <time>2023-03-15T08:16:50.000Z</time>
      </trkpt>
      <trkpt lat="43.58308" lon="6.22808">
        <ele>412.6</ele>
        <time>2023-03-15T08:16:54.000Z</time>
      </trkpt>
      <trkpt lat="43.58304" lon="6.22813">
        <ele>411.7</ele>
        <time>2023-03-15T08:16:59.000Z</time>
      </trkpt>
      <trkpt lat="43.58299" lon="6.22816">
        <ele>411.1</ele>
        <time>2023-03-15T08:17:03.000Z</time>
      </trkpt>
      <trkpt lat="43.58295" lon="6.2282">
        <ele>410.5</ele>
        <time>2023-03-15T08:17:07.000Z</time>
      </trkpt>
      <trkpt lat="43.58292" lon="6.22825">
        <ele>409.8</ele>
        <time>2023-03-15T08:17:11.000Z</time>
      </trkpt>
      <trkpt lat="43.58289" lon="6.2283">
        <ele>409</ele>
        <time>2023-03-15T08:17:15.000Z</time>
      </trkpt>
      <trkpt lat="43.58285" lon="6.22835">
        <ele>407.9</ele>
        <time>2023-03-15T08:17:20.000Z</time>
      </trkpt>
      <trkpt lat="43.58282" lon="6.22838">
        <ele>406.6</ele>
        <time>2023-03-15T08:17:25.000Z</time>
      </trkpt>
      <trkpt lat="43.58278" lon="6.22843">
        <ele>405.8</ele>
        <time>2023-03-15T08:17:29.000Z</time>
      </trkpt>
      <trkpt lat="43.58274" lon="6.22846">
        <ele>405.1</ele>
        <time>2023-03-15T08:17:34.000Z</time>
      </trkpt>
      <trkpt lat="43.5827" lon="6.22852">
        <ele>404.6</ele>
        <time>2023-03-15T08:17:38.000Z</time>
      </trkpt>
      <trkpt lat="43.58265" lon="6.22855">
        <ele>404.1</ele>
        <time>2023-03-15T08:17:42.000Z</time>
      </trkpt>
      <trkpt lat="43.5826" lon="6.22859">
        <ele>403.6</ele>
        <time>2023-03-15T08:17:46.000Z</time>
      </trkpt>
      <trkpt lat="43.58255" lon="6.22862">
        <ele>402.9</ele>
        <time>2023-03-15T08:17:50.000Z</time>
      </trkpt>
      <trkpt lat="43.58252" lon="6.22866">
        <ele>402.3</ele>
        <time>2023-03-15T08:17:54.000Z</time>
      </trkpt>
      <trkpt lat="43.5825" lon="6.22873">
        <ele>401.3</ele>
        <time>2023-03-15T08:18:00.000Z</time>
      </trkpt>
      <trkpt lat="43.58248" lon="6.22879">
        <ele>400.6</ele>
        <time>2023-03-15T08:18:07.000Z</time>
      </trkpt>
      <trkpt lat="43.58253" lon="6.22878">
        <ele>399.8</ele>
        <time>2023-03-15T08:18:21.000Z</time>
      </trkpt>
      <trkpt lat="43.58256" lon="6.22873">
        <ele>399.9</ele>
        <time>2023-03-15T08:18:37.000Z</time>
      </trkpt>
      <trkpt lat="43.58261" lon="6.22871">
        <ele>400.2</ele>
        <time>2023-03-15T08:18:46.000Z</time>
      </trkpt>
      <trkpt lat="43.58265" lon="6.22869">
        <ele>400.8</ele>
        <time>2023-03-15T08:18:52.000Z</time>
      </trkpt>
      <trkpt lat="43.58268" lon="6.22863">
        <ele>401.4</ele>
        <time>2023-03-15T08:18:59.000Z</time>
      </trkpt>
      <trkpt lat="43.58273" lon="6.22861">
        <ele>401.8</ele>
        <time>2023-03-15T08:19:03.000Z</time>
      </trkpt>
      <trkpt lat="43.58277" lon="6.22857">
        <ele>402.3</ele>
        <time>2023-03-15T08:19:08.000Z</time>
      </trkpt>
      <trkpt lat="43.58281" lon="6.22852">
        <ele>403</ele>
        <time>2023-03-15T08:19:13.000Z</time>
      </trkpt>
      <trkpt lat="43.58285" lon="6.22849">
        <ele>403.5</ele>
        <time>2023-03-15T08:19:20.000Z</time>
      </trkpt>
      <trkpt lat="43.58289" lon="6.22845">
        <ele>404.3</ele>
        <time>2023-03-15T08:19:28.000Z</time>
      </trkpt>
      <trkpt lat="43.58293" lon="6.22842">
        <ele>404.8</ele>
        <time>2023-03-15T08:19:34.000Z</time>
      </trkpt>
      <trkpt lat="43.58297" lon="6.22837">
        <ele>405.4</ele>
        <time>2023-03-15T08:19:41.000Z</time>
      </trkpt>
      <trkpt lat="43.58301" lon="6.22833">
        <ele>406.1</ele>
        <time>2023-03-15T08:19:47.000Z</time>
      </trkpt>
      <trkpt lat="43.58306" lon="6.22829">
        <ele>406.7</ele>
        <time>2023-03-15T08:19:52.000Z</time>
      </trkpt>
      <trkpt lat="43.58311" lon="6.22828">
        <ele>407.3</ele>
        <time>2023-03-15T08:19:57.000Z</time>
      </trkpt>
      <trkpt lat="43.58315" lon="6.22825">
        <ele>408</ele>
        <time>2023-03-15T08:20:02.000Z</time>
      </trkpt>
      <trkpt lat="43.5832" lon="6.22821">
        <ele>408.8</ele>
        <time>2023-03-15T08:20:08.000Z</time>
      </trkpt>
      <trkpt lat="43.58323" lon="6.22816">
        <ele>409.3</ele>
        <time>2023-03-15T08:20:13.000Z</time>
      </trkpt>
      <trkpt lat="43.58326" lon="6.22811">
        <ele>409.8</ele>
        <time>2023-03-15T08:20:17.000Z</time>
      </trkpt>
      <trkpt lat="43.5833" lon="6.22805">
        <ele>410.7</ele>
        <time>2023-03-15T08:20:22.000Z</time>
      </trkpt>
      <trkpt lat="43.58332" lon="6.228">
        <ele>411.3</ele>
        <time>2023-03-15T08:20:26.000Z</time>
      </trkpt>
      <trkpt lat="43.58333" lon="6.22794">
        <ele>411.9</ele>
        <time>2023-03-15T08:20:30.000Z</time>
      </trkpt>
      <trkpt lat="43.58335" lon="6.22788">
        <ele>412.5</ele>
        <time>2023-03-15T08:20:34.000Z</time>
      </trkpt>
      <trkpt lat="43.58338" lon="6.22781">
        <ele>413.1</ele>
        <time>2023-03-15T08:20:38.000Z</time>
      </trkpt>
      <trkpt lat="43.58341" lon="6.22776">
        <ele>414.6</ele>
        <time>2023-03-15T08:20:58.000Z</time>
      </trkpt>
      <trkpt lat="43.58343" lon="6.2277">
        <ele>414.8</ele>
        <time>2023-03-15T08:21:04.000Z</time>
      </trkpt>
      <trkpt lat="43.58347" lon="6.22772">
        <ele>415.1</ele>
        <time>2023-03-15T08:21:29.000Z</time>
      </trkpt>
      <trkpt lat="43.58351" lon="6.22776">
        <ele>415.6</ele>
        <time>2023-03-15T08:21:38.000Z</time>
      </trkpt>
      <trkpt lat="43.58352" lon="6.22782">
        <ele>417.8</ele>
        <time>2023-03-15T08:21:54.000Z</time>
      </trkpt>
      <trkpt lat="43.58355" lon="6.22788">
        <ele>419.2</ele>
        <time>2023-03-15T08:22:02.000Z</time>
      </trkpt>
      <trkpt lat="43.58357" lon="6.22793">
        <ele>420.5</ele>
        <time>2023-03-15T08:22:10.000Z</time>
      </trkpt>
      <trkpt lat="43.58359" lon="6.228">
        <ele>421.6</ele>
        <time>2023-03-15T08:22:17.000Z</time>
      </trkpt>
      <trkpt lat="43.58363" lon="6.22806">
        <ele>422.5</ele>
        <time>2023-03-15T08:22:23.000Z</time>
      </trkpt>
      <trkpt lat="43.58367" lon="6.22808">
        <ele>423.4</ele>
        <time>2023-03-15T08:22:28.000Z</time>
      </trkpt>
      <trkpt lat="43.58371" lon="6.22811">
        <ele>424.4</ele>
        <time>2023-03-15T08:22:34.000Z</time>
      </trkpt>
      <trkpt lat="43.58374" lon="6.22816">
        <ele>425.2</ele>
        <time>2023-03-15T08:22:39.000Z</time>
      </trkpt>
      <trkpt lat="43.58377" lon="6.22821">
        <ele>426.3</ele>
        <time>2023-03-15T08:22:44.000Z</time>
      </trkpt>
      <trkpt lat="43.58379" lon="6.22827">
        <ele>427</ele>
        <time>2023-03-15T08:22:48.000Z</time>
      </trkpt>
      <trkpt lat="43.58383" lon="6.22831">
        <ele>428</ele>
        <time>2023-03-15T08:22:54.000Z</time>
      </trkpt>
      <trkpt lat="43.58386" lon="6.22835">
        <ele>428.9</ele>
        <time>2023-03-15T08:23:00.000Z</time>
      </trkpt>
      <trkpt lat="43.58385" lon="6.22841">
        <ele>429.6</ele>
        <time>2023-03-15T08:23:05.000Z</time>
      </trkpt>
      <trkpt lat="43.58381" lon="6.22846">
        <ele>430.3</ele>
        <time>2023-03-15T08:23:10.000Z</time>
      </trkpt>
      <trkpt lat="43.58379" lon="6.22852">
        <ele>430.9</ele>
        <time>2023-03-15T08:23:15.000Z</time>
      </trkpt>
      <trkpt lat="43.58376" lon="6.22858">
        <ele>431.4</ele>
        <time>2023-03-15T08:23:20.000Z</time>
      </trkpt>
      <trkpt lat="43.58372" lon="6.22862">
        <ele>431.7</ele>
        <time>2023-03-15T08:23:25.000Z</time>
      </trkpt>
      <trkpt lat="43.58368" lon="6.22867">
        <ele>432</ele>
        <time>2023-03-15T08:23:30.000Z</time>
      </trkpt>
      <trkpt lat="43.58369" lon="6.22874">
        <ele>432.5</ele>
        <time>2023-03-15T08:23:58.000Z</time>
      </trkpt>
      <trkpt lat="43.58364" lon="6.22877">
        <ele>432.6</ele>
        <time>2023-03-15T08:24:22.000Z</time>
      </trkpt>
      <trkpt lat="43.5836" lon="6.2288">
        <ele>432.6</ele>
        <time>2023-03-15T08:24:29.000Z</time>
      </trkpt>
      <trkpt lat="43.58355" lon="6.22884">
        <ele>432.6</ele>
        <time>2023-03-15T08:24:34.000Z</time>
      </trkpt>
      <trkpt lat="43.58352" lon="6.22889">
        <ele>432.6</ele>
        <time>2023-03-15T08:24:39.000Z</time>
      </trkpt>
      <trkpt lat="43.5835" lon="6.22895">
        <ele>432.8</ele>
        <time>2023-03-15T08:24:44.000Z</time>
      </trkpt>
      <trkpt lat="43.58347" lon="6.229">
        <ele>432.9</ele>
        <time>2023-03-15T08:24:49.000Z</time>
      </trkpt>
      <trkpt lat="43.58344" lon="6.22905">
        <ele>433.1</ele>
        <time>2023-03-15T08:24:54.000Z</time>
      </trkpt>
      <trkpt lat="43.5834" lon="6.22908">
        <ele>433.2</ele>
        <time>2023-03-15T08:24:59.000Z</time>
      </trkpt>
      <trkpt lat="43.58336" lon="6.22912">
        <ele>433.2</ele>
        <time>2023-03-15T08:25:04.000Z</time>
      </trkpt>
      <trkpt lat="43.58332" lon="6.22915">
        <ele>433.3</ele>
        <time>2023-03-15T08:25:08.000Z</time>
      </trkpt>
      <trkpt lat="43.58327" lon="6.22917">
        <ele>433.3</ele>
        <time>2023-03-15T08:25:13.000Z</time>
      </trkpt>
      <trkpt lat="43.58323" lon="6.22921">
        <ele>433.3</ele>
        <time>2023-03-15T08:25:17.000Z</time>
      </trkpt>
      <trkpt lat="43.5832" lon="6.22927">
        <ele>433.3</ele>
        <time>2023-03-15T08:25:21.000Z</time>
      </trkpt>
      <trkpt lat="43.58317" lon="6.22933">
        <ele>433.2</ele>
        <time>2023-03-15T08:25:26.000Z</time>
      </trkpt>
      <trkpt lat="43.58314" lon="6.22938">
        <ele>432.9</ele>
        <time>2023-03-15T08:25:32.000Z</time>
      </trkpt>
      <trkpt lat="43.58309" lon="6.22941">
        <ele>432.6</ele>
        <time>2023-03-15T08:25:36.000Z</time>
      </trkpt>
      <trkpt lat="43.58306" lon="6.22946">
        <ele>432.3</ele>
        <time>2023-03-15T08:25:41.000Z</time>
      </trkpt>
      <trkpt lat="43.58302" lon="6.2295">
        <ele>431.9</ele>
        <time>2023-03-15T08:25:45.000Z</time>
      </trkpt>
      <trkpt lat="43.58299" lon="6.22954">
        <ele>431.4</ele>
        <time>2023-03-15T08:25:49.000Z</time>
      </trkpt>
      <trkpt lat="43.58295" lon="6.22959">
        <ele>431</ele>
        <time>2023-03-15T08:25:53.000Z</time>
      </trkpt>
      <trkpt lat="43.58294" lon="6.22966">
        <ele>430.7</ele>
        <time>2023-03-15T08:25:57.000Z</time>
      </trkpt>
      <trkpt lat="43.58293" lon="6.22972">
        <ele>430.4</ele>
        <time>2023-03-15T08:26:01.000Z</time>
      </trkpt>
      <trkpt lat="43.58292" lon="6.22979">
        <ele>430</ele>
        <time>2023-03-15T08:26:06.000Z</time>
      </trkpt>
      <trkpt lat="43.58291" lon="6.22986">
        <ele>429.6</ele>
        <time>2023-03-15T08:26:11.000Z</time>
      </trkpt>
      <trkpt lat="43.58295" lon="6.22988">
        <ele>429.2</ele>
        <time>2023-03-15T08:26:17.000Z</time>
      </trkpt>
      <trkpt lat="43.58301" lon="6.22987">
        <ele>429.1</ele>
        <time>2023-03-15T08:26:22.000Z</time>
      </trkpt>
      <trkpt lat="43.58305" lon="6.22985">
        <ele>429.3</ele>
        <time>2023-03-15T08:26:26.000Z</time>
      </trkpt>
      <trkpt lat="43.5831" lon="6.22983">
        <ele>429.5</ele>
        <time>2023-03-15T08:26:32.000Z</time>
      </trkpt>
      <trkpt lat="43.58314" lon="6.22979">
        <ele>429.6</ele>
        <time>2023-03-15T08:26:37.000Z</time>
      </trkpt>
      <trkpt lat="43.58319" lon="6.22976">
        <ele>429.9</ele>
        <time>2023-03-15T08:26:43.000Z</time>
      </trkpt>
      <trkpt lat="43.58323" lon="6.22972">
        <ele>430</ele>
        <time>2023-03-15T08:26:48.000Z</time>
      </trkpt>
      <trkpt lat="43.58327" lon="6.2297">
        <ele>430.3</ele>
        <time>2023-03-15T08:26:53.000Z</time>
      </trkpt>
      <trkpt lat="43.58331" lon="6.22966">
        <ele>430.7</ele>
        <time>2023-03-15T08:26:58.000Z</time>
      </trkpt>
      <trkpt lat="43.58336" lon="6.22965">
        <ele>431</ele>
        <time>2023-03-15T08:27:02.000Z</time>
      </trkpt>
      <trkpt lat="43.5834" lon="6.22964">
        <ele>431.2</ele>
        <time>2023-03-15T08:27:06.000Z</time>
      </trkpt>
      <trkpt lat="43.58345" lon="6.22967">
        <ele>431.5</ele>
        <time>2023-03-15T08:27:11.000Z</time>
      </trkpt>
      <trkpt lat="43.58349" lon="6.2297">
        <ele>431.8</ele>
        <time>2023-03-15T08:27:17.000Z</time>
      </trkpt>
      <trkpt lat="43.58354" lon="6.22972">
        <ele>432</ele>
        <time>2023-03-15T08:27:22.000Z</time>
      </trkpt>
      <trkpt lat="43.58357" lon="6.22978">
        <ele>432.2</ele>
        <time>2023-03-15T08:27:34.000Z</time>
      </trkpt>
      <trkpt lat="43.58361" lon="6.2298">
        <ele>431</ele>
        <time>2023-03-15T08:28:26.000Z</time>
      </trkpt>
      <trkpt lat="43.58365" lon="6.22981">
        <ele>431.3</ele>
        <time>2023-03-15T08:28:52.000Z</time>
      </trkpt>
      <trkpt lat="43.5837" lon="6.2298">
        <ele>431.4</ele>
        <time>2023-03-15T08:29:01.000Z</time>
      </trkpt>
      <trkpt lat="43.58374" lon="6.22983">
        <ele>431.3</ele>
        <time>2023-03-15T08:29:09.000Z</time>
      </trkpt>
      <trkpt lat="43.58379" lon="6.22985">
        <ele>431.2</ele>
        <time>2023-03-15T08:29:16.000Z</time>
      </trkpt>
      <trkpt lat="43.58383" lon="6.22987">
        <ele>431.1</ele>
        <time>2023-03-15T08:29:22.000Z</time>
      </trkpt>
      <trkpt lat="43.58388" lon="6.22989">
        <ele>430.9</ele>
        <time>2023-03-15T08:29:28.000Z</time>
      </trkpt>
      <trkpt lat="43.58392" lon="6.22991">
        <ele>430.8</ele>
        <time>2023-03-15T08:29:36.000Z</time>
      </trkpt>
      <trkpt lat="43.58396" lon="6.22995">
        <ele>430.5</ele>
        <time>2023-03-15T08:29:42.000Z</time>
      </trkpt>
      <trkpt lat="43.58398" lon="6.23001">
        <ele>430.2</ele>
        <time>2023-03-15T08:29:48.000Z</time>
      </trkpt>
      <trkpt lat="43.584" lon="6.23006">
        <ele>429.9</ele>
        <time>2023-03-15T08:29:53.000Z</time>
      </trkpt>
      <trkpt lat="43.58402" lon="6.23012">
        <ele>429.7</ele>
        <time>2023-03-15T08:29:57.000Z</time>
      </trkpt>
      <trkpt lat="43.58405" lon="6.23017">
        <ele>429.4</ele>
        <time>2023-03-15T08:30:01.000Z</time>
      </trkpt>
      <trkpt lat="43.58409" lon="6.23021">
        <ele>429.1</ele>
        <time>2023-03-15T08:30:05.000Z</time>
      </trkpt>
      <trkpt lat="43.58412" lon="6.23027">
        <ele>428.5</ele>
        <time>2023-03-15T08:30:11.000Z</time>
      </trkpt>
      <trkpt lat="43.58412" lon="6.23033">
        <ele>427.2</ele>
        <time>2023-03-15T08:30:32.000Z</time>
      </trkpt>
      <trkpt lat="43.58414" lon="6.23039">
        <ele>426.8</ele>
        <time>2023-03-15T08:30:44.000Z</time>
      </trkpt>
      <trkpt lat="43.58419" lon="6.23035">
        <ele>426.5</ele>
        <time>2023-03-15T08:31:02.000Z</time>
      </trkpt>
      <trkpt lat="43.58422" lon="6.23031">
        <ele>426.6</ele>
        <time>2023-03-15T08:31:08.000Z</time>
      </trkpt>
      <trkpt lat="43.58426" lon="6.23027">
        <ele>426.9</ele>
        <time>2023-03-15T08:31:15.000Z</time>
      </trkpt>
      <trkpt lat="43.5843" lon="6.23022">
        <ele>427.1</ele>
        <time>2023-03-15T08:31:20.000Z</time>
      </trkpt>
      <trkpt lat="43.58435" lon="6.2302">
        <ele>427.3</ele>
        <time>2023-03-15T08:31:25.000Z</time>
      </trkpt>
      <trkpt lat="43.58439" lon="6.23019">
        <ele>427.5</ele>
        <time>2023-03-15T08:31:29.000Z</time>
      </trkpt>
      <trkpt lat="43.58444" lon="6.23019">
        <ele>427.8</ele>
        <time>2023-03-15T08:31:34.000Z</time>
      </trkpt>
      <trkpt lat="43.58448" lon="6.23016">
        <ele>428.1</ele>
        <time>2023-03-15T08:31:41.000Z</time>
      </trkpt>
      <trkpt lat="43.58453" lon="6.23012">
        <ele>428.3</ele>
        <time>2023-03-15T08:31:47.000Z</time>
      </trkpt>
      <trkpt lat="43.58457" lon="6.23009">
        <ele>428.4</ele>
        <time>2023-03-15T08:31:55.000Z</time>
      </trkpt>
      <trkpt lat="43.58462" lon="6.23006">
        <ele>428.4</ele>
        <time>2023-03-15T08:32:03.000Z</time>
      </trkpt>
      <trkpt lat="43.58466" lon="6.23002">
        <ele>428</ele>
        <time>2023-03-15T08:32:08.000Z</time>
      </trkpt>
      <trkpt lat="43.58469" lon="6.22997">
        <ele>427.7</ele>
        <time>2023-03-15T08:32:13.000Z</time>
      </trkpt>
      <trkpt lat="43.58471" lon="6.2299">
        <ele>427.4</ele>
        <time>2023-03-15T08:32:19.000Z</time>
      </trkpt>
      <trkpt lat="43.58473" lon="6.22984">
        <ele>426.9</ele>
        <time>2023-03-15T08:32:25.000Z</time>
      </trkpt>
      <trkpt lat="43.58473" lon="6.22977">
        <ele>426.6</ele>
        <time>2023-03-15T08:32:32.000Z</time>
      </trkpt>
      <trkpt lat="43.58476" lon="6.22971">
        <ele>426.4</ele>
        <time>2023-03-15T08:32:38.000Z</time>
      </trkpt>
      <trkpt lat="43.58476" lon="6.22964">
        <ele>426.3</ele>
        <time>2023-03-15T08:32:46.000Z</time>
      </trkpt>
      <trkpt lat="43.5848" lon="6.22959">
        <ele>426.3</ele>
        <time>2023-03-15T08:32:50.000Z</time>
      </trkpt>
      <trkpt lat="43.58483" lon="6.22954">
        <ele>426.2</ele>
        <time>2023-03-15T08:32:53.000Z</time>
      </trkpt>
      <trkpt lat="43.58485" lon="6.22949">
        <ele>426.3</ele>
        <time>2023-03-15T08:32:56.000Z</time>
      </trkpt>
      <trkpt lat="43.58489" lon="6.22944">
        <ele>426.7</ele>
        <time>2023-03-15T08:33:03.000Z</time>
      </trkpt>
      <trkpt lat="43.58493" lon="6.22939">
        <ele>426.9</ele>
        <time>2023-03-15T08:33:10.000Z</time>
      </trkpt>
      <trkpt lat="43.58496" lon="6.22934">
        <ele>427.2</ele>
        <time>2023-03-15T08:33:14.000Z</time>
      </trkpt>
      <trkpt lat="43.58499" lon="6.22927">
        <ele>427.4</ele>
        <time>2023-03-15T08:33:18.000Z</time>
      </trkpt>
      <trkpt lat="43.58502" lon="6.22921">
        <ele>428.5</ele>
        <time>2023-03-15T08:33:25.000Z</time>
      </trkpt>
      <trkpt lat="43.58506" lon="6.22917">
        <ele>429.4</ele>
        <time>2023-03-15T08:33:31.000Z</time>
      </trkpt>
      <trkpt lat="43.58509" lon="6.22911">
        <ele>429.9</ele>
        <time>2023-03-15T08:33:36.000Z</time>
      </trkpt>
      <trkpt lat="43.58513" lon="6.22907">
        <ele>430.3</ele>
        <time>2023-03-15T08:33:41.000Z</time>
      </trkpt>
      <trkpt lat="43.58516" lon="6.22903">
        <ele>430.5</ele>
        <time>2023-03-15T08:33:46.000Z</time>
      </trkpt>
      <trkpt lat="43.5852" lon="6.22899">
        <ele>430.7</ele>
        <time>2023-03-15T08:33:50.000Z</time>
      </trkpt>
      <trkpt lat="43.58523" lon="6.22894">
        <ele>430.8</ele>
        <time>2023-03-15T08:33:54.000Z</time>
      </trkpt>
      <trkpt lat="43.58528" lon="6.22891">
        <ele>430.9</ele>
        <time>2023-03-15T08:33:59.000Z</time>
      </trkpt>
      <trkpt lat="43.58532" lon="6.22889">
        <ele>431.2</ele>
        <time>2023-03-15T08:34:03.000Z</time>
      </trkpt>
      <trkpt lat="43.58536" lon="6.22886">
        <ele>431.5</ele>
        <time>2023-03-15T08:34:07.000Z</time>
      </trkpt>
      <trkpt lat="43.5854" lon="6.22882">
        <ele>431.7</ele>
        <time>2023-03-15T08:34:12.000Z</time>
      </trkpt>
      <trkpt lat="43.58545" lon="6.22878">
        <ele>432</ele>
        <time>2023-03-15T08:34:19.000Z</time>
      </trkpt>
      <trkpt lat="43.58549" lon="6.22875">
        <ele>432.1</ele>
        <time>2023-03-15T08:34:23.000Z</time>
      </trkpt>
      <trkpt lat="43.58555" lon="6.22874">
        <ele>432.6</ele>
        <time>2023-03-15T08:34:28.000Z</time>
      </trkpt>
      <trkpt lat="43.5856" lon="6.22872">
        <ele>433.2</ele>
        <time>2023-03-15T08:34:33.000Z</time>
      </trkpt>
      <trkpt lat="43.58564" lon="6.2287">
        <ele>433.5</ele>
        <time>2023-03-15T08:34:38.000Z</time>
      </trkpt>
      <trkpt lat="43.58569" lon="6.22867">
        <ele>433.8</ele>
        <time>2023-03-15T08:34:44.000Z</time>
      </trkpt>
      <trkpt lat="43.58573" lon="6.22864">
        <ele>434.1</ele>
        <time>2023-03-15T08:34:50.000Z</time>
      </trkpt>
      <trkpt lat="43.58578" lon="6.22862">
        <ele>434.4</ele>
        <time>2023-03-15T08:34:57.000Z</time>
      </trkpt>
      <trkpt lat="43.58583" lon="6.2286">
        <ele>434.6</ele>
        <time>2023-03-15T08:35:02.000Z</time>
      </trkpt>
      <trkpt lat="43.58588" lon="6.22858">
        <ele>434.8</ele>
        <time>2023-03-15T08:35:07.000Z</time>
      </trkpt>
      <trkpt lat="43.58593" lon="6.22857">
        <ele>435.2</ele>
        <time>2023-03-15T08:35:12.000Z</time>
      </trkpt>
      <trkpt lat="43.58597" lon="6.22855">
        <ele>435.5</ele>
        <time>2023-03-15T08:35:17.000Z</time>
      </trkpt>
      <trkpt lat="43.58602" lon="6.22855">
        <ele>435.7</ele>
        <time>2023-03-15T08:35:22.000Z</time>
      </trkpt>
      <trkpt lat="43.58608" lon="6.22853">
        <ele>435.9</ele>
        <time>2023-03-15T08:35:27.000Z</time>
      </trkpt>
      <trkpt lat="43.58613" lon="6.22851">
        <ele>436.1</ele>
        <time>2023-03-15T08:35:32.000Z</time>
      </trkpt>
      <trkpt lat="43.58618" lon="6.2285">
        <ele>436.2</ele>
        <time>2023-03-15T08:35:36.000Z</time>
      </trkpt>
      <trkpt lat="43.58623" lon="6.22849">
        <ele>436.3</ele>
        <time>2023-03-15T08:35:41.000Z</time>
      </trkpt>
      <trkpt lat="43.58628" lon="6.22847">
        <ele>436.5</ele>
        <time>2023-03-15T08:35:49.000Z</time>
      </trkpt>
      <trkpt lat="43.58633" lon="6.22844">
        <ele>436.7</ele>
        <time>2023-03-15T08:35:56.000Z</time>
      </trkpt>
      <trkpt lat="43.58638" lon="6.22841">
        <ele>436.8</ele>
        <time>2023-03-15T08:36:00.000Z</time>
      </trkpt>
      <trkpt lat="43.58642" lon="6.22839">
        <ele>437.3</ele>
        <time>2023-03-15T08:36:16.000Z</time>
      </trkpt>
      <trkpt lat="43.58647" lon="6.22839">
        <ele>437.5</ele>
        <time>2023-03-15T08:36:27.000Z</time>
      </trkpt>
      <trkpt lat="43.58651" lon="6.22836">
        <ele>437.6</ele>
        <time>2023-03-15T08:36:33.000Z</time>
      </trkpt>
      <trkpt lat="43.58656" lon="6.22832">
        <ele>437.7</ele>
        <time>2023-03-15T08:36:42.000Z</time>
      </trkpt>
      <trkpt lat="43.58661" lon="6.22829">
        <ele>437.9</ele>
        <time>2023-03-15T08:36:49.000Z</time>
      </trkpt>
      <trkpt lat="43.58665" lon="6.22826">
        <ele>438</ele>
        <time>2023-03-15T08:36:55.000Z</time>
      </trkpt>
      <trkpt lat="43.58669" lon="6.22823">
        <ele>438.2</ele>
        <time>2023-03-15T08:37:07.000Z</time>
      </trkpt>
      <trkpt lat="43.58673" lon="6.2282">
        <ele>438.4</ele>
        <time>2023-03-15T08:37:20.000Z</time>
      </trkpt>
      <trkpt lat="43.58678" lon="6.22821">
        <ele>438.5</ele>
        <time>2023-03-15T08:37:28.000Z</time>
      </trkpt>
      <trkpt lat="43.58683" lon="6.2282">
        <ele>438.6</ele>
        <time>2023-03-15T08:37:36.000Z</time>
      </trkpt>
      <trkpt lat="43.58687" lon="6.22818">
        <ele>439</ele>
        <time>2023-03-15T08:37:47.000Z</time>
      </trkpt>
      <trkpt lat="43.58692" lon="6.22818">
        <ele>439.2</ele>
        <time>2023-03-15T08:37:54.000Z</time>
      </trkpt>
      <trkpt lat="43.58697" lon="6.22817">
        <ele>439.3</ele>
        <time>2023-03-15T08:37:59.000Z</time>
      </trkpt>
      <trkpt lat="43.58702" lon="6.22815">
        <ele>439.4</ele>
        <time>2023-03-15T08:38:03.000Z</time>
      </trkpt>
      <trkpt lat="43.58707" lon="6.22815">
        <ele>439.6</ele>
        <time>2023-03-15T08:38:08.000Z</time>
      </trkpt>
      <trkpt lat="43.58711" lon="6.22812">
        <ele>439.7</ele>
        <time>2023-03-15T08:38:12.000Z</time>
      </trkpt>
      <trkpt lat="43.58715" lon="6.22807">
        <ele>439.9</ele>
        <time>2023-03-15T08:38:19.000Z</time>
      </trkpt>
      <trkpt lat="43.58717" lon="6.22801">
        <ele>439.7</ele>
        <time>2023-03-15T08:38:24.000Z</time>
      </trkpt>
      <trkpt lat="43.58718" lon="6.22794">
        <ele>438.7</ele>
        <time>2023-03-15T08:38:36.000Z</time>
      </trkpt>
      <trkpt lat="43.58719" lon="6.22788">
        <ele>438</ele>
        <time>2023-03-15T08:38:42.000Z</time>
      </trkpt>
      <trkpt lat="43.58719" lon="6.22781">
        <ele>436.9</ele>
        <time>2023-03-15T08:38:51.000Z</time>
      </trkpt>
      <trkpt lat="43.58719" lon="6.22774">
        <ele>436.4</ele>
        <time>2023-03-15T08:38:55.000Z</time>
      </trkpt>
      <trkpt lat="43.5872" lon="6.22767">
        <ele>435.4</ele>
        <time>2023-03-15T08:39:03.000Z</time>
      </trkpt>
      <trkpt lat="43.58718" lon="6.22761">
        <ele>434.2</ele>
        <time>2023-03-15T08:39:13.000Z</time>
      </trkpt>
      <trkpt lat="43.58719" lon="6.22755">
        <ele>432.5</ele>
        <time>2023-03-15T08:39:29.000Z</time>
      </trkpt>
      <trkpt lat="43.58722" lon="6.22749">
        <ele>431.4</ele>
        <time>2023-03-15T08:39:39.000Z</time>
      </trkpt>
      <trkpt lat="43.58725" lon="6.22743">
        <ele>430.6</ele>
        <time>2023-03-15T08:39:46.000Z</time>
      </trkpt>
      <trkpt lat="43.58728" lon="6.22738">
        <ele>429.9</ele>
        <time>2023-03-15T08:39:53.000Z</time>
      </trkpt>
      <trkpt lat="43.58729" lon="6.22732">
        <ele>429.3</ele>
        <time>2023-03-15T08:39:58.000Z</time>
      </trkpt>
      <trkpt lat="43.5873" lon="6.22725">
        <ele>427.1</ele>
        <time>2023-03-15T08:40:16.000Z</time>
      </trkpt>
      <trkpt lat="43.58735" lon="6.22724">
        <ele>426.1</ele>
        <time>2023-03-15T08:40:25.000Z</time>
      </trkpt>
      <trkpt lat="43.5874" lon="6.22724">
        <ele>423.6</ele>
        <time>2023-03-15T08:40:42.000Z</time>
      </trkpt>
      <trkpt lat="43.58745" lon="6.22723">
        <ele>422.5</ele>
        <time>2023-03-15T08:40:49.000Z</time>
      </trkpt>
      <trkpt lat="43.58749" lon="6.22721">
        <ele>421.1</ele>
        <time>2023-03-15T08:40:58.000Z</time>
      </trkpt>
      <trkpt lat="43.58753" lon="6.22725">
        <ele>419.9</ele>
        <time>2023-03-15T08:41:07.000Z</time>
      </trkpt>
      <trkpt lat="43.58757" lon="6.22729">
        <ele>418.9</ele>
        <time>2023-03-15T08:41:15.000Z</time>
      </trkpt>
      <trkpt lat="43.58761" lon="6.22734">
        <ele>418.1</ele>
        <time>2023-03-15T08:41:21.000Z</time>
      </trkpt>
      <trkpt lat="43.58765" lon="6.22737">
        <ele>417.1</ele>
        <time>2023-03-15T08:41:27.000Z</time>
      </trkpt>
      <trkpt lat="43.5877" lon="6.22739">
        <ele>416.4</ele>
        <time>2023-03-15T08:41:31.000Z</time>
      </trkpt>
      <trkpt lat="43.58775" lon="6.22741">
        <ele>415.7</ele>
        <time>2023-03-15T08:41:36.000Z</time>
      </trkpt>
      <trkpt lat="43.5878" lon="6.22742">
        <ele>415.1</ele>
        <time>2023-03-15T08:41:41.000Z</time>
      </trkpt>
      <trkpt lat="43.58785" lon="6.22744">
        <ele>414.2</ele>
        <time>2023-03-15T08:41:47.000Z</time>
      </trkpt>
      <trkpt lat="43.5879" lon="6.22744">
        <ele>413.7</ele>
        <time>2023-03-15T08:41:52.000Z</time>
      </trkpt>
      <trkpt lat="43.58794" lon="6.22741">
        <ele>413.2</ele>
        <time>2023-03-15T08:41:58.000Z</time>
      </trkpt>
      <trkpt lat="43.58799" lon="6.22739">
        <ele>412.7</ele>
        <time>2023-03-15T08:42:03.000Z</time>
      </trkpt>
      <trkpt lat="43.58804" lon="6.22738">
        <ele>412.1</ele>
        <time>2023-03-15T08:42:09.000Z</time>
      </trkpt>
      <trkpt lat="43.58809" lon="6.22738">
        <ele>411.2</ele>
        <time>2023-03-15T08:42:22.000Z</time>
      </trkpt>
      <trkpt lat="43.58814" lon="6.22737">
        <ele>410.6</ele>
        <time>2023-03-15T08:42:36.000Z</time>
      </trkpt>
      <trkpt lat="43.58816" lon="6.22731">
        <ele>410.5</ele>
        <time>2023-03-15T08:42:54.000Z</time>
      </trkpt>
      <trkpt lat="43.58821" lon="6.22732">
        <ele>411.1</ele>
        <time>2023-03-15T08:43:20.000Z</time>
      </trkpt>
      <trkpt lat="43.58817" lon="6.22736">
        <ele>411.5</ele>
        <time>2023-03-15T08:43:53.000Z</time>
      </trkpt>
      <trkpt lat="43.58814" lon="6.2274">
        <ele>411.6</ele>
        <time>2023-03-15T08:44:00.000Z</time>
      </trkpt>
      <trkpt lat="43.58818" lon="6.22736">
        <ele>411.3</ele>
        <time>2023-03-15T08:44:55.000Z</time>
      </trkpt>
      <trkpt lat="43.58822" lon="6.22734">
        <ele>411.1</ele>
        <time>2023-03-15T08:45:02.000Z</time>
      </trkpt>
      <trkpt lat="43.58826" lon="6.22731">
        <ele>411</ele>
        <time>2023-03-15T08:45:12.000Z</time>
      </trkpt>
      <trkpt lat="43.58829" lon="6.22736">
        <ele>411.6</ele>
        <time>2023-03-15T08:45:27.000Z</time>
      </trkpt>
      <trkpt lat="43.5883" lon="6.22742">
        <ele>412.6</ele>
        <time>2023-03-15T08:45:38.000Z</time>
      </trkpt>
      <trkpt lat="43.58826" lon="6.22745">
        <ele>413.8</ele>
        <time>2023-03-15T08:45:48.000Z</time>
      </trkpt>
      <trkpt lat="43.58825" lon="6.22751">
        <ele>415.5</ele>
        <time>2023-03-15T08:45:59.000Z</time>
      </trkpt>
      <trkpt lat="43.58822" lon="6.22756">
        <ele>416.3</ele>
        <time>2023-03-15T08:46:06.000Z</time>
      </trkpt>
      <trkpt lat="43.58823" lon="6.22763">
        <ele>417.3</ele>
        <time>2023-03-15T08:46:14.000Z</time>
      </trkpt>
      <trkpt lat="43.58827" lon="6.22767">
        <ele>418</ele>
        <time>2023-03-15T08:46:19.000Z</time>
      </trkpt>
      <trkpt lat="43.58826" lon="6.22774">
        <ele>420.1</ele>
        <time>2023-03-15T08:46:31.000Z</time>
      </trkpt>
      <trkpt lat="43.58827" lon="6.2278">
        <ele>420.7</ele>
        <time>2023-03-15T08:46:36.000Z</time>
      </trkpt>
      <trkpt lat="43.58828" lon="6.22787">
        <ele>421.5</ele>
        <time>2023-03-15T08:46:45.000Z</time>
      </trkpt>
      <trkpt lat="43.5883" lon="6.22792">
        <ele>422.3</ele>
        <time>2023-03-15T08:46:56.000Z</time>
      </trkpt>
      <trkpt lat="43.58833" lon="6.22797">
        <ele>422.9</ele>
        <time>2023-03-15T08:47:04.000Z</time>
      </trkpt>
      <trkpt lat="43.58836" lon="6.22802">
        <ele>425.5</ele>
        <time>2023-03-15T08:47:27.000Z</time>
      </trkpt>
      <trkpt lat="43.5884" lon="6.22805">
        <ele>426.7</ele>
        <time>2023-03-15T08:47:36.000Z</time>
      </trkpt>
      <trkpt lat="43.58845" lon="6.22807">
        <ele>428</ele>
        <time>2023-03-15T08:47:47.000Z</time>
      </trkpt>
      <trkpt lat="43.58849" lon="6.22811">
        <ele>429.7</ele>
        <time>2023-03-15T08:47:58.000Z</time>
      </trkpt>
      <trkpt lat="43.5885" lon="6.22817">
        <ele>431.1</ele>
        <time>2023-03-15T08:48:07.000Z</time>
      </trkpt>
      <trkpt lat="43.58853" lon="6.22822">
        <ele>433.1</ele>
        <time>2023-03-15T08:48:19.000Z</time>
      </trkpt>
      <trkpt lat="43.58858" lon="6.22823">
        <ele>434.2</ele>
        <time>2023-03-15T08:48:27.000Z</time>
      </trkpt>
      <trkpt lat="43.5886" lon="6.22829">
        <ele>436.3</ele>
        <time>2023-03-15T08:48:42.000Z</time>
      </trkpt>
      <trkpt lat="43.58863" lon="6.22833">
        <ele>438.5</ele>
        <time>2023-03-15T08:48:54.000Z</time>
      </trkpt>
      <trkpt lat="43.58865" lon="6.2284">
        <ele>439.7</ele>
        <time>2023-03-15T08:49:03.000Z</time>
      </trkpt>
      <trkpt lat="43.58868" lon="6.22843">
        <ele>440.4</ele>
        <time>2023-03-15T08:49:09.000Z</time>
      </trkpt>
      <trkpt lat="43.58873" lon="6.22847">
        <ele>441.1</ele>
        <time>2023-03-15T08:49:15.000Z</time>
      </trkpt>
      <trkpt lat="43.58877" lon="6.22851">
        <ele>441.8</ele>
        <time>2023-03-15T08:49:23.000Z</time>
      </trkpt>
      <trkpt lat="43.5888" lon="6.22856">
        <ele>443.5</ele>
        <time>2023-03-15T08:49:36.000Z</time>
      </trkpt>
      <trkpt lat="43.58883" lon="6.22861">
        <ele>444.6</ele>
        <time>2023-03-15T08:49:44.000Z</time>
      </trkpt>
      <trkpt lat="43.58886" lon="6.22866">
        <ele>445.3</ele>
        <time>2023-03-15T08:49:50.000Z</time>
      </trkpt>
      <trkpt lat="43.58887" lon="6.22872">
        <ele>446.4</ele>
        <time>2023-03-15T08:49:58.000Z</time>
      </trkpt>
      <trkpt lat="43.58887" lon="6.22879">
        <ele>448</ele>
        <time>2023-03-15T08:50:09.000Z</time>
      </trkpt>
      <trkpt lat="43.58887" lon="6.22885">
        <ele>449.1</ele>
        <time>2023-03-15T08:50:16.000Z</time>
      </trkpt>
      <trkpt lat="43.58884" lon="6.22891">
        <ele>449.8</ele>
        <time>2023-03-15T08:50:23.000Z</time>
      </trkpt>
      <trkpt lat="43.5888" lon="6.22895">
        <ele>450.2</ele>
        <time>2023-03-15T08:50:28.000Z</time>
      </trkpt>
      <trkpt lat="43.58878" lon="6.229">
        <ele>450.4</ele>
        <time>2023-03-15T08:50:33.000Z</time>
      </trkpt>
      <trkpt lat="43.58877" lon="6.22906">
        <ele>451.1</ele>
        <time>2023-03-15T08:50:41.000Z</time>
      </trkpt>
      <trkpt lat="43.58878" lon="6.22913">
        <ele>451.6</ele>
        <time>2023-03-15T08:50:48.000Z</time>
      </trkpt>
      <trkpt lat="43.5888" lon="6.22919">
        <ele>452.5</ele>
        <time>2023-03-15T08:50:56.000Z</time>
      </trkpt>
      <trkpt lat="43.58883" lon="6.22924">
        <ele>453.1</ele>
        <time>2023-03-15T08:51:00.000Z</time>
      </trkpt>
      <trkpt lat="43.58887" lon="6.22928">
        <ele>454</ele>
        <time>2023-03-15T08:51:06.000Z</time>
      </trkpt>
      <trkpt lat="43.58889" lon="6.22935">
        <ele>455.1</ele>
        <time>2023-03-15T08:51:13.000Z</time>
      </trkpt>
      <trkpt lat="43.58888" lon="6.22942">
        <ele>456</ele>
        <time>2023-03-15T08:51:20.000Z</time>
      </trkpt>
      <trkpt lat="43.58889" lon="6.22948">
        <ele>456.7</ele>
        <time>2023-03-15T08:51:26.000Z</time>
      </trkpt>
      <trkpt lat="43.5889" lon="6.22954">
        <ele>457.4</ele>
        <time>2023-03-15T08:51:32.000Z</time>
      </trkpt>
      <trkpt lat="43.58893" lon="6.22959">
        <ele>458.1</ele>
        <time>2023-03-15T08:51:38.000Z</time>
      </trkpt>
      <trkpt lat="43.58893" lon="6.22966">
        <ele>458.9</ele>
        <time>2023-03-15T08:51:45.000Z</time>
      </trkpt>
      <trkpt lat="43.58893" lon="6.22973">
        <ele>459.8</ele>
        <time>2023-03-15T08:51:54.000Z</time>
      </trkpt>
      <trkpt lat="43.58894" lon="6.2298">
        <ele>460.4</ele>
        <time>2023-03-15T08:52:01.000Z</time>
      </trkpt>
      <trkpt lat="43.58897" lon="6.22985">
        <ele>461.2</ele>
        <time>2023-03-15T08:52:15.000Z</time>
      </trkpt>
      <trkpt lat="43.58901" lon="6.22988">
        <ele>461.7</ele>
        <time>2023-03-15T08:52:43.000Z</time>
      </trkpt>
      <trkpt lat="43.58897" lon="6.22986">
        <ele>463.2</ele>
        <time>2023-03-15T08:54:37.000Z</time>
      </trkpt>
      <trkpt lat="43.58901" lon="6.22989">
        <ele>463.6</ele>
        <time>2023-03-15T08:55:53.000Z</time>
      </trkpt>
      <trkpt lat="43.58901" lon="6.22996">
        <ele>463.9</ele>
        <time>2023-03-15T08:56:12.000Z</time>
      </trkpt>
      <trkpt lat="43.58899" lon="6.23002">
        <ele>464</ele>
        <time>2023-03-15T08:56:19.000Z</time>
      </trkpt>
      <trkpt lat="43.58896" lon="6.23008">
        <ele>464.1</ele>
        <time>2023-03-15T08:56:26.000Z</time>
      </trkpt>
      <trkpt lat="43.58892" lon="6.23012">
        <ele>464</ele>
        <time>2023-03-15T08:56:31.000Z</time>
      </trkpt>
      <trkpt lat="43.58888" lon="6.23015">
        <ele>463.7</ele>
        <time>2023-03-15T08:56:37.000Z</time>
      </trkpt>
      <trkpt lat="43.58883" lon="6.23013">
        <ele>463.2</ele>
        <time>2023-03-15T08:56:48.000Z</time>
      </trkpt>
      <trkpt lat="43.5888" lon="6.23008">
        <ele>462.6</ele>
        <time>2023-03-15T08:56:55.000Z</time>
      </trkpt>
      <trkpt lat="43.58875" lon="6.23008">
        <ele>461.8</ele>
        <time>2023-03-15T08:57:01.000Z</time>
      </trkpt>
      <trkpt lat="43.5887" lon="6.23009">
        <ele>461.5</ele>
        <time>2023-03-15T08:57:04.000Z</time>
      </trkpt>
      <trkpt lat="43.58866" lon="6.23012">
        <ele>461.2</ele>
        <time>2023-03-15T08:57:07.000Z</time>
      </trkpt>
      <trkpt lat="43.58861" lon="6.23017">
        <ele>460.9</ele>
        <time>2023-03-15T08:57:11.000Z</time>
      </trkpt>
      <trkpt lat="43.58857" lon="6.2302">
        <ele>460.7</ele>
        <time>2023-03-15T08:57:14.000Z</time>
      </trkpt>
      <trkpt lat="43.58853" lon="6.23024">
        <ele>460.2</ele>
        <time>2023-03-15T08:57:19.000Z</time>
      </trkpt>
      <trkpt lat="43.58849" lon="6.23028">
        <ele>459.8</ele>
        <time>2023-03-15T08:57:23.000Z</time>
      </trkpt>
      <trkpt lat="43.58845" lon="6.23031">
        <ele>459.3</ele>
        <time>2023-03-15T08:57:27.000Z</time>
      </trkpt>
      <trkpt lat="43.58842" lon="6.23036">
        <ele>458.2</ele>
        <time>2023-03-15T08:57:38.000Z</time>
      </trkpt>
      <trkpt lat="43.58836" lon="6.23037">
        <ele>457.2</ele>
        <time>2023-03-15T08:57:47.000Z</time>
      </trkpt>
      <trkpt lat="43.58832" lon="6.23041">
        <ele>456.3</ele>
        <time>2023-03-15T08:57:53.000Z</time>
      </trkpt>
      <trkpt lat="43.58827" lon="6.23043">
        <ele>454.3</ele>
        <time>2023-03-15T08:58:06.000Z</time>
      </trkpt>
      <trkpt lat="43.58823" lon="6.23042">
        <ele>453.2</ele>
        <time>2023-03-15T08:58:13.000Z</time>
      </trkpt>
      <trkpt lat="43.58819" lon="6.23038">
        <ele>451.1</ele>
        <time>2023-03-15T08:58:26.000Z</time>
      </trkpt>
      <trkpt lat="43.58815" lon="6.23039">
        <ele>449.9</ele>
        <time>2023-03-15T08:58:32.000Z</time>
      </trkpt>
      <trkpt lat="43.5881" lon="6.23039">
        <ele>449.2</ele>
        <time>2023-03-15T08:58:36.000Z</time>
      </trkpt>
      <trkpt lat="43.58804" lon="6.23041">
        <ele>448.4</ele>
        <time>2023-03-15T08:58:41.000Z</time>
      </trkpt>
      <trkpt lat="43.588" lon="6.23043">
        <ele>447.8</ele>
        <time>2023-03-15T08:58:45.000Z</time>
      </trkpt>
      <trkpt lat="43.58794" lon="6.23045">
        <ele>447.3</ele>
        <time>2023-03-15T08:58:49.000Z</time>
      </trkpt>
      <trkpt lat="43.58791" lon="6.2305">
        <ele>446.9</ele>
        <time>2023-03-15T08:58:53.000Z</time>
      </trkpt>
      <trkpt lat="43.58786" lon="6.23053">
        <ele>446.4</ele>
        <time>2023-03-15T08:58:58.000Z</time>
      </trkpt>
      <trkpt lat="43.5878" lon="6.23055">
        <ele>445.8</ele>
        <time>2023-03-15T08:59:04.000Z</time>
      </trkpt>
      <trkpt lat="43.58776" lon="6.23057">
        <ele>445.3</ele>
        <time>2023-03-15T08:59:09.000Z</time>
      </trkpt>
      <trkpt lat="43.58771" lon="6.23061">
        <ele>444.7</ele>
        <time>2023-03-15T08:59:15.000Z</time>
      </trkpt>
      <trkpt lat="43.58767" lon="6.23065">
        <ele>444.4</ele>
        <time>2023-03-15T08:59:19.000Z</time>
      </trkpt>
      <trkpt lat="43.58762" lon="6.23067">
        <ele>444.1</ele>
        <time>2023-03-15T08:59:23.000Z</time>
      </trkpt>
      <trkpt lat="43.58759" lon="6.23072">
        <ele>443.9</ele>
        <time>2023-03-15T08:59:28.000Z</time>
      </trkpt>
      <trkpt lat="43.58755" lon="6.23076">
        <ele>443.7</ele>
        <time>2023-03-15T08:59:32.000Z</time>
      </trkpt>
      <trkpt lat="43.58751" lon="6.23079">
        <ele>443.6</ele>
        <time>2023-03-15T08:59:37.000Z</time>
      </trkpt>
      <trkpt lat="43.58747" lon="6.23082">
        <ele>443.5</ele>
        <time>2023-03-15T08:59:43.000Z</time>
      </trkpt>
      <trkpt lat="43.58743" lon="6.23086">
        <ele>443.5</ele>
        <time>2023-03-15T08:59:48.000Z</time>
      </trkpt>
      <trkpt lat="43.58739" lon="6.2309">
        <ele>443.4</ele>
        <time>2023-03-15T08:59:54.000Z</time>
      </trkpt>
      <trkpt lat="43.58735" lon="6.23093">
        <ele>443.4</ele>
        <time>2023-03-15T08:59:59.000Z</time>
      </trkpt>
      <trkpt lat="43.5873" lon="6.23097">
        <ele>443.4</ele>
        <time>2023-03-15T09:00:05.000Z</time>
      </trkpt>
      <trkpt lat="43.58725" lon="6.23101">
        <ele>443.5</ele>
        <time>2023-03-15T09:00:12.000Z</time>
      </trkpt>
      <trkpt lat="43.58721" lon="6.23102">
        <ele>443.6</ele>
        <time>2023-03-15T09:00:16.000Z</time>
      </trkpt>
      <trkpt lat="43.58716" lon="6.231">
        <ele>443.7</ele>
        <time>2023-03-15T09:00:21.000Z</time>
      </trkpt>
      <trkpt lat="43.58712" lon="6.23097">
        <ele>443.7</ele>
        <time>2023-03-15T09:00:26.000Z</time>
      </trkpt>
      <trkpt lat="43.58709" lon="6.23092">
        <ele>443.8</ele>
        <time>2023-03-15T09:00:32.000Z</time>
      </trkpt>
      <trkpt lat="43.58707" lon="6.23086">
        <ele>443.9</ele>
        <time>2023-03-15T09:00:43.000Z</time>
      </trkpt>
      <trkpt lat="43.58703" lon="6.23084">
        <ele>443.7</ele>
        <time>2023-03-15T09:00:50.000Z</time>
      </trkpt>
      <trkpt lat="43.58698" lon="6.23082">
        <ele>443.4</ele>
        <time>2023-03-15T09:00:57.000Z</time>
      </trkpt>
      <trkpt lat="43.58694" lon="6.23078">
        <ele>442.7</ele>
        <time>2023-03-15T09:01:04.000Z</time>
      </trkpt>
      <trkpt lat="43.5869" lon="6.23076">
        <ele>442.2</ele>
        <time>2023-03-15T09:01:10.000Z</time>
      </trkpt>
      <trkpt lat="43.58685" lon="6.23079">
        <ele>441.9</ele>
        <time>2023-03-15T09:01:16.000Z</time>
      </trkpt>
      <trkpt lat="43.58681" lon="6.23082">
        <ele>442</ele>
        <time>2023-03-15T09:01:22.000Z</time>
      </trkpt>
      <trkpt lat="43.58676" lon="6.23084">
        <ele>442.4</ele>
        <time>2023-03-15T09:01:28.000Z</time>
      </trkpt>
      <trkpt lat="43.58671" lon="6.23082">
        <ele>442.7</ele>
        <time>2023-03-15T09:01:33.000Z</time>
      </trkpt>
      <trkpt lat="43.58667" lon="6.23086">
        <ele>443</ele>
        <time>2023-03-15T09:01:39.000Z</time>
      </trkpt>
      <trkpt lat="43.58662" lon="6.23085">
        <ele>443.3</ele>
        <time>2023-03-15T09:01:45.000Z</time>
      </trkpt>
      <trkpt lat="43.58657" lon="6.23084">
        <ele>443.4</ele>
        <time>2023-03-15T09:01:51.000Z</time>
      </trkpt>
      <trkpt lat="43.58653" lon="6.23085">
        <ele>443.4</ele>
        <time>2023-03-15T09:01:57.000Z</time>
      </trkpt>
      <trkpt lat="43.58648" lon="6.23087">
        <ele>443</ele>
        <time>2023-03-15T09:02:07.000Z</time>
      </trkpt>
      <trkpt lat="43.58644" lon="6.2309">
        <ele>442.6</ele>
        <time>2023-03-15T09:02:16.000Z</time>
      </trkpt>
      <trkpt lat="43.5864" lon="6.23092">
        <ele>442.4</ele>
        <time>2023-03-15T09:02:23.000Z</time>
      </trkpt>
      <trkpt lat="43.58636" lon="6.23088">
        <ele>441.4</ele>
        <time>2023-03-15T09:02:39.000Z</time>
      </trkpt>
      <trkpt lat="43.58631" lon="6.23087">
        <ele>440.6</ele>
        <time>2023-03-15T09:02:46.000Z</time>
      </trkpt>
      <trkpt lat="43.58627" lon="6.23084">
        <ele>439.7</ele>
        <time>2023-03-15T09:02:53.000Z</time>
      </trkpt>
      <trkpt lat="43.58622" lon="6.23086">
        <ele>438.6</ele>
        <time>2023-03-15T09:03:01.000Z</time>
      </trkpt>
      <trkpt lat="43.58618" lon="6.2309">
        <ele>437.8</ele>
        <time>2023-03-15T09:03:11.000Z</time>
      </trkpt>
      <trkpt lat="43.58614" lon="6.23092">
        <ele>435.6</ele>
        <time>2023-03-15T09:03:32.000Z</time>
      </trkpt>
      <trkpt lat="43.58611" lon="6.23098">
        <ele>434.3</ele>
        <time>2023-03-15T09:03:40.000Z</time>
      </trkpt>
      <trkpt lat="43.58611" lon="6.23104">
        <ele>433.8</ele>
        <time>2023-03-15T09:03:44.000Z</time>
      </trkpt>
      <trkpt lat="43.58611" lon="6.23111">
        <ele>433.3</ele>
        <time>2023-03-15T09:03:50.000Z</time>
      </trkpt>
      <trkpt lat="43.5861" lon="6.23117">
        <ele>433</ele>
        <time>2023-03-15T09:03:55.000Z</time>
      </trkpt>
      <trkpt lat="43.58609" lon="6.23123">
        <ele>432.9</ele>
        <time>2023-03-15T09:04:11.000Z</time>
      </trkpt>
      <trkpt lat="43.58605" lon="6.23127">
        <ele>432.2</ele>
        <time>2023-03-15T09:04:32.000Z</time>
      </trkpt>
      <trkpt lat="43.58609" lon="6.2313">
        <ele>431.6</ele>
        <time>2023-03-15T09:05:14.000Z</time>
      </trkpt>
      <trkpt lat="43.58606" lon="6.23135">
        <ele>430.2</ele>
        <time>2023-03-15T09:08:37.000Z</time>
      </trkpt>
      <trkpt lat="43.58609" lon="6.2313">
        <ele>430.5</ele>
        <time>2023-03-15T09:10:53.000Z</time>
      </trkpt>
      <trkpt lat="43.58613" lon="6.23133">
        <ele>430.9</ele>
        <time>2023-03-15T09:11:24.000Z</time>
      </trkpt>
      <trkpt lat="43.58617" lon="6.2313">
        <ele>431</ele>
        <time>2023-03-15T09:11:30.000Z</time>
      </trkpt>
      <trkpt lat="43.58622" lon="6.23128">
        <ele>432.3</ele>
        <time>2023-03-15T09:11:44.000Z</time>
      </trkpt>
      <trkpt lat="43.58625" lon="6.23122">
        <ele>432.9</ele>
        <time>2023-03-15T09:11:51.000Z</time>
      </trkpt>
      <trkpt lat="43.58629" lon="6.23119">
        <ele>433.8</ele>
        <time>2023-03-15T09:12:03.000Z</time>
      </trkpt>
      <trkpt lat="43.58633" lon="6.23117">
        <ele>434.6</ele>
        <time>2023-03-15T09:12:15.000Z</time>
      </trkpt>
      <trkpt lat="43.58635" lon="6.23111">
        <ele>435.6</ele>
        <time>2023-03-15T09:12:29.000Z</time>
      </trkpt>
      <trkpt lat="43.58637" lon="6.23105">
        <ele>436.5</ele>
        <time>2023-03-15T09:12:37.000Z</time>
      </trkpt>
      <trkpt lat="43.58634" lon="6.231">
        <ele>438</ele>
        <time>2023-03-15T09:12:48.000Z</time>
      </trkpt>
      <trkpt lat="43.58638" lon="6.23098">
        <ele>439.2</ele>
        <time>2023-03-15T09:13:07.000Z</time>
      </trkpt>
      <trkpt lat="43.58643" lon="6.23097">
        <ele>439.5</ele>
        <time>2023-03-15T09:13:15.000Z</time>
      </trkpt>
      <trkpt lat="43.58648" lon="6.23093">
        <ele>440</ele>
        <time>2023-03-15T09:13:24.000Z</time>
      </trkpt>
      <trkpt lat="43.58652" lon="6.23093">
        <ele>440.3</ele>
        <time>2023-03-15T09:13:29.000Z</time>
      </trkpt>
      <trkpt lat="43.58657" lon="6.23093">
        <ele>440.9</ele>
        <time>2023-03-15T09:13:36.000Z</time>
      </trkpt>
      <trkpt lat="43.58662" lon="6.23093">
        <ele>441.7</ele>
        <time>2023-03-15T09:14:10.000Z</time>
      </trkpt>
      <trkpt lat="43.58666" lon="6.23092">
        <ele>442.2</ele>
        <time>2023-03-15T09:14:23.000Z</time>
      </trkpt>
      <trkpt lat="43.5867" lon="6.23087">
        <ele>442.3</ele>
        <time>2023-03-15T09:14:31.000Z</time>
      </trkpt>
      <trkpt lat="43.58674" lon="6.23088">
        <ele>442.3</ele>
        <time>2023-03-15T09:14:40.000Z</time>
      </trkpt>
      <trkpt lat="43.58679" lon="6.23086">
        <ele>442.3</ele>
        <time>2023-03-15T09:14:47.000Z</time>
      </trkpt>
      <trkpt lat="43.58683" lon="6.23084">
        <ele>441.9</ele>
        <time>2023-03-15T09:14:59.000Z</time>
      </trkpt>
      <trkpt lat="43.58688" lon="6.23084">
        <ele>441.6</ele>
        <time>2023-03-15T09:15:07.000Z</time>
      </trkpt>
      <trkpt lat="43.58692" lon="6.23086">
        <ele>441.4</ele>
        <time>2023-03-15T09:15:14.000Z</time>
      </trkpt>
      <trkpt lat="43.58697" lon="6.23087">
        <ele>441.6</ele>
        <time>2023-03-15T09:15:20.000Z</time>
      </trkpt>
      <trkpt lat="43.58701" lon="6.2309">
        <ele>442</ele>
        <time>2023-03-15T09:15:26.000Z</time>
      </trkpt>
      <trkpt lat="43.58704" lon="6.23096">
        <ele>442.3</ele>
        <time>2023-03-15T09:15:32.000Z</time>
      </trkpt>
      <trkpt lat="43.58707" lon="6.231">
        <ele>442.5</ele>
        <time>2023-03-15T09:15:37.000Z</time>
      </trkpt>
      <trkpt lat="43.58711" lon="6.23103">
        <ele>442.7</ele>
        <time>2023-03-15T09:15:41.000Z</time>
      </trkpt>
      <trkpt lat="43.58715" lon="6.23106">
        <ele>442.9</ele>
        <time>2023-03-15T09:15:45.000Z</time>
      </trkpt>
      <trkpt lat="43.58721" lon="6.23107">
        <ele>443</ele>
        <time>2023-03-15T09:15:50.000Z</time>
      </trkpt>
      <trkpt lat="43.58725" lon="6.23106">
        <ele>443.2</ele>
        <time>2023-03-15T09:15:55.000Z</time>
      </trkpt>
      <trkpt lat="43.5873" lon="6.23104">
        <ele>443.4</ele>
        <time>2023-03-15T09:16:00.000Z</time>
      </trkpt>
      <trkpt lat="43.58734" lon="6.231">
        <ele>443.4</ele>
        <time>2023-03-15T09:16:05.000Z</time>
      </trkpt>
      <trkpt lat="43.58738" lon="6.23096">
        <ele>443.4</ele>
        <time>2023-03-15T09:16:10.000Z</time>
      </trkpt>
      <trkpt lat="43.58741" lon="6.23091">
        <ele>443.4</ele>
        <time>2023-03-15T09:16:16.000Z</time>
      </trkpt>
      <trkpt lat="43.58746" lon="6.23088">
        <ele>443.5</ele>
        <time>2023-03-15T09:16:21.000Z</time>
      </trkpt>
      <trkpt lat="43.58751" lon="6.23086">
        <ele>443.5</ele>
        <time>2023-03-15T09:16:26.000Z</time>
      </trkpt>
      <trkpt lat="43.58755" lon="6.23081">
        <ele>443.4</ele>
        <time>2023-03-15T09:16:31.000Z</time>
      </trkpt>
      <trkpt lat="43.58759" lon="6.23077">
        <ele>443.5</ele>
        <time>2023-03-15T09:16:37.000Z</time>
      </trkpt>
      <trkpt lat="43.58764" lon="6.23076">
        <ele>443.7</ele>
        <time>2023-03-15T09:16:42.000Z</time>
      </trkpt>
      <trkpt lat="43.58768" lon="6.23072">
        <ele>443.8</ele>
        <time>2023-03-15T09:16:47.000Z</time>
      </trkpt>
      <trkpt lat="43.58772" lon="6.2307">
        <ele>443.8</ele>
        <time>2023-03-15T09:16:52.000Z</time>
      </trkpt>
      <trkpt lat="43.58777" lon="6.23067">
        <ele>443.8</ele>
        <time>2023-03-15T09:16:56.000Z</time>
      </trkpt>
      <trkpt lat="43.58782" lon="6.23064">
        <ele>443.9</ele>
        <time>2023-03-15T09:17:01.000Z</time>
      </trkpt>
      <trkpt lat="43.58786" lon="6.23061">
        <ele>444.1</ele>
        <time>2023-03-15T09:17:06.000Z</time>
      </trkpt>
      <trkpt lat="43.58791" lon="6.23059">
        <ele>444.2</ele>
        <time>2023-03-15T09:17:10.000Z</time>
      </trkpt>
      <trkpt lat="43.58795" lon="6.23054">
        <ele>444.5</ele>
        <time>2023-03-15T09:17:14.000Z</time>
      </trkpt>
      <trkpt lat="43.588" lon="6.23051">
        <ele>444.8</ele>
        <time>2023-03-15T09:17:19.000Z</time>
      </trkpt>
      <trkpt lat="43.58804" lon="6.23048">
        <ele>445</ele>
        <time>2023-03-15T09:17:23.000Z</time>
      </trkpt>
      <trkpt lat="43.58809" lon="6.23047">
        <ele>445.6</ele>
        <time>2023-03-15T09:17:29.000Z</time>
      </trkpt>
      <trkpt lat="43.58813" lon="6.23045">
        <ele>446.1</ele>
        <time>2023-03-15T09:17:34.000Z</time>
      </trkpt>
      <trkpt lat="43.58817" lon="6.23048">
        <ele>447.5</ele>
        <time>2023-03-15T09:17:44.000Z</time>
      </trkpt>
      <trkpt lat="43.58822" lon="6.23048">
        <ele>448.6</ele>
        <time>2023-03-15T09:17:51.000Z</time>
      </trkpt>
      <trkpt lat="43.58826" lon="6.2305">
        <ele>449.9</ele>
        <time>2023-03-15T09:18:00.000Z</time>
      </trkpt>
      <trkpt lat="43.5883" lon="6.23047">
        <ele>451.7</ele>
        <time>2023-03-15T09:18:10.000Z</time>
      </trkpt>
      <trkpt lat="43.58834" lon="6.23044">
        <ele>453</ele>
        <time>2023-03-15T09:18:19.000Z</time>
      </trkpt>
      <trkpt lat="43.58839" lon="6.23044">
        <ele>454.1</ele>
        <time>2023-03-15T09:18:27.000Z</time>
      </trkpt>
      <trkpt lat="43.58844" lon="6.23043">
        <ele>455.3</ele>
        <time>2023-03-15T09:18:36.000Z</time>
      </trkpt>
      <trkpt lat="43.58847" lon="6.23038">
        <ele>457.4</ele>
        <time>2023-03-15T09:18:59.000Z</time>
      </trkpt>
      <trkpt lat="43.58845" lon="6.23032">
        <ele>458</ele>
        <time>2023-03-15T09:19:40.000Z</time>
      </trkpt>
      <trkpt lat="43.58847" lon="6.2304">
        <ele>457.9</ele>
        <time>2023-03-15T09:20:18.000Z</time>
      </trkpt>
      <trkpt lat="43.58849" lon="6.23046">
        <ele>458</ele>
        <time>2023-03-15T09:20:24.000Z</time>
      </trkpt>
      <trkpt lat="43.58852" lon="6.23051">
        <ele>458</ele>
        <time>2023-03-15T09:20:29.000Z</time>
      </trkpt>
      <trkpt lat="43.58854" lon="6.23057">
        <ele>458</ele>
        <time>2023-03-15T09:20:34.000Z</time>
      </trkpt>
      <trkpt lat="43.58858" lon="6.23062">
        <ele>457.9</ele>
        <time>2023-03-15T09:20:39.000Z</time>
      </trkpt>
      <trkpt lat="43.58863" lon="6.23065">
        <ele>457.7</ele>
        <time>2023-03-15T09:20:45.000Z</time>
      </trkpt>
      <trkpt lat="43.58868" lon="6.23069">
        <ele>457.6</ele>
        <time>2023-03-15T09:20:50.000Z</time>
      </trkpt>
      <trkpt lat="43.58873" lon="6.23068">
        <ele>457.5</ele>
        <time>2023-03-15T09:20:57.000Z</time>
      </trkpt>
      <trkpt lat="43.58877" lon="6.23065">
        <ele>457.7</ele>
        <time>2023-03-15T09:21:05.000Z</time>
      </trkpt>
      <trkpt lat="43.58882" lon="6.23068">
        <ele>458</ele>
        <time>2023-03-15T09:21:12.000Z</time>
      </trkpt>
      <trkpt lat="43.58884" lon="6.23074">
        <ele>458.3</ele>
        <time>2023-03-15T09:21:22.000Z</time>
      </trkpt>
      <trkpt lat="43.58887" lon="6.23079">
        <ele>458</ele>
        <time>2023-03-15T09:21:28.000Z</time>
      </trkpt>
      <trkpt lat="43.58891" lon="6.23084">
        <ele>457.8</ele>
        <time>2023-03-15T09:21:32.000Z</time>
      </trkpt>
      <trkpt lat="43.58895" lon="6.23088">
        <ele>457.4</ele>
        <time>2023-03-15T09:21:36.000Z</time>
      </trkpt>
      <trkpt lat="43.58898" lon="6.23094">
        <ele>456.9</ele>
        <time>2023-03-15T09:21:42.000Z</time>
      </trkpt>
      <trkpt lat="43.58899" lon="6.231">
        <ele>456.5</ele>
        <time>2023-03-15T09:21:50.000Z</time>
      </trkpt>
      <trkpt lat="43.58902" lon="6.23106">
        <ele>456.1</ele>
        <time>2023-03-15T09:21:55.000Z</time>
      </trkpt>
      <trkpt lat="43.58904" lon="6.23112">
        <ele>455.6</ele>
        <time>2023-03-15T09:22:01.000Z</time>
      </trkpt>
      <trkpt lat="43.58904" lon="6.23119">
        <ele>454.8</ele>
        <time>2023-03-15T09:22:08.000Z</time>
      </trkpt>
      <trkpt lat="43.58907" lon="6.23124">
        <ele>454.1</ele>
        <time>2023-03-15T09:22:15.000Z</time>
      </trkpt>
      <trkpt lat="43.58909" lon="6.2313">
        <ele>453.6</ele>
        <time>2023-03-15T09:22:20.000Z</time>
      </trkpt>
      <trkpt lat="43.58912" lon="6.23135">
        <ele>453.3</ele>
        <time>2023-03-15T09:22:25.000Z</time>
      </trkpt>
      <trkpt lat="43.58914" lon="6.23141">
        <ele>453</ele>
        <time>2023-03-15T09:22:30.000Z</time>
      </trkpt>
      <trkpt lat="43.58916" lon="6.23148">
        <ele>452.7</ele>
        <time>2023-03-15T09:22:36.000Z</time>
      </trkpt>
      <trkpt lat="43.58917" lon="6.23154">
        <ele>452.6</ele>
        <time>2023-03-15T09:22:42.000Z</time>
      </trkpt>
      <trkpt lat="43.5892" lon="6.2316">
        <ele>452.5</ele>
        <time>2023-03-15T09:22:47.000Z</time>
      </trkpt>
      <trkpt lat="43.58924" lon="6.23164">
        <ele>452.4</ele>
        <time>2023-03-15T09:22:52.000Z</time>
      </trkpt>
      <trkpt lat="43.58926" lon="6.2317">
        <ele>451.8</ele>
        <time>2023-03-15T09:23:07.000Z</time>
      </trkpt>
      <trkpt lat="43.5893" lon="6.23175">
        <ele>451.7</ele>
        <time>2023-03-15T09:23:12.000Z</time>
      </trkpt>
      <trkpt lat="43.58933" lon="6.2318">
        <ele>451.7</ele>
        <time>2023-03-15T09:23:16.000Z</time>
      </trkpt>
      <trkpt lat="43.58937" lon="6.23185">
        <ele>451.7</ele>
        <time>2023-03-15T09:23:21.000Z</time>
      </trkpt>
      <trkpt lat="43.58939" lon="6.23191">
        <ele>451.8</ele>
        <time>2023-03-15T09:23:29.000Z</time>
      </trkpt>
      <trkpt lat="43.58939" lon="6.23198">
        <ele>451.9</ele>
        <time>2023-03-15T09:23:36.000Z</time>
      </trkpt>
      <trkpt lat="43.58939" lon="6.23205">
        <ele>451.8</ele>
        <time>2023-03-15T09:23:42.000Z</time>
      </trkpt>
      <trkpt lat="43.58938" lon="6.23212">
        <ele>451.5</ele>
        <time>2023-03-15T09:23:47.000Z</time>
      </trkpt>
      <trkpt lat="43.58939" lon="6.23219">
        <ele>451.3</ele>
        <time>2023-03-15T09:23:52.000Z</time>
      </trkpt>
      <trkpt lat="43.5894" lon="6.23226">
        <ele>451</ele>
        <time>2023-03-15T09:23:57.000Z</time>
      </trkpt>
      <trkpt lat="43.58943" lon="6.23232">
        <ele>450.8</ele>
        <time>2023-03-15T09:24:01.000Z</time>
      </trkpt>
      <trkpt lat="43.58946" lon="6.23238">
        <ele>450.5</ele>
        <time>2023-03-15T09:24:06.000Z</time>
      </trkpt>
      <trkpt lat="43.58948" lon="6.23243">
        <ele>449.9</ele>
        <time>2023-03-15T09:24:17.000Z</time>
      </trkpt>
      <trkpt lat="43.58951" lon="6.23248">
        <ele>449.8</ele>
        <time>2023-03-15T09:24:24.000Z</time>
      </trkpt>
      <trkpt lat="43.58954" lon="6.23253">
        <ele>449.8</ele>
        <time>2023-03-15T09:24:30.000Z</time>
      </trkpt>
      <trkpt lat="43.58958" lon="6.23258">
        <ele>449.5</ele>
        <time>2023-03-15T09:24:35.000Z</time>
      </trkpt>
      <trkpt lat="43.58959" lon="6.23265">
        <ele>448.8</ele>
        <time>2023-03-15T09:24:43.000Z</time>
      </trkpt>
      <trkpt lat="43.5896" lon="6.23272">
        <ele>448.3</ele>
        <time>2023-03-15T09:24:50.000Z</time>
      </trkpt>
      <trkpt lat="43.58962" lon="6.23278">
        <ele>447.9</ele>
        <time>2023-03-15T09:24:54.000Z</time>
      </trkpt>
      <trkpt lat="43.58966" lon="6.23283">
        <ele>447.5</ele>
        <time>2023-03-15T09:24:57.000Z</time>
      </trkpt>
      <trkpt lat="43.58971" lon="6.23285">
        <ele>447</ele>
        <time>2023-03-15T09:25:01.000Z</time>
      </trkpt>
      <trkpt lat="43.58975" lon="6.23289">
        <ele>446.7</ele>
        <time>2023-03-15T09:25:06.000Z</time>
      </trkpt>
      <trkpt lat="43.5898" lon="6.23292">
        <ele>446.5</ele>
        <time>2023-03-15T09:25:11.000Z</time>
      </trkpt>
      <trkpt lat="43.58984" lon="6.23295">
        <ele>446.4</ele>
        <time>2023-03-15T09:25:14.000Z</time>
      </trkpt>
      <trkpt lat="43.58988" lon="6.23298">
        <ele>446.3</ele>
        <time>2023-03-15T09:25:18.000Z</time>
      </trkpt>
      <trkpt lat="43.58993" lon="6.23301">
        <ele>446.2</ele>
        <time>2023-03-15T09:25:23.000Z</time>
      </trkpt>
      <trkpt lat="43.58998" lon="6.23302">
        <ele>446.1</ele>
        <time>2023-03-15T09:25:27.000Z</time>
      </trkpt>
      <trkpt lat="43.59004" lon="6.23301">
        <ele>446.1</ele>
        <time>2023-03-15T09:25:31.000Z</time>
      </trkpt>
      <trkpt lat="43.59009" lon="6.233">
        <ele>446.1</ele>
        <time>2023-03-15T09:25:35.000Z</time>
      </trkpt>
      <trkpt lat="43.59014" lon="6.23298">
        <ele>446.1</ele>
        <time>2023-03-15T09:25:40.000Z</time>
      </trkpt>
      <trkpt lat="43.59018" lon="6.23296">
        <ele>446.1</ele>
        <time>2023-03-15T09:25:44.000Z</time>
      </trkpt>
      <trkpt lat="43.59023" lon="6.23295">
        <ele>446.2</ele>
        <time>2023-03-15T09:25:48.000Z</time>
      </trkpt>
      <trkpt lat="43.59029" lon="6.23292">
        <ele>446.4</ele>
        <time>2023-03-15T09:25:53.000Z</time>
      </trkpt>
      <trkpt lat="43.59034" lon="6.2329">
        <ele>446.5</ele>
        <time>2023-03-15T09:25:57.000Z</time>
      </trkpt>
      <trkpt lat="43.59039" lon="6.23287">
        <ele>446.6</ele>
        <time>2023-03-15T09:26:01.000Z</time>
      </trkpt>
      <trkpt lat="43.59044" lon="6.23284">
        <ele>446.6</ele>
        <time>2023-03-15T09:26:05.000Z</time>
      </trkpt>
      <trkpt lat="43.59049" lon="6.23283">
        <ele>447</ele>
        <time>2023-03-15T09:26:10.000Z</time>
      </trkpt>
      <trkpt lat="43.59053" lon="6.2328">
        <ele>447.3</ele>
        <time>2023-03-15T09:26:14.000Z</time>
      </trkpt>
      <trkpt lat="43.59058" lon="6.23278">
        <ele>447.6</ele>
        <time>2023-03-15T09:26:18.000Z</time>
      </trkpt>
      <trkpt lat="43.59063" lon="6.23275">
        <ele>447.9</ele>
        <time>2023-03-15T09:26:23.000Z</time>
      </trkpt>
      <trkpt lat="43.59068" lon="6.23275">
        <ele>448</ele>
        <time>2023-03-15T09:26:28.000Z</time>
      </trkpt>
      <trkpt lat="43.59073" lon="6.23272">
        <ele>448.2</ele>
        <time>2023-03-15T09:26:33.000Z</time>
      </trkpt>
      <trkpt lat="43.59077" lon="6.2327">
        <ele>448.6</ele>
        <time>2023-03-15T09:26:38.000Z</time>
      </trkpt>
      <trkpt lat="43.59082" lon="6.23269">
        <ele>448.9</ele>
        <time>2023-03-15T09:26:42.000Z</time>
      </trkpt>
      <trkpt lat="43.59087" lon="6.23268">
        <ele>449.2</ele>
        <time>2023-03-15T09:26:47.000Z</time>
      </trkpt>
      <trkpt lat="43.59092" lon="6.23268">
        <ele>449.3</ele>
        <time>2023-03-15T09:26:50.000Z</time>
      </trkpt>
      <trkpt lat="43.59097" lon="6.23267">
        <ele>449.6</ele>
        <time>2023-03-15T09:26:55.000Z</time>
      </trkpt>
      <trkpt lat="43.59101" lon="6.23264">
        <ele>450</ele>
        <time>2023-03-15T09:27:00.000Z</time>
      </trkpt>
      <trkpt lat="43.59106" lon="6.23262">
        <ele>450.3</ele>
        <time>2023-03-15T09:27:05.000Z</time>
      </trkpt>
      <trkpt lat="43.59111" lon="6.2326">
        <ele>450.4</ele>
        <time>2023-03-15T09:27:09.000Z</time>
      </trkpt>
      <trkpt lat="43.59116" lon="6.23258">
        <ele>450.8</ele>
        <time>2023-03-15T09:27:13.000Z</time>
      </trkpt>
      <trkpt lat="43.59121" lon="6.23255">
        <ele>451.2</ele>
        <time>2023-03-15T09:27:18.000Z</time>
      </trkpt>
      <trkpt lat="43.59123" lon="6.23249">
        <ele>451.5</ele>
        <time>2023-03-15T09:27:23.000Z</time>
      </trkpt>
      <trkpt lat="43.59125" lon="6.23243">
        <ele>451.7</ele>
        <time>2023-03-15T09:27:27.000Z</time>
      </trkpt>
      <trkpt lat="43.59129" lon="6.23238">
        <ele>452.1</ele>
        <time>2023-03-15T09:27:31.000Z</time>
      </trkpt>
      <trkpt lat="43.59132" lon="6.23234">
        <ele>452.5</ele>
        <time>2023-03-15T09:27:36.000Z</time>
      </trkpt>
      <trkpt lat="43.59135" lon="6.23228">
        <ele>453</ele>
        <time>2023-03-15T09:27:42.000Z</time>
      </trkpt>
      <trkpt lat="43.59138" lon="6.23223">
        <ele>453.3</ele>
        <time>2023-03-15T09:27:47.000Z</time>
      </trkpt>
      <trkpt lat="43.59141" lon="6.23218">
        <ele>453.7</ele>
        <time>2023-03-15T09:27:52.000Z</time>
      </trkpt>
      <trkpt lat="43.59146" lon="6.23215">
        <ele>454.2</ele>
        <time>2023-03-15T09:27:58.000Z</time>
      </trkpt>
      <trkpt lat="43.5915" lon="6.23211">
        <ele>454.7</ele>
        <time>2023-03-15T09:28:02.000Z</time>
      </trkpt>
      <trkpt lat="43.59155" lon="6.23208">
        <ele>455.1</ele>
        <time>2023-03-15T09:28:06.000Z</time>
      </trkpt>
      <trkpt lat="43.5916" lon="6.23206">
        <ele>455.4</ele>
        <time>2023-03-15T09:28:10.000Z</time>
      </trkpt>
      <trkpt lat="43.59165" lon="6.23204">
        <ele>455.7</ele>
        <time>2023-03-15T09:28:14.000Z</time>
      </trkpt>
      <trkpt lat="43.5917" lon="6.23202">
        <ele>455.9</ele>
        <time>2023-03-15T09:28:18.000Z</time>
      </trkpt>
      <trkpt lat="43.59174" lon="6.23199">
        <ele>456.2</ele>
        <time>2023-03-15T09:28:23.000Z</time>
      </trkpt>
      <trkpt lat="43.59179" lon="6.23199">
        <ele>456.4</ele>
        <time>2023-03-15T09:28:27.000Z</time>
      </trkpt>
      <trkpt lat="43.59184" lon="6.232">
        <ele>456.6</ele>
        <time>2023-03-15T09:28:32.000Z</time>
      </trkpt>
      <trkpt lat="43.59189" lon="6.23203">
        <ele>456.6</ele>
        <time>2023-03-15T09:28:37.000Z</time>
      </trkpt>
      <trkpt lat="43.59194" lon="6.23204">
        <ele>456.5</ele>
        <time>2023-03-15T09:28:40.000Z</time>
      </trkpt>
      <trkpt lat="43.59198" lon="6.23206">
        <ele>456.4</ele>
        <time>2023-03-15T09:28:44.000Z</time>
      </trkpt>
      <trkpt lat="43.59203" lon="6.23207">
        <ele>456.3</ele>
        <time>2023-03-15T09:28:48.000Z</time>
      </trkpt>
      <trkpt lat="43.59208" lon="6.23206">
        <ele>456.2</ele>
        <time>2023-03-15T09:28:52.000Z</time>
      </trkpt>
      <trkpt lat="43.59213" lon="6.23205">
        <ele>456.1</ele>
        <time>2023-03-15T09:28:56.000Z</time>
      </trkpt>
      <trkpt lat="43.59218" lon="6.23204">
        <ele>456</ele>
        <time>2023-03-15T09:29:01.000Z</time>
      </trkpt>
      <trkpt lat="43.59223" lon="6.23204">
        <ele>455.9</ele>
        <time>2023-03-15T09:29:05.000Z</time>
      </trkpt>
      <trkpt lat="43.59227" lon="6.23204">
        <ele>455.7</ele>
        <time>2023-03-15T09:29:09.000Z</time>
      </trkpt>
      <trkpt lat="43.59231" lon="6.23208">
        <ele>455.6</ele>
        <time>2023-03-15T09:29:14.000Z</time>
      </trkpt>
      <trkpt lat="43.59235" lon="6.23213">
        <ele>455.5</ele>
        <time>2023-03-15T09:29:18.000Z</time>
      </trkpt>
      <trkpt lat="43.59235" lon="6.23221">
        <ele>455.5</ele>
        <time>2023-03-15T09:29:24.000Z</time>
      </trkpt>
      <trkpt lat="43.59234" lon="6.23227">
        <ele>455.4</ele>
        <time>2023-03-15T09:29:29.000Z</time>
      </trkpt>
      <trkpt lat="43.59234" lon="6.23234">
        <ele>455.5</ele>
        <time>2023-03-15T09:29:34.000Z</time>
      </trkpt>
      <trkpt lat="43.59234" lon="6.2324">
        <ele>455.5</ele>
        <time>2023-03-15T09:29:39.000Z</time>
      </trkpt>
      <trkpt lat="43.59231" lon="6.23247">
        <ele>455.6</ele>
        <time>2023-03-15T09:29:44.000Z</time>
      </trkpt>
      <trkpt lat="43.5923" lon="6.23253">
        <ele>455.8</ele>
        <time>2023-03-15T09:29:49.000Z</time>
      </trkpt>
      <trkpt lat="43.59228" lon="6.2326">
        <ele>456.1</ele>
        <time>2023-03-15T09:29:54.000Z</time>
      </trkpt>
      <trkpt lat="43.59226" lon="6.23267">
        <ele>456.3</ele>
        <time>2023-03-15T09:29:58.000Z</time>
      </trkpt>
      <trkpt lat="43.59226" lon="6.23273">
        <ele>456.5</ele>
        <time>2023-03-15T09:30:02.000Z</time>
      </trkpt>
      <trkpt lat="43.59227" lon="6.2328">
        <ele>456.5</ele>
        <time>2023-03-15T09:30:06.000Z</time>
      </trkpt>
      <trkpt lat="43.59229" lon="6.23286">
        <ele>456.6</ele>
        <time>2023-03-15T09:30:10.000Z</time>
      </trkpt>
      <trkpt lat="43.59231" lon="6.23293">
        <ele>456.7</ele>
        <time>2023-03-15T09:30:15.000Z</time>
      </trkpt>
      <trkpt lat="43.59233" lon="6.23299">
        <ele>456.7</ele>
        <time>2023-03-15T09:30:19.000Z</time>
      </trkpt>
      <trkpt lat="43.59238" lon="6.23304">
        <ele>456.8</ele>
        <time>2023-03-15T09:30:23.000Z</time>
      </trkpt>
      <trkpt lat="43.59242" lon="6.23307">
        <ele>456.9</ele>
        <time>2023-03-15T09:30:27.000Z</time>
      </trkpt>
      <trkpt lat="43.59248" lon="6.23306">
        <ele>457.1</ele>
        <time>2023-03-15T09:30:32.000Z</time>
      </trkpt>
      <trkpt lat="43.59253" lon="6.23303">
        <ele>457.2</ele>
        <time>2023-03-15T09:30:38.000Z</time>
      </trkpt>
      <trkpt lat="43.59257" lon="6.233">
        <ele>457.5</ele>
        <time>2023-03-15T09:30:42.000Z</time>
      </trkpt>
      <trkpt lat="43.59261" lon="6.23297">
        <ele>457.8</ele>
        <time>2023-03-15T09:30:46.000Z</time>
      </trkpt>
      <trkpt lat="43.59265" lon="6.23292">
        <ele>458.1</ele>
        <time>2023-03-15T09:30:51.000Z</time>
      </trkpt>
      <trkpt lat="43.5927" lon="6.23289">
        <ele>458.6</ele>
        <time>2023-03-15T09:30:57.000Z</time>
      </trkpt>
      <trkpt lat="43.59274" lon="6.23287">
        <ele>458.9</ele>
        <time>2023-03-15T09:31:01.000Z</time>
      </trkpt>
      <trkpt lat="43.59279" lon="6.23284">
        <ele>459.3</ele>
        <time>2023-03-15T09:31:05.000Z</time>
      </trkpt>
      <trkpt lat="43.59284" lon="6.2328">
        <ele>459.6</ele>
        <time>2023-03-15T09:31:10.000Z</time>
      </trkpt>
      <trkpt lat="43.59288" lon="6.23276">
        <ele>460</ele>
        <time>2023-03-15T09:31:15.000Z</time>
      </trkpt>
      <trkpt lat="43.59292" lon="6.23273">
        <ele>460.4</ele>
        <time>2023-03-15T09:31:20.000Z</time>
      </trkpt>
      <trkpt lat="43.59296" lon="6.23269">
        <ele>460.7</ele>
        <time>2023-03-15T09:31:24.000Z</time>
      </trkpt>
      <trkpt lat="43.593" lon="6.23265">
        <ele>461</ele>
        <time>2023-03-15T09:31:29.000Z</time>
      </trkpt>
      <trkpt lat="43.59304" lon="6.23261">
        <ele>461.2</ele>
        <time>2023-03-15T09:31:33.000Z</time>
      </trkpt>
      <trkpt lat="43.59308" lon="6.23256">
        <ele>461.8</ele>
        <time>2023-03-15T09:31:38.000Z</time>
      </trkpt>
      <trkpt lat="43.5931" lon="6.2325">
        <ele>462.2</ele>
        <time>2023-03-15T09:31:43.000Z</time>
      </trkpt>
      <trkpt lat="43.59314" lon="6.23246">
        <ele>462.7</ele>
        <time>2023-03-15T09:31:48.000Z</time>
      </trkpt>
      <trkpt lat="43.59319" lon="6.23246">
        <ele>463.3</ele>
        <time>2023-03-15T09:31:54.000Z</time>
      </trkpt>
      <trkpt lat="43.59324" lon="6.23247">
        <ele>463.7</ele>
        <time>2023-03-15T09:31:59.000Z</time>
      </trkpt>
      <trkpt lat="43.59329" lon="6.23246">
        <ele>463.9</ele>
        <time>2023-03-15T09:32:03.000Z</time>
      </trkpt>
      <trkpt lat="43.59334" lon="6.23244">
        <ele>464.1</ele>
        <time>2023-03-15T09:32:07.000Z</time>
      </trkpt>
      <trkpt lat="43.59338" lon="6.23241">
        <ele>464.5</ele>
        <time>2023-03-15T09:32:11.000Z</time>
      </trkpt>
      <trkpt lat="43.59342" lon="6.23237">
        <ele>464.9</ele>
        <time>2023-03-15T09:32:17.000Z</time>
      </trkpt>
      <trkpt lat="43.59346" lon="6.23234">
        <ele>465.3</ele>
        <time>2023-03-15T09:32:22.000Z</time>
      </trkpt>
      <trkpt lat="43.59351" lon="6.2323">
        <ele>465.7</ele>
        <time>2023-03-15T09:32:27.000Z</time>
      </trkpt>
      <trkpt lat="43.59355" lon="6.23225">
        <ele>466.1</ele>
        <time>2023-03-15T09:32:32.000Z</time>
      </trkpt>
      <trkpt lat="43.5936" lon="6.23221">
        <ele>466.3</ele>
        <time>2023-03-15T09:32:37.000Z</time>
      </trkpt>
      <trkpt lat="43.59363" lon="6.23217">
        <ele>466.8</ele>
        <time>2023-03-15T09:32:42.000Z</time>
      </trkpt>
      <trkpt lat="43.59367" lon="6.23213">
        <ele>467.2</ele>
        <time>2023-03-15T09:32:47.000Z</time>
      </trkpt>
      <trkpt lat="43.59372" lon="6.2321">
        <ele>467.7</ele>
        <time>2023-03-15T09:32:52.000Z</time>
      </trkpt>
      <trkpt lat="43.59375" lon="6.23204">
        <ele>468.2</ele>
        <time>2023-03-15T09:32:57.000Z</time>
      </trkpt>
      <trkpt lat="43.59378" lon="6.23199">
        <ele>468.7</ele>
        <time>2023-03-15T09:33:02.000Z</time>
      </trkpt>
      <trkpt lat="43.59382" lon="6.23195">
        <ele>469.2</ele>
        <time>2023-03-15T09:33:08.000Z</time>
      </trkpt>
      <trkpt lat="43.59386" lon="6.23192">
        <ele>469.8</ele>
        <time>2023-03-15T09:33:25.000Z</time>
      </trkpt>
      <trkpt lat="43.59389" lon="6.23187">
        <ele>470.2</ele>
        <time>2023-03-15T09:34:00.000Z</time>
      </trkpt>
      <trkpt lat="43.59389" lon="6.23181">
        <ele>470.2</ele>
        <time>2023-03-15T09:35:23.000Z</time>
      </trkpt>
      <trkpt lat="43.59394" lon="6.23182">
        <ele>469.8</ele>
        <time>2023-03-15T09:37:33.000Z</time>
      </trkpt>
      <trkpt lat="43.59389" lon="6.23184">
        <ele>470.1</ele>
        <time>2023-03-15T09:38:01.000Z</time>
      </trkpt>
      <trkpt lat="43.59393" lon="6.2318">
        <ele>469.1</ele>
        <time>2023-03-15T09:38:26.000Z</time>
      </trkpt>
      <trkpt lat="43.59398" lon="6.23179">
        <ele>468.9</ele>
        <time>2023-03-15T09:38:32.000Z</time>
      </trkpt>
      <trkpt lat="43.59403" lon="6.2318">
        <ele>468.9</ele>
        <time>2023-03-15T09:38:38.000Z</time>
      </trkpt>
      <trkpt lat="43.59408" lon="6.23179">
        <ele>469.2</ele>
        <time>2023-03-15T09:38:43.000Z</time>
      </trkpt>
      <trkpt lat="43.59413" lon="6.23178">
        <ele>469.5</ele>
        <time>2023-03-15T09:38:48.000Z</time>
      </trkpt>
      <trkpt lat="43.59417" lon="6.23175">
        <ele>469.9</ele>
        <time>2023-03-15T09:38:54.000Z</time>
      </trkpt>
      <trkpt lat="43.59422" lon="6.23174">
        <ele>470.2</ele>
        <time>2023-03-15T09:38:59.000Z</time>
      </trkpt>
      <trkpt lat="43.59428" lon="6.23172">
        <ele>470.4</ele>
        <time>2023-03-15T09:39:06.000Z</time>
      </trkpt>
      <trkpt lat="43.59432" lon="6.23171">
        <ele>470.5</ele>
        <time>2023-03-15T09:39:11.000Z</time>
      </trkpt>
      <trkpt lat="43.59436" lon="6.23169">
        <ele>470.6</ele>
        <time>2023-03-15T09:39:16.000Z</time>
      </trkpt>
      <trkpt lat="43.59441" lon="6.23167">
        <ele>470.8</ele>
        <time>2023-03-15T09:39:21.000Z</time>
      </trkpt>
      <trkpt lat="43.59446" lon="6.23165">
        <ele>471</ele>
        <time>2023-03-15T09:39:26.000Z</time>
      </trkpt>
      <trkpt lat="43.5945" lon="6.23162">
        <ele>471.1</ele>
        <time>2023-03-15T09:39:30.000Z</time>
      </trkpt>
      <trkpt lat="43.59456" lon="6.23161">
        <ele>471.1</ele>
        <time>2023-03-15T09:39:34.000Z</time>
      </trkpt>
      <trkpt lat="43.5946" lon="6.23159">
        <ele>471.4</ele>
        <time>2023-03-15T09:39:38.000Z</time>
      </trkpt>
      <trkpt lat="43.59465" lon="6.23157">
        <ele>471.6</ele>
        <time>2023-03-15T09:39:43.000Z</time>
      </trkpt>
      <trkpt lat="43.5947" lon="6.23155">
        <ele>471.9</ele>
        <time>2023-03-15T09:39:48.000Z</time>
      </trkpt>
      <trkpt lat="43.59475" lon="6.23153">
        <ele>472.1</ele>
        <time>2023-03-15T09:39:53.000Z</time>
      </trkpt>
      <trkpt lat="43.5948" lon="6.23151">
        <ele>472.4</ele>
        <time>2023-03-15T09:39:58.000Z</time>
      </trkpt>
      <trkpt lat="43.59485" lon="6.2315">
        <ele>472.6</ele>
        <time>2023-03-15T09:40:03.000Z</time>
      </trkpt>
      <trkpt lat="43.5949" lon="6.2315">
        <ele>472.8</ele>
        <time>2023-03-15T09:40:08.000Z</time>
      </trkpt>
      <trkpt lat="43.59495" lon="6.23151">
        <ele>473.1</ele>
        <time>2023-03-15T09:40:14.000Z</time>
      </trkpt>
      <trkpt lat="43.595" lon="6.23149">
        <ele>473.3</ele>
        <time>2023-03-15T09:40:18.000Z</time>
      </trkpt>
      <trkpt lat="43.59504" lon="6.23148">
        <ele>473.5</ele>
        <time>2023-03-15T09:40:23.000Z</time>
      </trkpt>
      <trkpt lat="43.5951" lon="6.23148">
        <ele>473.7</ele>
        <time>2023-03-15T09:40:28.000Z</time>
      </trkpt>
      <trkpt lat="43.59515" lon="6.23148">
        <ele>474</ele>
        <time>2023-03-15T09:40:33.000Z</time>
      </trkpt>
      <trkpt lat="43.59519" lon="6.23146">
        <ele>474.2</ele>
        <time>2023-03-15T09:40:37.000Z</time>
      </trkpt>
      <trkpt lat="43.59524" lon="6.23145">
        <ele>474.6</ele>
        <time>2023-03-15T09:40:42.000Z</time>
      </trkpt>
      <trkpt lat="43.5953" lon="6.23143">
        <ele>474.8</ele>
        <time>2023-03-15T09:40:47.000Z</time>
      </trkpt>
      <trkpt lat="43.59534" lon="6.23138">
        <ele>475</ele>
        <time>2023-03-15T09:40:51.000Z</time>
      </trkpt>
      <trkpt lat="43.59538" lon="6.23134">
        <ele>475.1</ele>
        <time>2023-03-15T09:40:55.000Z</time>
      </trkpt>
      <trkpt lat="43.59542" lon="6.23133">
        <ele>475.3</ele>
        <time>2023-03-15T09:40:59.000Z</time>
      </trkpt>
      <trkpt lat="43.59548" lon="6.23132">
        <ele>475.9</ele>
        <time>2023-03-15T09:41:04.000Z</time>
      </trkpt>
      <trkpt lat="43.59553" lon="6.23133">
        <ele>476.4</ele>
        <time>2023-03-15T09:41:09.000Z</time>
      </trkpt>
      <trkpt lat="43.59558" lon="6.23133">
        <ele>476.8</ele>
        <time>2023-03-15T09:41:15.000Z</time>
      </trkpt>
      <trkpt lat="43.59563" lon="6.23133">
        <ele>477</ele>
        <time>2023-03-15T09:41:19.000Z</time>
      </trkpt>
      <trkpt lat="43.59568" lon="6.23131">
        <ele>477.2</ele>
        <time>2023-03-15T09:41:24.000Z</time>
      </trkpt>
      <trkpt lat="43.59573" lon="6.23129">
        <ele>477.5</ele>
        <time>2023-03-15T09:41:28.000Z</time>
      </trkpt>
      <trkpt lat="43.59578" lon="6.23126">
        <ele>477.9</ele>
        <time>2023-03-15T09:41:33.000Z</time>
      </trkpt>
      <trkpt lat="43.59583" lon="6.23123">
        <ele>478.4</ele>
        <time>2023-03-15T09:41:38.000Z</time>
      </trkpt>
      <trkpt lat="43.59587" lon="6.2312">
        <ele>478.7</ele>
        <time>2023-03-15T09:41:43.000Z</time>
      </trkpt>
      <trkpt lat="43.59591" lon="6.23115">
        <ele>479</ele>
        <time>2023-03-15T09:41:48.000Z</time>
      </trkpt>
      <trkpt lat="43.59594" lon="6.2311">
        <ele>479.3</ele>
        <time>2023-03-15T09:41:52.000Z</time>
      </trkpt>
      <trkpt lat="43.59597" lon="6.23104">
        <ele>479.6</ele>
        <time>2023-03-15T09:41:56.000Z</time>
      </trkpt>
      <trkpt lat="43.59599" lon="6.23098">
        <ele>479.8</ele>
        <time>2023-03-15T09:42:00.000Z</time>
      </trkpt>
      <trkpt lat="43.59601" lon="6.23092">
        <ele>480</ele>
        <time>2023-03-15T09:42:04.000Z</time>
      </trkpt>
      <trkpt lat="43.59604" lon="6.23085">
        <ele>480.1</ele>
        <time>2023-03-15T09:42:08.000Z</time>
      </trkpt>
      <trkpt lat="43.59605" lon="6.23078">
        <ele>480.3</ele>
        <time>2023-03-15T09:42:12.000Z</time>
      </trkpt>
      <trkpt lat="43.59606" lon="6.23072">
        <ele>480.4</ele>
        <time>2023-03-15T09:42:16.000Z</time>
      </trkpt>
      <trkpt lat="43.59609" lon="6.23066">
        <ele>480.5</ele>
        <time>2023-03-15T09:42:21.000Z</time>
      </trkpt>
      <trkpt lat="43.59613" lon="6.23062">
        <ele>480.6</ele>
        <time>2023-03-15T09:42:26.000Z</time>
      </trkpt>
      <trkpt lat="43.59617" lon="6.23058">
        <ele>480.7</ele>
        <time>2023-03-15T09:42:30.000Z</time>
      </trkpt>
      <trkpt lat="43.5962" lon="6.23052">
        <ele>480.8</ele>
        <time>2023-03-15T09:42:34.000Z</time>
      </trkpt>
      <trkpt lat="43.59622" lon="6.23045">
        <ele>480.7</ele>
        <time>2023-03-15T09:42:38.000Z</time>
      </trkpt>
      <trkpt lat="43.59624" lon="6.23039">
        <ele>480.6</ele>
        <time>2023-03-15T09:42:42.000Z</time>
      </trkpt>
      <trkpt lat="43.59627" lon="6.23034">
        <ele>480.7</ele>
        <time>2023-03-15T09:42:46.000Z</time>
      </trkpt>
      <trkpt lat="43.5963" lon="6.23027">
        <ele>480.8</ele>
        <time>2023-03-15T09:42:50.000Z</time>
      </trkpt>
      <trkpt lat="43.59632" lon="6.2302">
        <ele>480.8</ele>
        <time>2023-03-15T09:42:54.000Z</time>
      </trkpt>
      <trkpt lat="43.59633" lon="6.23013">
        <ele>480.7</ele>
        <time>2023-03-15T09:42:58.000Z</time>
      </trkpt>
      <trkpt lat="43.59634" lon="6.23007">
        <ele>480.5</ele>
        <time>2023-03-15T09:43:02.000Z</time>
      </trkpt>
      <trkpt lat="43.59636" lon="6.23001">
        <ele>480.4</ele>
        <time>2023-03-15T09:43:06.000Z</time>
      </trkpt>
      <trkpt lat="43.59638" lon="6.22994">
        <ele>480.3</ele>
        <time>2023-03-15T09:43:10.000Z</time>
      </trkpt>
      <trkpt lat="43.59639" lon="6.22988">
        <ele>480.3</ele>
        <time>2023-03-15T09:43:14.000Z</time>
      </trkpt>
      <trkpt lat="43.59641" lon="6.22982">
        <ele>480.1</ele>
        <time>2023-03-15T09:43:18.000Z</time>
      </trkpt>
      <trkpt lat="43.59643" lon="6.22976">
        <ele>480</ele>
        <time>2023-03-15T09:43:22.000Z</time>
      </trkpt>
      <trkpt lat="43.59646" lon="6.2297">
        <ele>479.9</ele>
        <time>2023-03-15T09:43:26.000Z</time>
      </trkpt>
      <trkpt lat="43.59648" lon="6.22965">
        <ele>479.7</ele>
        <time>2023-03-15T09:43:30.000Z</time>
      </trkpt>
      <trkpt lat="43.59652" lon="6.22961">
        <ele>479.5</ele>
        <time>2023-03-15T09:43:35.000Z</time>
      </trkpt>
      <trkpt lat="43.59656" lon="6.22959">
        <ele>479.4</ele>
        <time>2023-03-15T09:43:39.000Z</time>
      </trkpt>
      <trkpt lat="43.59661" lon="6.22957">
        <ele>479.2</ele>
        <time>2023-03-15T09:43:43.000Z</time>
      </trkpt>
      <trkpt lat="43.59665" lon="6.22954">
        <ele>479</ele>
        <time>2023-03-15T09:43:47.000Z</time>
      </trkpt>
      <trkpt lat="43.59669" lon="6.22949">
        <ele>478.7</ele>
        <time>2023-03-15T09:43:51.000Z</time>
      </trkpt>
      <trkpt lat="43.59673" lon="6.22944">
        <ele>478.3</ele>
        <time>2023-03-15T09:43:56.000Z</time>
      </trkpt>
      <trkpt lat="43.59676" lon="6.22938">
        <ele>478.1</ele>
        <time>2023-03-15T09:44:00.000Z</time>
      </trkpt>
      <trkpt lat="43.59679" lon="6.22933">
        <ele>478</ele>
        <time>2023-03-15T09:44:04.000Z</time>
      </trkpt>
      <trkpt lat="43.59682" lon="6.22927">
        <ele>477.8</ele>
        <time>2023-03-15T09:44:09.000Z</time>
      </trkpt>
      <trkpt lat="43.59685" lon="6.22922">
        <ele>477.9</ele>
        <time>2023-03-15T09:44:25.000Z</time>
      </trkpt>
      <trkpt lat="43.59687" lon="6.22917">
        <ele>476.8</ele>
        <time>2023-03-15T09:48:11.000Z</time>
      </trkpt>
      <trkpt lat="43.59691" lon="6.22914">
        <ele>476.7</ele>
        <time>2023-03-15T09:48:17.000Z</time>
      </trkpt>
      <trkpt lat="43.59696" lon="6.22912">
        <ele>476.6</ele>
        <time>2023-03-15T09:48:23.000Z</time>
      </trkpt>
      <trkpt lat="43.59701" lon="6.22912">
        <ele>476.6</ele>
        <time>2023-03-15T09:48:29.000Z</time>
      </trkpt>
      <trkpt lat="43.59706" lon="6.22909">
        <ele>476.6</ele>
        <time>2023-03-15T09:48:35.000Z</time>
      </trkpt>
      <trkpt lat="43.5971" lon="6.22906">
        <ele>476.6</ele>
        <time>2023-03-15T09:48:40.000Z</time>
      </trkpt>
      <trkpt lat="43.59715" lon="6.22905">
        <ele>476.5</ele>
        <time>2023-03-15T09:48:46.000Z</time>
      </trkpt>
      <trkpt lat="43.59719" lon="6.22906">
        <ele>476.4</ele>
        <time>2023-03-15T09:48:53.000Z</time>
      </trkpt>
      <trkpt lat="43.59724" lon="6.22909">
        <ele>476.3</ele>
        <time>2023-03-15T09:48:59.000Z</time>
      </trkpt>
      <trkpt lat="43.59729" lon="6.2291">
        <ele>476.2</ele>
        <time>2023-03-15T09:49:06.000Z</time>
      </trkpt>
      <trkpt lat="43.59734" lon="6.2291">
        <ele>476.4</ele>
        <time>2023-03-15T09:49:11.000Z</time>
      </trkpt>
      <trkpt lat="43.59739" lon="6.2291">
        <ele>476.6</ele>
        <time>2023-03-15T09:49:16.000Z</time>
      </trkpt>
      <trkpt lat="43.59744" lon="6.22909">
        <ele>476.7</ele>
        <time>2023-03-15T09:49:21.000Z</time>
      </trkpt>
      <trkpt lat="43.59749" lon="6.22909">
        <ele>476.7</ele>
        <time>2023-03-15T09:49:25.000Z</time>
      </trkpt>
      <trkpt lat="43.59754" lon="6.22907">
        <ele>476.7</ele>
        <time>2023-03-15T09:49:30.000Z</time>
      </trkpt>
      <trkpt lat="43.59759" lon="6.22905">
        <ele>476.5</ele>
        <time>2023-03-15T09:49:37.000Z</time>
      </trkpt>
      <trkpt lat="43.59764" lon="6.22904">
        <ele>476.4</ele>
        <time>2023-03-15T09:49:42.000Z</time>
      </trkpt>
      <trkpt lat="43.59769" lon="6.22905">
        <ele>476.3</ele>
        <time>2023-03-15T09:49:47.000Z</time>
      </trkpt>
      <trkpt lat="43.59774" lon="6.22908">
        <ele>476.2</ele>
        <time>2023-03-15T09:49:52.000Z</time>
      </trkpt>
      <trkpt lat="43.59779" lon="6.2291">
        <ele>476.1</ele>
        <time>2023-03-15T09:49:58.000Z</time>
      </trkpt>
      <trkpt lat="43.59783" lon="6.22912">
        <ele>476</ele>
        <time>2023-03-15T09:50:03.000Z</time>
      </trkpt>
      <trkpt lat="43.59788" lon="6.22913">
        <ele>476</ele>
        <time>2023-03-15T09:50:08.000Z</time>
      </trkpt>
      <trkpt lat="43.59792" lon="6.22912">
        <ele>475.9</ele>
        <time>2023-03-15T09:50:13.000Z</time>
      </trkpt>
      <trkpt lat="43.59797" lon="6.22909">
        <ele>475.9</ele>
        <time>2023-03-15T09:50:18.000Z</time>
      </trkpt>
      <trkpt lat="43.59802" lon="6.22911">
        <ele>475.6</ele>
        <time>2023-03-15T09:50:26.000Z</time>
      </trkpt>
      <trkpt lat="43.59806" lon="6.22913">
        <ele>475.2</ele>
        <time>2023-03-15T09:50:47.000Z</time>
      </trkpt>
      <trkpt lat="43.59807" lon="6.2292">
        <ele>475</ele>
        <time>2023-03-15T09:50:55.000Z</time>
      </trkpt>
      <trkpt lat="43.59807" lon="6.22927">
        <ele>474.8</ele>
        <time>2023-03-15T09:51:00.000Z</time>
      </trkpt>
      <trkpt lat="43.59809" lon="6.22933">
        <ele>474.6</ele>
        <time>2023-03-15T09:51:05.000Z</time>
      </trkpt>
      <trkpt lat="43.59812" lon="6.22939">
        <ele>474.5</ele>
        <time>2023-03-15T09:51:11.000Z</time>
      </trkpt>
      <trkpt lat="43.59815" lon="6.22944">
        <ele>474.2</ele>
        <time>2023-03-15T09:51:16.000Z</time>
      </trkpt>
      <trkpt lat="43.59818" lon="6.22949">
        <ele>473.9</ele>
        <time>2023-03-15T09:51:21.000Z</time>
      </trkpt>
      <trkpt lat="43.59821" lon="6.22954">
        <ele>473.6</ele>
        <time>2023-03-15T09:51:26.000Z</time>
      </trkpt>
      <trkpt lat="43.59823" lon="6.2296">
        <ele>472.9</ele>
        <time>2023-03-15T09:51:32.000Z</time>
      </trkpt>
      <trkpt lat="43.59824" lon="6.22966">
        <ele>472.3</ele>
        <time>2023-03-15T09:51:39.000Z</time>
      </trkpt>
      <trkpt lat="43.59827" lon="6.22973">
        <ele>471.5</ele>
        <time>2023-03-15T09:51:45.000Z</time>
      </trkpt>
      <trkpt lat="43.5983" lon="6.22978">
        <ele>471.1</ele>
        <time>2023-03-15T09:51:49.000Z</time>
      </trkpt>
      <trkpt lat="43.59832" lon="6.22984">
        <ele>470.7</ele>
        <time>2023-03-15T09:51:53.000Z</time>
      </trkpt>
      <trkpt lat="43.59836" lon="6.22989">
        <ele>470.1</ele>
        <time>2023-03-15T09:51:57.000Z</time>
      </trkpt>
      <trkpt lat="43.59839" lon="6.22994">
        <ele>469.6</ele>
        <time>2023-03-15T09:52:01.000Z</time>
      </trkpt>
      <trkpt lat="43.59844" lon="6.22996">
        <ele>469</ele>
        <time>2023-03-15T09:52:05.000Z</time>
      </trkpt>
      <trkpt lat="43.59849" lon="6.22999">
        <ele>468.2</ele>
        <time>2023-03-15T09:52:09.000Z</time>
      </trkpt>
      <trkpt lat="43.59853" lon="6.23003">
        <ele>467.5</ele>
        <time>2023-03-15T09:52:14.000Z</time>
      </trkpt>
      <trkpt lat="43.59856" lon="6.23008">
        <ele>466.7</ele>
        <time>2023-03-15T09:52:19.000Z</time>
      </trkpt>
      <trkpt lat="43.59858" lon="6.23014">
        <ele>466</ele>
        <time>2023-03-15T09:52:24.000Z</time>
      </trkpt>
      <trkpt lat="43.5986" lon="6.2302">
        <ele>465.3</ele>
        <time>2023-03-15T09:52:29.000Z</time>
      </trkpt>
      <trkpt lat="43.59862" lon="6.23026">
        <ele>464.6</ele>
        <time>2023-03-15T09:52:34.000Z</time>
      </trkpt>
      <trkpt lat="43.59865" lon="6.2303">
        <ele>464.1</ele>
        <time>2023-03-15T09:52:38.000Z</time>
      </trkpt>
      <trkpt lat="43.59868" lon="6.23036">
        <ele>463.5</ele>
        <time>2023-03-15T09:52:43.000Z</time>
      </trkpt>
      <trkpt lat="43.5987" lon="6.23041">
        <ele>462.9</ele>
        <time>2023-03-15T09:52:48.000Z</time>
      </trkpt>
      <trkpt lat="43.59873" lon="6.23048">
        <ele>462.3</ele>
        <time>2023-03-15T09:52:53.000Z</time>
      </trkpt>
      <trkpt lat="43.59875" lon="6.23053">
        <ele>461.8</ele>
        <time>2023-03-15T09:52:57.000Z</time>
      </trkpt>
      <trkpt lat="43.59877" lon="6.23059">
        <ele>461.2</ele>
        <time>2023-03-15T09:53:02.000Z</time>
      </trkpt>
      <trkpt lat="43.59876" lon="6.23066">
        <ele>460.6</ele>
        <time>2023-03-15T09:53:08.000Z</time>
      </trkpt>
      <trkpt lat="43.59878" lon="6.23073">
        <ele>459.9</ele>
        <time>2023-03-15T09:53:14.000Z</time>
      </trkpt>
      <trkpt lat="43.59881" lon="6.23077">
        <ele>459.3</ele>
        <time>2023-03-15T09:53:19.000Z</time>
      </trkpt>
      <trkpt lat="43.59885" lon="6.2308">
        <ele>457.8</ele>
        <time>2023-03-15T09:53:56.000Z</time>
      </trkpt>
      <trkpt lat="43.59888" lon="6.23085">
        <ele>457.7</ele>
        <time>2023-03-15T09:54:02.000Z</time>
      </trkpt>
      <trkpt lat="43.5989" lon="6.23092">
        <ele>457.4</ele>
        <time>2023-03-15T09:54:11.000Z</time>
      </trkpt>
      <trkpt lat="43.59894" lon="6.23095">
        <ele>457.3</ele>
        <time>2023-03-15T09:54:16.000Z</time>
      </trkpt>
      <trkpt lat="43.59898" lon="6.23098">
        <ele>456.9</ele>
        <time>2023-03-15T09:54:21.000Z</time>
      </trkpt>
      <trkpt lat="43.59901" lon="6.23103">
        <ele>456.4</ele>
        <time>2023-03-15T09:54:29.000Z</time>
      </trkpt>
      <trkpt lat="43.59905" lon="6.23107">
        <ele>455.5</ele>
        <time>2023-03-15T09:54:35.000Z</time>
      </trkpt>
      <trkpt lat="43.59907" lon="6.23113">
        <ele>454.4</ele>
        <time>2023-03-15T09:54:44.000Z</time>
      </trkpt>
      <trkpt lat="43.59909" lon="6.23119">
        <ele>453.7</ele>
        <time>2023-03-15T09:54:54.000Z</time>
      </trkpt>
      <trkpt lat="43.5991" lon="6.23125">
        <ele>452.9</ele>
        <time>2023-03-15T09:55:01.000Z</time>
      </trkpt>
      <trkpt lat="43.59913" lon="6.23131">
        <ele>452.1</ele>
        <time>2023-03-15T09:55:07.000Z</time>
      </trkpt>
      <trkpt lat="43.59915" lon="6.23137">
        <ele>451.5</ele>
        <time>2023-03-15T09:55:14.000Z</time>
      </trkpt>
      <trkpt lat="43.59918" lon="6.23142">
        <ele>450.9</ele>
        <time>2023-03-15T09:55:20.000Z</time>
      </trkpt>
      <trkpt lat="43.59919" lon="6.23149">
        <ele>449.8</ele>
        <time>2023-03-15T09:55:27.000Z</time>
      </trkpt>
      <trkpt lat="43.5992" lon="6.23155">
        <ele>448.5</ele>
        <time>2023-03-15T09:55:35.000Z</time>
      </trkpt>
      <trkpt lat="43.59922" lon="6.2316">
        <ele>447.6</ele>
        <time>2023-03-15T09:55:41.000Z</time>
      </trkpt>
      <trkpt lat="43.59925" lon="6.23165">
        <ele>446.7</ele>
        <time>2023-03-15T09:55:54.000Z</time>
      </trkpt>
      <trkpt lat="43.59927" lon="6.23172">
        <ele>445.8</ele>
        <time>2023-03-15T09:56:07.000Z</time>
      </trkpt>
      <trkpt lat="43.59929" lon="6.23177">
        <ele>445.4</ele>
        <time>2023-03-15T09:56:13.000Z</time>
      </trkpt>
      <trkpt lat="43.59932" lon="6.23183">
        <ele>444.8</ele>
        <time>2023-03-15T09:56:23.000Z</time>
      </trkpt>
      <trkpt lat="43.59936" lon="6.23187">
        <ele>444.8</ele>
        <time>2023-03-15T09:56:29.000Z</time>
      </trkpt>
      <trkpt lat="43.59939" lon="6.23192">
        <ele>445.1</ele>
        <time>2023-03-15T09:56:37.000Z</time>
      </trkpt>
      <trkpt lat="43.59942" lon="6.23196">
        <ele>445.8</ele>
        <time>2023-03-15T09:56:45.000Z</time>
      </trkpt>
      <trkpt lat="43.59943" lon="6.23203">
        <ele>447</ele>
        <time>2023-03-15T09:56:54.000Z</time>
      </trkpt>
      <trkpt lat="43.59945" lon="6.23208">
        <ele>448</ele>
        <time>2023-03-15T09:57:01.000Z</time>
      </trkpt>
      <trkpt lat="43.59949" lon="6.23213">
        <ele>449</ele>
        <time>2023-03-15T09:57:08.000Z</time>
      </trkpt>
      <trkpt lat="43.59952" lon="6.23219">
        <ele>450.1</ele>
        <time>2023-03-15T09:57:15.000Z</time>
      </trkpt>
      <trkpt lat="43.59956" lon="6.23222">
        <ele>451.1</ele>
        <time>2023-03-15T09:57:21.000Z</time>
      </trkpt>
      <trkpt lat="43.59961" lon="6.23225">
        <ele>452</ele>
        <time>2023-03-15T09:57:27.000Z</time>
      </trkpt>
      <trkpt lat="43.59965" lon="6.2323">
        <ele>453.1</ele>
        <time>2023-03-15T09:57:34.000Z</time>
      </trkpt>
      <trkpt lat="43.59969" lon="6.23233">
        <ele>454.2</ele>
        <time>2023-03-15T09:57:41.000Z</time>
      </trkpt>
      <trkpt lat="43.59974" lon="6.23235">
        <ele>455</ele>
        <time>2023-03-15T09:57:47.000Z</time>
      </trkpt>
      <trkpt lat="43.59978" lon="6.23238">
        <ele>455.9</ele>
        <time>2023-03-15T09:57:53.000Z</time>
      </trkpt>
      <trkpt lat="43.59982" lon="6.23243">
        <ele>456.7</ele>
        <time>2023-03-15T09:57:59.000Z</time>
      </trkpt>
      <trkpt lat="43.59987" lon="6.23246">
        <ele>457.5</ele>
        <time>2023-03-15T09:58:05.000Z</time>
      </trkpt>
      <trkpt lat="43.5999" lon="6.2325">
        <ele>458.1</ele>
        <time>2023-03-15T09:58:11.000Z</time>
      </trkpt>
      <trkpt lat="43.59994" lon="6.23255">
        <ele>458.8</ele>
        <time>2023-03-15T09:58:17.000Z</time>
      </trkpt>
      <trkpt lat="43.59996" lon="6.23261">
        <ele>459.5</ele>
        <time>2023-03-15T09:58:24.000Z</time>
      </trkpt>
      <trkpt lat="43.59999" lon="6.23267">
        <ele>460.1</ele>
        <time>2023-03-15T09:58:30.000Z</time>
      </trkpt>
      <trkpt lat="43.60003" lon="6.2327">
        <ele>460.6</ele>
        <time>2023-03-15T09:58:35.000Z</time>
      </trkpt>
      <trkpt lat="43.60008" lon="6.23271">
        <ele>461</ele>
        <time>2023-03-15T09:58:40.000Z</time>
      </trkpt>
      <trkpt lat="43.60013" lon="6.23272">
        <ele>461.3</ele>
        <time>2023-03-15T09:58:45.000Z</time>
      </trkpt>
      <trkpt lat="43.60017" lon="6.23274">
        <ele>461.8</ele>
        <time>2023-03-15T09:58:50.000Z</time>
      </trkpt>
      <trkpt lat="43.60021" lon="6.23276">
        <ele>462.5</ele>
        <time>2023-03-15T09:58:55.000Z</time>
      </trkpt>
      <trkpt lat="43.60026" lon="6.23276">
        <ele>462.9</ele>
        <time>2023-03-15T09:59:00.000Z</time>
      </trkpt>
      <trkpt lat="43.60031" lon="6.23276">
        <ele>463.3</ele>
        <time>2023-03-15T09:59:06.000Z</time>
      </trkpt>
      <trkpt lat="43.60035" lon="6.2328">
        <ele>463.6</ele>
        <time>2023-03-15T09:59:14.000Z</time>
      </trkpt>
      <trkpt lat="43.60038" lon="6.23285">
        <ele>463.5</ele>
        <time>2023-03-15T09:59:20.000Z</time>
      </trkpt>
      <trkpt lat="43.60042" lon="6.2329">
        <ele>463.3</ele>
        <time>2023-03-15T09:59:26.000Z</time>
      </trkpt>
      <trkpt lat="43.60046" lon="6.23291">
        <ele>463.2</ele>
        <time>2023-03-15T09:59:31.000Z</time>
      </trkpt>
      <trkpt lat="43.60051" lon="6.2329">
        <ele>463</ele>
        <time>2023-03-15T09:59:37.000Z</time>
      </trkpt>
      <trkpt lat="43.60056" lon="6.2329">
        <ele>463</ele>
        <time>2023-03-15T09:59:42.000Z</time>
      </trkpt>
      <trkpt lat="43.60061" lon="6.2329">
        <ele>462.9</ele>
        <time>2023-03-15T09:59:47.000Z</time>
      </trkpt>
      <trkpt lat="43.60065" lon="6.23287">
        <ele>462.9</ele>
        <time>2023-03-15T09:59:53.000Z</time>
      </trkpt>
      <trkpt lat="43.6007" lon="6.23288">
        <ele>462.9</ele>
        <time>2023-03-15T09:59:59.000Z</time>
      </trkpt>
      <trkpt lat="43.60075" lon="6.23287">
        <ele>463.1</ele>
        <time>2023-03-15T10:00:05.000Z</time>
      </trkpt>
      <trkpt lat="43.6008" lon="6.23287">
        <ele>463.4</ele>
        <time>2023-03-15T10:00:12.000Z</time>
      </trkpt>
      <trkpt lat="43.60085" lon="6.23287">
        <ele>463.6</ele>
        <time>2023-03-15T10:00:17.000Z</time>
      </trkpt>
      <trkpt lat="43.60089" lon="6.23286">
        <ele>464</ele>
        <time>2023-03-15T10:00:22.000Z</time>
      </trkpt>
      <trkpt lat="43.60095" lon="6.23284">
        <ele>464.3</ele>
        <time>2023-03-15T10:00:28.000Z</time>
      </trkpt>
      <trkpt lat="43.60099" lon="6.23281">
        <ele>464.5</ele>
        <time>2023-03-15T10:00:33.000Z</time>
      </trkpt>
      <trkpt lat="43.60103" lon="6.23279">
        <ele>464.7</ele>
        <time>2023-03-15T10:00:38.000Z</time>
      </trkpt>
      <trkpt lat="43.60109" lon="6.23279">
        <ele>464.8</ele>
        <time>2023-03-15T10:00:45.000Z</time>
      </trkpt>
      <trkpt lat="43.60112" lon="6.23275">
        <ele>465</ele>
        <time>2023-03-15T10:00:52.000Z</time>
      </trkpt>
      <trkpt lat="43.60114" lon="6.23269">
        <ele>465.3</ele>
        <time>2023-03-15T10:00:57.000Z</time>
      </trkpt>
      <trkpt lat="43.60118" lon="6.23265">
        <ele>465.4</ele>
        <time>2023-03-15T10:01:02.000Z</time>
      </trkpt>
      <trkpt lat="43.60121" lon="6.2326">
        <ele>466.5</ele>
        <time>2023-03-15T10:01:30.000Z</time>
      </trkpt>
      <trkpt lat="43.60125" lon="6.23258">
        <ele>467.4</ele>
        <time>2023-03-15T10:02:06.000Z</time>
      </trkpt>
      <trkpt lat="43.60129" lon="6.23254">
        <ele>468</ele>
        <time>2023-03-15T10:02:38.000Z</time>
      </trkpt>
      <trkpt lat="43.6013" lon="6.23247">
        <ele>468</ele>
        <time>2023-03-15T10:02:48.000Z</time>
      </trkpt>
      <trkpt lat="43.60127" lon="6.23242">
        <ele>468</ele>
        <time>2023-03-15T10:02:54.000Z</time>
      </trkpt>
      <trkpt lat="43.60125" lon="6.23235">
        <ele>468</ele>
        <time>2023-03-15T10:03:06.000Z</time>
      </trkpt>
      <trkpt lat="43.60128" lon="6.23229">
        <ele>467.9</ele>
        <time>2023-03-15T10:03:14.000Z</time>
      </trkpt>
      <trkpt lat="43.60127" lon="6.23223">
        <ele>467.6</ele>
        <time>2023-03-15T10:03:20.000Z</time>
      </trkpt>
      <trkpt lat="43.60128" lon="6.23217">
        <ele>467.4</ele>
        <time>2023-03-15T10:03:26.000Z</time>
      </trkpt>
      <trkpt lat="43.6013" lon="6.2321">
        <ele>467.4</ele>
        <time>2023-03-15T10:03:33.000Z</time>
      </trkpt>
      <trkpt lat="43.60131" lon="6.23203">
        <ele>467.2</ele>
        <time>2023-03-15T10:03:38.000Z</time>
      </trkpt>
      <trkpt lat="43.60131" lon="6.23196">
        <ele>467.1</ele>
        <time>2023-03-15T10:03:43.000Z</time>
      </trkpt>
      <trkpt lat="43.60132" lon="6.2319">
        <ele>467.1</ele>
        <time>2023-03-15T10:03:48.000Z</time>
      </trkpt>
      <trkpt lat="43.60134" lon="6.23183">
        <ele>467.1</ele>
        <time>2023-03-15T10:03:54.000Z</time>
      </trkpt>
      <trkpt lat="43.60136" lon="6.23177">
        <ele>467.1</ele>
        <time>2023-03-15T10:04:00.000Z</time>
      </trkpt>
      <trkpt lat="43.60138" lon="6.23171">
        <ele>467.2</ele>
        <time>2023-03-15T10:04:06.000Z</time>
      </trkpt>
      <trkpt lat="43.60142" lon="6.23167">
        <ele>467.2</ele>
        <time>2023-03-15T10:04:12.000Z</time>
      </trkpt>
      <trkpt lat="43.60146" lon="6.23161">
        <ele>467.2</ele>
        <time>2023-03-15T10:04:18.000Z</time>
      </trkpt>
      <trkpt lat="43.6015" lon="6.23157">
        <ele>467.3</ele>
        <time>2023-03-15T10:04:23.000Z</time>
      </trkpt>
      <trkpt lat="43.60153" lon="6.23152">
        <ele>467.5</ele>
        <time>2023-03-15T10:04:28.000Z</time>
      </trkpt>
      <trkpt lat="43.60156" lon="6.23147">
        <ele>467.8</ele>
        <time>2023-03-15T10:04:35.000Z</time>
      </trkpt>
      <trkpt lat="43.60159" lon="6.23141">
        <ele>468.5</ele>
        <time>2023-03-15T10:04:42.000Z</time>
      </trkpt>
      <trkpt lat="43.60162" lon="6.23136">
        <ele>468.8</ele>
        <time>2023-03-15T10:04:47.000Z</time>
      </trkpt>
      <trkpt lat="43.60166" lon="6.23133">
        <ele>469.2</ele>
        <time>2023-03-15T10:04:52.000Z</time>
      </trkpt>
      <trkpt lat="43.6017" lon="6.23129">
        <ele>469.6</ele>
        <time>2023-03-15T10:04:57.000Z</time>
      </trkpt>
      <trkpt lat="43.60174" lon="6.23125">
        <ele>470.1</ele>
        <time>2023-03-15T10:05:02.000Z</time>
      </trkpt>
      <trkpt lat="43.60176" lon="6.23119">
        <ele>470.4</ele>
        <time>2023-03-15T10:05:07.000Z</time>
      </trkpt>
      <trkpt lat="43.60179" lon="6.23114">
        <ele>470.6</ele>
        <time>2023-03-15T10:05:13.000Z</time>
      </trkpt>
      <trkpt lat="43.60182" lon="6.23108">
        <ele>470.7</ele>
        <time>2023-03-15T10:05:19.000Z</time>
      </trkpt>
      <trkpt lat="43.60187" lon="6.23107">
        <ele>471.1</ele>
        <time>2023-03-15T10:05:26.000Z</time>
      </trkpt>
      <trkpt lat="43.60192" lon="6.23106">
        <ele>471.4</ele>
        <time>2023-03-15T10:05:32.000Z</time>
      </trkpt>
      <trkpt lat="43.60195" lon="6.23101">
        <ele>471.8</ele>
        <time>2023-03-15T10:05:39.000Z</time>
      </trkpt>
      <trkpt lat="43.60198" lon="6.23096">
        <ele>472</ele>
        <time>2023-03-15T10:05:49.000Z</time>
      </trkpt>
      <trkpt lat="43.60202" lon="6.23095">
        <ele>472.1</ele>
        <time>2023-03-15T10:05:55.000Z</time>
      </trkpt>
      <trkpt lat="43.60207" lon="6.23096">
        <ele>472.2</ele>
        <time>2023-03-15T10:06:00.000Z</time>
      </trkpt>
      <trkpt lat="43.60212" lon="6.23096">
        <ele>472.5</ele>
        <time>2023-03-15T10:06:08.000Z</time>
      </trkpt>
      <trkpt lat="43.60217" lon="6.23097">
        <ele>472.7</ele>
        <time>2023-03-15T10:06:16.000Z</time>
      </trkpt>
      <trkpt lat="43.60222" lon="6.23096">
        <ele>472.7</ele>
        <time>2023-03-15T10:06:23.000Z</time>
      </trkpt>
      <trkpt lat="43.60226" lon="6.23097">
        <ele>473.1</ele>
        <time>2023-03-15T10:06:29.000Z</time>
      </trkpt>
      <trkpt lat="43.60231" lon="6.23096">
        <ele>473.2</ele>
        <time>2023-03-15T10:06:35.000Z</time>
      </trkpt>
      <trkpt lat="43.60236" lon="6.23096">
        <ele>473.2</ele>
        <time>2023-03-15T10:06:41.000Z</time>
      </trkpt>
      <trkpt lat="43.60241" lon="6.23096">
        <ele>473.3</ele>
        <time>2023-03-15T10:06:46.000Z</time>
      </trkpt>
      <trkpt lat="43.60246" lon="6.23095">
        <ele>473.3</ele>
        <time>2023-03-15T10:06:52.000Z</time>
      </trkpt>
      <trkpt lat="43.60251" lon="6.23096">
        <ele>473</ele>
        <time>2023-03-15T10:06:57.000Z</time>
      </trkpt>
      <trkpt lat="43.60256" lon="6.23097">
        <ele>472.7</ele>
        <time>2023-03-15T10:07:02.000Z</time>
      </trkpt>
      <trkpt lat="43.60261" lon="6.23097">
        <ele>472.7</ele>
        <time>2023-03-15T10:07:07.000Z</time>
      </trkpt>
      <trkpt lat="43.60265" lon="6.23096">
        <ele>472.8</ele>
        <time>2023-03-15T10:07:11.000Z</time>
      </trkpt>
      <trkpt lat="43.60271" lon="6.23095">
        <ele>472.8</ele>
        <time>2023-03-15T10:07:16.000Z</time>
      </trkpt>
      <trkpt lat="43.60276" lon="6.23094">
        <ele>472.8</ele>
        <time>2023-03-15T10:07:21.000Z</time>
      </trkpt>
      <trkpt lat="43.60281" lon="6.23093">
        <ele>472.5</ele>
        <time>2023-03-15T10:07:26.000Z</time>
      </trkpt>
      <trkpt lat="43.60287" lon="6.23093">
        <ele>472.4</ele>
        <time>2023-03-15T10:07:31.000Z</time>
      </trkpt>
      <trkpt lat="43.60291" lon="6.23091">
        <ele>472.2</ele>
        <time>2023-03-15T10:07:36.000Z</time>
      </trkpt>
      <trkpt lat="43.60296" lon="6.2309">
        <ele>472</ele>
        <time>2023-03-15T10:07:41.000Z</time>
      </trkpt>
      <trkpt lat="43.60301" lon="6.23089">
        <ele>471.8</ele>
        <time>2023-03-15T10:07:46.000Z</time>
      </trkpt>
      <trkpt lat="43.60305" lon="6.23088">
        <ele>471.7</ele>
        <time>2023-03-15T10:07:51.000Z</time>
      </trkpt>
      <trkpt lat="43.6031" lon="6.23087">
        <ele>471.6</ele>
        <time>2023-03-15T10:07:56.000Z</time>
      </trkpt>
      <trkpt lat="43.60315" lon="6.23087">
        <ele>471.5</ele>
        <time>2023-03-15T10:08:01.000Z</time>
      </trkpt>
      <trkpt lat="43.6032" lon="6.23087">
        <ele>471.4</ele>
        <time>2023-03-15T10:08:06.000Z</time>
      </trkpt>
      <trkpt lat="43.60325" lon="6.23086">
        <ele>471.2</ele>
        <time>2023-03-15T10:08:10.000Z</time>
      </trkpt>
      <trkpt lat="43.6033" lon="6.23084">
        <ele>471.1</ele>
        <time>2023-03-15T10:08:15.000Z</time>
      </trkpt>
      <trkpt lat="43.60334" lon="6.23082">
        <ele>471</ele>
        <time>2023-03-15T10:08:19.000Z</time>
      </trkpt>
      <trkpt lat="43.60339" lon="6.23081">
        <ele>470.9</ele>
        <time>2023-03-15T10:08:24.000Z</time>
      </trkpt>
      <trkpt lat="43.60344" lon="6.23081">
        <ele>470.6</ele>
        <time>2023-03-15T10:08:29.000Z</time>
      </trkpt>
      <trkpt lat="43.60349" lon="6.23082">
        <ele>470</ele>
        <time>2023-03-15T10:08:34.000Z</time>
      </trkpt>
      <trkpt lat="43.60354" lon="6.2308">
        <ele>469.4</ele>
        <time>2023-03-15T10:08:40.000Z</time>
      </trkpt>
      <trkpt lat="43.60358" lon="6.23077">
        <ele>469.2</ele>
        <time>2023-03-15T10:08:44.000Z</time>
      </trkpt>
      <trkpt lat="43.60363" lon="6.23074">
        <ele>468.9</ele>
        <time>2023-03-15T10:08:49.000Z</time>
      </trkpt>
      <trkpt lat="43.60367" lon="6.23071">
        <ele>468.7</ele>
        <time>2023-03-15T10:08:53.000Z</time>
      </trkpt>
      <trkpt lat="43.60371" lon="6.23068">
        <ele>468.6</ele>
        <time>2023-03-15T10:08:57.000Z</time>
      </trkpt>
      <trkpt lat="43.60376" lon="6.23064">
        <ele>468.5</ele>
        <time>2023-03-15T10:09:02.000Z</time>
      </trkpt>
      <trkpt lat="43.6038" lon="6.23063">
        <ele>468.3</ele>
        <time>2023-03-15T10:09:07.000Z</time>
      </trkpt>
      <trkpt lat="43.60386" lon="6.23062">
        <ele>467.8</ele>
        <time>2023-03-15T10:09:13.000Z</time>
      </trkpt>
      <trkpt lat="43.60389" lon="6.23058">
        <ele>467.7</ele>
        <time>2023-03-15T10:09:17.000Z</time>
      </trkpt>
      <trkpt lat="43.60393" lon="6.23054">
        <ele>467.6</ele>
        <time>2023-03-15T10:09:29.000Z</time>
      </trkpt>
      <trkpt lat="43.60396" lon="6.23051">
        <ele>468.2</ele>
        <time>2023-03-15T10:10:56.000Z</time>
      </trkpt>
      <trkpt lat="43.604" lon="6.23046">
        <ele>468.3</ele>
        <time>2023-03-15T10:11:06.000Z</time>
      </trkpt>
      <trkpt lat="43.60405" lon="6.23045">
        <ele>468.4</ele>
        <time>2023-03-15T10:11:13.000Z</time>
      </trkpt>
      <trkpt lat="43.6041" lon="6.23045">
        <ele>468.4</ele>
        <time>2023-03-15T10:11:21.000Z</time>
      </trkpt>
      <trkpt lat="43.60415" lon="6.23045">
        <ele>468.4</ele>
        <time>2023-03-15T10:11:27.000Z</time>
      </trkpt>
      <trkpt lat="43.6042" lon="6.23044">
        <ele>468.6</ele>
        <time>2023-03-15T10:11:32.000Z</time>
      </trkpt>
      <trkpt lat="43.60425" lon="6.23043">
        <ele>468.7</ele>
        <time>2023-03-15T10:11:37.000Z</time>
      </trkpt>
      <trkpt lat="43.6043" lon="6.23043">
        <ele>468.8</ele>
        <time>2023-03-15T10:11:41.000Z</time>
      </trkpt>
      <trkpt lat="43.60435" lon="6.23041">
        <ele>468.9</ele>
        <time>2023-03-15T10:11:45.000Z</time>
      </trkpt>
      <trkpt lat="43.6044" lon="6.2304">
        <ele>468.6</ele>
        <time>2023-03-15T10:11:50.000Z</time>
      </trkpt>
      <trkpt lat="43.60446" lon="6.23039">
        <ele>468.5</ele>
        <time>2023-03-15T10:11:55.000Z</time>
      </trkpt>
      <trkpt lat="43.60451" lon="6.23037">
        <ele>468.2</ele>
        <time>2023-03-15T10:11:59.000Z</time>
      </trkpt>
      <trkpt lat="43.60455" lon="6.23035">
        <ele>468</ele>
        <time>2023-03-15T10:12:02.900Z</time>
      </trkpt>
      <trkpt lat="43.6046" lon="6.23035">
        <ele>467.8</ele>
        <time>2023-03-15T10:12:07.000Z</time>
      </trkpt>
      <trkpt lat="43.60465" lon="6.23035">
        <ele>467.7</ele>
        <time>2023-03-15T10:12:12.000Z</time>
      </trkpt>
      <trkpt lat="43.6047" lon="6.23037">
        <ele>467.6</ele>
        <time>2023-03-15T10:12:17.000Z</time>
      </trkpt>
      <trkpt lat="43.60474" lon="6.2304">
        <ele>467.2</ele>
        <time>2023-03-15T10:12:23.000Z</time>
      </trkpt>
      <trkpt lat="43.60478" lon="6.23044">
        <ele>466.4</ele>
        <time>2023-03-15T10:12:30.000Z</time>
      </trkpt>
      <trkpt lat="43.60483" lon="6.23047">
        <ele>465.9</ele>
        <time>2023-03-15T10:12:36.000Z</time>
      </trkpt>
      <trkpt lat="43.60488" lon="6.23048">
        <ele>465.4</ele>
        <time>2023-03-15T10:12:42.000Z</time>
      </trkpt>
      <trkpt lat="43.60493" lon="6.23049">
        <ele>465.1</ele>
        <time>2023-03-15T10:12:47.000Z</time>
      </trkpt>
      <trkpt lat="43.60498" lon="6.2305">
        <ele>464.7</ele>
        <time>2023-03-15T10:12:52.000Z</time>
      </trkpt>
      <trkpt lat="43.60502" lon="6.23051">
        <ele>464.5</ele>
        <time>2023-03-15T10:12:57.000Z</time>
      </trkpt>
      <trkpt lat="43.60507" lon="6.23052">
        <ele>464.2</ele>
        <time>2023-03-15T10:13:02.000Z</time>
      </trkpt>
      <trkpt lat="43.60512" lon="6.23052">
        <ele>463.8</ele>
        <time>2023-03-15T10:13:07.000Z</time>
      </trkpt>
      <trkpt lat="43.60517" lon="6.23052">
        <ele>463.4</ele>
        <time>2023-03-15T10:13:12.000Z</time>
      </trkpt>
      <trkpt lat="43.60521" lon="6.23051">
        <ele>463.3</ele>
        <time>2023-03-15T10:13:16.000Z</time>
      </trkpt>
      <trkpt lat="43.60526" lon="6.23049">
        <ele>462.8</ele>
        <time>2023-03-15T10:13:21.000Z</time>
      </trkpt>
      <trkpt lat="43.60531" lon="6.2305">
        <ele>462.3</ele>
        <time>2023-03-15T10:13:26.000Z</time>
      </trkpt>
      <trkpt lat="43.60536" lon="6.23049">
        <ele>461.8</ele>
        <time>2023-03-15T10:13:31.000Z</time>
      </trkpt>
      <trkpt lat="43.60541" lon="6.23047">
        <ele>461.4</ele>
        <time>2023-03-15T10:13:36.000Z</time>
      </trkpt>
      <trkpt lat="43.60546" lon="6.23045">
        <ele>461</ele>
        <time>2023-03-15T10:13:40.000Z</time>
      </trkpt>
      <trkpt lat="43.60551" lon="6.23042">
        <ele>460.7</ele>
        <time>2023-03-15T10:13:45.000Z</time>
      </trkpt>
      <trkpt lat="43.60555" lon="6.23043">
        <ele>460.7</ele>
        <time>2023-03-15T10:13:49.000Z</time>
      </trkpt>
      <trkpt lat="43.6056" lon="6.23044">
        <ele>460.4</ele>
        <time>2023-03-15T10:13:54.000Z</time>
      </trkpt>
      <trkpt lat="43.60565" lon="6.23041">
        <ele>460</ele>
        <time>2023-03-15T10:13:59.000Z</time>
      </trkpt>
      <trkpt lat="43.60569" lon="6.23037">
        <ele>459.8</ele>
        <time>2023-03-15T10:14:03.000Z</time>
      </trkpt>
      <trkpt lat="43.60573" lon="6.23034">
        <ele>459.5</ele>
        <time>2023-03-15T10:14:08.000Z</time>
      </trkpt>
      <trkpt lat="43.60578" lon="6.23032">
        <ele>459.3</ele>
        <time>2023-03-15T10:14:13.000Z</time>
      </trkpt>
      <trkpt lat="43.60583" lon="6.23033">
        <ele>459.1</ele>
        <time>2023-03-15T10:14:17.000Z</time>
      </trkpt>
      <trkpt lat="43.60587" lon="6.23034">
        <ele>458.9</ele>
        <time>2023-03-15T10:14:21.000Z</time>
      </trkpt>
      <trkpt lat="43.60592" lon="6.23036">
        <ele>458.7</ele>
        <time>2023-03-15T10:14:27.000Z</time>
      </trkpt>
      <trkpt lat="43.60596" lon="6.23039">
        <ele>458.5</ele>
        <time>2023-03-15T10:14:32.000Z</time>
      </trkpt>
      <trkpt lat="43.606" lon="6.23043">
        <ele>458.7</ele>
        <time>2023-03-15T10:14:38.000Z</time>
      </trkpt>
      <trkpt lat="43.60603" lon="6.23047">
        <ele>458.9</ele>
        <time>2023-03-15T10:14:44.000Z</time>
      </trkpt>
      <trkpt lat="43.60606" lon="6.23052">
        <ele>458.9</ele>
        <time>2023-03-15T10:14:51.000Z</time>
      </trkpt>
      <trkpt lat="43.60609" lon="6.23058">
        <ele>459.4</ele>
        <time>2023-03-15T10:14:57.000Z</time>
      </trkpt>
      <trkpt lat="43.60611" lon="6.23064">
        <ele>459.7</ele>
        <time>2023-03-15T10:15:02.000Z</time>
      </trkpt>
      <trkpt lat="43.60613" lon="6.23071">
        <ele>459.8</ele>
        <time>2023-03-15T10:15:07.000Z</time>
      </trkpt>
      <trkpt lat="43.60615" lon="6.23077">
        <ele>460.1</ele>
        <time>2023-03-15T10:15:13.000Z</time>
      </trkpt>
      <trkpt lat="43.60617" lon="6.23084">
        <ele>460.5</ele>
        <time>2023-03-15T10:15:18.000Z</time>
      </trkpt>
      <trkpt lat="43.6062" lon="6.23091">
        <ele>461</ele>
        <time>2023-03-15T10:15:24.000Z</time>
      </trkpt>
      <trkpt lat="43.60623" lon="6.23095">
        <ele>461.2</ele>
        <time>2023-03-15T10:15:28.000Z</time>
      </trkpt>
      <trkpt lat="43.60625" lon="6.23102">
        <ele>461.3</ele>
        <time>2023-03-15T10:15:34.000Z</time>
      </trkpt>
      <trkpt lat="43.60628" lon="6.23107">
        <ele>461.3</ele>
        <time>2023-03-15T10:15:39.000Z</time>
      </trkpt>
      <trkpt lat="43.6063" lon="6.23113">
        <ele>461.7</ele>
        <time>2023-03-15T10:15:45.000Z</time>
      </trkpt>
      <trkpt lat="43.60633" lon="6.23119">
        <ele>461.8</ele>
        <time>2023-03-15T10:15:50.000Z</time>
      </trkpt>
      <trkpt lat="43.60636" lon="6.23125">
        <ele>461.8</ele>
        <time>2023-03-15T10:15:55.000Z</time>
      </trkpt>
      <trkpt lat="43.60638" lon="6.23131">
        <ele>461.5</ele>
        <time>2023-03-15T10:16:01.000Z</time>
      </trkpt>
      <trkpt lat="43.6064" lon="6.23138">
        <ele>461.1</ele>
        <time>2023-03-15T10:16:07.000Z</time>
      </trkpt>
      <trkpt lat="43.60642" lon="6.23143">
        <ele>460.7</ele>
        <time>2023-03-15T10:16:12.000Z</time>
      </trkpt>
      <trkpt lat="43.60645" lon="6.2315">
        <ele>460.4</ele>
        <time>2023-03-15T10:16:17.000Z</time>
      </trkpt>
      <trkpt lat="43.60648" lon="6.23156">
        <ele>460.2</ele>
        <time>2023-03-15T10:16:22.000Z</time>
      </trkpt>
      <trkpt lat="43.6065" lon="6.23162">
        <ele>460</ele>
        <time>2023-03-15T10:16:27.000Z</time>
      </trkpt>
      <trkpt lat="43.60653" lon="6.23169">
        <ele>459.6</ele>
        <time>2023-03-15T10:16:31.000Z</time>
      </trkpt>
      <trkpt lat="43.60656" lon="6.23174">
        <ele>459.3</ele>
        <time>2023-03-15T10:16:35.000Z</time>
      </trkpt>
      <trkpt lat="43.60661" lon="6.23178">
        <ele>458.7</ele>
        <time>2023-03-15T10:16:40.000Z</time>
      </trkpt>
      <trkpt lat="43.60663" lon="6.23183">
        <ele>458.3</ele>
        <time>2023-03-15T10:16:45.000Z</time>
      </trkpt>
      <trkpt lat="43.60667" lon="6.23188">
        <ele>457.9</ele>
        <time>2023-03-15T10:16:50.000Z</time>
      </trkpt>
      <trkpt lat="43.6067" lon="6.23194">
        <ele>457.5</ele>
        <time>2023-03-15T10:16:55.000Z</time>
      </trkpt>
      <trkpt lat="43.60674" lon="6.232">
        <ele>457.1</ele>
        <time>2023-03-15T10:17:00.000Z</time>
      </trkpt>
      <trkpt lat="43.60677" lon="6.23206">
        <ele>456.6</ele>
        <time>2023-03-15T10:17:05.000Z</time>
      </trkpt>
      <trkpt lat="43.60679" lon="6.23213">
        <ele>456</ele>
        <time>2023-03-15T10:17:09.000Z</time>
      </trkpt>
      <trkpt lat="43.60681" lon="6.23219">
        <ele>455.5</ele>
        <time>2023-03-15T10:17:12.000Z</time>
      </trkpt>
      <trkpt lat="43.60684" lon="6.23224">
        <ele>455.1</ele>
        <time>2023-03-15T10:17:15.000Z</time>
      </trkpt>
      <trkpt lat="43.60686" lon="6.2323">
        <ele>454.6</ele>
        <time>2023-03-15T10:17:19.000Z</time>
      </trkpt>
      <trkpt lat="43.6069" lon="6.23234">
        <ele>453.7</ele>
        <time>2023-03-15T10:17:26.000Z</time>
      </trkpt>
      <trkpt lat="43.60692" lon="6.23241">
        <ele>452.9</ele>
        <time>2023-03-15T10:17:32.000Z</time>
      </trkpt>
      <trkpt lat="43.60693" lon="6.23247">
        <ele>451.3</ele>
        <time>2023-03-15T10:17:43.000Z</time>
      </trkpt>
      <trkpt lat="43.60693" lon="6.23253">
        <ele>449.5</ele>
        <time>2023-03-15T10:18:07.000Z</time>
      </trkpt>
      <trkpt lat="43.60689" lon="6.23257">
        <ele>448.9</ele>
        <time>2023-03-15T10:18:13.000Z</time>
      </trkpt>
      <trkpt lat="43.60685" lon="6.23261">
        <ele>448.5</ele>
        <time>2023-03-15T10:18:19.000Z</time>
      </trkpt>
      <trkpt lat="43.6068" lon="6.23266">
        <ele>448.2</ele>
        <time>2023-03-15T10:18:24.000Z</time>
      </trkpt>
      <trkpt lat="43.60677" lon="6.23271">
        <ele>448.1</ele>
        <time>2023-03-15T10:18:28.000Z</time>
      </trkpt>
      <trkpt lat="43.60673" lon="6.23276">
        <ele>447.9</ele>
        <time>2023-03-15T10:18:33.000Z</time>
      </trkpt>
      <trkpt lat="43.60668" lon="6.23281">
        <ele>447.5</ele>
        <time>2023-03-15T10:18:38.000Z</time>
      </trkpt>
      <trkpt lat="43.60665" lon="6.23285">
        <ele>447.2</ele>
        <time>2023-03-15T10:18:42.000Z</time>
      </trkpt>
      <trkpt lat="43.60661" lon="6.23289">
        <ele>447</ele>
        <time>2023-03-15T10:18:47.000Z</time>
      </trkpt>
      <trkpt lat="43.60657" lon="6.23293">
        <ele>446.8</ele>
        <time>2023-03-15T10:18:51.000Z</time>
      </trkpt>
      <trkpt lat="43.60652" lon="6.23298">
        <ele>446.6</ele>
        <time>2023-03-15T10:18:56.000Z</time>
      </trkpt>
      <trkpt lat="43.60649" lon="6.23302">
        <ele>446.4</ele>
        <time>2023-03-15T10:19:00.000Z</time>
      </trkpt>
      <trkpt lat="43.60644" lon="6.23307">
        <ele>446.2</ele>
        <time>2023-03-15T10:19:05.000Z</time>
      </trkpt>
      <trkpt lat="43.6064" lon="6.23311">
        <ele>445.9</ele>
        <time>2023-03-15T10:19:10.000Z</time>
      </trkpt>
      <trkpt lat="43.60637" lon="6.23316">
        <ele>445.7</ele>
        <time>2023-03-15T10:19:14.000Z</time>
      </trkpt>
      <trkpt lat="43.60632" lon="6.2332">
        <ele>445.6</ele>
        <time>2023-03-15T10:19:19.000Z</time>
      </trkpt>
      <trkpt lat="43.60629" lon="6.23324">
        <ele>445.5</ele>
        <time>2023-03-15T10:19:23.000Z</time>
      </trkpt>
      <trkpt lat="43.60625" lon="6.23329">
        <ele>445.4</ele>
        <time>2023-03-15T10:19:27.000Z</time>
      </trkpt>
      <trkpt lat="43.60622" lon="6.23334">
        <ele>445.3</ele>
        <time>2023-03-15T10:19:31.000Z</time>
      </trkpt>
      <trkpt lat="43.60618" lon="6.23339">
        <ele>445.3</ele>
        <time>2023-03-15T10:19:36.000Z</time>
      </trkpt>
      <trkpt lat="43.60613" lon="6.23343">
        <ele>444.9</ele>
        <time>2023-03-15T10:19:41.000Z</time>
      </trkpt>
      <trkpt lat="43.6061" lon="6.23347">
        <ele>444.7</ele>
        <time>2023-03-15T10:19:45.000Z</time>
      </trkpt>
      <trkpt lat="43.60605" lon="6.23352">
        <ele>444.5</ele>
        <time>2023-03-15T10:19:50.000Z</time>
      </trkpt>
      <trkpt lat="43.60602" lon="6.23357">
        <ele>444.3</ele>
        <time>2023-03-15T10:19:54.000Z</time>
      </trkpt>
      <trkpt lat="43.60598" lon="6.23361">
        <ele>444</ele>
        <time>2023-03-15T10:19:58.000Z</time>
      </trkpt>
      <trkpt lat="43.60595" lon="6.23365">
        <ele>443.8</ele>
        <time>2023-03-15T10:20:02.000Z</time>
      </trkpt>
      <trkpt lat="43.6059" lon="6.2337">
        <ele>443.7</ele>
        <time>2023-03-15T10:20:07.000Z</time>
      </trkpt>
      <trkpt lat="43.60587" lon="6.23375">
        <ele>443.6</ele>
        <time>2023-03-15T10:20:11.000Z</time>
      </trkpt>
      <trkpt lat="43.60586" lon="6.23382">
        <ele>443.3</ele>
        <time>2023-03-15T10:20:15.000Z</time>
      </trkpt>
      <trkpt lat="43.60586" lon="6.23389">
        <ele>443</ele>
        <time>2023-03-15T10:20:20.000Z</time>
      </trkpt>
      <trkpt lat="43.60587" lon="6.23395">
        <ele>442.8</ele>
        <time>2023-03-15T10:20:24.000Z</time>
      </trkpt>
      <trkpt lat="43.60589" lon="6.23401">
        <ele>442.6</ele>
        <time>2023-03-15T10:20:28.000Z</time>
      </trkpt>
      <trkpt lat="43.60591" lon="6.23407">
        <ele>442.1</ele>
        <time>2023-03-15T10:20:34.000Z</time>
      </trkpt>
      <trkpt lat="43.60593" lon="6.23413">
        <ele>441.8</ele>
        <time>2023-03-15T10:20:53.000Z</time>
      </trkpt>
      <trkpt lat="43.60598" lon="6.23415">
        <ele>442.1</ele>
        <time>2023-03-15T10:21:13.000Z</time>
      </trkpt>
      <trkpt lat="43.60602" lon="6.23415">
        <ele>442.2</ele>
        <time>2023-03-15T10:21:30.000Z</time>
      </trkpt>
      <trkpt lat="43.60598" lon="6.23416">
        <ele>441.5</ele>
        <time>2023-03-15T10:22:11.000Z</time>
      </trkpt>
      <trkpt lat="43.60594" lon="6.23421">
        <ele>441.1</ele>
        <time>2023-03-15T10:22:18.000Z</time>
      </trkpt>
      <trkpt lat="43.60592" lon="6.23428">
        <ele>441</ele>
        <time>2023-03-15T10:22:24.000Z</time>
      </trkpt>
      <trkpt lat="43.6059" lon="6.23434">
        <ele>440.6</ele>
        <time>2023-03-15T10:22:30.000Z</time>
      </trkpt>
      <trkpt lat="43.60588" lon="6.2344">
        <ele>440.2</ele>
        <time>2023-03-15T10:22:35.000Z</time>
      </trkpt>
      <trkpt lat="43.60587" lon="6.23447">
        <ele>439.7</ele>
        <time>2023-03-15T10:22:40.000Z</time>
      </trkpt>
      <trkpt lat="43.60586" lon="6.23453">
        <ele>439.2</ele>
        <time>2023-03-15T10:22:45.000Z</time>
      </trkpt>
      <trkpt lat="43.60585" lon="6.2346">
        <ele>438.8</ele>
        <time>2023-03-15T10:22:50.000Z</time>
      </trkpt>
      <trkpt lat="43.60584" lon="6.23467">
        <ele>438.4</ele>
        <time>2023-03-15T10:22:55.000Z</time>
      </trkpt>
      <trkpt lat="43.60583" lon="6.23473">
        <ele>438</ele>
        <time>2023-03-15T10:22:59.000Z</time>
      </trkpt>
      <trkpt lat="43.60582" lon="6.23479">
        <ele>437.8</ele>
        <time>2023-03-15T10:23:03.000Z</time>
      </trkpt>
      <trkpt lat="43.60581" lon="6.23486">
        <ele>437.6</ele>
        <time>2023-03-15T10:23:07.000Z</time>
      </trkpt>
      <trkpt lat="43.6058" lon="6.23493">
        <ele>437.3</ele>
        <time>2023-03-15T10:23:12.000Z</time>
      </trkpt>
      <trkpt lat="43.60579" lon="6.23501">
        <ele>436.9</ele>
        <time>2023-03-15T10:23:17.000Z</time>
      </trkpt>
      <trkpt lat="43.60579" lon="6.23508">
        <ele>436.5</ele>
        <time>2023-03-15T10:23:22.000Z</time>
      </trkpt>
      <trkpt lat="43.60579" lon="6.23514">
        <ele>435.9</ele>
        <time>2023-03-15T10:23:35.000Z</time>
      </trkpt>
      <trkpt lat="43.60579" lon="6.23521">
        <ele>435.9</ele>
        <time>2023-03-15T10:23:45.000Z</time>
      </trkpt>
      <trkpt lat="43.60576" lon="6.23526">
        <ele>436.4</ele>
        <time>2023-03-15T10:24:11.000Z</time>
      </trkpt>
      <trkpt lat="43.60573" lon="6.23532">
        <ele>436.4</ele>
        <time>2023-03-15T10:24:17.000Z</time>
      </trkpt>
      <trkpt lat="43.6057" lon="6.23537">
        <ele>436.5</ele>
        <time>2023-03-15T10:24:22.000Z</time>
      </trkpt>
      <trkpt lat="43.60566" lon="6.2354">
        <ele>436.7</ele>
        <time>2023-03-15T10:24:27.000Z</time>
      </trkpt>
      <trkpt lat="43.60561" lon="6.23542">
        <ele>436.7</ele>
        <time>2023-03-15T10:24:32.000Z</time>
      </trkpt>
      <trkpt lat="43.60557" lon="6.23546">
        <ele>436.6</ele>
        <time>2023-03-15T10:24:37.000Z</time>
      </trkpt>
      <trkpt lat="43.60552" lon="6.23549">
        <ele>436.6</ele>
        <time>2023-03-15T10:24:42.000Z</time>
      </trkpt>
      <trkpt lat="43.60548" lon="6.23553">
        <ele>436.6</ele>
        <time>2023-03-15T10:24:48.000Z</time>
      </trkpt>
      <trkpt lat="43.60544" lon="6.23559">
        <ele>436.9</ele>
        <time>2023-03-15T10:24:54.000Z</time>
      </trkpt>
      <trkpt lat="43.6054" lon="6.23563">
        <ele>437.3</ele>
        <time>2023-03-15T10:24:59.000Z</time>
      </trkpt>
      <trkpt lat="43.60537" lon="6.23567">
        <ele>437.6</ele>
        <time>2023-03-15T10:25:04.000Z</time>
      </trkpt>
      <trkpt lat="43.60533" lon="6.23572">
        <ele>437.9</ele>
        <time>2023-03-15T10:25:09.000Z</time>
      </trkpt>
      <trkpt lat="43.60529" lon="6.23576">
        <ele>438.6</ele>
        <time>2023-03-15T10:25:15.000Z</time>
      </trkpt>
      <trkpt lat="43.60525" lon="6.23579">
        <ele>439.3</ele>
        <time>2023-03-15T10:25:21.000Z</time>
      </trkpt>
      <trkpt lat="43.60521" lon="6.23581">
        <ele>440</ele>
        <time>2023-03-15T10:25:27.000Z</time>
      </trkpt>
      <trkpt lat="43.60517" lon="6.23585">
        <ele>440.8</ele>
        <time>2023-03-15T10:25:32.000Z</time>
      </trkpt>
      <trkpt lat="43.60512" lon="6.23588">
        <ele>441.5</ele>
        <time>2023-03-15T10:25:37.000Z</time>
      </trkpt>
      <trkpt lat="43.60508" lon="6.23593">
        <ele>442.1</ele>
        <time>2023-03-15T10:25:42.000Z</time>
      </trkpt>
      <trkpt lat="43.60505" lon="6.23597">
        <ele>442.6</ele>
        <time>2023-03-15T10:25:47.000Z</time>
      </trkpt>
      <trkpt lat="43.60502" lon="6.23603">
        <ele>443.1</ele>
        <time>2023-03-15T10:25:52.000Z</time>
      </trkpt>
      <trkpt lat="43.60499" lon="6.23609">
        <ele>443.7</ele>
        <time>2023-03-15T10:25:57.000Z</time>
      </trkpt>
      <trkpt lat="43.60496" lon="6.23615">
        <ele>444.2</ele>
        <time>2023-03-15T10:26:02.000Z</time>
      </trkpt>
      <trkpt lat="43.60492" lon="6.23621">
        <ele>444.9</ele>
        <time>2023-03-15T10:26:07.000Z</time>
      </trkpt>
      <trkpt lat="43.60488" lon="6.23627">
        <ele>445.5</ele>
        <time>2023-03-15T10:26:12.000Z</time>
      </trkpt>
      <trkpt lat="43.60485" lon="6.23632">
        <ele>445.8</ele>
        <time>2023-03-15T10:26:16.000Z</time>
      </trkpt>
      <trkpt lat="43.60481" lon="6.23636">
        <ele>446</ele>
        <time>2023-03-15T10:26:22.000Z</time>
      </trkpt>
      <trkpt lat="43.60479" lon="6.23642">
        <ele>446.3</ele>
        <time>2023-03-15T10:26:26.000Z</time>
      </trkpt>
      <trkpt lat="43.60476" lon="6.23647">
        <ele>446.9</ele>
        <time>2023-03-15T10:26:30.000Z</time>
      </trkpt>
      <trkpt lat="43.60472" lon="6.23652">
        <ele>447.4</ele>
        <time>2023-03-15T10:26:35.000Z</time>
      </trkpt>
      <trkpt lat="43.60469" lon="6.23656">
        <ele>447.6</ele>
        <time>2023-03-15T10:26:39.000Z</time>
      </trkpt>
      <trkpt lat="43.60465" lon="6.23661">
        <ele>447.8</ele>
        <time>2023-03-15T10:26:43.000Z</time>
      </trkpt>
      <trkpt lat="43.60462" lon="6.23667">
        <ele>448</ele>
        <time>2023-03-15T10:26:47.000Z</time>
      </trkpt>
      <trkpt lat="43.60459" lon="6.23672">
        <ele>448.3</ele>
        <time>2023-03-15T10:26:51.000Z</time>
      </trkpt>
      <trkpt lat="43.60456" lon="6.23677">
        <ele>448.7</ele>
        <time>2023-03-15T10:26:55.000Z</time>
      </trkpt>
      <trkpt lat="43.60452" lon="6.23682">
        <ele>449</ele>
        <time>2023-03-15T10:26:59.000Z</time>
      </trkpt>
      <trkpt lat="43.60449" lon="6.23686">
        <ele>449.2</ele>
        <time>2023-03-15T10:27:03.000Z</time>
      </trkpt>
      <trkpt lat="43.60445" lon="6.23691">
        <ele>449.3</ele>
        <time>2023-03-15T10:27:07.000Z</time>
      </trkpt>
      <trkpt lat="43.60442" lon="6.23696">
        <ele>449.5</ele>
        <time>2023-03-15T10:27:11.000Z</time>
      </trkpt>
      <trkpt lat="43.60438" lon="6.237">
        <ele>449.6</ele>
        <time>2023-03-15T10:27:15.000Z</time>
      </trkpt>
      <trkpt lat="43.60435" lon="6.23704">
        <ele>449.6</ele>
        <time>2023-03-15T10:27:19.000Z</time>
      </trkpt>
      <trkpt lat="43.60432" lon="6.2371">
        <ele>449.7</ele>
        <time>2023-03-15T10:27:23.000Z</time>
      </trkpt>
      <trkpt lat="43.60429" lon="6.23715">
        <ele>449.7</ele>
        <time>2023-03-15T10:27:27.000Z</time>
      </trkpt>
      <trkpt lat="43.60425" lon="6.23721">
        <ele>449.8</ele>
        <time>2023-03-15T10:27:32.000Z</time>
      </trkpt>
      <trkpt lat="43.60422" lon="6.23726">
        <ele>450</ele>
        <time>2023-03-15T10:27:37.000Z</time>
      </trkpt>
      <trkpt lat="43.60417" lon="6.23731">
        <ele>450.4</ele>
        <time>2023-03-15T10:27:42.000Z</time>
      </trkpt>
      <trkpt lat="43.60414" lon="6.23736">
        <ele>450.6</ele>
        <time>2023-03-15T10:27:46.000Z</time>
      </trkpt>
      <trkpt lat="43.60411" lon="6.23741">
        <ele>450.8</ele>
        <time>2023-03-15T10:27:50.000Z</time>
      </trkpt>
      <trkpt lat="43.60408" lon="6.23746">
        <ele>450.9</ele>
        <time>2023-03-15T10:27:54.000Z</time>
      </trkpt>
      <trkpt lat="43.60404" lon="6.23751">
        <ele>451.1</ele>
        <time>2023-03-15T10:27:58.000Z</time>
      </trkpt>
      <trkpt lat="43.60401" lon="6.23756">
        <ele>451</ele>
        <time>2023-03-15T10:28:02.000Z</time>
      </trkpt>
      <trkpt lat="43.60398" lon="6.23761">
        <ele>450.9</ele>
        <time>2023-03-15T10:28:07.000Z</time>
      </trkpt>
      <trkpt lat="43.60395" lon="6.23766">
        <ele>450.8</ele>
        <time>2023-03-15T10:28:11.000Z</time>
      </trkpt>
      <trkpt lat="43.60391" lon="6.23771">
        <ele>450.7</ele>
        <time>2023-03-15T10:28:15.000Z</time>
      </trkpt>
      <trkpt lat="43.60388" lon="6.23776">
        <ele>450.5</ele>
        <time>2023-03-15T10:28:19.000Z</time>
      </trkpt>
      <trkpt lat="43.60385" lon="6.23782">
        <ele>450.1</ele>
        <time>2023-03-15T10:28:23.000Z</time>
      </trkpt>
      <trkpt lat="43.60383" lon="6.23787">
        <ele>449.8</ele>
        <time>2023-03-15T10:28:27.000Z</time>
      </trkpt>
      <trkpt lat="43.6038" lon="6.23793">
        <ele>449.6</ele>
        <time>2023-03-15T10:28:30.000Z</time>
      </trkpt>
      <trkpt lat="43.60378" lon="6.238">
        <ele>449.4</ele>
        <time>2023-03-15T10:28:34.000Z</time>
      </trkpt>
      <trkpt lat="43.60375" lon="6.23806">
        <ele>449.1</ele>
        <time>2023-03-15T10:28:38.000Z</time>
      </trkpt>
      <trkpt lat="43.60372" lon="6.23812">
        <ele>448.8</ele>
        <time>2023-03-15T10:28:42.000Z</time>
      </trkpt>
      <trkpt lat="43.6037" lon="6.23817">
        <ele>448.4</ele>
        <time>2023-03-15T10:28:46.000Z</time>
      </trkpt>
      <trkpt lat="43.60367" lon="6.23824">
        <ele>447.8</ele>
        <time>2023-03-15T10:28:51.000Z</time>
      </trkpt>
      <trkpt lat="43.60364" lon="6.2383">
        <ele>447.2</ele>
        <time>2023-03-15T10:28:56.000Z</time>
      </trkpt>
      <trkpt lat="43.60361" lon="6.23837">
        <ele>446.5</ele>
        <time>2023-03-15T10:29:01.000Z</time>
      </trkpt>
      <trkpt lat="43.60358" lon="6.23842">
        <ele>446.1</ele>
        <time>2023-03-15T10:29:06.000Z</time>
      </trkpt>
      <trkpt lat="43.60355" lon="6.23849">
        <ele>445.4</ele>
        <time>2023-03-15T10:29:11.000Z</time>
      </trkpt>
      <trkpt lat="43.60353" lon="6.23855">
        <ele>444.8</ele>
        <time>2023-03-15T10:29:16.000Z</time>
      </trkpt>
      <trkpt lat="43.6035" lon="6.2386">
        <ele>444.1</ele>
        <time>2023-03-15T10:29:21.000Z</time>
      </trkpt>
      <trkpt lat="43.60347" lon="6.23865">
        <ele>443.4</ele>
        <time>2023-03-15T10:29:26.000Z</time>
      </trkpt>
      <trkpt lat="43.60344" lon="6.23871">
        <ele>442.9</ele>
        <time>2023-03-15T10:29:31.000Z</time>
      </trkpt>
      <trkpt lat="43.60341" lon="6.23877">
        <ele>442.5</ele>
        <time>2023-03-15T10:29:35.000Z</time>
      </trkpt>
      <trkpt lat="43.60338" lon="6.23883">
        <ele>442</ele>
        <time>2023-03-15T10:29:39.000Z</time>
      </trkpt>
      <trkpt lat="43.60335" lon="6.23888">
        <ele>441.6</ele>
        <time>2023-03-15T10:29:43.000Z</time>
      </trkpt>
      <trkpt lat="43.60333" lon="6.23894">
        <ele>441.2</ele>
        <time>2023-03-15T10:29:47.000Z</time>
      </trkpt>
      <trkpt lat="43.6033" lon="6.23899">
        <ele>440.9</ele>
        <time>2023-03-15T10:29:51.000Z</time>
      </trkpt>
      <trkpt lat="43.60327" lon="6.23904">
        <ele>440.7</ele>
        <time>2023-03-15T10:29:55.000Z</time>
      </trkpt>
      <trkpt lat="43.60325" lon="6.2391">
        <ele>440.5</ele>
        <time>2023-03-15T10:29:59.000Z</time>
      </trkpt>
      <trkpt lat="43.60322" lon="6.23917">
        <ele>440.3</ele>
        <time>2023-03-15T10:30:04.000Z</time>
      </trkpt>
      <trkpt lat="43.60319" lon="6.23923">
        <ele>440.3</ele>
        <time>2023-03-15T10:30:09.000Z</time>
      </trkpt>
      <trkpt lat="43.60315" lon="6.23929">
        <ele>440.5</ele>
        <time>2023-03-15T10:30:14.000Z</time>
      </trkpt>
      <trkpt lat="43.60312" lon="6.23934">
        <ele>440.7</ele>
        <time>2023-03-15T10:30:19.000Z</time>
      </trkpt>
      <trkpt lat="43.60309" lon="6.23939">
        <ele>441.2</ele>
        <time>2023-03-15T10:30:24.000Z</time>
      </trkpt>
      <trkpt lat="43.60305" lon="6.23943">
        <ele>441.8</ele>
        <time>2023-03-15T10:30:29.000Z</time>
      </trkpt>
      <trkpt lat="43.60301" lon="6.23947">
        <ele>442.3</ele>
        <time>2023-03-15T10:30:34.000Z</time>
      </trkpt>
      <trkpt lat="43.60297" lon="6.23952">
        <ele>442.8</ele>
        <time>2023-03-15T10:30:40.000Z</time>
      </trkpt>
      <trkpt lat="43.60293" lon="6.23954">
        <ele>443.4</ele>
        <time>2023-03-15T10:30:45.000Z</time>
      </trkpt>
      <trkpt lat="43.60289" lon="6.23958">
        <ele>443.5</ele>
        <time>2023-03-15T10:30:50.000Z</time>
      </trkpt>
      <trkpt lat="43.60286" lon="6.23963">
        <ele>443.5</ele>
        <time>2023-03-15T10:30:54.000Z</time>
      </trkpt>
      <trkpt lat="43.60283" lon="6.23969">
        <ele>443.5</ele>
        <time>2023-03-15T10:30:59.000Z</time>
      </trkpt>
      <trkpt lat="43.6028" lon="6.23974">
        <ele>443.5</ele>
        <time>2023-03-15T10:31:03.000Z</time>
      </trkpt>
      <trkpt lat="43.60277" lon="6.2398">
        <ele>443.5</ele>
        <time>2023-03-15T10:31:08.000Z</time>
      </trkpt>
      <trkpt lat="43.60274" lon="6.23986">
        <ele>443.5</ele>
        <time>2023-03-15T10:31:13.000Z</time>
      </trkpt>
      <trkpt lat="43.60271" lon="6.23992">
        <ele>443.5</ele>
        <time>2023-03-15T10:31:17.000Z</time>
      </trkpt>
      <trkpt lat="43.60269" lon="6.23997">
        <ele>443.5</ele>
        <time>2023-03-15T10:31:21.000Z</time>
      </trkpt>
      <trkpt lat="43.60265" lon="6.24002">
        <ele>443.4</ele>
        <time>2023-03-15T10:31:26.000Z</time>
      </trkpt>
      <trkpt lat="43.60262" lon="6.24007">
        <ele>443.3</ele>
        <time>2023-03-15T10:31:31.000Z</time>
      </trkpt>
      <trkpt lat="43.6026" lon="6.24013">
        <ele>443.3</ele>
        <time>2023-03-15T10:31:35.000Z</time>
      </trkpt>
      <trkpt lat="43.60257" lon="6.24019">
        <ele>443.2</ele>
        <time>2023-03-15T10:31:40.000Z</time>
      </trkpt>
      <trkpt lat="43.60254" lon="6.24026">
        <ele>443.2</ele>
        <time>2023-03-15T10:31:45.000Z</time>
      </trkpt>
      <trkpt lat="43.60251" lon="6.24031">
        <ele>443.2</ele>
        <time>2023-03-15T10:31:49.000Z</time>
      </trkpt>
      <trkpt lat="43.60248" lon="6.24037">
        <ele>443.1</ele>
        <time>2023-03-15T10:31:53.000Z</time>
      </trkpt>
      <trkpt lat="43.60245" lon="6.24042">
        <ele>443</ele>
        <time>2023-03-15T10:31:58.000Z</time>
      </trkpt>
      <trkpt lat="43.60243" lon="6.24049">
        <ele>442.9</ele>
        <time>2023-03-15T10:32:03.000Z</time>
      </trkpt>
      <trkpt lat="43.6024" lon="6.24055">
        <ele>442.8</ele>
        <time>2023-03-15T10:32:07.000Z</time>
      </trkpt>
      <trkpt lat="43.60237" lon="6.24061">
        <ele>442.8</ele>
        <time>2023-03-15T10:32:11.000Z</time>
      </trkpt>
      <trkpt lat="43.60234" lon="6.24067">
        <ele>442.6</ele>
        <time>2023-03-15T10:32:16.000Z</time>
      </trkpt>
      <trkpt lat="43.60232" lon="6.24073">
        <ele>442.5</ele>
        <time>2023-03-15T10:32:21.000Z</time>
      </trkpt>
      <trkpt lat="43.60229" lon="6.24078">
        <ele>442.3</ele>
        <time>2023-03-15T10:32:25.000Z</time>
      </trkpt>
      <trkpt lat="43.60226" lon="6.24083">
        <ele>442</ele>
        <time>2023-03-15T10:32:30.000Z</time>
      </trkpt>
      <trkpt lat="43.60223" lon="6.24089">
        <ele>441.5</ele>
        <time>2023-03-15T10:32:44.000Z</time>
      </trkpt>
      <trkpt lat="43.60224" lon="6.24095">
        <ele>441.6</ele>
        <time>2023-03-15T10:32:51.000Z</time>
      </trkpt>
      <trkpt lat="43.60227" lon="6.24101">
        <ele>441.6</ele>
        <time>2023-03-15T10:32:57.000Z</time>
      </trkpt>
      <trkpt lat="43.60232" lon="6.24105">
        <ele>441.7</ele>
        <time>2023-03-15T10:33:03.000Z</time>
      </trkpt>
      <trkpt lat="43.60236" lon="6.24109">
        <ele>441.9</ele>
        <time>2023-03-15T10:33:09.000Z</time>
      </trkpt>
      <trkpt lat="43.60239" lon="6.24113">
        <ele>442.1</ele>
        <time>2023-03-15T10:33:14.000Z</time>
      </trkpt>
      <trkpt lat="43.60242" lon="6.24118">
        <ele>442.3</ele>
        <time>2023-03-15T10:33:19.000Z</time>
      </trkpt>
      <trkpt lat="43.60245" lon="6.24123">
        <ele>442.4</ele>
        <time>2023-03-15T10:33:24.000Z</time>
      </trkpt>
      <trkpt lat="43.60249" lon="6.24128">
        <ele>442.6</ele>
        <time>2023-03-15T10:33:29.000Z</time>
      </trkpt>
      <trkpt lat="43.60253" lon="6.24131">
        <ele>442.8</ele>
        <time>2023-03-15T10:33:35.000Z</time>
      </trkpt>
      <trkpt lat="43.60257" lon="6.24134">
        <ele>443</ele>
        <time>2023-03-15T10:33:40.000Z</time>
      </trkpt>
      <trkpt lat="43.60261" lon="6.24137">
        <ele>443.1</ele>
        <time>2023-03-15T10:33:45.000Z</time>
      </trkpt>
      <trkpt lat="43.60265" lon="6.24141">
        <ele>443.5</ele>
        <time>2023-03-15T10:33:51.000Z</time>
      </trkpt>
      <trkpt lat="43.60269" lon="6.24144">
        <ele>443.9</ele>
        <time>2023-03-15T10:33:59.000Z</time>
      </trkpt>
      <trkpt lat="43.60268" lon="6.2415">
        <ele>444.8</ele>
        <time>2023-03-15T10:34:23.000Z</time>
      </trkpt>
      <trkpt lat="43.60273" lon="6.24151">
        <ele>444.9</ele>
        <time>2023-03-15T10:35:43.000Z</time>
      </trkpt>
      <trkpt lat="43.60269" lon="6.24147">
        <ele>444.6</ele>
        <time>2023-03-15T10:35:56.000Z</time>
      </trkpt>
      <trkpt lat="43.60265" lon="6.24143">
        <ele>444.4</ele>
        <time>2023-03-15T10:36:02.000Z</time>
      </trkpt>
      <trkpt lat="43.60262" lon="6.24138">
        <ele>444</ele>
        <time>2023-03-15T10:36:08.000Z</time>
      </trkpt>
      <trkpt lat="43.6026" lon="6.24132">
        <ele>443.6</ele>
        <time>2023-03-15T10:36:14.000Z</time>
      </trkpt>
      <trkpt lat="43.60256" lon="6.24128">
        <ele>443.3</ele>
        <time>2023-03-15T10:36:20.000Z</time>
      </trkpt>
      <trkpt lat="43.60252" lon="6.24124">
        <ele>443.1</ele>
        <time>2023-03-15T10:36:26.000Z</time>
      </trkpt>
      <trkpt lat="43.60248" lon="6.2412">
        <ele>442.9</ele>
        <time>2023-03-15T10:36:32.000Z</time>
      </trkpt>
      <trkpt lat="43.60245" lon="6.24114">
        <ele>442.6</ele>
        <time>2023-03-15T10:36:39.000Z</time>
      </trkpt>
      <trkpt lat="43.60241" lon="6.24109">
        <ele>442.5</ele>
        <time>2023-03-15T10:36:45.000Z</time>
      </trkpt>
      <trkpt lat="43.60237" lon="6.24105">
        <ele>442.4</ele>
        <time>2023-03-15T10:36:51.000Z</time>
      </trkpt>
      <trkpt lat="43.60232" lon="6.24102">
        <ele>442.4</ele>
        <time>2023-03-15T10:36:57.000Z</time>
      </trkpt>
      <trkpt lat="43.60228" lon="6.241">
        <ele>442.4</ele>
        <time>2023-03-15T10:37:05.000Z</time>
      </trkpt>
      <trkpt lat="43.60225" lon="6.24096">
        <ele>442.3</ele>
        <time>2023-03-15T10:37:17.000Z</time>
      </trkpt>
      <trkpt lat="43.6022" lon="6.24096">
        <ele>441.4</ele>
        <time>2023-03-15T10:37:36.000Z</time>
      </trkpt>
      <trkpt lat="43.60216" lon="6.24101">
        <ele>441.2</ele>
        <time>2023-03-15T10:37:42.000Z</time>
      </trkpt>
      <trkpt lat="43.60212" lon="6.24106">
        <ele>441.1</ele>
        <time>2023-03-15T10:37:48.000Z</time>
      </trkpt>
      <trkpt lat="43.60208" lon="6.2411">
        <ele>441</ele>
        <time>2023-03-15T10:37:54.000Z</time>
      </trkpt>
      <trkpt lat="43.60205" lon="6.24115">
        <ele>441</ele>
        <time>2023-03-15T10:37:59.000Z</time>
      </trkpt>
      <trkpt lat="43.60201" lon="6.24121">
        <ele>441</ele>
        <time>2023-03-15T10:38:04.000Z</time>
      </trkpt>
      <trkpt lat="43.60197" lon="6.24126">
        <ele>441</ele>
        <time>2023-03-15T10:38:09.000Z</time>
      </trkpt>
      <trkpt lat="43.60194" lon="6.24131">
        <ele>441</ele>
        <time>2023-03-15T10:38:15.000Z</time>
      </trkpt>
      <trkpt lat="43.6019" lon="6.24137">
        <ele>441</ele>
        <time>2023-03-15T10:38:20.000Z</time>
      </trkpt>
      <trkpt lat="43.60187" lon="6.24142">
        <ele>441</ele>
        <time>2023-03-15T10:38:25.000Z</time>
      </trkpt>
      <trkpt lat="43.60183" lon="6.24147">
        <ele>441</ele>
        <time>2023-03-15T10:38:30.000Z</time>
      </trkpt>
      <trkpt lat="43.6018" lon="6.24151">
        <ele>441</ele>
        <time>2023-03-15T10:38:35.000Z</time>
      </trkpt>
      <trkpt lat="43.60176" lon="6.24156">
        <ele>441</ele>
        <time>2023-03-15T10:38:40.000Z</time>
      </trkpt>
      <trkpt lat="43.60173" lon="6.24163">
        <ele>441.1</ele>
        <time>2023-03-15T10:38:45.000Z</time>
      </trkpt>
      <trkpt lat="43.6017" lon="6.24168">
        <ele>441.2</ele>
        <time>2023-03-15T10:38:50.000Z</time>
      </trkpt>
      <trkpt lat="43.60166" lon="6.24174">
        <ele>441.4</ele>
        <time>2023-03-15T10:38:55.000Z</time>
      </trkpt>
      <trkpt lat="43.60162" lon="6.24179">
        <ele>441.4</ele>
        <time>2023-03-15T10:39:00.000Z</time>
      </trkpt>
      <trkpt lat="43.60159" lon="6.24183">
        <ele>441.3</ele>
        <time>2023-03-15T10:39:05.000Z</time>
      </trkpt>
      <trkpt lat="43.60155" lon="6.24186">
        <ele>441.3</ele>
        <time>2023-03-15T10:39:10.000Z</time>
      </trkpt>
      <trkpt lat="43.6015" lon="6.24188">
        <ele>441.5</ele>
        <time>2023-03-15T10:39:15.000Z</time>
      </trkpt>
      <trkpt lat="43.60145" lon="6.24189">
        <ele>441.7</ele>
        <time>2023-03-15T10:39:21.000Z</time>
      </trkpt>
      <trkpt lat="43.60141" lon="6.24189">
        <ele>441.8</ele>
        <time>2023-03-15T10:39:26.000Z</time>
      </trkpt>
      <trkpt lat="43.60136" lon="6.24187">
        <ele>442</ele>
        <time>2023-03-15T10:39:36.000Z</time>
      </trkpt>
      <trkpt lat="43.60133" lon="6.24184">
        <ele>442</ele>
        <time>2023-03-15T10:39:42.000Z</time>
      </trkpt>
      <trkpt lat="43.60129" lon="6.2418">
        <ele>442</ele>
        <time>2023-03-15T10:39:48.000Z</time>
      </trkpt>
      <trkpt lat="43.60125" lon="6.24176">
        <ele>442</ele>
        <time>2023-03-15T10:39:54.000Z</time>
      </trkpt>
      <trkpt lat="43.60122" lon="6.24172">
        <ele>442</ele>
        <time>2023-03-15T10:40:01.000Z</time>
      </trkpt>
      <trkpt lat="43.60118" lon="6.24167">
        <ele>442</ele>
        <time>2023-03-15T10:40:08.000Z</time>
      </trkpt>
      <trkpt lat="43.60114" lon="6.24164">
        <ele>442.1</ele>
        <time>2023-03-15T10:40:15.000Z</time>
      </trkpt>
      <trkpt lat="43.60111" lon="6.24158">
        <ele>442.2</ele>
        <time>2023-03-15T10:40:22.000Z</time>
      </trkpt>
      <trkpt lat="43.60113" lon="6.24164">
        <ele>442.9</ele>
        <time>2023-03-15T10:40:44.000Z</time>
      </trkpt>
      <trkpt lat="43.60116" lon="6.24169">
        <ele>443.3</ele>
        <time>2023-03-15T10:40:56.000Z</time>
      </trkpt>
      <trkpt lat="43.6012" lon="6.24172">
        <ele>443.4</ele>
        <time>2023-03-15T10:41:03.000Z</time>
      </trkpt>
      <trkpt lat="43.60123" lon="6.24177">
        <ele>443.5</ele>
        <time>2023-03-15T10:41:09.000Z</time>
      </trkpt>
      <trkpt lat="43.60126" lon="6.24183">
        <ele>443.5</ele>
        <time>2023-03-15T10:41:14.000Z</time>
      </trkpt>
      <trkpt lat="43.6013" lon="6.24187">
        <ele>443.5</ele>
        <time>2023-03-15T10:41:18.000Z</time>
      </trkpt>
      <trkpt lat="43.60133" lon="6.24192">
        <ele>443.3</ele>
        <time>2023-03-15T10:41:23.000Z</time>
      </trkpt>
      <trkpt lat="43.6013" lon="6.24199">
        <ele>443.2</ele>
        <time>2023-03-15T10:41:28.000Z</time>
      </trkpt>
      <trkpt lat="43.60129" lon="6.24205">
        <ele>443.1</ele>
        <time>2023-03-15T10:41:32.000Z</time>
      </trkpt>
      <trkpt lat="43.60128" lon="6.24212">
        <ele>443.1</ele>
        <time>2023-03-15T10:41:36.000Z</time>
      </trkpt>
      <trkpt lat="43.60126" lon="6.24218">
        <ele>443.1</ele>
        <time>2023-03-15T10:41:40.000Z</time>
      </trkpt>
      <trkpt lat="43.60124" lon="6.24224">
        <ele>443.2</ele>
        <time>2023-03-15T10:41:52.000Z</time>
      </trkpt>
      <trkpt lat="43.60121" lon="6.2423">
        <ele>443.1</ele>
        <time>2023-03-15T10:41:57.000Z</time>
      </trkpt>
      <trkpt lat="43.60117" lon="6.24235">
        <ele>443</ele>
        <time>2023-03-15T10:42:02.000Z</time>
      </trkpt>
      <trkpt lat="43.60114" lon="6.2424">
        <ele>442.9</ele>
        <time>2023-03-15T10:42:07.000Z</time>
      </trkpt>
      <trkpt lat="43.60111" lon="6.24245">
        <ele>442.5</ele>
        <time>2023-03-15T10:42:12.000Z</time>
      </trkpt>
      <trkpt lat="43.60107" lon="6.2425">
        <ele>442.1</ele>
        <time>2023-03-15T10:42:17.000Z</time>
      </trkpt>
      <trkpt lat="43.60103" lon="6.24254">
        <ele>441.8</ele>
        <time>2023-03-15T10:42:22.000Z</time>
      </trkpt>
      <trkpt lat="43.60098" lon="6.24257">
        <ele>441.5</ele>
        <time>2023-03-15T10:42:26.000Z</time>
      </trkpt>
      <trkpt lat="43.60094" lon="6.24259">
        <ele>441.2</ele>
        <time>2023-03-15T10:42:31.000Z</time>
      </trkpt>
      <trkpt lat="43.60089" lon="6.24262">
        <ele>440.9</ele>
        <time>2023-03-15T10:42:36.000Z</time>
      </trkpt>
      <trkpt lat="43.60084" lon="6.24262">
        <ele>440.4</ele>
        <time>2023-03-15T10:42:41.000Z</time>
      </trkpt>
      <trkpt lat="43.60079" lon="6.24264">
        <ele>440</ele>
        <time>2023-03-15T10:42:46.000Z</time>
      </trkpt>
      <trkpt lat="43.60073" lon="6.24264">
        <ele>439.7</ele>
        <time>2023-03-15T10:42:51.000Z</time>
      </trkpt>
      <trkpt lat="43.60068" lon="6.24263">
        <ele>439.4</ele>
        <time>2023-03-15T10:42:56.000Z</time>
      </trkpt>
      <trkpt lat="43.60063" lon="6.2426">
        <ele>438.9</ele>
        <time>2023-03-15T10:43:01.000Z</time>
      </trkpt>
      <trkpt lat="43.60059" lon="6.24256">
        <ele>438.6</ele>
        <time>2023-03-15T10:43:06.000Z</time>
      </trkpt>
      <trkpt lat="43.60056" lon="6.24251">
        <ele>438.4</ele>
        <time>2023-03-15T10:43:10.000Z</time>
      </trkpt>
      <trkpt lat="43.60053" lon="6.24246">
        <ele>438.3</ele>
        <time>2023-03-15T10:43:14.000Z</time>
      </trkpt>
      <trkpt lat="43.60051" lon="6.2424">
        <ele>438.1</ele>
        <time>2023-03-15T10:43:19.000Z</time>
      </trkpt>
      <trkpt lat="43.60048" lon="6.24235">
        <ele>437.8</ele>
        <time>2023-03-15T10:43:24.000Z</time>
      </trkpt>
      <trkpt lat="43.60045" lon="6.2423">
        <ele>437.5</ele>
        <time>2023-03-15T10:43:31.000Z</time>
      </trkpt>
      <trkpt lat="43.6004" lon="6.24228">
        <ele>437.4</ele>
        <time>2023-03-15T10:43:35.000Z</time>
      </trkpt>
      <trkpt lat="43.60035" lon="6.24227">
        <ele>437.3</ele>
        <time>2023-03-15T10:43:39.000Z</time>
      </trkpt>
      <trkpt lat="43.60031" lon="6.24229">
        <ele>437.2</ele>
        <time>2023-03-15T10:43:43.000Z</time>
      </trkpt>
      <trkpt lat="43.60028" lon="6.24233">
        <ele>437.2</ele>
        <time>2023-03-15T10:43:48.000Z</time>
      </trkpt>
      <trkpt lat="43.60023" lon="6.24235">
        <ele>437.1</ele>
        <time>2023-03-15T10:43:55.000Z</time>
      </trkpt>
      <trkpt lat="43.60019" lon="6.24234">
        <ele>437.2</ele>
        <time>2023-03-15T10:44:04.000Z</time>
      </trkpt>
      <trkpt lat="43.60015" lon="6.24229">
        <ele>436.1</ele>
        <time>2023-03-15T10:44:35.000Z</time>
      </trkpt>
      <trkpt lat="43.60012" lon="6.24224">
        <ele>436</ele>
        <time>2023-03-15T10:44:42.000Z</time>
      </trkpt>
      <trkpt lat="43.6001" lon="6.24218">
        <ele>436</ele>
        <time>2023-03-15T10:44:48.000Z</time>
      </trkpt>
      <trkpt lat="43.60007" lon="6.24213">
        <ele>436.2</ele>
        <time>2023-03-15T10:44:54.000Z</time>
      </trkpt>
      <trkpt lat="43.60005" lon="6.24207">
        <ele>436.1</ele>
        <time>2023-03-15T10:45:00.000Z</time>
      </trkpt>
      <trkpt lat="43.60006" lon="6.24199">
        <ele>435.9</ele>
        <time>2023-03-15T10:45:06.000Z</time>
      </trkpt>
      <trkpt lat="43.60004" lon="6.24193">
        <ele>435.7</ele>
        <time>2023-03-15T10:45:12.000Z</time>
      </trkpt>
      <trkpt lat="43.60001" lon="6.24189">
        <ele>435.6</ele>
        <time>2023-03-15T10:45:17.000Z</time>
      </trkpt>
      <trkpt lat="43.59998" lon="6.24185">
        <ele>435.5</ele>
        <time>2023-03-15T10:45:22.000Z</time>
      </trkpt>
      <trkpt lat="43.59994" lon="6.2418">
        <ele>435.6</ele>
        <time>2023-03-15T10:45:28.000Z</time>
      </trkpt>
      <trkpt lat="43.5999" lon="6.24176">
        <ele>435.9</ele>
        <time>2023-03-15T10:45:35.000Z</time>
      </trkpt>
      <trkpt lat="43.59986" lon="6.24173">
        <ele>436.4</ele>
        <time>2023-03-15T10:45:41.000Z</time>
      </trkpt>
      <trkpt lat="43.59981" lon="6.24171">
        <ele>437.2</ele>
        <time>2023-03-15T10:45:48.000Z</time>
      </trkpt>
      <trkpt lat="43.59976" lon="6.24169">
        <ele>437.7</ele>
        <time>2023-03-15T10:45:54.000Z</time>
      </trkpt>
      <trkpt lat="43.59972" lon="6.24166">
        <ele>438</ele>
        <time>2023-03-15T10:45:59.000Z</time>
      </trkpt>
      <trkpt lat="43.59968" lon="6.24162">
        <ele>438.3</ele>
        <time>2023-03-15T10:46:03.000Z</time>
      </trkpt>
      <trkpt lat="43.59964" lon="6.2416">
        <ele>438.7</ele>
        <time>2023-03-15T10:46:08.000Z</time>
      </trkpt>
      <trkpt lat="43.59959" lon="6.24159">
        <ele>438.9</ele>
        <time>2023-03-15T10:46:14.000Z</time>
      </trkpt>
      <trkpt lat="43.59954" lon="6.24157">
        <ele>439.1</ele>
        <time>2023-03-15T10:46:20.000Z</time>
      </trkpt>
      <trkpt lat="43.5995" lon="6.24155">
        <ele>439.2</ele>
        <time>2023-03-15T10:46:24.000Z</time>
      </trkpt>
      <trkpt lat="43.59945" lon="6.24154">
        <ele>439.6</ele>
        <time>2023-03-15T10:46:29.000Z</time>
      </trkpt>
      <trkpt lat="43.5994" lon="6.24153">
        <ele>439.8</ele>
        <time>2023-03-15T10:46:33.000Z</time>
      </trkpt>
      <trkpt lat="43.59935" lon="6.24153">
        <ele>440.1</ele>
        <time>2023-03-15T10:46:38.000Z</time>
      </trkpt>
      <trkpt lat="43.5993" lon="6.24154">
        <ele>440.9</ele>
        <time>2023-03-15T10:47:02.000Z</time>
      </trkpt>
      <trkpt lat="43.59926" lon="6.24155">
        <ele>440.9</ele>
        <time>2023-03-15T10:47:10.000Z</time>
      </trkpt>
      <trkpt lat="43.5993" lon="6.24156">
        <ele>440.9</ele>
        <time>2023-03-15T10:47:43.000Z</time>
      </trkpt>
      <trkpt lat="43.59933" lon="6.2415">
        <ele>441.7</ele>
        <time>2023-03-15T10:48:21.000Z</time>
      </trkpt>
      <trkpt lat="43.59937" lon="6.24148">
        <ele>438.6</ele>
        <time>2023-03-15T10:54:30.000Z</time>
      </trkpt>
      <trkpt lat="43.59932" lon="6.24149">
        <ele>438.9</ele>
        <time>2023-03-15T10:56:06.000Z</time>
      </trkpt>
      <trkpt lat="43.59936" lon="6.24145">
        <ele>438.1</ele>
        <time>2023-03-15T11:02:58.000Z</time>
      </trkpt>
      <trkpt lat="43.59933" lon="6.2414">
        <ele>437.6</ele>
        <time>2023-03-15T11:16:45.000Z</time>
      </trkpt>
      <trkpt lat="43.59929" lon="6.24138">
        <ele>437.6</ele>
        <time>2023-03-15T11:21:25.000Z</time>
      </trkpt>
      <trkpt lat="43.59932" lon="6.24142">
        <ele>437.5</ele>
        <time>2023-03-15T11:23:04.000Z</time>
      </trkpt>
      <trkpt lat="43.59935" lon="6.24147">
        <ele>438.1</ele>
        <time>2023-03-15T11:35:39.000Z</time>
      </trkpt>
      <trkpt lat="43.59931" lon="6.24151">
        <ele>438.3</ele>
        <time>2023-03-15T11:36:07.000Z</time>
      </trkpt>
      <trkpt lat="43.59927" lon="6.24154">
        <ele>438.2</ele>
        <time>2023-03-15T11:36:19.000Z</time>
      </trkpt>
      <trkpt lat="43.59923" lon="6.24154">
        <ele>438.3</ele>
        <time>2023-03-15T11:36:24.000Z</time>
      </trkpt>
      <trkpt lat="43.59918" lon="6.24154">
        <ele>438.4</ele>
        <time>2023-03-15T11:36:30.000Z</time>
      </trkpt>
      <trkpt lat="43.59912" lon="6.24153">
        <ele>438.6</ele>
        <time>2023-03-15T11:36:36.000Z</time>
      </trkpt>
      <trkpt lat="43.59907" lon="6.24152">
        <ele>438.6</ele>
        <time>2023-03-15T11:36:41.000Z</time>
      </trkpt>
      <trkpt lat="43.59903" lon="6.2415">
        <ele>438.8</ele>
        <time>2023-03-15T11:36:46.000Z</time>
      </trkpt>
      <trkpt lat="43.59898" lon="6.24148">
        <ele>438.9</ele>
        <time>2023-03-15T11:36:51.000Z</time>
      </trkpt>
      <trkpt lat="43.59893" lon="6.24146">
        <ele>439.1</ele>
        <time>2023-03-15T11:36:55.000Z</time>
      </trkpt>
      <trkpt lat="43.59889" lon="6.24144">
        <ele>439.3</ele>
        <time>2023-03-15T11:37:00.000Z</time>
      </trkpt>
      <trkpt lat="43.59883" lon="6.24142">
        <ele>439.5</ele>
        <time>2023-03-15T11:37:05.000Z</time>
      </trkpt>
      <trkpt lat="43.59878" lon="6.2414">
        <ele>439.8</ele>
        <time>2023-03-15T11:37:10.000Z</time>
      </trkpt>
      <trkpt lat="43.59873" lon="6.24138">
        <ele>440.1</ele>
        <time>2023-03-15T11:37:15.000Z</time>
      </trkpt>
      <trkpt lat="43.5987" lon="6.24133">
        <ele>440.4</ele>
        <time>2023-03-15T11:37:21.000Z</time>
      </trkpt>
      <trkpt lat="43.59867" lon="6.24127">
        <ele>440.5</ele>
        <time>2023-03-15T11:37:35.000Z</time>
      </trkpt>
      <trkpt lat="43.59867" lon="6.2412">
        <ele>440.6</ele>
        <time>2023-03-15T11:37:43.000Z</time>
      </trkpt>
      <trkpt lat="43.59868" lon="6.24113">
        <ele>440.3</ele>
        <time>2023-03-15T11:37:56.000Z</time>
      </trkpt>
      <trkpt lat="43.59863" lon="6.24117">
        <ele>440</ele>
        <time>2023-03-15T11:38:59.000Z</time>
      </trkpt>
      <trkpt lat="43.5986" lon="6.24122">
        <ele>440.2</ele>
        <time>2023-03-15T11:39:10.000Z</time>
      </trkpt>
      <trkpt lat="43.59858" lon="6.24116">
        <ele>440.3</ele>
        <time>2023-03-15T11:39:16.000Z</time>
      </trkpt>
      <trkpt lat="43.59857" lon="6.2411">
        <ele>440.1</ele>
        <time>2023-03-15T11:39:22.000Z</time>
      </trkpt>
      <trkpt lat="43.59856" lon="6.24104">
        <ele>440.4</ele>
        <time>2023-03-15T11:39:28.000Z</time>
      </trkpt>
      <trkpt lat="43.59854" lon="6.24096">
        <ele>440.5</ele>
        <time>2023-03-15T11:39:34.000Z</time>
      </trkpt>
      <trkpt lat="43.59851" lon="6.24092">
        <ele>440.5</ele>
        <time>2023-03-15T11:39:39.000Z</time>
      </trkpt>
      <trkpt lat="43.59848" lon="6.24086">
        <ele>440.6</ele>
        <time>2023-03-15T11:39:44.000Z</time>
      </trkpt>
      <trkpt lat="43.59846" lon="6.2408">
        <ele>440.6</ele>
        <time>2023-03-15T11:39:49.000Z</time>
      </trkpt>
      <trkpt lat="43.59844" lon="6.24074">
        <ele>440.5</ele>
        <time>2023-03-15T11:39:55.000Z</time>
      </trkpt>
      <trkpt lat="43.59843" lon="6.24066">
        <ele>440.6</ele>
        <time>2023-03-15T11:40:00.000Z</time>
      </trkpt>
      <trkpt lat="43.59841" lon="6.2406">
        <ele>440.7</ele>
        <time>2023-03-15T11:40:05.000Z</time>
      </trkpt>
      <trkpt lat="43.59838" lon="6.24053">
        <ele>440.7</ele>
        <time>2023-03-15T11:40:10.000Z</time>
      </trkpt>
      <trkpt lat="43.59836" lon="6.24046">
        <ele>440.9</ele>
        <time>2023-03-15T11:40:15.000Z</time>
      </trkpt>
      <trkpt lat="43.59833" lon="6.24039">
        <ele>441.1</ele>
        <time>2023-03-15T11:40:20.000Z</time>
      </trkpt>
      <trkpt lat="43.59831" lon="6.24034">
        <ele>441.2</ele>
        <time>2023-03-15T11:40:24.000Z</time>
      </trkpt>
      <trkpt lat="43.5983" lon="6.24027">
        <ele>441.3</ele>
        <time>2023-03-15T11:40:29.000Z</time>
      </trkpt>
      <trkpt lat="43.59827" lon="6.24021">
        <ele>441.4</ele>
        <time>2023-03-15T11:40:34.000Z</time>
      </trkpt>
      <trkpt lat="43.59825" lon="6.24016">
        <ele>441.6</ele>
        <time>2023-03-15T11:40:38.000Z</time>
      </trkpt>
      <trkpt lat="43.59822" lon="6.24009">
        <ele>441.8</ele>
        <time>2023-03-15T11:40:43.000Z</time>
      </trkpt>
      <trkpt lat="43.59819" lon="6.24004">
        <ele>441.8</ele>
        <time>2023-03-15T11:40:48.000Z</time>
      </trkpt>
      <trkpt lat="43.59815" lon="6.23998">
        <ele>441.8</ele>
        <time>2023-03-15T11:40:53.000Z</time>
      </trkpt>
      <trkpt lat="43.59813" lon="6.23992">
        <ele>441.5</ele>
        <time>2023-03-15T11:40:57.000Z</time>
      </trkpt>
      <trkpt lat="43.5981" lon="6.23987">
        <ele>441.3</ele>
        <time>2023-03-15T11:41:01.000Z</time>
      </trkpt>
      <trkpt lat="43.59808" lon="6.2398">
        <ele>441.2</ele>
        <time>2023-03-15T11:41:06.000Z</time>
      </trkpt>
      <trkpt lat="43.59807" lon="6.23974">
        <ele>440.9</ele>
        <time>2023-03-15T11:41:10.000Z</time>
      </trkpt>
      <trkpt lat="43.59805" lon="6.23967">
        <ele>440.7</ele>
        <time>2023-03-15T11:41:14.000Z</time>
      </trkpt>
      <trkpt lat="43.59803" lon="6.23961">
        <ele>440.5</ele>
        <time>2023-03-15T11:41:18.000Z</time>
      </trkpt>
      <trkpt lat="43.598" lon="6.23955">
        <ele>440.5</ele>
        <time>2023-03-15T11:41:23.000Z</time>
      </trkpt>
      <trkpt lat="43.598" lon="6.23949">
        <ele>440.6</ele>
        <time>2023-03-15T11:41:27.000Z</time>
      </trkpt>
      <trkpt lat="43.59798" lon="6.23943">
        <ele>440.6</ele>
        <time>2023-03-15T11:41:31.000Z</time>
      </trkpt>
      <trkpt lat="43.59796" lon="6.23937">
        <ele>440.6</ele>
        <time>2023-03-15T11:41:35.000Z</time>
      </trkpt>
      <trkpt lat="43.59794" lon="6.23931">
        <ele>440.5</ele>
        <time>2023-03-15T11:41:39.000Z</time>
      </trkpt>
      <trkpt lat="43.59791" lon="6.23925">
        <ele>440.8</ele>
        <time>2023-03-15T11:41:43.000Z</time>
      </trkpt>
      <trkpt lat="43.59789" lon="6.23918">
        <ele>441.1</ele>
        <time>2023-03-15T11:41:48.000Z</time>
      </trkpt>
      <trkpt lat="43.59787" lon="6.23911">
        <ele>441.3</ele>
        <time>2023-03-15T11:41:53.000Z</time>
      </trkpt>
      <trkpt lat="43.59785" lon="6.23906">
        <ele>441.5</ele>
        <time>2023-03-15T11:41:57.000Z</time>
      </trkpt>
      <trkpt lat="43.59782" lon="6.239">
        <ele>441.6</ele>
        <time>2023-03-15T11:42:01.000Z</time>
      </trkpt>
      <trkpt lat="43.59779" lon="6.23894">
        <ele>441.7</ele>
        <time>2023-03-15T11:42:06.000Z</time>
      </trkpt>
      <trkpt lat="43.59775" lon="6.2389">
        <ele>441.8</ele>
        <time>2023-03-15T11:42:11.000Z</time>
      </trkpt>
      <trkpt lat="43.5977" lon="6.23888">
        <ele>441.9</ele>
        <time>2023-03-15T11:42:15.000Z</time>
      </trkpt>
      <trkpt lat="43.59766" lon="6.23886">
        <ele>441.9</ele>
        <time>2023-03-15T11:42:19.000Z</time>
      </trkpt>
      <trkpt lat="43.59761" lon="6.23884">
        <ele>442.1</ele>
        <time>2023-03-15T11:42:23.000Z</time>
      </trkpt>
      <trkpt lat="43.59755" lon="6.23884">
        <ele>442.1</ele>
        <time>2023-03-15T11:42:28.000Z</time>
      </trkpt>
      <trkpt lat="43.59751" lon="6.23882">
        <ele>442.1</ele>
        <time>2023-03-15T11:42:32.000Z</time>
      </trkpt>
      <trkpt lat="43.59746" lon="6.23883">
        <ele>442.1</ele>
        <time>2023-03-15T11:42:37.000Z</time>
      </trkpt>
      <trkpt lat="43.59741" lon="6.23886">
        <ele>441.9</ele>
        <time>2023-03-15T11:42:42.000Z</time>
      </trkpt>
      <trkpt lat="43.59736" lon="6.2389">
        <ele>441.9</ele>
        <time>2023-03-15T11:42:47.000Z</time>
      </trkpt>
      <trkpt lat="43.59732" lon="6.23893">
        <ele>441.7</ele>
        <time>2023-03-15T11:42:52.000Z</time>
      </trkpt>
      <trkpt lat="43.59728" lon="6.23896">
        <ele>441.5</ele>
        <time>2023-03-15T11:42:57.000Z</time>
      </trkpt>
      <trkpt lat="43.59724" lon="6.23898">
        <ele>441.5</ele>
        <time>2023-03-15T11:43:01.000Z</time>
      </trkpt>
      <trkpt lat="43.59719" lon="6.23901">
        <ele>441.6</ele>
        <time>2023-03-15T11:43:07.000Z</time>
      </trkpt>
      <trkpt lat="43.59714" lon="6.23899">
        <ele>441.8</ele>
        <time>2023-03-15T11:43:12.000Z</time>
      </trkpt>
      <trkpt lat="43.5971" lon="6.23896">
        <ele>441.9</ele>
        <time>2023-03-15T11:43:16.000Z</time>
      </trkpt>
      <trkpt lat="43.59707" lon="6.2389">
        <ele>441.7</ele>
        <time>2023-03-15T11:43:21.000Z</time>
      </trkpt>
      <trkpt lat="43.59706" lon="6.23884">
        <ele>441.5</ele>
        <time>2023-03-15T11:43:26.000Z</time>
      </trkpt>
      <trkpt lat="43.59702" lon="6.23878">
        <ele>441.5</ele>
        <time>2023-03-15T11:43:32.000Z</time>
      </trkpt>
      <trkpt lat="43.59699" lon="6.23874">
        <ele>441.6</ele>
        <time>2023-03-15T11:43:37.000Z</time>
      </trkpt>
      <trkpt lat="43.59694" lon="6.23872">
        <ele>441.7</ele>
        <time>2023-03-15T11:43:42.000Z</time>
      </trkpt>
      <trkpt lat="43.59689" lon="6.23871">
        <ele>442</ele>
        <time>2023-03-15T11:43:47.000Z</time>
      </trkpt>
      <trkpt lat="43.59684" lon="6.23869">
        <ele>441.6</ele>
        <time>2023-03-15T11:43:54.000Z</time>
      </trkpt>
      <trkpt lat="43.59679" lon="6.23868">
        <ele>441.2</ele>
        <time>2023-03-15T11:44:00.000Z</time>
      </trkpt>
      <trkpt lat="43.59674" lon="6.23868">
        <ele>441</ele>
        <time>2023-03-15T11:44:04.000Z</time>
      </trkpt>
      <trkpt lat="43.5967" lon="6.23868">
        <ele>440.7</ele>
        <time>2023-03-15T11:44:10.000Z</time>
      </trkpt>
      <trkpt lat="43.59665" lon="6.23868">
        <ele>440.5</ele>
        <time>2023-03-15T11:44:14.000Z</time>
      </trkpt>
      <trkpt lat="43.59661" lon="6.2387">
        <ele>440.7</ele>
        <time>2023-03-15T11:44:18.000Z</time>
      </trkpt>
      <trkpt lat="43.59655" lon="6.23872">
        <ele>440.7</ele>
        <time>2023-03-15T11:44:23.000Z</time>
      </trkpt>
      <trkpt lat="43.5965" lon="6.23874">
        <ele>440.7</ele>
        <time>2023-03-15T11:44:28.000Z</time>
      </trkpt>
      <trkpt lat="43.59646" lon="6.23877">
        <ele>440.6</ele>
        <time>2023-03-15T11:44:32.000Z</time>
      </trkpt>
      <trkpt lat="43.59641" lon="6.23878">
        <ele>440.7</ele>
        <time>2023-03-15T11:44:37.000Z</time>
      </trkpt>
      <trkpt lat="43.59636" lon="6.23876">
        <ele>440.9</ele>
        <time>2023-03-15T11:44:43.000Z</time>
      </trkpt>
      <trkpt lat="43.59632" lon="6.23875">
        <ele>441.5</ele>
        <time>2023-03-15T11:44:50.000Z</time>
      </trkpt>
      <trkpt lat="43.59627" lon="6.23877">
        <ele>442.3</ele>
        <time>2023-03-15T11:45:01.000Z</time>
      </trkpt>
      <trkpt lat="43.59622" lon="6.23876">
        <ele>443.3</ele>
        <time>2023-03-15T11:45:09.000Z</time>
      </trkpt>
      <trkpt lat="43.59618" lon="6.23876">
        <ele>444.5</ele>
        <time>2023-03-15T11:45:16.000Z</time>
      </trkpt>
      <trkpt lat="43.59613" lon="6.23873">
        <ele>445.3</ele>
        <time>2023-03-15T11:45:24.000Z</time>
      </trkpt>
      <trkpt lat="43.5961" lon="6.23868">
        <ele>446</ele>
        <time>2023-03-15T11:45:30.000Z</time>
      </trkpt>
      <trkpt lat="43.59607" lon="6.23863">
        <ele>446.4</ele>
        <time>2023-03-15T11:45:34.000Z</time>
      </trkpt>
      <trkpt lat="43.59604" lon="6.23859">
        <ele>446.9</ele>
        <time>2023-03-15T11:45:38.000Z</time>
      </trkpt>
      <trkpt lat="43.596" lon="6.23854">
        <ele>447.2</ele>
        <time>2023-03-15T11:45:43.000Z</time>
      </trkpt>
      <trkpt lat="43.59595" lon="6.23851">
        <ele>447.7</ele>
        <time>2023-03-15T11:45:48.000Z</time>
      </trkpt>
      <trkpt lat="43.59591" lon="6.23846">
        <ele>448.3</ele>
        <time>2023-03-15T11:45:53.000Z</time>
      </trkpt>
      <trkpt lat="43.59587" lon="6.23842">
        <ele>448.3</ele>
        <time>2023-03-15T11:45:58.000Z</time>
      </trkpt>
      <trkpt lat="43.59583" lon="6.23837">
        <ele>448.2</ele>
        <time>2023-03-15T11:46:05.000Z</time>
      </trkpt>
      <trkpt lat="43.5958" lon="6.23832">
        <ele>447.5</ele>
        <time>2023-03-15T11:46:13.000Z</time>
      </trkpt>
      <trkpt lat="43.59577" lon="6.23827">
        <ele>446.9</ele>
        <time>2023-03-15T11:46:19.000Z</time>
      </trkpt>
      <trkpt lat="43.59573" lon="6.23822">
        <ele>446.3</ele>
        <time>2023-03-15T11:46:25.000Z</time>
      </trkpt>
      <trkpt lat="43.59569" lon="6.23819">
        <ele>445.6</ele>
        <time>2023-03-15T11:46:30.000Z</time>
      </trkpt>
      <trkpt lat="43.59565" lon="6.23813">
        <ele>444.4</ele>
        <time>2023-03-15T11:46:38.000Z</time>
      </trkpt>
      <trkpt lat="43.59563" lon="6.23808">
        <ele>443.5</ele>
        <time>2023-03-15T11:46:44.000Z</time>
      </trkpt>
      <trkpt lat="43.59559" lon="6.23802">
        <ele>442.8</ele>
        <time>2023-03-15T11:46:49.000Z</time>
      </trkpt>
      <trkpt lat="43.59555" lon="6.23797">
        <ele>442.1</ele>
        <time>2023-03-15T11:46:54.000Z</time>
      </trkpt>
      <trkpt lat="43.59551" lon="6.23792">
        <ele>441.6</ele>
        <time>2023-03-15T11:46:59.000Z</time>
      </trkpt>
      <trkpt lat="43.59547" lon="6.23788">
        <ele>441.3</ele>
        <time>2023-03-15T11:47:03.000Z</time>
      </trkpt>
      <trkpt lat="43.59543" lon="6.23783">
        <ele>441.3</ele>
        <time>2023-03-15T11:47:08.000Z</time>
      </trkpt>
      <trkpt lat="43.59539" lon="6.23779">
        <ele>440.9</ele>
        <time>2023-03-15T11:47:12.000Z</time>
      </trkpt>
      <trkpt lat="43.59535" lon="6.23775">
        <ele>440.4</ele>
        <time>2023-03-15T11:47:17.000Z</time>
      </trkpt>
      <trkpt lat="43.59531" lon="6.23771">
        <ele>440.1</ele>
        <time>2023-03-15T11:47:22.000Z</time>
      </trkpt>
      <trkpt lat="43.59526" lon="6.23768">
        <ele>439.8</ele>
        <time>2023-03-15T11:47:27.000Z</time>
      </trkpt>
      <trkpt lat="43.59522" lon="6.23765">
        <ele>439.6</ele>
        <time>2023-03-15T11:47:32.000Z</time>
      </trkpt>
      <trkpt lat="43.59516" lon="6.23762">
        <ele>439.4</ele>
        <time>2023-03-15T11:47:37.000Z</time>
      </trkpt>
      <trkpt lat="43.59512" lon="6.23759">
        <ele>439.2</ele>
        <time>2023-03-15T11:47:40.000Z</time>
      </trkpt>
      <trkpt lat="43.59508" lon="6.23757">
        <ele>438.8</ele>
        <time>2023-03-15T11:47:44.000Z</time>
      </trkpt>
      <trkpt lat="43.59504" lon="6.23753">
        <ele>438.6</ele>
        <time>2023-03-15T11:47:48.000Z</time>
      </trkpt>
      <trkpt lat="43.59499" lon="6.23749">
        <ele>438.8</ele>
        <time>2023-03-15T11:47:53.000Z</time>
      </trkpt>
      <trkpt lat="43.59496" lon="6.23744">
        <ele>438.5</ele>
        <time>2023-03-15T11:47:58.000Z</time>
      </trkpt>
      <trkpt lat="43.59493" lon="6.23739">
        <ele>437.7</ele>
        <time>2023-03-15T11:48:07.000Z</time>
      </trkpt>
      <trkpt lat="43.59488" lon="6.23738">
        <ele>437.3</ele>
        <time>2023-03-15T11:48:13.000Z</time>
      </trkpt>
      <trkpt lat="43.59484" lon="6.23737">
        <ele>436.8</ele>
        <time>2023-03-15T11:48:19.000Z</time>
      </trkpt>
      <trkpt lat="43.59479" lon="6.23736">
        <ele>436.4</ele>
        <time>2023-03-15T11:48:26.000Z</time>
      </trkpt>
      <trkpt lat="43.59474" lon="6.23734">
        <ele>435.6</ele>
        <time>2023-03-15T11:48:34.000Z</time>
      </trkpt>
      <trkpt lat="43.59469" lon="6.23732">
        <ele>434.4</ele>
        <time>2023-03-15T11:48:44.000Z</time>
      </trkpt>
      <trkpt lat="43.59467" lon="6.23726">
        <ele>429.7</ele>
        <time>2023-03-15T11:49:21.000Z</time>
      </trkpt>
      <trkpt lat="43.59464" lon="6.23722">
        <ele>428.4</ele>
        <time>2023-03-15T11:49:32.000Z</time>
      </trkpt>
      <trkpt lat="43.59458" lon="6.23723">
        <ele>427.7</ele>
        <time>2023-03-15T11:49:38.000Z</time>
      </trkpt>
      <trkpt lat="43.59454" lon="6.23725">
        <ele>427.4</ele>
        <time>2023-03-15T11:49:43.000Z</time>
      </trkpt>
      <trkpt lat="43.59449" lon="6.23728">
        <ele>427.1</ele>
        <time>2023-03-15T11:49:48.000Z</time>
      </trkpt>
      <trkpt lat="43.59447" lon="6.23735">
        <ele>426.9</ele>
        <time>2023-03-15T11:49:53.000Z</time>
      </trkpt>
      <trkpt lat="43.59443" lon="6.23737">
        <ele>426.8</ele>
        <time>2023-03-15T11:49:58.000Z</time>
      </trkpt>
      <trkpt lat="43.59439" lon="6.23741">
        <ele>426.8</ele>
        <time>2023-03-15T11:50:05.000Z</time>
      </trkpt>
      <trkpt lat="43.59434" lon="6.23737">
        <ele>424.5</ele>
        <time>2023-03-15T11:51:00.000Z</time>
      </trkpt>
      <trkpt lat="43.59433" lon="6.2373">
        <ele>424.3</ele>
        <time>2023-03-15T11:51:06.000Z</time>
      </trkpt>
      <trkpt lat="43.59431" lon="6.23725">
        <ele>424.2</ele>
        <time>2023-03-15T11:51:10.000Z</time>
      </trkpt>
      <trkpt lat="43.59428" lon="6.23719">
        <ele>424.2</ele>
        <time>2023-03-15T11:51:14.000Z</time>
      </trkpt>
      <trkpt lat="43.59424" lon="6.23715">
        <ele>424.2</ele>
        <time>2023-03-15T11:51:19.000Z</time>
      </trkpt>
      <trkpt lat="43.59421" lon="6.2371">
        <ele>424</ele>
        <time>2023-03-15T11:51:30.000Z</time>
      </trkpt>
      <trkpt lat="43.59421" lon="6.23704">
        <ele>423.5</ele>
        <time>2023-03-15T11:51:50.000Z</time>
      </trkpt>
      <trkpt lat="43.5942" lon="6.23697">
        <ele>422.9</ele>
        <time>2023-03-15T11:51:58.000Z</time>
      </trkpt>
      <trkpt lat="43.59419" lon="6.23691">
        <ele>421.9</ele>
        <time>2023-03-15T11:52:05.000Z</time>
      </trkpt>
      <trkpt lat="43.59417" lon="6.23685">
        <ele>421.3</ele>
        <time>2023-03-15T11:52:11.000Z</time>
      </trkpt>
      <trkpt lat="43.59416" lon="6.23679">
        <ele>420.9</ele>
        <time>2023-03-15T11:52:15.000Z</time>
      </trkpt>
      <trkpt lat="43.59416" lon="6.23672">
        <ele>419.6</ele>
        <time>2023-03-15T11:52:24.000Z</time>
      </trkpt>
      <trkpt lat="43.59421" lon="6.2367">
        <ele>417.5</ele>
        <time>2023-03-15T11:52:37.000Z</time>
      </trkpt>
      <trkpt lat="43.59425" lon="6.23669">
        <ele>415.9</ele>
        <time>2023-03-15T11:52:45.000Z</time>
      </trkpt>
      <trkpt lat="43.59429" lon="6.23667">
        <ele>414.9</ele>
        <time>2023-03-15T11:52:50.000Z</time>
      </trkpt>
      <trkpt lat="43.59434" lon="6.23664">
        <ele>414.3</ele>
        <time>2023-03-15T11:52:55.000Z</time>
      </trkpt>
      <trkpt lat="43.59435" lon="6.23657">
        <ele>413.8</ele>
        <time>2023-03-15T11:53:00.000Z</time>
      </trkpt>
      <trkpt lat="43.59435" lon="6.23651">
        <ele>413.1</ele>
        <time>2023-03-15T11:53:05.000Z</time>
      </trkpt>
      <trkpt lat="43.59431" lon="6.23646">
        <ele>412.2</ele>
        <time>2023-03-15T11:53:10.000Z</time>
      </trkpt>
      <trkpt lat="43.59427" lon="6.23644">
        <ele>411.6</ele>
        <time>2023-03-15T11:53:14.000Z</time>
      </trkpt>
      <trkpt lat="43.59421" lon="6.23642">
        <ele>411.1</ele>
        <time>2023-03-15T11:53:19.000Z</time>
      </trkpt>
      <trkpt lat="43.59417" lon="6.23641">
        <ele>410.8</ele>
        <time>2023-03-15T11:53:24.000Z</time>
      </trkpt>
      <trkpt lat="43.59411" lon="6.2364">
        <ele>410.7</ele>
        <time>2023-03-15T11:53:29.000Z</time>
      </trkpt>
      <trkpt lat="43.59406" lon="6.23639">
        <ele>410.7</ele>
        <time>2023-03-15T11:53:34.000Z</time>
      </trkpt>
      <trkpt lat="43.59401" lon="6.23638">
        <ele>410.7</ele>
        <time>2023-03-15T11:53:39.000Z</time>
      </trkpt>
      <trkpt lat="43.59396" lon="6.23634">
        <ele>411</ele>
        <time>2023-03-15T11:53:47.000Z</time>
      </trkpt>
      <trkpt lat="43.59393" lon="6.2363">
        <ele>411.3</ele>
        <time>2023-03-15T11:53:51.000Z</time>
      </trkpt>
      <trkpt lat="43.59389" lon="6.23627">
        <ele>411.5</ele>
        <time>2023-03-15T11:53:55.000Z</time>
      </trkpt>
      <trkpt lat="43.59384" lon="6.23627">
        <ele>411.6</ele>
        <time>2023-03-15T11:54:00.000Z</time>
      </trkpt>
      <trkpt lat="43.59378" lon="6.23628">
        <ele>411.7</ele>
        <time>2023-03-15T11:54:05.000Z</time>
      </trkpt>
      <trkpt lat="43.59373" lon="6.23628">
        <ele>411.7</ele>
        <time>2023-03-15T11:54:09.000Z</time>
      </trkpt>
      <trkpt lat="43.59368" lon="6.23629">
        <ele>411.6</ele>
        <time>2023-03-15T11:54:12.000Z</time>
      </trkpt>
      <trkpt lat="43.59364" lon="6.23631">
        <ele>411.4</ele>
        <time>2023-03-15T11:54:15.000Z</time>
      </trkpt>
      <trkpt lat="43.5936" lon="6.23633">
        <ele>411.2</ele>
        <time>2023-03-15T11:54:19.000Z</time>
      </trkpt>
      <trkpt lat="43.59355" lon="6.23636">
        <ele>410.8</ele>
        <time>2023-03-15T11:54:23.000Z</time>
      </trkpt>
      <trkpt lat="43.59351" lon="6.23638">
        <ele>410.4</ele>
        <time>2023-03-15T11:54:28.000Z</time>
      </trkpt>
      <trkpt lat="43.59346" lon="6.2364">
        <ele>410.2</ele>
        <time>2023-03-15T11:54:32.000Z</time>
      </trkpt>
      <trkpt lat="43.59342" lon="6.23644">
        <ele>410.1</ele>
        <time>2023-03-15T11:54:35.000Z</time>
      </trkpt>
      <trkpt lat="43.59338" lon="6.23649">
        <ele>410</ele>
        <time>2023-03-15T11:54:39.000Z</time>
      </trkpt>
      <trkpt lat="43.59336" lon="6.23655">
        <ele>410</ele>
        <time>2023-03-15T11:54:44.000Z</time>
      </trkpt>
      <trkpt lat="43.59332" lon="6.23657">
        <ele>409.9</ele>
        <time>2023-03-15T11:54:55.000Z</time>
      </trkpt>
      <trkpt lat="43.59327" lon="6.23659">
        <ele>409.7</ele>
        <time>2023-03-15T11:55:03.000Z</time>
      </trkpt>
      <trkpt lat="43.59322" lon="6.23662">
        <ele>409.6</ele>
        <time>2023-03-15T11:55:08.000Z</time>
      </trkpt>
      <trkpt lat="43.59317" lon="6.23665">
        <ele>409.5</ele>
        <time>2023-03-15T11:55:12.000Z</time>
      </trkpt>
      <trkpt lat="43.59311" lon="6.23668">
        <ele>409.5</ele>
        <time>2023-03-15T11:55:15.000Z</time>
      </trkpt>
      <trkpt lat="43.59306" lon="6.2367">
        <ele>409.1</ele>
        <time>2023-03-15T11:55:20.000Z</time>
      </trkpt>
      <trkpt lat="43.59302" lon="6.23672">
        <ele>408.9</ele>
        <time>2023-03-15T11:55:24.000Z</time>
      </trkpt>
      <trkpt lat="43.59297" lon="6.23673">
        <ele>409</ele>
        <time>2023-03-15T11:55:28.000Z</time>
      </trkpt>
      <trkpt lat="43.59292" lon="6.23674">
        <ele>409</ele>
        <time>2023-03-15T11:55:32.000Z</time>
      </trkpt>
      <trkpt lat="43.59287" lon="6.23676">
        <ele>409</ele>
        <time>2023-03-15T11:55:36.000Z</time>
      </trkpt>
      <trkpt lat="43.59282" lon="6.23679">
        <ele>408.8</ele>
        <time>2023-03-15T11:55:40.000Z</time>
      </trkpt>
      <trkpt lat="43.59277" lon="6.23683">
        <ele>408.6</ele>
        <time>2023-03-15T11:55:44.000Z</time>
      </trkpt>
      <trkpt lat="43.59272" lon="6.23689">
        <ele>408.5</ele>
        <time>2023-03-15T11:55:47.000Z</time>
      </trkpt>
      <trkpt lat="43.59268" lon="6.23694">
        <ele>408.4</ele>
        <time>2023-03-15T11:55:51.000Z</time>
      </trkpt>
      <trkpt lat="43.59263" lon="6.23697">
        <ele>408.5</ele>
        <time>2023-03-15T11:55:56.000Z</time>
      </trkpt>
      <trkpt lat="43.59259" lon="6.237">
        <ele>408.9</ele>
        <time>2023-03-15T11:56:02.000Z</time>
      </trkpt>
      <trkpt lat="43.59254" lon="6.23702">
        <ele>409.3</ele>
        <time>2023-03-15T11:56:08.000Z</time>
      </trkpt>
      <trkpt lat="43.5925" lon="6.23705">
        <ele>409.7</ele>
        <time>2023-03-15T11:56:16.000Z</time>
      </trkpt>
      <trkpt lat="43.59245" lon="6.23704">
        <ele>409.1</ele>
        <time>2023-03-15T11:56:26.000Z</time>
      </trkpt>
      <trkpt lat="43.59241" lon="6.23705">
        <ele>408.2</ele>
        <time>2023-03-15T11:56:35.000Z</time>
      </trkpt>
      <trkpt lat="43.59236" lon="6.23708">
        <ele>406.9</ele>
        <time>2023-03-15T11:56:43.000Z</time>
      </trkpt>
      <trkpt lat="43.59232" lon="6.23711">
        <ele>406.1</ele>
        <time>2023-03-15T11:56:50.000Z</time>
      </trkpt>
      <trkpt lat="43.59228" lon="6.23716">
        <ele>405.6</ele>
        <time>2023-03-15T11:56:55.000Z</time>
      </trkpt>
      <trkpt lat="43.59225" lon="6.23721">
        <ele>405.3</ele>
        <time>2023-03-15T11:56:59.000Z</time>
      </trkpt>
      <trkpt lat="43.5922" lon="6.23723">
        <ele>405</ele>
        <time>2023-03-15T11:57:04.000Z</time>
      </trkpt>
      <trkpt lat="43.59216" lon="6.23726">
        <ele>404.7</ele>
        <time>2023-03-15T11:57:09.000Z</time>
      </trkpt>
      <trkpt lat="43.59211" lon="6.23728">
        <ele>404.4</ele>
        <time>2023-03-15T11:57:12.000Z</time>
      </trkpt>
      <trkpt lat="43.59207" lon="6.23733">
        <ele>404.1</ele>
        <time>2023-03-15T11:57:16.000Z</time>
      </trkpt>
      <trkpt lat="43.59202" lon="6.23738">
        <ele>403.8</ele>
        <time>2023-03-15T11:57:20.000Z</time>
      </trkpt>
      <trkpt lat="43.59199" lon="6.23745">
        <ele>403.8</ele>
        <time>2023-03-15T11:57:24.000Z</time>
      </trkpt>
      <trkpt lat="43.59196" lon="6.23751">
        <ele>403.7</ele>
        <time>2023-03-15T11:57:29.000Z</time>
      </trkpt>
      <trkpt lat="43.59193" lon="6.23758">
        <ele>403.7</ele>
        <time>2023-03-15T11:57:33.000Z</time>
      </trkpt>
      <trkpt lat="43.59192" lon="6.23764">
        <ele>403.8</ele>
        <time>2023-03-15T11:57:37.000Z</time>
      </trkpt>
      <trkpt lat="43.59189" lon="6.2377">
        <ele>404.1</ele>
        <time>2023-03-15T11:57:42.000Z</time>
      </trkpt>
      <trkpt lat="43.59185" lon="6.23775">
        <ele>404.4</ele>
        <time>2023-03-15T11:57:47.000Z</time>
      </trkpt>
      <trkpt lat="43.59183" lon="6.23781">
        <ele>404.6</ele>
        <time>2023-03-15T11:57:52.000Z</time>
      </trkpt>
      <trkpt lat="43.59181" lon="6.23788">
        <ele>404.9</ele>
        <time>2023-03-15T11:57:57.000Z</time>
      </trkpt>
      <trkpt lat="43.59178" lon="6.23794">
        <ele>405.5</ele>
        <time>2023-03-15T11:58:02.000Z</time>
      </trkpt>
      <trkpt lat="43.59176" lon="6.238">
        <ele>406</ele>
        <time>2023-03-15T11:58:07.000Z</time>
      </trkpt>
      <trkpt lat="43.59174" lon="6.23805">
        <ele>406.3</ele>
        <time>2023-03-15T11:58:11.000Z</time>
      </trkpt>
      <trkpt lat="43.59172" lon="6.23812">
        <ele>406.6</ele>
        <time>2023-03-15T11:58:17.000Z</time>
      </trkpt>
      <trkpt lat="43.5917" lon="6.23817">
        <ele>406.5</ele>
        <time>2023-03-15T11:58:24.000Z</time>
      </trkpt>
      <trkpt lat="43.59168" lon="6.23822">
        <ele>405.7</ele>
        <time>2023-03-15T11:58:32.000Z</time>
      </trkpt>
      <trkpt lat="43.59164" lon="6.23828">
        <ele>404.2</ele>
        <time>2023-03-15T11:58:41.000Z</time>
      </trkpt>
      <trkpt lat="43.59161" lon="6.23833">
        <ele>403.1</ele>
        <time>2023-03-15T11:58:49.000Z</time>
      </trkpt>
      <trkpt lat="43.59158" lon="6.23837">
        <ele>401.7</ele>
        <time>2023-03-15T11:59:00.000Z</time>
      </trkpt>
      <trkpt lat="43.59153" lon="6.23839">
        <ele>399.9</ele>
        <time>2023-03-15T11:59:16.000Z</time>
      </trkpt>
      <trkpt lat="43.59148" lon="6.23842">
        <ele>399.3</ele>
        <time>2023-03-15T11:59:20.000Z</time>
      </trkpt>
      <trkpt lat="43.59145" lon="6.23847">
        <ele>398.7</ele>
        <time>2023-03-15T11:59:24.000Z</time>
      </trkpt>
      <trkpt lat="43.59141" lon="6.2385">
        <ele>398.3</ele>
        <time>2023-03-15T11:59:28.000Z</time>
      </trkpt>
      <trkpt lat="43.59136" lon="6.23854">
        <ele>397.8</ele>
        <time>2023-03-15T11:59:33.000Z</time>
      </trkpt>
      <trkpt lat="43.59131" lon="6.23857">
        <ele>397.4</ele>
        <time>2023-03-15T11:59:37.000Z</time>
      </trkpt>
      <trkpt lat="43.59126" lon="6.23859">
        <ele>396.9</ele>
        <time>2023-03-15T11:59:43.000Z</time>
      </trkpt>
      <trkpt lat="43.59122" lon="6.23862">
        <ele>396.4</ele>
        <time>2023-03-15T11:59:47.000Z</time>
      </trkpt>
      <trkpt lat="43.59118" lon="6.23866">
        <ele>396.1</ele>
        <time>2023-03-15T11:59:51.000Z</time>
      </trkpt>
      <trkpt lat="43.59116" lon="6.23872">
        <ele>395.9</ele>
        <time>2023-03-15T11:59:54.000Z</time>
      </trkpt>
      <trkpt lat="43.59112" lon="6.23876">
        <ele>395.6</ele>
        <time>2023-03-15T11:59:58.000Z</time>
      </trkpt>
      <trkpt lat="43.59111" lon="6.23883">
        <ele>395.1</ele>
        <time>2023-03-15T12:00:04.000Z</time>
      </trkpt>
      <trkpt lat="43.59109" lon="6.23889">
        <ele>394.5</ele>
        <time>2023-03-15T12:00:11.000Z</time>
      </trkpt>
      <trkpt lat="43.59108" lon="6.23895">
        <ele>394</ele>
        <time>2023-03-15T12:00:19.000Z</time>
      </trkpt>
      <trkpt lat="43.59111" lon="6.23901">
        <ele>394.5</ele>
        <time>2023-03-15T12:01:02.000Z</time>
      </trkpt>
      <trkpt lat="43.59106" lon="6.23903">
        <ele>394.3</ele>
        <time>2023-03-15T12:01:21.000Z</time>
      </trkpt>
      <trkpt lat="43.59111" lon="6.23902">
        <ele>394.4</ele>
        <time>2023-03-15T12:01:45.000Z</time>
      </trkpt>
      <trkpt lat="43.59108" lon="6.23897">
        <ele>394.7</ele>
        <time>2023-03-15T12:01:55.000Z</time>
      </trkpt>
      <trkpt lat="43.59104" lon="6.23899">
        <ele>394.8</ele>
        <time>2023-03-15T12:02:02.000Z</time>
      </trkpt>
      <trkpt lat="43.59098" lon="6.239">
        <ele>394.9</ele>
        <time>2023-03-15T12:02:10.000Z</time>
      </trkpt>
      <trkpt lat="43.59093" lon="6.23897">
        <ele>394.9</ele>
        <time>2023-03-15T12:02:15.000Z</time>
      </trkpt>
      <trkpt lat="43.59088" lon="6.23894">
        <ele>394.9</ele>
        <time>2023-03-15T12:02:20.000Z</time>
      </trkpt>
      <trkpt lat="43.59083" lon="6.23893">
        <ele>394.8</ele>
        <time>2023-03-15T12:02:25.000Z</time>
      </trkpt>
      <trkpt lat="43.59078" lon="6.23891">
        <ele>394.6</ele>
        <time>2023-03-15T12:02:31.000Z</time>
      </trkpt>
      <trkpt lat="43.59074" lon="6.23893">
        <ele>394.1</ele>
        <time>2023-03-15T12:02:54.000Z</time>
      </trkpt>
      <trkpt lat="43.59074" lon="6.239">
        <ele>393.9</ele>
        <time>2023-03-15T12:03:49.000Z</time>
      </trkpt>
      <trkpt lat="43.59069" lon="6.23899">
        <ele>393.9</ele>
        <time>2023-03-15T12:05:05.000Z</time>
      </trkpt>
      <trkpt lat="43.59066" lon="6.23893">
        <ele>393.5</ele>
        <time>2023-03-15T12:05:12.000Z</time>
      </trkpt>
      <trkpt lat="43.59064" lon="6.23887">
        <ele>393.3</ele>
        <time>2023-03-15T12:05:18.000Z</time>
      </trkpt>
      <trkpt lat="43.59061" lon="6.23882">
        <ele>393</ele>
        <time>2023-03-15T12:05:22.000Z</time>
      </trkpt>
      <trkpt lat="43.59056" lon="6.2388">
        <ele>392.5</ele>
        <time>2023-03-15T12:05:26.000Z</time>
      </trkpt>
      <trkpt lat="43.59052" lon="6.23876">
        <ele>391.3</ele>
        <time>2023-03-15T12:05:36.000Z</time>
      </trkpt>
      <trkpt lat="43.59047" lon="6.23875">
        <ele>390.9</ele>
        <time>2023-03-15T12:05:40.000Z</time>
      </trkpt>
      <trkpt lat="43.59042" lon="6.23878">
        <ele>390.3</ele>
        <time>2023-03-15T12:05:47.000Z</time>
      </trkpt>
      <trkpt lat="43.59038" lon="6.23876">
        <ele>389.8</ele>
        <time>2023-03-15T12:05:53.000Z</time>
      </trkpt>
      <trkpt lat="43.59033" lon="6.23873">
        <ele>389.4</ele>
        <time>2023-03-15T12:05:58.000Z</time>
      </trkpt>
      <trkpt lat="43.59029" lon="6.23872">
        <ele>389.1</ele>
        <time>2023-03-15T12:06:03.000Z</time>
      </trkpt>
      <trkpt lat="43.59024" lon="6.23871">
        <ele>389.1</ele>
        <time>2023-03-15T12:06:06.000Z</time>
      </trkpt>
      <trkpt lat="43.5902" lon="6.23871">
        <ele>389.1</ele>
        <time>2023-03-15T12:06:10.000Z</time>
      </trkpt>
      <trkpt lat="43.59014" lon="6.23868">
        <ele>388.9</ele>
        <time>2023-03-15T12:06:15.000Z</time>
      </trkpt>
      <trkpt lat="43.5901" lon="6.23868">
        <ele>388.8</ele>
        <time>2023-03-15T12:06:19.000Z</time>
      </trkpt>
      <trkpt lat="43.59006" lon="6.23871">
        <ele>388.6</ele>
        <time>2023-03-15T12:06:25.000Z</time>
      </trkpt>
      <trkpt lat="43.59001" lon="6.23875">
        <ele>388.3</ele>
        <time>2023-03-15T12:06:31.000Z</time>
      </trkpt>
      <trkpt lat="43.58997" lon="6.23877">
        <ele>387.8</ele>
        <time>2023-03-15T12:06:36.000Z</time>
      </trkpt>
      <trkpt lat="43.58993" lon="6.23873">
        <ele>386.7</ele>
        <time>2023-03-15T12:06:49.000Z</time>
      </trkpt>
      <trkpt lat="43.58988" lon="6.2387">
        <ele>387.9</ele>
        <time>2023-03-15T12:06:59.000Z</time>
      </trkpt>
      <trkpt lat="43.58985" lon="6.23864">
        <ele>388.8</ele>
        <time>2023-03-15T12:07:05.000Z</time>
      </trkpt>
      <trkpt lat="43.58982" lon="6.23858">
        <ele>389.6</ele>
        <time>2023-03-15T12:07:12.000Z</time>
      </trkpt>
      <trkpt lat="43.58979" lon="6.23851">
        <ele>390.5</ele>
        <time>2023-03-15T12:07:19.000Z</time>
      </trkpt>
      <trkpt lat="43.58977" lon="6.23846">
        <ele>391</ele>
        <time>2023-03-15T12:07:25.000Z</time>
      </trkpt>
      <trkpt lat="43.58974" lon="6.23841">
        <ele>391.7</ele>
        <time>2023-03-15T12:07:31.000Z</time>
      </trkpt>
      <trkpt lat="43.58971" lon="6.23835">
        <ele>392.1</ele>
        <time>2023-03-15T12:07:37.000Z</time>
      </trkpt>
      <trkpt lat="43.58968" lon="6.23829">
        <ele>392.4</ele>
        <time>2023-03-15T12:07:46.000Z</time>
      </trkpt>
      <trkpt lat="43.58965" lon="6.23824">
        <ele>392.6</ele>
        <time>2023-03-15T12:07:51.000Z</time>
      </trkpt>
      <trkpt lat="43.58963" lon="6.2382">
        <ele>392.7</ele>
        <time>2023-03-15T12:07:55.000Z</time>
      </trkpt>
      <trkpt lat="43.58961" lon="6.23813">
        <ele>393</ele>
        <time>2023-03-15T12:08:02.000Z</time>
      </trkpt>
      <trkpt lat="43.5896" lon="6.23806">
        <ele>393.1</ele>
        <time>2023-03-15T12:08:08.000Z</time>
      </trkpt>
      <trkpt lat="43.58961" lon="6.23799">
        <ele>392.9</ele>
        <time>2023-03-15T12:08:14.000Z</time>
      </trkpt>
      <trkpt lat="43.58961" lon="6.23792">
        <ele>392.8</ele>
        <time>2023-03-15T12:08:20.000Z</time>
      </trkpt>
      <trkpt lat="43.58962" lon="6.23785">
        <ele>392.7</ele>
        <time>2023-03-15T12:08:26.000Z</time>
      </trkpt>
      <trkpt lat="43.58961" lon="6.23779">
        <ele>392.8</ele>
        <time>2023-03-15T12:08:32.000Z</time>
      </trkpt>
      <trkpt lat="43.5896" lon="6.23772">
        <ele>393</ele>
        <time>2023-03-15T12:08:37.000Z</time>
      </trkpt>
      <trkpt lat="43.58962" lon="6.23764">
        <ele>393.2</ele>
        <time>2023-03-15T12:08:43.000Z</time>
      </trkpt>
      <trkpt lat="43.58962" lon="6.23757">
        <ele>393.5</ele>
        <time>2023-03-15T12:08:48.000Z</time>
      </trkpt>
      <trkpt lat="43.5896" lon="6.2375">
        <ele>393.5</ele>
        <time>2023-03-15T12:08:53.000Z</time>
      </trkpt>
      <trkpt lat="43.58959" lon="6.23744">
        <ele>393.5</ele>
        <time>2023-03-15T12:08:57.000Z</time>
      </trkpt>
      <trkpt lat="43.58959" lon="6.23738">
        <ele>393.7</ele>
        <time>2023-03-15T12:09:02.000Z</time>
      </trkpt>
      <trkpt lat="43.58959" lon="6.23731">
        <ele>394</ele>
        <time>2023-03-15T12:09:07.000Z</time>
      </trkpt>
      <trkpt lat="43.58959" lon="6.23724">
        <ele>395</ele>
        <time>2023-03-15T12:09:14.000Z</time>
      </trkpt>
      <trkpt lat="43.58958" lon="6.23717">
        <ele>395.7</ele>
        <time>2023-03-15T12:09:20.000Z</time>
      </trkpt>
      <trkpt lat="43.58957" lon="6.23711">
        <ele>396.3</ele>
        <time>2023-03-15T12:09:25.000Z</time>
      </trkpt>
      <trkpt lat="43.58957" lon="6.23704">
        <ele>397.2</ele>
        <time>2023-03-15T12:09:32.000Z</time>
      </trkpt>
      <trkpt lat="43.58957" lon="6.23697">
        <ele>398.2</ele>
        <time>2023-03-15T12:09:38.000Z</time>
      </trkpt>
      <trkpt lat="43.58956" lon="6.23691">
        <ele>399.1</ele>
        <time>2023-03-15T12:09:43.000Z</time>
      </trkpt>
      <trkpt lat="43.58955" lon="6.23683">
        <ele>399.9</ele>
        <time>2023-03-15T12:09:49.000Z</time>
      </trkpt>
      <trkpt lat="43.58953" lon="6.23677">
        <ele>400.4</ele>
        <time>2023-03-15T12:09:54.000Z</time>
      </trkpt>
      <trkpt lat="43.58951" lon="6.23672">
        <ele>401.1</ele>
        <time>2023-03-15T12:09:59.000Z</time>
      </trkpt>
      <trkpt lat="43.58949" lon="6.23666">
        <ele>401.6</ele>
        <time>2023-03-15T12:10:03.000Z</time>
      </trkpt>
      <trkpt lat="43.58947" lon="6.2366">
        <ele>401.8</ele>
        <time>2023-03-15T12:10:07.000Z</time>
      </trkpt>
      <trkpt lat="43.58946" lon="6.23653">
        <ele>401.8</ele>
        <time>2023-03-15T12:10:12.000Z</time>
      </trkpt>
      <trkpt lat="43.58944" lon="6.23647">
        <ele>401.6</ele>
        <time>2023-03-15T12:10:19.000Z</time>
      </trkpt>
      <trkpt lat="43.58943" lon="6.23641">
        <ele>401.6</ele>
        <time>2023-03-15T12:10:24.000Z</time>
      </trkpt>
      <trkpt lat="43.58944" lon="6.23635">
        <ele>401.7</ele>
        <time>2023-03-15T12:10:30.000Z</time>
      </trkpt>
      <trkpt lat="43.58943" lon="6.23629">
        <ele>401.8</ele>
        <time>2023-03-15T12:10:34.000Z</time>
      </trkpt>
      <trkpt lat="43.58945" lon="6.23623">
        <ele>401.8</ele>
        <time>2023-03-15T12:10:39.000Z</time>
      </trkpt>
      <trkpt lat="43.58944" lon="6.23616">
        <ele>401.9</ele>
        <time>2023-03-15T12:10:43.000Z</time>
      </trkpt>
      <trkpt lat="43.58941" lon="6.23611">
        <ele>401.6</ele>
        <time>2023-03-15T12:10:48.000Z</time>
      </trkpt>
      <trkpt lat="43.58938" lon="6.23604">
        <ele>401.5</ele>
        <time>2023-03-15T12:10:52.000Z</time>
      </trkpt>
      <trkpt lat="43.58935" lon="6.23599">
        <ele>401.9</ele>
        <time>2023-03-15T12:10:56.000Z</time>
      </trkpt>
      <trkpt lat="43.58932" lon="6.23594">
        <ele>401.9</ele>
        <time>2023-03-15T12:11:01.000Z</time>
      </trkpt>
      <trkpt lat="43.58929" lon="6.23589">
        <ele>401.9</ele>
        <time>2023-03-15T12:11:05.000Z</time>
      </trkpt>
      <trkpt lat="43.58927" lon="6.23582">
        <ele>401.5</ele>
        <time>2023-03-15T12:11:12.000Z</time>
      </trkpt>
      <trkpt lat="43.58925" lon="6.23576">
        <ele>401.1</ele>
        <time>2023-03-15T12:11:16.000Z</time>
      </trkpt>
      <trkpt lat="43.58922" lon="6.23571">
        <ele>401</ele>
        <time>2023-03-15T12:11:19.000Z</time>
      </trkpt>
      <trkpt lat="43.58919" lon="6.23565">
        <ele>401</ele>
        <time>2023-03-15T12:11:23.000Z</time>
      </trkpt>
      <trkpt lat="43.58917" lon="6.23559">
        <ele>401</ele>
        <time>2023-03-15T12:11:27.000Z</time>
      </trkpt>
      <trkpt lat="43.58914" lon="6.23553">
        <ele>401.2</ele>
        <time>2023-03-15T12:11:32.000Z</time>
      </trkpt>
      <trkpt lat="43.5891" lon="6.23549">
        <ele>401.3</ele>
        <time>2023-03-15T12:11:37.000Z</time>
      </trkpt>
      <trkpt lat="43.58906" lon="6.23545">
        <ele>401.4</ele>
        <time>2023-03-15T12:11:43.000Z</time>
      </trkpt>
      <trkpt lat="43.58902" lon="6.23541">
        <ele>401.9</ele>
        <time>2023-03-15T12:11:50.000Z</time>
      </trkpt>
      <trkpt lat="43.58899" lon="6.23536">
        <ele>402.7</ele>
        <time>2023-03-15T12:11:56.000Z</time>
      </trkpt>
      <trkpt lat="43.58895" lon="6.23532">
        <ele>403.6</ele>
        <time>2023-03-15T12:12:03.000Z</time>
      </trkpt>
      <trkpt lat="43.58892" lon="6.23528">
        <ele>404.7</ele>
        <time>2023-03-15T12:12:10.000Z</time>
      </trkpt>
      <trkpt lat="43.58888" lon="6.23522">
        <ele>405.4</ele>
        <time>2023-03-15T12:12:20.000Z</time>
      </trkpt>
      <trkpt lat="43.58884" lon="6.2352">
        <ele>405.6</ele>
        <time>2023-03-15T12:12:26.000Z</time>
      </trkpt>
      <trkpt lat="43.58879" lon="6.2352">
        <ele>406.1</ele>
        <time>2023-03-15T12:12:32.000Z</time>
      </trkpt>
      <trkpt lat="43.58874" lon="6.23517">
        <ele>406.9</ele>
        <time>2023-03-15T12:12:40.000Z</time>
      </trkpt>
      <trkpt lat="43.58869" lon="6.23514">
        <ele>407.9</ele>
        <time>2023-03-15T12:12:48.000Z</time>
      </trkpt>
      <trkpt lat="43.58864" lon="6.23513">
        <ele>408.5</ele>
        <time>2023-03-15T12:12:53.000Z</time>
      </trkpt>
      <trkpt lat="43.58859" lon="6.23511">
        <ele>409</ele>
        <time>2023-03-15T12:13:00.000Z</time>
      </trkpt>
      <trkpt lat="43.58854" lon="6.23511">
        <ele>409.1</ele>
        <time>2023-03-15T12:13:04.000Z</time>
      </trkpt>
      <trkpt lat="43.5885" lon="6.2351">
        <ele>409.3</ele>
        <time>2023-03-15T12:13:14.000Z</time>
      </trkpt>
      <trkpt lat="43.58845" lon="6.2351">
        <ele>409</ele>
        <time>2023-03-15T12:13:19.000Z</time>
      </trkpt>
      <trkpt lat="43.5884" lon="6.23512">
        <ele>408.7</ele>
        <time>2023-03-15T12:13:25.000Z</time>
      </trkpt>
      <trkpt lat="43.58836" lon="6.23514">
        <ele>408.8</ele>
        <time>2023-03-15T12:13:30.000Z</time>
      </trkpt>
      <trkpt lat="43.58831" lon="6.23515">
        <ele>408.9</ele>
        <time>2023-03-15T12:13:36.000Z</time>
      </trkpt>
      <trkpt lat="43.58827" lon="6.23515">
        <ele>408.9</ele>
        <time>2023-03-15T12:13:41.000Z</time>
      </trkpt>
      <trkpt lat="43.58822" lon="6.23517">
        <ele>409.5</ele>
        <time>2023-03-15T12:13:48.000Z</time>
      </trkpt>
      <trkpt lat="43.58817" lon="6.23518">
        <ele>410.2</ele>
        <time>2023-03-15T12:13:58.000Z</time>
      </trkpt>
      <trkpt lat="43.58813" lon="6.23518">
        <ele>410.6</ele>
        <time>2023-03-15T12:14:05.000Z</time>
      </trkpt>
      <trkpt lat="43.58808" lon="6.23518">
        <ele>410.3</ele>
        <time>2023-03-15T12:14:11.000Z</time>
      </trkpt>
      <trkpt lat="43.58803" lon="6.23518">
        <ele>409.7</ele>
        <time>2023-03-15T12:14:17.000Z</time>
      </trkpt>
      <trkpt lat="43.58798" lon="6.2352">
        <ele>409.1</ele>
        <time>2023-03-15T12:14:23.000Z</time>
      </trkpt>
      <trkpt lat="43.58793" lon="6.23523">
        <ele>408.4</ele>
        <time>2023-03-15T12:14:28.000Z</time>
      </trkpt>
      <trkpt lat="43.58788" lon="6.2352">
        <ele>407.3</ele>
        <time>2023-03-15T12:14:38.000Z</time>
      </trkpt>
      <trkpt lat="43.58784" lon="6.23518">
        <ele>406.3</ele>
        <time>2023-03-15T12:14:47.000Z</time>
      </trkpt>
      <trkpt lat="43.58779" lon="6.23519">
        <ele>405.5</ele>
        <time>2023-03-15T12:14:54.000Z</time>
      </trkpt>
      <trkpt lat="43.58776" lon="6.23523">
        <ele>405.4</ele>
        <time>2023-03-15T12:15:10.000Z</time>
      </trkpt>
      <trkpt lat="43.5878" lon="6.23527">
        <ele>404.2</ele>
        <time>2023-03-15T12:16:14.000Z</time>
      </trkpt>
      <trkpt lat="43.58776" lon="6.23523">
        <ele>404.2</ele>
        <time>2023-03-15T12:16:45.000Z</time>
      </trkpt>
      <trkpt lat="43.58772" lon="6.23523">
        <ele>404.6</ele>
        <time>2023-03-15T12:16:53.000Z</time>
      </trkpt>
      <trkpt lat="43.58767" lon="6.23524">
        <ele>404.8</ele>
        <time>2023-03-15T12:17:00.000Z</time>
      </trkpt>
      <trkpt lat="43.58762" lon="6.23521">
        <ele>404.1</ele>
        <time>2023-03-15T12:17:09.000Z</time>
      </trkpt>
      <trkpt lat="43.58756" lon="6.23524">
        <ele>403.8</ele>
        <time>2023-03-15T12:17:18.000Z</time>
      </trkpt>
      <trkpt lat="43.58752" lon="6.23525">
        <ele>404.1</ele>
        <time>2023-03-15T12:17:23.000Z</time>
      </trkpt>
      <trkpt lat="43.58747" lon="6.23527">
        <ele>404.5</ele>
        <time>2023-03-15T12:17:29.000Z</time>
      </trkpt>
      <trkpt lat="43.58743" lon="6.2353">
        <ele>404.8</ele>
        <time>2023-03-15T12:17:40.000Z</time>
      </trkpt>
      <trkpt lat="43.58739" lon="6.23533">
        <ele>404.6</ele>
        <time>2023-03-15T12:17:46.000Z</time>
      </trkpt>
      <trkpt lat="43.58736" lon="6.23538">
        <ele>404.5</ele>
        <time>2023-03-15T12:17:51.000Z</time>
      </trkpt>
      <trkpt lat="43.58734" lon="6.23544">
        <ele>404.9</ele>
        <time>2023-03-15T12:17:56.000Z</time>
      </trkpt>
      <trkpt lat="43.58731" lon="6.2355">
        <ele>405.5</ele>
        <time>2023-03-15T12:18:03.000Z</time>
      </trkpt>
      <trkpt lat="43.58728" lon="6.23555">
        <ele>406.5</ele>
        <time>2023-03-15T12:18:10.000Z</time>
      </trkpt>
      <trkpt lat="43.58725" lon="6.2356">
        <ele>407.4</ele>
        <time>2023-03-15T12:18:16.000Z</time>
      </trkpt>
      <trkpt lat="43.58723" lon="6.23566">
        <ele>408.1</ele>
        <time>2023-03-15T12:18:22.000Z</time>
      </trkpt>
      <trkpt lat="43.58721" lon="6.23572">
        <ele>408.7</ele>
        <time>2023-03-15T12:18:28.000Z</time>
      </trkpt>
      <trkpt lat="43.5872" lon="6.23578">
        <ele>409.6</ele>
        <time>2023-03-15T12:18:35.000Z</time>
      </trkpt>
      <trkpt lat="43.58719" lon="6.23584">
        <ele>410.1</ele>
        <time>2023-03-15T12:18:40.000Z</time>
      </trkpt>
      <trkpt lat="43.58719" lon="6.23591">
        <ele>410.8</ele>
        <time>2023-03-15T12:18:44.000Z</time>
      </trkpt>
      <trkpt lat="43.58719" lon="6.23597">
        <ele>411.9</ele>
        <time>2023-03-15T12:18:50.000Z</time>
      </trkpt>
      <trkpt lat="43.5872" lon="6.23603">
        <ele>412.8</ele>
        <time>2023-03-15T12:18:56.000Z</time>
      </trkpt>
      <trkpt lat="43.5872" lon="6.2361">
        <ele>414.2</ele>
        <time>2023-03-15T12:19:06.000Z</time>
      </trkpt>
      <trkpt lat="43.58721" lon="6.23617">
        <ele>415.4</ele>
        <time>2023-03-15T12:19:17.000Z</time>
      </trkpt>
      <trkpt lat="43.58722" lon="6.23623">
        <ele>415.7</ele>
        <time>2023-03-15T12:19:25.000Z</time>
      </trkpt>
      <trkpt lat="43.5872" lon="6.23629">
        <ele>416.8</ele>
        <time>2023-03-15T12:19:36.000Z</time>
      </trkpt>
      <trkpt lat="43.58721" lon="6.23635">
        <ele>417.6</ele>
        <time>2023-03-15T12:19:44.000Z</time>
      </trkpt>
      <trkpt lat="43.58723" lon="6.23642">
        <ele>419.5</ele>
        <time>2023-03-15T12:19:56.000Z</time>
      </trkpt>
      <trkpt lat="43.58724" lon="6.23648">
        <ele>420.9</ele>
        <time>2023-03-15T12:20:04.000Z</time>
      </trkpt>
      <trkpt lat="43.58725" lon="6.23655">
        <ele>421.7</ele>
        <time>2023-03-15T12:20:12.000Z</time>
      </trkpt>
      <trkpt lat="43.58726" lon="6.23662">
        <ele>422.6</ele>
        <time>2023-03-15T12:20:20.000Z</time>
      </trkpt>
      <trkpt lat="43.58727" lon="6.23668">
        <ele>423</ele>
        <time>2023-03-15T12:20:25.000Z</time>
      </trkpt>
      <trkpt lat="43.58729" lon="6.23675">
        <ele>423.7</ele>
        <time>2023-03-15T12:20:31.000Z</time>
      </trkpt>
      <trkpt lat="43.5873" lon="6.23681">
        <ele>424.6</ele>
        <time>2023-03-15T12:20:39.000Z</time>
      </trkpt>
      <trkpt lat="43.58731" lon="6.23688">
        <ele>425.2</ele>
        <time>2023-03-15T12:20:46.000Z</time>
      </trkpt>
      <trkpt lat="43.58734" lon="6.23694">
        <ele>425.6</ele>
        <time>2023-03-15T12:20:51.000Z</time>
      </trkpt>
      <trkpt lat="43.58736" lon="6.237">
        <ele>426.3</ele>
        <time>2023-03-15T12:20:57.000Z</time>
      </trkpt>
      <trkpt lat="43.58736" lon="6.23706">
        <ele>428.2</ele>
        <time>2023-03-15T12:21:28.000Z</time>
      </trkpt>
      <trkpt lat="43.5874" lon="6.23704">
        <ele>428.8</ele>
        <time>2023-03-15T12:21:49.000Z</time>
      </trkpt>
      <trkpt lat="43.58743" lon="6.23708">
        <ele>429.1</ele>
        <time>2023-03-15T12:21:57.000Z</time>
      </trkpt>
      <trkpt lat="43.58743" lon="6.23715">
        <ele>428.7</ele>
        <time>2023-03-15T12:22:06.000Z</time>
      </trkpt>
      <trkpt lat="43.58744" lon="6.23722">
        <ele>428.6</ele>
        <time>2023-03-15T12:22:12.000Z</time>
      </trkpt>
      <trkpt lat="43.58745" lon="6.23729">
        <ele>429</ele>
        <time>2023-03-15T12:22:17.000Z</time>
      </trkpt>
      <trkpt lat="43.58746" lon="6.23736">
        <ele>429.2</ele>
        <time>2023-03-15T12:22:22.000Z</time>
      </trkpt>
      <trkpt lat="43.58745" lon="6.23743">
        <ele>429.7</ele>
        <time>2023-03-15T12:22:27.000Z</time>
      </trkpt>
      <trkpt lat="43.58744" lon="6.2375">
        <ele>429.8</ele>
        <time>2023-03-15T12:22:32.000Z</time>
      </trkpt>
      <trkpt lat="43.58746" lon="6.23756">
        <ele>429.7</ele>
        <time>2023-03-15T12:22:37.000Z</time>
      </trkpt>
      <trkpt lat="43.58747" lon="6.23763">
        <ele>429.8</ele>
        <time>2023-03-15T12:22:42.000Z</time>
      </trkpt>
      <trkpt lat="43.58747" lon="6.2377">
        <ele>430.2</ele>
        <time>2023-03-15T12:22:47.000Z</time>
      </trkpt>
      <trkpt lat="43.58745" lon="6.23776">
        <ele>430.5</ele>
        <time>2023-03-15T12:22:52.000Z</time>
      </trkpt>
      <trkpt lat="43.58742" lon="6.23781">
        <ele>430.8</ele>
        <time>2023-03-15T12:22:57.000Z</time>
      </trkpt>
      <trkpt lat="43.58741" lon="6.23788">
        <ele>431.2</ele>
        <time>2023-03-15T12:23:02.000Z</time>
      </trkpt>
      <trkpt lat="43.5874" lon="6.23794">
        <ele>431.6</ele>
        <time>2023-03-15T12:23:08.000Z</time>
      </trkpt>
      <trkpt lat="43.58738" lon="6.238">
        <ele>431.8</ele>
        <time>2023-03-15T12:23:13.000Z</time>
      </trkpt>
      <trkpt lat="43.58737" lon="6.23807">
        <ele>432</ele>
        <time>2023-03-15T12:23:17.000Z</time>
      </trkpt>
      <trkpt lat="43.58736" lon="6.23814">
        <ele>432.3</ele>
        <time>2023-03-15T12:23:22.000Z</time>
      </trkpt>
      <trkpt lat="43.58734" lon="6.23821">
        <ele>432.7</ele>
        <time>2023-03-15T12:23:27.000Z</time>
      </trkpt>
      <trkpt lat="43.58734" lon="6.23828">
        <ele>433</ele>
        <time>2023-03-15T12:23:32.000Z</time>
      </trkpt>
      <trkpt lat="43.58734" lon="6.23836">
        <ele>433.3</ele>
        <time>2023-03-15T12:23:37.000Z</time>
      </trkpt>
      <trkpt lat="43.58734" lon="6.23843">
        <ele>433.4</ele>
        <time>2023-03-15T12:23:42.000Z</time>
      </trkpt>
      <trkpt lat="43.58733" lon="6.23849">
        <ele>433.7</ele>
        <time>2023-03-15T12:23:47.000Z</time>
      </trkpt>
      <trkpt lat="43.58733" lon="6.23856">
        <ele>433.8</ele>
        <time>2023-03-15T12:23:52.000Z</time>
      </trkpt>
      <trkpt lat="43.58734" lon="6.23862">
        <ele>433.7</ele>
        <time>2023-03-15T12:23:57.000Z</time>
      </trkpt>
      <trkpt lat="43.58732" lon="6.23868">
        <ele>433.9</ele>
        <time>2023-03-15T12:24:01.000Z</time>
      </trkpt>
      <trkpt lat="43.58731" lon="6.23875">
        <ele>434</ele>
        <time>2023-03-15T12:24:06.000Z</time>
      </trkpt>
      <trkpt lat="43.58729" lon="6.23882">
        <ele>434.5</ele>
        <time>2023-03-15T12:24:11.000Z</time>
      </trkpt>
      <trkpt lat="43.58731" lon="6.23889">
        <ele>434.9</ele>
        <time>2023-03-15T12:24:16.000Z</time>
      </trkpt>
      <trkpt lat="43.58733" lon="6.23894">
        <ele>435</ele>
        <time>2023-03-15T12:24:19.000Z</time>
      </trkpt>
      <trkpt lat="43.58736" lon="6.23901">
        <ele>435.1</ele>
        <time>2023-03-15T12:24:23.000Z</time>
      </trkpt>
      <trkpt lat="43.58738" lon="6.23907">
        <ele>435.5</ele>
        <time>2023-03-15T12:24:27.000Z</time>
      </trkpt>
      <trkpt lat="43.5874" lon="6.23913">
        <ele>435.9</ele>
        <time>2023-03-15T12:24:33.000Z</time>
      </trkpt>
      <trkpt lat="43.58742" lon="6.23919">
        <ele>436</ele>
        <time>2023-03-15T12:24:39.000Z</time>
      </trkpt>
      <trkpt lat="43.58745" lon="6.23926">
        <ele>436.1</ele>
        <time>2023-03-15T12:24:44.000Z</time>
      </trkpt>
      <trkpt lat="43.58748" lon="6.23931">
        <ele>436</ele>
        <time>2023-03-15T12:24:48.000Z</time>
      </trkpt>
      <trkpt lat="43.58752" lon="6.23934">
        <ele>436</ele>
        <time>2023-03-15T12:24:52.000Z</time>
      </trkpt>
      <trkpt lat="43.58756" lon="6.23937">
        <ele>436.1</ele>
        <time>2023-03-15T12:24:58.000Z</time>
      </trkpt>
      <trkpt lat="43.58759" lon="6.23943">
        <ele>436.3</ele>
        <time>2023-03-15T12:25:04.000Z</time>
      </trkpt>
      <trkpt lat="43.58761" lon="6.23949">
        <ele>436.4</ele>
        <time>2023-03-15T12:25:09.000Z</time>
      </trkpt>
      <trkpt lat="43.58762" lon="6.23956">
        <ele>436.5</ele>
        <time>2023-03-15T12:25:17.000Z</time>
      </trkpt>
      <trkpt lat="43.58764" lon="6.23963">
        <ele>436.5</ele>
        <time>2023-03-15T12:25:21.000Z</time>
      </trkpt>
      <trkpt lat="43.58765" lon="6.2397">
        <ele>436.7</ele>
        <time>2023-03-15T12:25:26.000Z</time>
      </trkpt>
      <trkpt lat="43.58768" lon="6.23975">
        <ele>436.6</ele>
        <time>2023-03-15T12:25:30.000Z</time>
      </trkpt>
      <trkpt lat="43.58771" lon="6.2398">
        <ele>436.3</ele>
        <time>2023-03-15T12:25:34.000Z</time>
      </trkpt>
      <trkpt lat="43.58775" lon="6.23986">
        <ele>435.7</ele>
        <time>2023-03-15T12:25:39.000Z</time>
      </trkpt>
      <trkpt lat="43.58778" lon="6.23991">
        <ele>435.2</ele>
        <time>2023-03-15T12:25:43.000Z</time>
      </trkpt>
      <trkpt lat="43.58782" lon="6.23995">
        <ele>434.8</ele>
        <time>2023-03-15T12:25:47.000Z</time>
      </trkpt>
      <trkpt lat="43.58783" lon="6.24001">
        <ele>434.3</ele>
        <time>2023-03-15T12:25:53.000Z</time>
      </trkpt>
      <trkpt lat="43.58785" lon="6.24007">
        <ele>434</ele>
        <time>2023-03-15T12:25:58.000Z</time>
      </trkpt>
      <trkpt lat="43.58787" lon="6.24013">
        <ele>433.8</ele>
        <time>2023-03-15T12:26:03.000Z</time>
      </trkpt>
      <trkpt lat="43.58787" lon="6.24019">
        <ele>433.4</ele>
        <time>2023-03-15T12:26:08.000Z</time>
      </trkpt>
      <trkpt lat="43.58786" lon="6.24027">
        <ele>433.1</ele>
        <time>2023-03-15T12:26:13.000Z</time>
      </trkpt>
      <trkpt lat="43.58785" lon="6.24034">
        <ele>432.8</ele>
        <time>2023-03-15T12:26:18.000Z</time>
      </trkpt>
      <trkpt lat="43.58786" lon="6.24041">
        <ele>432.7</ele>
        <time>2023-03-15T12:26:23.000Z</time>
      </trkpt>
      <trkpt lat="43.58785" lon="6.24048">
        <ele>432.7</ele>
        <time>2023-03-15T12:26:29.000Z</time>
      </trkpt>
      <trkpt lat="43.58784" lon="6.24055">
        <ele>432.8</ele>
        <time>2023-03-15T12:26:34.000Z</time>
      </trkpt>
      <trkpt lat="43.58783" lon="6.24063">
        <ele>432.9</ele>
        <time>2023-03-15T12:26:39.000Z</time>
      </trkpt>
      <trkpt lat="43.58784" lon="6.24071">
        <ele>432.9</ele>
        <time>2023-03-15T12:26:43.000Z</time>
      </trkpt>
      <trkpt lat="43.58785" lon="6.24077">
        <ele>432.9</ele>
        <time>2023-03-15T12:26:47.000Z</time>
      </trkpt>
      <trkpt lat="43.58786" lon="6.24085">
        <ele>433</ele>
        <time>2023-03-15T12:26:52.000Z</time>
      </trkpt>
      <trkpt lat="43.58786" lon="6.24092">
        <ele>433</ele>
        <time>2023-03-15T12:26:57.000Z</time>
      </trkpt>
      <trkpt lat="43.58784" lon="6.24098">
        <ele>433.2</ele>
        <time>2023-03-15T12:27:02.000Z</time>
      </trkpt>
      <trkpt lat="43.58784" lon="6.24105">
        <ele>433.6</ele>
        <time>2023-03-15T12:27:07.000Z</time>
      </trkpt>
      <trkpt lat="43.58783" lon="6.24111">
        <ele>433.9</ele>
        <time>2023-03-15T12:27:12.000Z</time>
      </trkpt>
      <trkpt lat="43.5878" lon="6.24116">
        <ele>434.2</ele>
        <time>2023-03-15T12:27:18.000Z</time>
      </trkpt>
      <trkpt lat="43.58777" lon="6.24122">
        <ele>434.5</ele>
        <time>2023-03-15T12:27:24.000Z</time>
      </trkpt>
      <trkpt lat="43.58775" lon="6.24128">
        <ele>434.7</ele>
        <time>2023-03-15T12:27:29.000Z</time>
      </trkpt>
      <trkpt lat="43.58772" lon="6.24135">
        <ele>434.8</ele>
        <time>2023-03-15T12:27:34.000Z</time>
      </trkpt>
      <trkpt lat="43.5877" lon="6.24141">
        <ele>434.8</ele>
        <time>2023-03-15T12:27:38.000Z</time>
      </trkpt>
      <trkpt lat="43.58768" lon="6.24148">
        <ele>434.8</ele>
        <time>2023-03-15T12:27:43.000Z</time>
      </trkpt>
      <trkpt lat="43.58766" lon="6.24154">
        <ele>434.5</ele>
        <time>2023-03-15T12:27:47.000Z</time>
      </trkpt>
      <trkpt lat="43.58765" lon="6.24162">
        <ele>434.2</ele>
        <time>2023-03-15T12:27:52.000Z</time>
      </trkpt>
      <trkpt lat="43.58762" lon="6.24168">
        <ele>433.8</ele>
        <time>2023-03-15T12:27:57.000Z</time>
      </trkpt>
      <trkpt lat="43.5876" lon="6.24174">
        <ele>433.7</ele>
        <time>2023-03-15T12:28:01.000Z</time>
      </trkpt>
      <trkpt lat="43.58756" lon="6.24181">
        <ele>433.6</ele>
        <time>2023-03-15T12:28:05.000Z</time>
      </trkpt>
      <trkpt lat="43.58753" lon="6.24186">
        <ele>433.4</ele>
        <time>2023-03-15T12:28:09.000Z</time>
      </trkpt>
      <trkpt lat="43.58749" lon="6.24191">
        <ele>433</ele>
        <time>2023-03-15T12:28:13.000Z</time>
      </trkpt>
      <trkpt lat="43.58746" lon="6.24197">
        <ele>432.8</ele>
        <time>2023-03-15T12:28:17.000Z</time>
      </trkpt>
      <trkpt lat="43.58743" lon="6.24203">
        <ele>432.8</ele>
        <time>2023-03-15T12:28:22.000Z</time>
      </trkpt>
      <trkpt lat="43.5874" lon="6.24209">
        <ele>432.7</ele>
        <time>2023-03-15T12:28:26.000Z</time>
      </trkpt>
      <trkpt lat="43.58738" lon="6.24215">
        <ele>432.4</ele>
        <time>2023-03-15T12:28:30.000Z</time>
      </trkpt>
      <trkpt lat="43.58735" lon="6.24221">
        <ele>432.3</ele>
        <time>2023-03-15T12:28:34.000Z</time>
      </trkpt>
      <trkpt lat="43.58732" lon="6.24227">
        <ele>432.1</ele>
        <time>2023-03-15T12:28:38.000Z</time>
      </trkpt>
      <trkpt lat="43.58729" lon="6.24233">
        <ele>432.1</ele>
        <time>2023-03-15T12:28:42.000Z</time>
      </trkpt>
      <trkpt lat="43.58725" lon="6.24237">
        <ele>432.3</ele>
        <time>2023-03-15T12:28:47.000Z</time>
      </trkpt>
      <trkpt lat="43.58721" lon="6.2424">
        <ele>432.6</ele>
        <time>2023-03-15T12:28:53.000Z</time>
      </trkpt>
      <trkpt lat="43.58717" lon="6.2424">
        <ele>432.8</ele>
        <time>2023-03-15T12:29:03.000Z</time>
      </trkpt>
      <trkpt lat="43.58713" lon="6.24236">
        <ele>432.9</ele>
        <time>2023-03-15T12:29:12.000Z</time>
      </trkpt>
      <trkpt lat="43.58709" lon="6.24231">
        <ele>433.2</ele>
        <time>2023-03-15T12:29:17.000Z</time>
      </trkpt>
      <trkpt lat="43.58706" lon="6.24227">
        <ele>433.6</ele>
        <time>2023-03-15T12:29:22.000Z</time>
      </trkpt>
      <trkpt lat="43.58702" lon="6.24224">
        <ele>434.2</ele>
        <time>2023-03-15T12:29:28.000Z</time>
      </trkpt>
      <trkpt lat="43.58697" lon="6.2422">
        <ele>434.7</ele>
        <time>2023-03-15T12:29:33.000Z</time>
      </trkpt>
      <trkpt lat="43.58693" lon="6.24218">
        <ele>435</ele>
        <time>2023-03-15T12:29:37.000Z</time>
      </trkpt>
      <trkpt lat="43.58688" lon="6.24213">
        <ele>435.5</ele>
        <time>2023-03-15T12:29:42.000Z</time>
      </trkpt>
      <trkpt lat="43.58685" lon="6.24209">
        <ele>436</ele>
        <time>2023-03-15T12:29:47.000Z</time>
      </trkpt>
      <trkpt lat="43.58683" lon="6.24202">
        <ele>436.8</ele>
        <time>2023-03-15T12:29:53.000Z</time>
      </trkpt>
      <trkpt lat="43.58683" lon="6.24196">
        <ele>437.5</ele>
        <time>2023-03-15T12:29:58.000Z</time>
      </trkpt>
      <trkpt lat="43.58681" lon="6.24189">
        <ele>438.3</ele>
        <time>2023-03-15T12:30:04.000Z</time>
      </trkpt>
      <trkpt lat="43.58682" lon="6.24182">
        <ele>439.1</ele>
        <time>2023-03-15T12:30:10.000Z</time>
      </trkpt>
      <trkpt lat="43.5868" lon="6.24176">
        <ele>439.7</ele>
        <time>2023-03-15T12:30:16.000Z</time>
      </trkpt>
      <trkpt lat="43.5868" lon="6.24169">
        <ele>440.2</ele>
        <time>2023-03-15T12:30:22.000Z</time>
      </trkpt>
      <trkpt lat="43.58679" lon="6.24162">
        <ele>441</ele>
        <time>2023-03-15T12:30:28.000Z</time>
      </trkpt>
      <trkpt lat="43.58677" lon="6.24156">
        <ele>441.8</ele>
        <time>2023-03-15T12:30:33.000Z</time>
      </trkpt>
      <trkpt lat="43.58675" lon="6.24149">
        <ele>442.4</ele>
        <time>2023-03-15T12:30:38.000Z</time>
      </trkpt>
      <trkpt lat="43.58673" lon="6.24143">
        <ele>443.1</ele>
        <time>2023-03-15T12:30:43.000Z</time>
      </trkpt>
      <trkpt lat="43.5867" lon="6.24136">
        <ele>443.7</ele>
        <time>2023-03-15T12:30:48.000Z</time>
      </trkpt>
      <trkpt lat="43.58668" lon="6.24131">
        <ele>444</ele>
        <time>2023-03-15T12:30:52.000Z</time>
      </trkpt>
      <trkpt lat="43.58664" lon="6.24127">
        <ele>444.4</ele>
        <time>2023-03-15T12:30:56.000Z</time>
      </trkpt>
      <trkpt lat="43.5866" lon="6.24122">
        <ele>444.8</ele>
        <time>2023-03-15T12:31:01.000Z</time>
      </trkpt>
      <trkpt lat="43.58656" lon="6.24118">
        <ele>445.2</ele>
        <time>2023-03-15T12:31:06.000Z</time>
      </trkpt>
      <trkpt lat="43.58652" lon="6.24113">
        <ele>446.2</ele>
        <time>2023-03-15T12:31:14.000Z</time>
      </trkpt>
      <trkpt lat="43.58648" lon="6.24108">
        <ele>446.7</ele>
        <time>2023-03-15T12:31:21.000Z</time>
      </trkpt>
      <trkpt lat="43.58644" lon="6.24104">
        <ele>447</ele>
        <time>2023-03-15T12:31:26.000Z</time>
      </trkpt>
      <trkpt lat="43.5864" lon="6.24101">
        <ele>447.2</ele>
        <time>2023-03-15T12:31:30.000Z</time>
      </trkpt>
      <trkpt lat="43.58636" lon="6.24097">
        <ele>447.4</ele>
        <time>2023-03-15T12:31:34.000Z</time>
      </trkpt>
      <trkpt lat="43.58632" lon="6.24093">
        <ele>447.6</ele>
        <time>2023-03-15T12:31:39.000Z</time>
      </trkpt>
      <trkpt lat="43.58628" lon="6.24089">
        <ele>448.1</ele>
        <time>2023-03-15T12:31:44.000Z</time>
      </trkpt>
      <trkpt lat="43.58624" lon="6.24084">
        <ele>448.7</ele>
        <time>2023-03-15T12:31:50.000Z</time>
      </trkpt>
      <trkpt lat="43.58619" lon="6.2408">
        <ele>449.4</ele>
        <time>2023-03-15T12:31:56.000Z</time>
      </trkpt>
      <trkpt lat="43.58615" lon="6.24076">
        <ele>449.8</ele>
        <time>2023-03-15T12:32:00.000Z</time>
      </trkpt>
      <trkpt lat="43.58611" lon="6.24072">
        <ele>450.1</ele>
        <time>2023-03-15T12:32:06.000Z</time>
      </trkpt>
      <trkpt lat="43.58609" lon="6.24067">
        <ele>450.7</ele>
        <time>2023-03-15T12:32:12.000Z</time>
      </trkpt>
      <trkpt lat="43.58605" lon="6.24062">
        <ele>451.3</ele>
        <time>2023-03-15T12:32:16.899Z</time>
      </trkpt>
      <trkpt lat="43.58603" lon="6.24056">
        <ele>451.5</ele>
        <time>2023-03-15T12:32:22.000Z</time>
      </trkpt>
      <trkpt lat="43.586" lon="6.24051">
        <ele>451.7</ele>
        <time>2023-03-15T12:32:26.000Z</time>
      </trkpt>
      <trkpt lat="43.58596" lon="6.24046">
        <ele>451.9</ele>
        <time>2023-03-15T12:32:30.000Z</time>
      </trkpt>
      <trkpt lat="43.58592" lon="6.2404">
        <ele>452.1</ele>
        <time>2023-03-15T12:32:34.000Z</time>
      </trkpt>
      <trkpt lat="43.58589" lon="6.24035">
        <ele>452.3</ele>
        <time>2023-03-15T12:32:38.000Z</time>
      </trkpt>
      <trkpt lat="43.58586" lon="6.2403">
        <ele>452.6</ele>
        <time>2023-03-15T12:32:42.000Z</time>
      </trkpt>
      <trkpt lat="43.58583" lon="6.24025">
        <ele>452.7</ele>
        <time>2023-03-15T12:32:46.000Z</time>
      </trkpt>
      <trkpt lat="43.58581" lon="6.24019">
        <ele>452.7</ele>
        <time>2023-03-15T12:32:51.000Z</time>
      </trkpt>
      <trkpt lat="43.58579" lon="6.24013">
        <ele>452.8</ele>
        <time>2023-03-15T12:32:55.000Z</time>
      </trkpt>
      <trkpt lat="43.58576" lon="6.24007">
        <ele>452.8</ele>
        <time>2023-03-15T12:32:59.000Z</time>
      </trkpt>
      <trkpt lat="43.58573" lon="6.24001">
        <ele>452.7</ele>
        <time>2023-03-15T12:33:03.000Z</time>
      </trkpt>
      <trkpt lat="43.5857" lon="6.23995">
        <ele>452.8</ele>
        <time>2023-03-15T12:33:07.000Z</time>
      </trkpt>
      <trkpt lat="43.58568" lon="6.2399">
        <ele>452.8</ele>
        <time>2023-03-15T12:33:11.000Z</time>
      </trkpt>
      <trkpt lat="43.58566" lon="6.23984">
        <ele>452.7</ele>
        <time>2023-03-15T12:33:15.000Z</time>
      </trkpt>
      <trkpt lat="43.58563" lon="6.23978">
        <ele>452.6</ele>
        <time>2023-03-15T12:33:19.000Z</time>
      </trkpt>
      <trkpt lat="43.58561" lon="6.23973">
        <ele>452.6</ele>
        <time>2023-03-15T12:33:23.000Z</time>
      </trkpt>
      <trkpt lat="43.58559" lon="6.23967">
        <ele>452.8</ele>
        <time>2023-03-15T12:33:27.000Z</time>
      </trkpt>
      <trkpt lat="43.58556" lon="6.23962">
        <ele>453</ele>
        <time>2023-03-15T12:33:31.000Z</time>
      </trkpt>
      <trkpt lat="43.58554" lon="6.23956">
        <ele>453.2</ele>
        <time>2023-03-15T12:33:35.000Z</time>
      </trkpt>
      <trkpt lat="43.58551" lon="6.2395">
        <ele>453.4</ele>
        <time>2023-03-15T12:33:40.000Z</time>
      </trkpt>
      <trkpt lat="43.58548" lon="6.23944">
        <ele>453.7</ele>
        <time>2023-03-15T12:33:45.000Z</time>
      </trkpt>
      <trkpt lat="43.58544" lon="6.23939">
        <ele>453.7</ele>
        <time>2023-03-15T12:33:50.000Z</time>
      </trkpt>
      <trkpt lat="43.5854" lon="6.23933">
        <ele>453.8</ele>
        <time>2023-03-15T12:33:55.000Z</time>
      </trkpt>
      <trkpt lat="43.58537" lon="6.23928">
        <ele>454</ele>
        <time>2023-03-15T12:33:59.000Z</time>
      </trkpt>
      <trkpt lat="43.58534" lon="6.23922">
        <ele>454.2</ele>
        <time>2023-03-15T12:34:04.000Z</time>
      </trkpt>
      <trkpt lat="43.58531" lon="6.23916">
        <ele>454.3</ele>
        <time>2023-03-15T12:34:09.000Z</time>
      </trkpt>
      <trkpt lat="43.58528" lon="6.23911">
        <ele>454.5</ele>
        <time>2023-03-15T12:34:13.000Z</time>
      </trkpt>
      <trkpt lat="43.58525" lon="6.23905">
        <ele>454.9</ele>
        <time>2023-03-15T12:34:18.000Z</time>
      </trkpt>
      <trkpt lat="43.58522" lon="6.239">
        <ele>455.3</ele>
        <time>2023-03-15T12:34:23.000Z</time>
      </trkpt>
      <trkpt lat="43.5852" lon="6.23893">
        <ele>455.6</ele>
        <time>2023-03-15T12:34:28.000Z</time>
      </trkpt>
      <trkpt lat="43.58518" lon="6.23887">
        <ele>455.8</ele>
        <time>2023-03-15T12:34:33.000Z</time>
      </trkpt>
      <trkpt lat="43.58515" lon="6.2388">
        <ele>455.8</ele>
        <time>2023-03-15T12:34:38.000Z</time>
      </trkpt>
      <trkpt lat="43.58512" lon="6.23874">
        <ele>456</ele>
        <time>2023-03-15T12:34:43.000Z</time>
      </trkpt>
      <trkpt lat="43.58509" lon="6.23868">
        <ele>455.8</ele>
        <time>2023-03-15T12:34:48.000Z</time>
      </trkpt>
      <trkpt lat="43.58506" lon="6.23864">
        <ele>455.7</ele>
        <time>2023-03-15T12:34:52.000Z</time>
      </trkpt>
      <trkpt lat="43.58503" lon="6.23859">
        <ele>455.7</ele>
        <time>2023-03-15T12:34:56.000Z</time>
      </trkpt>
      <trkpt lat="43.58498" lon="6.23854">
        <ele>455.7</ele>
        <time>2023-03-15T12:35:00.000Z</time>
      </trkpt>
      <trkpt lat="43.58494" lon="6.23851">
        <ele>455.6</ele>
        <time>2023-03-15T12:35:04.000Z</time>
      </trkpt>
      <trkpt lat="43.58489" lon="6.23849">
        <ele>455.5</ele>
        <time>2023-03-15T12:35:07.000Z</time>
      </trkpt>
      <trkpt lat="43.58484" lon="6.23846">
        <ele>455.4</ele>
        <time>2023-03-15T12:35:12.000Z</time>
      </trkpt>
      <trkpt lat="43.5848" lon="6.23842">
        <ele>455.2</ele>
        <time>2023-03-15T12:35:19.000Z</time>
      </trkpt>
      <trkpt lat="43.58475" lon="6.23839">
        <ele>455</ele>
        <time>2023-03-15T12:35:23.000Z</time>
      </trkpt>
      <trkpt lat="43.58469" lon="6.23836">
        <ele>454.9</ele>
        <time>2023-03-15T12:35:27.000Z</time>
      </trkpt>
      <trkpt lat="43.58465" lon="6.23832">
        <ele>454.8</ele>
        <time>2023-03-15T12:35:31.000Z</time>
      </trkpt>
      <trkpt lat="43.58461" lon="6.23827">
        <ele>454.6</ele>
        <time>2023-03-15T12:35:36.000Z</time>
      </trkpt>
      <trkpt lat="43.58457" lon="6.23822">
        <ele>454.4</ele>
        <time>2023-03-15T12:35:40.000Z</time>
      </trkpt>
      <trkpt lat="43.58456" lon="6.23816">
        <ele>454.6</ele>
        <time>2023-03-15T12:35:45.000Z</time>
      </trkpt>
      <trkpt lat="43.58454" lon="6.23809">
        <ele>454.5</ele>
        <time>2023-03-15T12:35:50.000Z</time>
      </trkpt>
      <trkpt lat="43.58452" lon="6.23804">
        <ele>454.1</ele>
        <time>2023-03-15T12:35:54.000Z</time>
      </trkpt>
      <trkpt lat="43.58449" lon="6.23798">
        <ele>453.9</ele>
        <time>2023-03-15T12:35:58.000Z</time>
      </trkpt>
      <trkpt lat="43.58446" lon="6.23793">
        <ele>453.7</ele>
        <time>2023-03-15T12:36:02.000Z</time>
      </trkpt>
      <trkpt lat="43.58442" lon="6.23789">
        <ele>453.3</ele>
        <time>2023-03-15T12:36:06.000Z</time>
      </trkpt>
      <trkpt lat="43.58439" lon="6.23784">
        <ele>453</ele>
        <time>2023-03-15T12:36:11.000Z</time>
      </trkpt>
      <trkpt lat="43.58434" lon="6.2378">
        <ele>452.4</ele>
        <time>2023-03-15T12:36:16.000Z</time>
      </trkpt>
      <trkpt lat="43.58431" lon="6.23775">
        <ele>452.1</ele>
        <time>2023-03-15T12:36:21.000Z</time>
      </trkpt>
      <trkpt lat="43.58426" lon="6.2377">
        <ele>451.4</ele>
        <time>2023-03-15T12:36:27.000Z</time>
      </trkpt>
      <trkpt lat="43.58423" lon="6.23767">
        <ele>451</ele>
        <time>2023-03-15T12:36:31.000Z</time>
      </trkpt>
      <trkpt lat="43.5842" lon="6.23762">
        <ele>450.6</ele>
        <time>2023-03-15T12:36:35.000Z</time>
      </trkpt>
      <trkpt lat="43.58416" lon="6.23757">
        <ele>450.2</ele>
        <time>2023-03-15T12:36:39.000Z</time>
      </trkpt>
      <trkpt lat="43.58413" lon="6.23753">
        <ele>449.8</ele>
        <time>2023-03-15T12:36:43.000Z</time>
      </trkpt>
      <trkpt lat="43.58409" lon="6.23748">
        <ele>449.5</ele>
        <time>2023-03-15T12:36:47.000Z</time>
      </trkpt>
      <trkpt lat="43.58406" lon="6.23743">
        <ele>449.1</ele>
        <time>2023-03-15T12:36:51.000Z</time>
      </trkpt>
      <trkpt lat="43.58403" lon="6.23738">
        <ele>448.5</ele>
        <time>2023-03-15T12:36:56.000Z</time>
      </trkpt>
      <trkpt lat="43.584" lon="6.23732">
        <ele>448</ele>
        <time>2023-03-15T12:37:00.000Z</time>
      </trkpt>
      <trkpt lat="43.58396" lon="6.23726">
        <ele>448</ele>
        <time>2023-03-15T12:37:05.000Z</time>
      </trkpt>
      <trkpt lat="43.58393" lon="6.2372">
        <ele>447.6</ele>
        <time>2023-03-15T12:37:10.000Z</time>
      </trkpt>
      <trkpt lat="43.58389" lon="6.23717">
        <ele>447.3</ele>
        <time>2023-03-15T12:37:14.000Z</time>
      </trkpt>
      <trkpt lat="43.58386" lon="6.23713">
        <ele>447</ele>
        <time>2023-03-15T12:37:17.000Z</time>
      </trkpt>
      <trkpt lat="43.58382" lon="6.23707">
        <ele>446.4</ele>
        <time>2023-03-15T12:37:22.000Z</time>
      </trkpt>
      <trkpt lat="43.5838" lon="6.23701">
        <ele>446</ele>
        <time>2023-03-15T12:37:27.000Z</time>
      </trkpt>
      <trkpt lat="43.58377" lon="6.23695">
        <ele>445.6</ele>
        <time>2023-03-15T12:37:31.000Z</time>
      </trkpt>
      <trkpt lat="43.58375" lon="6.23689">
        <ele>445.2</ele>
        <time>2023-03-15T12:37:35.000Z</time>
      </trkpt>
      <trkpt lat="43.58372" lon="6.23683">
        <ele>444.8</ele>
        <time>2023-03-15T12:37:40.000Z</time>
      </trkpt>
      <trkpt lat="43.5837" lon="6.23676">
        <ele>444.3</ele>
        <time>2023-03-15T12:37:45.000Z</time>
      </trkpt>
      <trkpt lat="43.58367" lon="6.2367">
        <ele>443.6</ele>
        <time>2023-03-15T12:37:50.000Z</time>
      </trkpt>
      <trkpt lat="43.58365" lon="6.23664">
        <ele>443.2</ele>
        <time>2023-03-15T12:37:54.000Z</time>
      </trkpt>
      <trkpt lat="43.58362" lon="6.23659">
        <ele>442.6</ele>
        <time>2023-03-15T12:37:58.000Z</time>
      </trkpt>
      <trkpt lat="43.58359" lon="6.23653">
        <ele>442.1</ele>
        <time>2023-03-15T12:38:03.000Z</time>
      </trkpt>
      <trkpt lat="43.58358" lon="6.23646">
        <ele>441.5</ele>
        <time>2023-03-15T12:38:09.000Z</time>
      </trkpt>
      <trkpt lat="43.58356" lon="6.2364">
        <ele>441.2</ele>
        <time>2023-03-15T12:38:14.000Z</time>
      </trkpt>
      <trkpt lat="43.58354" lon="6.23634">
        <ele>441</ele>
        <time>2023-03-15T12:38:18.000Z</time>
      </trkpt>
      <trkpt lat="43.58352" lon="6.23629">
        <ele>440.8</ele>
        <time>2023-03-15T12:38:22.000Z</time>
      </trkpt>
      <trkpt lat="43.5835" lon="6.23623">
        <ele>440.6</ele>
        <time>2023-03-15T12:38:26.000Z</time>
      </trkpt>
      <trkpt lat="43.58347" lon="6.23617">
        <ele>440.5</ele>
        <time>2023-03-15T12:38:31.000Z</time>
      </trkpt>
      <trkpt lat="43.58345" lon="6.2361">
        <ele>440.3</ele>
        <time>2023-03-15T12:38:36.000Z</time>
      </trkpt>
      <trkpt lat="43.58341" lon="6.23604">
        <ele>439.9</ele>
        <time>2023-03-15T12:38:40.000Z</time>
      </trkpt>
      <trkpt lat="43.58337" lon="6.23598">
        <ele>439.7</ele>
        <time>2023-03-15T12:38:45.000Z</time>
      </trkpt>
      <trkpt lat="43.58335" lon="6.23592">
        <ele>439.3</ele>
        <time>2023-03-15T12:38:49.000Z</time>
      </trkpt>
      <trkpt lat="43.58333" lon="6.23585">
        <ele>439</ele>
        <time>2023-03-15T12:38:54.000Z</time>
      </trkpt>
      <trkpt lat="43.5833" lon="6.23578">
        <ele>438.7</ele>
        <time>2023-03-15T12:38:59.000Z</time>
      </trkpt>
      <trkpt lat="43.58328" lon="6.23572">
        <ele>438.6</ele>
        <time>2023-03-15T12:39:03.000Z</time>
      </trkpt>
      <trkpt lat="43.58325" lon="6.23567">
        <ele>438.5</ele>
        <time>2023-03-15T12:39:07.000Z</time>
      </trkpt>
      <trkpt lat="43.58322" lon="6.23561">
        <ele>438.2</ele>
        <time>2023-03-15T12:39:11.000Z</time>
      </trkpt>
      <trkpt lat="43.58318" lon="6.23555">
        <ele>438</ele>
        <time>2023-03-15T12:39:15.000Z</time>
      </trkpt>
      <trkpt lat="43.58317" lon="6.23548">
        <ele>437.7</ele>
        <time>2023-03-15T12:39:20.000Z</time>
      </trkpt>
      <trkpt lat="43.58315" lon="6.23542">
        <ele>437.3</ele>
        <time>2023-03-15T12:39:25.000Z</time>
      </trkpt>
      <trkpt lat="43.58313" lon="6.23536">
        <ele>437</ele>
        <time>2023-03-15T12:39:29.000Z</time>
      </trkpt>
      <trkpt lat="43.58312" lon="6.2353">
        <ele>436.7</ele>
        <time>2023-03-15T12:39:33.000Z</time>
      </trkpt>
      <trkpt lat="43.58311" lon="6.23522">
        <ele>436.5</ele>
        <time>2023-03-15T12:39:38.000Z</time>
      </trkpt>
      <trkpt lat="43.5831" lon="6.23515">
        <ele>436.3</ele>
        <time>2023-03-15T12:39:43.000Z</time>
      </trkpt>
      <trkpt lat="43.58311" lon="6.23509">
        <ele>436.1</ele>
        <time>2023-03-15T12:39:47.000Z</time>
      </trkpt>
      <trkpt lat="43.58311" lon="6.23502">
        <ele>435.9</ele>
        <time>2023-03-15T12:39:51.000Z</time>
      </trkpt>
      <trkpt lat="43.5831" lon="6.23495">
        <ele>435.7</ele>
        <time>2023-03-15T12:39:55.000Z</time>
      </trkpt>
      <trkpt lat="43.58308" lon="6.23489">
        <ele>435.6</ele>
        <time>2023-03-15T12:39:59.000Z</time>
      </trkpt>
      <trkpt lat="43.58306" lon="6.23483">
        <ele>435.5</ele>
        <time>2023-03-15T12:40:05.000Z</time>
      </trkpt>
      <trkpt lat="43.5831" lon="6.23482">
        <ele>434.3</ele>
        <time>2023-03-15T12:40:28.000Z</time>
      </trkpt>
      <trkpt lat="43.58306" lon="6.2348">
        <ele>434</ele>
        <time>2023-03-15T12:40:59.000Z</time>
      </trkpt>
      <trkpt lat="43.58302" lon="6.23477">
        <ele>433.8</ele>
        <time>2023-03-15T12:42:37.000Z</time>
      </trkpt>
      <trkpt lat="43.58297" lon="6.23477">
        <ele>433.7</ele>
        <time>2023-03-15T12:42:45.000Z</time>
      </trkpt>
      <trkpt lat="43.58292" lon="6.23476">
        <ele>433.3</ele>
        <time>2023-03-15T12:42:51.000Z</time>
      </trkpt>
      <trkpt lat="43.58287" lon="6.23473">
        <ele>432.9</ele>
        <time>2023-03-15T12:42:58.000Z</time>
      </trkpt>
      <trkpt lat="43.58284" lon="6.23468">
        <ele>432.2</ele>
        <time>2023-03-15T12:43:08.000Z</time>
      </trkpt>
      <trkpt lat="43.58281" lon="6.23464">
        <ele>431.5</ele>
        <time>2023-03-15T12:43:15.000Z</time>
      </trkpt>
      <trkpt lat="43.58276" lon="6.23465">
        <ele>429.6</ele>
        <time>2023-03-15T12:43:30.000Z</time>
      </trkpt>
      <trkpt lat="43.58272" lon="6.23468">
        <ele>428.1</ele>
        <time>2023-03-15T12:43:48.000Z</time>
      </trkpt>
      <trkpt lat="43.58268" lon="6.23472">
        <ele>426.3</ele>
        <time>2023-03-15T12:44:00.000Z</time>
      </trkpt>
      <trkpt lat="43.58264" lon="6.23475">
        <ele>424.3</ele>
        <time>2023-03-15T12:44:14.000Z</time>
      </trkpt>
      <trkpt lat="43.58259" lon="6.23475">
        <ele>423.3</ele>
        <time>2023-03-15T12:44:22.000Z</time>
      </trkpt>
      <trkpt lat="43.58255" lon="6.23476">
        <ele>422.6</ele>
        <time>2023-03-15T12:44:27.000Z</time>
      </trkpt>
      <trkpt lat="43.58251" lon="6.23472">
        <ele>420.8</ele>
        <time>2023-03-15T12:44:39.000Z</time>
      </trkpt>
      <trkpt lat="43.58247" lon="6.23469">
        <ele>419</ele>
        <time>2023-03-15T12:44:50.000Z</time>
      </trkpt>
      <trkpt lat="43.58243" lon="6.23469">
        <ele>416.6</ele>
        <time>2023-03-15T12:45:13.000Z</time>
      </trkpt>
      <trkpt lat="43.58237" lon="6.23465">
        <ele>415</ele>
        <time>2023-03-15T12:45:28.000Z</time>
      </trkpt>
      <trkpt lat="43.58232" lon="6.23465">
        <ele>415.2</ele>
        <time>2023-03-15T12:45:34.000Z</time>
      </trkpt>
      <trkpt lat="43.58229" lon="6.2346">
        <ele>413.6</ele>
        <time>2023-03-15T12:45:50.000Z</time>
      </trkpt>
      <trkpt lat="43.58225" lon="6.23456">
        <ele>412.2</ele>
        <time>2023-03-15T12:46:02.000Z</time>
      </trkpt>
      <trkpt lat="43.58221" lon="6.23452">
        <ele>410.4</ele>
        <time>2023-03-15T12:46:13.000Z</time>
      </trkpt>
      <trkpt lat="43.5822" lon="6.23445">
        <ele>408.5</ele>
        <time>2023-03-15T12:46:26.000Z</time>
      </trkpt>
      <trkpt lat="43.5822" lon="6.23439">
        <ele>406.9</ele>
        <time>2023-03-15T12:46:36.000Z</time>
      </trkpt>
      <trkpt lat="43.5822" lon="6.23433">
        <ele>404.3</ele>
        <time>2023-03-15T12:46:49.000Z</time>
      </trkpt>
      <trkpt lat="43.5822" lon="6.23426">
        <ele>403.3</ele>
        <time>2023-03-15T12:46:58.000Z</time>
      </trkpt>
      <trkpt lat="43.58216" lon="6.23423">
        <ele>401.1</ele>
        <time>2023-03-15T12:47:16.000Z</time>
      </trkpt>
      <trkpt lat="43.58211" lon="6.23425">
        <ele>399.3</ele>
        <time>2023-03-15T12:47:31.000Z</time>
      </trkpt>
      <trkpt lat="43.58207" lon="6.23425">
        <ele>395.3</ele>
        <time>2023-03-15T12:48:17.000Z</time>
      </trkpt>
      <trkpt lat="43.58202" lon="6.23424">
        <ele>393</ele>
        <time>2023-03-15T12:48:35.000Z</time>
      </trkpt>
      <trkpt lat="43.58197" lon="6.23426">
        <ele>392.2</ele>
        <time>2023-03-15T12:48:42.000Z</time>
      </trkpt>
      <trkpt lat="43.58193" lon="6.23425">
        <ele>391</ele>
        <time>2023-03-15T12:48:51.000Z</time>
      </trkpt>
      <trkpt lat="43.58189" lon="6.23428">
        <ele>389.3</ele>
        <time>2023-03-15T12:49:02.000Z</time>
      </trkpt>
      <trkpt lat="43.58187" lon="6.23422">
        <ele>383.4</ele>
        <time>2023-03-15T12:49:46.000Z</time>
      </trkpt>
      <trkpt lat="43.58185" lon="6.23416">
        <ele>381.8</ele>
        <time>2023-03-15T12:50:04.000Z</time>
      </trkpt>
      <trkpt lat="43.58183" lon="6.23411">
        <ele>380.4</ele>
        <time>2023-03-15T12:50:15.000Z</time>
      </trkpt>
      <trkpt lat="43.5818" lon="6.23406">
        <ele>378.3</ele>
        <time>2023-03-15T12:50:27.000Z</time>
      </trkpt>
      <trkpt lat="43.58178" lon="6.23399">
        <ele>376.9</ele>
        <time>2023-03-15T12:50:34.000Z</time>
      </trkpt>
      <trkpt lat="43.58177" lon="6.23393">
        <ele>376</ele>
        <time>2023-03-15T12:50:40.000Z</time>
      </trkpt>
      <trkpt lat="43.58176" lon="6.23387">
        <ele>374.6</ele>
        <time>2023-03-15T12:50:47.000Z</time>
      </trkpt>
      <trkpt lat="43.58172" lon="6.23383">
        <ele>374.1</ele>
        <time>2023-03-15T12:50:52.000Z</time>
      </trkpt>
      <trkpt lat="43.58168" lon="6.2338">
        <ele>373.8</ele>
        <time>2023-03-15T12:50:56.000Z</time>
      </trkpt>
      <trkpt lat="43.58164" lon="6.23376">
        <ele>373</ele>
        <time>2023-03-15T12:51:02.000Z</time>
      </trkpt>
      <trkpt lat="43.5816" lon="6.23372">
        <ele>372.4</ele>
        <time>2023-03-15T12:51:07.000Z</time>
      </trkpt>
      <trkpt lat="43.58154" lon="6.2337">
        <ele>371</ele>
        <time>2023-03-15T12:51:14.000Z</time>
      </trkpt>
      <trkpt lat="43.5815" lon="6.23369">
        <ele>370.1</ele>
        <time>2023-03-15T12:51:19.000Z</time>
      </trkpt>
      <trkpt lat="43.58144" lon="6.23368">
        <ele>369.4</ele>
        <time>2023-03-15T12:51:24.000Z</time>
      </trkpt>
      <trkpt lat="43.5814" lon="6.23367">
        <ele>368.6</ele>
        <time>2023-03-15T12:51:30.000Z</time>
      </trkpt>
      <trkpt lat="43.58134" lon="6.23367">
        <ele>367.4</ele>
        <time>2023-03-15T12:51:38.000Z</time>
      </trkpt>
      <trkpt lat="43.5813" lon="6.2337">
        <ele>366.6</ele>
        <time>2023-03-15T12:51:43.000Z</time>
      </trkpt>
      <trkpt lat="43.58128" lon="6.23377">
        <ele>365.9</ele>
        <time>2023-03-15T12:51:49.000Z</time>
      </trkpt>
      <trkpt lat="43.58126" lon="6.23382">
        <ele>365.1</ele>
        <time>2023-03-15T12:51:56.000Z</time>
      </trkpt>
      <trkpt lat="43.58121" lon="6.23383">
        <ele>364.2</ele>
        <time>2023-03-15T12:52:03.000Z</time>
      </trkpt>
      <trkpt lat="43.58117" lon="6.23386">
        <ele>363.6</ele>
        <time>2023-03-15T12:52:09.000Z</time>
      </trkpt>
      <trkpt lat="43.58113" lon="6.2339">
        <ele>362.8</ele>
        <time>2023-03-15T12:52:16.000Z</time>
      </trkpt>
      <trkpt lat="43.58109" lon="6.23394">
        <ele>362.3</ele>
        <time>2023-03-15T12:52:22.000Z</time>
      </trkpt>
      <trkpt lat="43.58105" lon="6.23397">
        <ele>360.9</ele>
        <time>2023-03-15T12:52:30.000Z</time>
      </trkpt>
      <trkpt lat="43.58105" lon="6.2339">
        <ele>358.9</ele>
        <time>2023-03-15T12:52:59.000Z</time>
      </trkpt>
      <trkpt lat="43.58109" lon="6.23387">
        <ele>358.6</ele>
        <time>2023-03-15T12:53:08.000Z</time>
      </trkpt>
      <trkpt lat="43.58113" lon="6.23382">
        <ele>358.3</ele>
        <time>2023-03-15T12:53:14.000Z</time>
      </trkpt>
      <trkpt lat="43.58116" lon="6.23376">
        <ele>358.1</ele>
        <time>2023-03-15T12:53:18.000Z</time>
      </trkpt>
      <trkpt lat="43.5812" lon="6.2337">
        <ele>357.9</ele>
        <time>2023-03-15T12:53:22.000Z</time>
      </trkpt>
      <trkpt lat="43.58123" lon="6.23364">
        <ele>357.9</ele>
        <time>2023-03-15T12:53:26.000Z</time>
      </trkpt>
      <trkpt lat="43.58126" lon="6.23358">
        <ele>357.9</ele>
        <time>2023-03-15T12:53:31.000Z</time>
      </trkpt>
      <trkpt lat="43.58129" lon="6.23352">
        <ele>357.8</ele>
        <time>2023-03-15T12:53:35.000Z</time>
      </trkpt>
      <trkpt lat="43.58131" lon="6.23345">
        <ele>357.8</ele>
        <time>2023-03-15T12:53:39.000Z</time>
      </trkpt>
      <trkpt lat="43.58132" lon="6.23338">
        <ele>357.8</ele>
        <time>2023-03-15T12:53:43.000Z</time>
      </trkpt>
      <trkpt lat="43.58135" lon="6.23332">
        <ele>357.6</ele>
        <time>2023-03-15T12:53:47.000Z</time>
      </trkpt>
      <trkpt lat="43.58137" lon="6.23326">
        <ele>357.5</ele>
        <time>2023-03-15T12:53:51.000Z</time>
      </trkpt>
      <trkpt lat="43.5814" lon="6.2332">
        <ele>357.4</ele>
        <time>2023-03-15T12:53:55.000Z</time>
      </trkpt>
      <trkpt lat="43.58142" lon="6.23315">
        <ele>357.1</ele>
        <time>2023-03-15T12:53:59.000Z</time>
      </trkpt>
      <trkpt lat="43.58146" lon="6.2331">
        <ele>356.9</ele>
        <time>2023-03-15T12:54:04.000Z</time>
      </trkpt>
      <trkpt lat="43.5815" lon="6.23307">
        <ele>356.7</ele>
        <time>2023-03-15T12:54:10.000Z</time>
      </trkpt>
      <trkpt lat="43.58154" lon="6.23304">
        <ele>356.5</ele>
        <time>2023-03-15T12:54:15.000Z</time>
      </trkpt>
      <trkpt lat="43.58159" lon="6.233">
        <ele>356.3</ele>
        <time>2023-03-15T12:54:20.000Z</time>
      </trkpt>
      <trkpt lat="43.58162" lon="6.23295">
        <ele>356.1</ele>
        <time>2023-03-15T12:54:25.000Z</time>
      </trkpt>
      <trkpt lat="43.58167" lon="6.23291">
        <ele>355.9</ele>
        <time>2023-03-15T12:54:29.000Z</time>
      </trkpt>
      <trkpt lat="43.58172" lon="6.2329">
        <ele>355.9</ele>
        <time>2023-03-15T12:54:33.000Z</time>
      </trkpt>
      <trkpt lat="43.58177" lon="6.23286">
        <ele>356.1</ele>
        <time>2023-03-15T12:54:38.000Z</time>
      </trkpt>
      <trkpt lat="43.58181" lon="6.23282">
        <ele>356.2</ele>
        <time>2023-03-15T12:54:42.000Z</time>
      </trkpt>
      <trkpt lat="43.58185" lon="6.23279">
        <ele>356.2</ele>
        <time>2023-03-15T12:54:46.000Z</time>
      </trkpt>
      <trkpt lat="43.58188" lon="6.23273">
        <ele>356.1</ele>
        <time>2023-03-15T12:54:50.000Z</time>
      </trkpt>
      <trkpt lat="43.58191" lon="6.23269">
        <ele>356.1</ele>
        <time>2023-03-15T12:54:54.000Z</time>
      </trkpt>
      <trkpt lat="43.58195" lon="6.23264">
        <ele>355.8</ele>
        <time>2023-03-15T12:54:59.000Z</time>
      </trkpt>
      <trkpt lat="43.58199" lon="6.23259">
        <ele>355.5</ele>
        <time>2023-03-15T12:55:04.000Z</time>
      </trkpt>
      <trkpt lat="43.58203" lon="6.23255">
        <ele>355.3</ele>
        <time>2023-03-15T12:55:09.000Z</time>
      </trkpt>
      <trkpt lat="43.58207" lon="6.23251">
        <ele>355.3</ele>
        <time>2023-03-15T12:55:13.000Z</time>
      </trkpt>
      <trkpt lat="43.58211" lon="6.23247">
        <ele>355.4</ele>
        <time>2023-03-15T12:55:17.000Z</time>
      </trkpt>
      <trkpt lat="43.58215" lon="6.23242">
        <ele>355.5</ele>
        <time>2023-03-15T12:55:22.000Z</time>
      </trkpt>
      <trkpt lat="43.58219" lon="6.23238">
        <ele>355.4</ele>
        <time>2023-03-15T12:55:26.000Z</time>
      </trkpt>
      <trkpt lat="43.58222" lon="6.23234">
        <ele>355.4</ele>
        <time>2023-03-15T12:55:30.000Z</time>
      </trkpt>
      <trkpt lat="43.58227" lon="6.23232">
        <ele>355.3</ele>
        <time>2023-03-15T12:55:34.000Z</time>
      </trkpt>
      <trkpt lat="43.58233" lon="6.23231">
        <ele>355.2</ele>
        <time>2023-03-15T12:55:37.000Z</time>
      </trkpt>
      <trkpt lat="43.58238" lon="6.23229">
        <ele>355</ele>
        <time>2023-03-15T12:55:40.000Z</time>
      </trkpt>
      <trkpt lat="43.58242" lon="6.23227">
        <ele>354.8</ele>
        <time>2023-03-15T12:55:44.000Z</time>
      </trkpt>
      <trkpt lat="43.58247" lon="6.23225">
        <ele>354.5</ele>
        <time>2023-03-15T12:55:48.000Z</time>
      </trkpt>
      <trkpt lat="43.58252" lon="6.23225">
        <ele>354.1</ele>
        <time>2023-03-15T12:55:54.000Z</time>
      </trkpt>
      <trkpt lat="43.58257" lon="6.23226">
        <ele>353.9</ele>
        <time>2023-03-15T12:55:59.000Z</time>
      </trkpt>
      <trkpt lat="43.58262" lon="6.23227">
        <ele>353.6</ele>
        <time>2023-03-15T12:56:04.000Z</time>
      </trkpt>
      <trkpt lat="43.58267" lon="6.23227">
        <ele>353.2</ele>
        <time>2023-03-15T12:56:09.000Z</time>
      </trkpt>
      <trkpt lat="43.58271" lon="6.23227">
        <ele>352.9</ele>
        <time>2023-03-15T12:56:13.000Z</time>
      </trkpt>
      <trkpt lat="43.58275" lon="6.2323">
        <ele>352.8</ele>
        <time>2023-03-15T12:56:17.000Z</time>
      </trkpt>
      <trkpt lat="43.58279" lon="6.23234">
        <ele>352.6</ele>
        <time>2023-03-15T12:56:20.000Z</time>
      </trkpt>
      <trkpt lat="43.58284" lon="6.23237">
        <ele>352.6</ele>
        <time>2023-03-15T12:56:23.000Z</time>
      </trkpt>
      <trkpt lat="43.58289" lon="6.23239">
        <ele>352.7</ele>
        <time>2023-03-15T12:56:27.000Z</time>
      </trkpt>
      <trkpt lat="43.58294" lon="6.23242">
        <ele>352.6</ele>
        <time>2023-03-15T12:56:36.000Z</time>
      </trkpt>
      <trkpt lat="43.583" lon="6.23243">
        <ele>352.6</ele>
        <time>2023-03-15T12:56:40.000Z</time>
      </trkpt>
      <trkpt lat="43.58304" lon="6.23245">
        <ele>352.6</ele>
        <time>2023-03-15T12:56:43.000Z</time>
      </trkpt>
      <trkpt lat="43.58309" lon="6.23248">
        <ele>352.6</ele>
        <time>2023-03-15T12:56:47.000Z</time>
      </trkpt>
      <trkpt lat="43.58314" lon="6.2325">
        <ele>352.6</ele>
        <time>2023-03-15T12:56:51.000Z</time>
      </trkpt>
      <trkpt lat="43.58318" lon="6.23252">
        <ele>352.8</ele>
        <time>2023-03-15T12:56:56.000Z</time>
      </trkpt>
      <trkpt lat="43.58324" lon="6.23254">
        <ele>353</ele>
        <time>2023-03-15T12:57:01.000Z</time>
      </trkpt>
      <trkpt lat="43.58329" lon="6.23256">
        <ele>353.2</ele>
        <time>2023-03-15T12:57:05.000Z</time>
      </trkpt>
      <trkpt lat="43.58334" lon="6.23259">
        <ele>353.3</ele>
        <time>2023-03-15T12:57:08.000Z</time>
      </trkpt>
      <trkpt lat="43.58338" lon="6.23263">
        <ele>353.4</ele>
        <time>2023-03-15T12:57:12.000Z</time>
      </trkpt>
      <trkpt lat="43.58343" lon="6.23266">
        <ele>353.2</ele>
        <time>2023-03-15T12:57:17.000Z</time>
      </trkpt>
      <trkpt lat="43.58347" lon="6.23268">
        <ele>353.2</ele>
        <time>2023-03-15T12:57:21.000Z</time>
      </trkpt>
      <trkpt lat="43.58352" lon="6.23272">
        <ele>353.1</ele>
        <time>2023-03-15T12:57:27.000Z</time>
      </trkpt>
      <trkpt lat="43.58357" lon="6.23274">
        <ele>353</ele>
        <time>2023-03-15T12:57:32.000Z</time>
      </trkpt>
      <trkpt lat="43.58362" lon="6.23276">
        <ele>353.1</ele>
        <time>2023-03-15T12:57:35.000Z</time>
      </trkpt>
      <trkpt lat="43.58366" lon="6.23278">
        <ele>353.4</ele>
        <time>2023-03-15T12:57:39.000Z</time>
      </trkpt>
      <trkpt lat="43.58371" lon="6.23281">
        <ele>353.4</ele>
        <time>2023-03-15T12:57:45.000Z</time>
      </trkpt>
      <trkpt lat="43.58375" lon="6.23283">
        <ele>353.5</ele>
        <time>2023-03-15T12:57:57.000Z</time>
      </trkpt>
      <trkpt lat="43.58379" lon="6.23287">
        <ele>353.6</ele>
        <time>2023-03-15T12:58:05.000Z</time>
      </trkpt>
      <trkpt lat="43.58383" lon="6.23292">
        <ele>354</ele>
        <time>2023-03-15T12:58:11.000Z</time>
      </trkpt>
      <trkpt lat="43.58387" lon="6.23296">
        <ele>354.4</ele>
        <time>2023-03-15T12:58:17.000Z</time>
      </trkpt>
      <trkpt lat="43.58389" lon="6.23302">
        <ele>354.7</ele>
        <time>2023-03-15T12:58:24.000Z</time>
      </trkpt>
      <trkpt lat="43.5839" lon="6.23309">
        <ele>355.5</ele>
        <time>2023-03-15T12:58:30.000Z</time>
      </trkpt>
      <trkpt lat="43.58392" lon="6.23315">
        <ele>355.8</ele>
        <time>2023-03-15T12:58:34.000Z</time>
      </trkpt>
      <trkpt lat="43.58396" lon="6.2332">
        <ele>356.1</ele>
        <time>2023-03-15T12:58:39.000Z</time>
      </trkpt>
      <trkpt lat="43.584" lon="6.23324">
        <ele>356.4</ele>
        <time>2023-03-15T12:58:44.000Z</time>
      </trkpt>
      <trkpt lat="43.58403" lon="6.23329">
        <ele>356.9</ele>
        <time>2023-03-15T12:58:49.000Z</time>
      </trkpt>
      <trkpt lat="43.58408" lon="6.23333">
        <ele>357</ele>
        <time>2023-03-15T12:58:54.000Z</time>
      </trkpt>
      <trkpt lat="43.58412" lon="6.23337">
        <ele>357.1</ele>
        <time>2023-03-15T12:59:01.000Z</time>
      </trkpt>
      <trkpt lat="43.58416" lon="6.23341">
        <ele>356.7</ele>
        <time>2023-03-15T12:59:09.000Z</time>
      </trkpt>
      <trkpt lat="43.5842" lon="6.23345">
        <ele>356.9</ele>
        <time>2023-03-15T12:59:15.000Z</time>
      </trkpt>
      <trkpt lat="43.58423" lon="6.23351">
        <ele>356.9</ele>
        <time>2023-03-15T12:59:21.000Z</time>
      </trkpt>
      <trkpt lat="43.58427" lon="6.23355">
        <ele>356.7</ele>
        <time>2023-03-15T12:59:25.000Z</time>
      </trkpt>
      <trkpt lat="43.58432" lon="6.23358">
        <ele>356.8</ele>
        <time>2023-03-15T12:59:30.000Z</time>
      </trkpt>
      <trkpt lat="43.58436" lon="6.23359">
        <ele>356.8</ele>
        <time>2023-03-15T12:59:35.000Z</time>
      </trkpt>
      <trkpt lat="43.58441" lon="6.23358">
        <ele>357.5</ele>
        <time>2023-03-15T12:59:43.000Z</time>
      </trkpt>
      <trkpt lat="43.58446" lon="6.23357">
        <ele>358</ele>
        <time>2023-03-15T12:59:50.000Z</time>
      </trkpt>
      <trkpt lat="43.5845" lon="6.23355">
        <ele>358.2</ele>
        <time>2023-03-15T13:00:00.000Z</time>
      </trkpt>
      <trkpt lat="43.58455" lon="6.23354">
        <ele>358.5</ele>
        <time>2023-03-15T13:00:11.000Z</time>
      </trkpt>
      <trkpt lat="43.5846" lon="6.23353">
        <ele>358.9</ele>
        <time>2023-03-15T13:00:19.899Z</time>
      </trkpt>
      <trkpt lat="43.58464" lon="6.23349">
        <ele>358.8</ele>
        <time>2023-03-15T13:00:39.000Z</time>
      </trkpt>
      <trkpt lat="43.58468" lon="6.23346">
        <ele>358.8</ele>
        <time>2023-03-15T13:01:13.000Z</time>
      </trkpt>
      <trkpt lat="43.58463" lon="6.23346">
        <ele>358.2</ele>
        <time>2023-03-15T13:01:40.000Z</time>
      </trkpt>
      <trkpt lat="43.58462" lon="6.2334">
        <ele>358.1</ele>
        <time>2023-03-15T13:02:25.000Z</time>
      </trkpt>
      <trkpt lat="43.5846" lon="6.233">
        <ele>357.8</ele>
        <time>2023-03-15T13:02:34.590Z</time>
      </trkpt>
      <trkpt lat="43.58457" lon="6.23327">
        <ele>357</ele>
        <time>2023-03-15T13:02:39.000Z</time>
      </trkpt>
      <trkpt lat="43.58461" lon="6.23334">
        <ele>357.6</ele>
        <time>2023-03-15T13:02:44.000Z</time>
      </trkpt>
      <trkpt lat="43.58462" lon="6.2334">
        <ele>357.8</ele>
        <time>2023-03-15T13:02:48.000Z</time>
      </trkpt>
      <trkpt lat="43.58462" lon="6.23333">
        <ele>358</ele>
        <time>2023-03-15T13:03:00.000Z</time>
      </trkpt>
      <trkpt lat="43.58462" lon="6.23326">
        <ele>358.2</ele>
        <time>2023-03-15T13:03:06.000Z</time>
      </trkpt>
      <trkpt lat="43.58466" lon="6.23321">
        <ele>358.3</ele>
        <time>2023-03-15T13:03:12.000Z</time>
      </trkpt>
      <trkpt lat="43.58467" lon="6.23313">
        <ele>358.2</ele>
        <time>2023-03-15T13:03:17.000Z</time>
      </trkpt>
      <trkpt lat="43.5847" lon="6.23307">
        <ele>358.1</ele>
        <time>2023-03-15T13:03:22.000Z</time>
      </trkpt>
      <trkpt lat="43.58474" lon="6.23302">
        <ele>358</ele>
        <time>2023-03-15T13:03:27.000Z</time>
      </trkpt>
      <trkpt lat="43.58478" lon="6.23298">
        <ele>358.2</ele>
        <time>2023-03-15T13:03:32.000Z</time>
      </trkpt>
      <trkpt lat="43.58482" lon="6.23294">
        <ele>358.4</ele>
        <time>2023-03-15T13:03:38.000Z</time>
      </trkpt>
      <trkpt lat="43.58487" lon="6.23291">
        <ele>358.6</ele>
        <time>2023-03-15T13:03:43.000Z</time>
      </trkpt>
      <trkpt lat="43.58494" lon="6.23289">
        <ele>358.8</ele>
        <time>2023-03-15T13:03:46.000Z</time>
      </trkpt>
      <trkpt lat="43.58499" lon="6.23286">
        <ele>359</ele>
        <time>2023-03-15T13:03:49.000Z</time>
      </trkpt>
      <trkpt lat="43.58505" lon="6.23284">
        <ele>359.4</ele>
        <time>2023-03-15T13:03:52.000Z</time>
      </trkpt>
      <trkpt lat="43.5851" lon="6.23283">
        <ele>359.8</ele>
        <time>2023-03-15T13:03:55.000Z</time>
      </trkpt>
      <trkpt lat="43.58514" lon="6.23281">
        <ele>360</ele>
        <time>2023-03-15T13:03:58.000Z</time>
      </trkpt>
      <trkpt lat="43.58518" lon="6.23277">
        <ele>360.1</ele>
        <time>2023-03-15T13:04:04.000Z</time>
      </trkpt>
      <trkpt lat="43.5852" lon="6.23271">
        <ele>360.1</ele>
        <time>2023-03-15T13:04:08.000Z</time>
      </trkpt>
      <trkpt lat="43.58522" lon="6.23265">
        <ele>359.9</ele>
        <time>2023-03-15T13:04:12.000Z</time>
      </trkpt>
      <trkpt lat="43.58523" lon="6.23259">
        <ele>359.5</ele>
        <time>2023-03-15T13:04:18.000Z</time>
      </trkpt>
      <trkpt lat="43.58524" lon="6.23252">
        <ele>359.5</ele>
        <time>2023-03-15T13:04:24.000Z</time>
      </trkpt>
      <trkpt lat="43.58528" lon="6.23247">
        <ele>359.7</ele>
        <time>2023-03-15T13:04:35.000Z</time>
      </trkpt>
      <trkpt lat="43.58527" lon="6.23241">
        <ele>359.8</ele>
        <time>2023-03-15T13:04:41.000Z</time>
      </trkpt>
      <trkpt lat="43.58522" lon="6.23236">
        <ele>359.8</ele>
        <time>2023-03-15T13:04:46.000Z</time>
      </trkpt>
      <trkpt lat="43.58519" lon="6.23232">
        <ele>359.7</ele>
        <time>2023-03-15T13:04:49.000Z</time>
      </trkpt>
      <trkpt lat="43.58514" lon="6.23227">
        <ele>359.7</ele>
        <time>2023-03-15T13:04:52.000Z</time>
      </trkpt>
      <trkpt lat="43.5851" lon="6.23221">
        <ele>359.7</ele>
        <time>2023-03-15T13:04:55.000Z</time>
      </trkpt>
      <trkpt lat="43.58508" lon="6.23215">
        <ele>359.6</ele>
        <time>2023-03-15T13:05:01.000Z</time>
      </trkpt>
      <trkpt lat="43.58509" lon="6.23209">
        <ele>360.1</ele>
        <time>2023-03-15T13:05:07.000Z</time>
      </trkpt>
      <trkpt lat="43.58514" lon="6.23206">
        <ele>360.6</ele>
        <time>2023-03-15T13:05:13.000Z</time>
      </trkpt>
      <trkpt lat="43.58519" lon="6.23206">
        <ele>362.1</ele>
        <time>2023-03-15T13:05:22.000Z</time>
      </trkpt>
      <trkpt lat="43.58522" lon="6.23201">
        <ele>364</ele>
        <time>2023-03-15T13:05:32.000Z</time>
      </trkpt>
      <trkpt lat="43.58524" lon="6.23196">
        <ele>365.3</ele>
        <time>2023-03-15T13:05:47.000Z</time>
      </trkpt>
      <trkpt lat="43.58528" lon="6.23191">
        <ele>366.1</ele>
        <time>2023-03-15T13:06:00.000Z</time>
      </trkpt>
      <trkpt lat="43.58533" lon="6.23188">
        <ele>366.4</ele>
        <time>2023-03-15T13:06:06.000Z</time>
      </trkpt>
      <trkpt lat="43.58538" lon="6.23187">
        <ele>367.8</ele>
        <time>2023-03-15T13:06:16.000Z</time>
      </trkpt>
      <trkpt lat="43.58536" lon="6.23194">
        <ele>369.2</ele>
        <time>2023-03-15T13:06:24.000Z</time>
      </trkpt>
      <trkpt lat="43.58535" lon="6.232">
        <ele>370.1</ele>
        <time>2023-03-15T13:06:30.000Z</time>
      </trkpt>
      <trkpt lat="43.58539" lon="6.23205">
        <ele>371.6</ele>
        <time>2023-03-15T13:06:57.000Z</time>
      </trkpt>
      <trkpt lat="43.58542" lon="6.23211">
        <ele>371.7</ele>
        <time>2023-03-15T13:07:05.000Z</time>
      </trkpt>
      <trkpt lat="43.58537" lon="6.23211">
        <ele>372.2</ele>
        <time>2023-03-15T13:08:12.000Z</time>
      </trkpt>
      <trkpt lat="43.58532" lon="6.23214">
        <ele>372.7</ele>
        <time>2023-03-15T13:08:20.000Z</time>
      </trkpt>
      <trkpt lat="43.5853" lon="6.23219">
        <ele>372.9</ele>
        <time>2023-03-15T13:08:25.000Z</time>
      </trkpt>
      <trkpt lat="43.58526" lon="6.23225">
        <ele>372.8</ele>
        <time>2023-03-15T13:08:29.000Z</time>
      </trkpt>
      <trkpt lat="43.5852" lon="6.23228">
        <ele>372</ele>
        <time>2023-03-15T13:08:36.000Z</time>
      </trkpt>
      <trkpt lat="43.58528" lon="6.23215">
        <ele>372</ele>
        <time>2023-03-15T13:08:48.000Z</time>
      </trkpt>
      <trkpt lat="43.5853" lon="6.23207">
        <ele>372</ele>
        <time>2023-03-15T13:08:56.000Z</time>
      </trkpt>
      <trkpt lat="43.58526" lon="6.23219">
        <ele>372</ele>
        <time>2023-03-15T13:09:22.000Z</time>
      </trkpt>
      <trkpt lat="43.58523" lon="6.23224">
        <ele>372.8</ele>
        <time>2023-03-15T13:09:25.000Z</time>
      </trkpt>
      <trkpt lat="43.58528" lon="6.23223">
        <ele>372.9</ele>
        <time>2023-03-15T13:09:33.000Z</time>
      </trkpt>
      <trkpt lat="43.58533" lon="6.23221">
        <ele>372.8</ele>
        <time>2023-03-15T13:09:37.000Z</time>
      </trkpt>
      <trkpt lat="43.58538" lon="6.23221">
        <ele>372.7</ele>
        <time>2023-03-15T13:09:40.000Z</time>
      </trkpt>
      <trkpt lat="43.58542" lon="6.23221">
        <ele>372.7</ele>
        <time>2023-03-15T13:09:44.000Z</time>
      </trkpt>
      <trkpt lat="43.58547" lon="6.23222">
        <ele>372.6</ele>
        <time>2023-03-15T13:09:49.000Z</time>
      </trkpt>
      <trkpt lat="43.58542" lon="6.2322">
        <ele>372.4</ele>
        <time>2023-03-15T13:10:09.000Z</time>
      </trkpt>
      <trkpt lat="43.58537" lon="6.23217">
        <ele>372.4</ele>
        <time>2023-03-15T13:10:23.000Z</time>
      </trkpt>
      <trkpt lat="43.58538" lon="6.23211">
        <ele>372</ele>
        <time>2023-03-15T13:10:31.000Z</time>
      </trkpt>
      <trkpt lat="43.58536" lon="6.23204">
        <ele>372</ele>
        <time>2023-03-15T13:10:39.000Z</time>
      </trkpt>
      <trkpt lat="43.58539" lon="6.23199">
        <ele>372.2</ele>
        <time>2023-03-15T13:10:46.000Z</time>
      </trkpt>
      <trkpt lat="43.58538" lon="6.23193">
        <ele>372.4</ele>
        <time>2023-03-15T13:10:52.000Z</time>
      </trkpt>
      <trkpt lat="43.58533" lon="6.23193">
        <ele>371.7</ele>
        <time>2023-03-15T13:11:00.000Z</time>
      </trkpt>
      <trkpt lat="43.58529" lon="6.23196">
        <ele>371</ele>
        <time>2023-03-15T13:11:06.000Z</time>
      </trkpt>
      <trkpt lat="43.58526" lon="6.23201">
        <ele>370.3</ele>
        <time>2023-03-15T13:11:12.000Z</time>
      </trkpt>
      <trkpt lat="43.58523" lon="6.23206">
        <ele>369.8</ele>
        <time>2023-03-15T13:11:18.000Z</time>
      </trkpt>
      <trkpt lat="43.58519" lon="6.2321">
        <ele>368.1</ele>
        <time>2023-03-15T13:11:31.000Z</time>
      </trkpt>
      <trkpt lat="43.58514" lon="6.2321">
        <ele>366.9</ele>
        <time>2023-03-15T13:11:37.000Z</time>
      </trkpt>
      <trkpt lat="43.58513" lon="6.23217">
        <ele>365.5</ele>
        <time>2023-03-15T13:11:45.000Z</time>
      </trkpt>
      <trkpt lat="43.58517" lon="6.2322">
        <ele>365</ele>
        <time>2023-03-15T13:11:48.000Z</time>
      </trkpt>
      <trkpt lat="43.58522" lon="6.23222">
        <ele>364.3</ele>
        <time>2023-03-15T13:11:53.000Z</time>
      </trkpt>
      <trkpt lat="43.58527" lon="6.23224">
        <ele>364</ele>
        <time>2023-03-15T13:11:56.000Z</time>
      </trkpt>
      <trkpt lat="43.58531" lon="6.23226">
        <ele>363.5</ele>
        <time>2023-03-15T13:12:00.000Z</time>
      </trkpt>
      <trkpt lat="43.58536" lon="6.23227">
        <ele>363.1</ele>
        <time>2023-03-15T13:12:03.000Z</time>
      </trkpt>
      <trkpt lat="43.58541" lon="6.23226">
        <ele>362.2</ele>
        <time>2023-03-15T13:12:07.000Z</time>
      </trkpt>
      <trkpt lat="43.58545" lon="6.23225">
        <ele>362</ele>
        <time>2023-03-15T13:12:12.000Z</time>
      </trkpt>
      <trkpt lat="43.5855" lon="6.23224">
        <ele>361.9</ele>
        <time>2023-03-15T13:12:17.000Z</time>
      </trkpt>
      <trkpt lat="43.58554" lon="6.23225">
        <ele>361.9</ele>
        <time>2023-03-15T13:12:22.000Z</time>
      </trkpt>
      <trkpt lat="43.58559" lon="6.23224">
        <ele>361.9</ele>
        <time>2023-03-15T13:12:26.000Z</time>
      </trkpt>
      <trkpt lat="43.58565" lon="6.23225">
        <ele>361.6</ele>
        <time>2023-03-15T13:12:31.000Z</time>
      </trkpt>
      <trkpt lat="43.5857" lon="6.23227">
        <ele>361.7</ele>
        <time>2023-03-15T13:12:35.000Z</time>
      </trkpt>
      <trkpt lat="43.58574" lon="6.23232">
        <ele>361.8</ele>
        <time>2023-03-15T13:12:39.000Z</time>
      </trkpt>
      <trkpt lat="43.58579" lon="6.23234">
        <ele>362.1</ele>
        <time>2023-03-15T13:12:45.000Z</time>
      </trkpt>
      <trkpt lat="43.58584" lon="6.23237">
        <ele>362.3</ele>
        <time>2023-03-15T13:12:51.000Z</time>
      </trkpt>
      <trkpt lat="43.58588" lon="6.2324">
        <ele>362.1</ele>
        <time>2023-03-15T13:12:56.000Z</time>
      </trkpt>
      <trkpt lat="43.58592" lon="6.23245">
        <ele>362.3</ele>
        <time>2023-03-15T13:13:00.000Z</time>
      </trkpt>
      <trkpt lat="43.58596" lon="6.23248">
        <ele>362.3</ele>
        <time>2023-03-15T13:13:03.000Z</time>
      </trkpt>
      <trkpt lat="43.58602" lon="6.23247">
        <ele>362.4</ele>
        <time>2023-03-15T13:13:07.000Z</time>
      </trkpt>
      <trkpt lat="43.58607" lon="6.23245">
        <ele>362.3</ele>
        <time>2023-03-15T13:13:12.000Z</time>
      </trkpt>
      <trkpt lat="43.58614" lon="6.23244">
        <ele>362.2</ele>
        <time>2023-03-15T13:13:16.000Z</time>
      </trkpt>
      <trkpt lat="43.58619" lon="6.23243">
        <ele>362.2</ele>
        <time>2023-03-15T13:13:20.000Z</time>
      </trkpt>
      <trkpt lat="43.58624" lon="6.23243">
        <ele>362</ele>
        <time>2023-03-15T13:13:24.000Z</time>
      </trkpt>
      <trkpt lat="43.58629" lon="6.23243">
        <ele>362.2</ele>
        <time>2023-03-15T13:13:31.000Z</time>
      </trkpt>
      <trkpt lat="43.58634" lon="6.23243">
        <ele>362.4</ele>
        <time>2023-03-15T13:13:35.000Z</time>
      </trkpt>
      <trkpt lat="43.5864" lon="6.23243">
        <ele>362.6</ele>
        <time>2023-03-15T13:13:39.000Z</time>
      </trkpt>
      <trkpt lat="43.58645" lon="6.23241">
        <ele>362.7</ele>
        <time>2023-03-15T13:13:44.000Z</time>
      </trkpt>
      <trkpt lat="43.5865" lon="6.23241">
        <ele>363</ele>
        <time>2023-03-15T13:13:48.000Z</time>
      </trkpt>
      <trkpt lat="43.58654" lon="6.23242">
        <ele>363.2</ele>
        <time>2023-03-15T13:13:52.000Z</time>
      </trkpt>
      <trkpt lat="43.58659" lon="6.23242">
        <ele>363.4</ele>
        <time>2023-03-15T13:13:56.000Z</time>
      </trkpt>
      <trkpt lat="43.58665" lon="6.2324">
        <ele>363.5</ele>
        <time>2023-03-15T13:14:00.000Z</time>
      </trkpt>
      <trkpt lat="43.58669" lon="6.23237">
        <ele>363.6</ele>
        <time>2023-03-15T13:14:04.000Z</time>
      </trkpt>
      <trkpt lat="43.58675" lon="6.23235">
        <ele>364</ele>
        <time>2023-03-15T13:14:10.000Z</time>
      </trkpt>
      <trkpt lat="43.58679" lon="6.23233">
        <ele>364.1</ele>
        <time>2023-03-15T13:14:13.000Z</time>
      </trkpt>
      <trkpt lat="43.58684" lon="6.23231">
        <ele>364.4</ele>
        <time>2023-03-15T13:14:18.000Z</time>
      </trkpt>
      <trkpt lat="43.58689" lon="6.23229">
        <ele>364.2</ele>
        <time>2023-03-15T13:14:24.000Z</time>
      </trkpt>
      <trkpt lat="43.58694" lon="6.23228">
        <ele>364.4</ele>
        <time>2023-03-15T13:14:33.000Z</time>
      </trkpt>
      <trkpt lat="43.58698" lon="6.23228">
        <ele>364.7</ele>
        <time>2023-03-15T13:14:37.000Z</time>
      </trkpt>
      <trkpt lat="43.58704" lon="6.2323">
        <ele>364.9</ele>
        <time>2023-03-15T13:14:41.000Z</time>
      </trkpt>
      <trkpt lat="43.58709" lon="6.23232">
        <ele>364.9</ele>
        <time>2023-03-15T13:14:45.000Z</time>
      </trkpt>
      <trkpt lat="43.58714" lon="6.2323">
        <ele>364.9</ele>
        <time>2023-03-15T13:14:49.000Z</time>
      </trkpt>
      <trkpt lat="43.58718" lon="6.23227">
        <ele>364.9</ele>
        <time>2023-03-15T13:14:53.000Z</time>
      </trkpt>
      <trkpt lat="43.58722" lon="6.23223">
        <ele>364.9</ele>
        <time>2023-03-15T13:14:59.000Z</time>
      </trkpt>
      <trkpt lat="43.58727" lon="6.23224">
        <ele>364.9</ele>
        <time>2023-03-15T13:15:03.000Z</time>
      </trkpt>
      <trkpt lat="43.58732" lon="6.23225">
        <ele>364.8</ele>
        <time>2023-03-15T13:15:07.000Z</time>
      </trkpt>
      <trkpt lat="43.58737" lon="6.23225">
        <ele>364.8</ele>
        <time>2023-03-15T13:15:11.000Z</time>
      </trkpt>
      <trkpt lat="43.58741" lon="6.23227">
        <ele>364.8</ele>
        <time>2023-03-15T13:15:14.000Z</time>
      </trkpt>
      <trkpt lat="43.58746" lon="6.23228">
        <ele>364.7</ele>
        <time>2023-03-15T13:15:17.000Z</time>
      </trkpt>
      <trkpt lat="43.5875" lon="6.23224">
        <ele>364.5</ele>
        <time>2023-03-15T13:15:21.000Z</time>
      </trkpt>
      <trkpt lat="43.58756" lon="6.2322">
        <ele>364.3</ele>
        <time>2023-03-15T13:15:27.000Z</time>
      </trkpt>
      <trkpt lat="43.58761" lon="6.2322">
        <ele>364.5</ele>
        <time>2023-03-15T13:15:33.000Z</time>
      </trkpt>
      <trkpt lat="43.58765" lon="6.23218">
        <ele>365.2</ele>
        <time>2023-03-15T13:15:39.000Z</time>
      </trkpt>
      <trkpt lat="43.5877" lon="6.23217">
        <ele>365.5</ele>
        <time>2023-03-15T13:15:43.000Z</time>
      </trkpt>
      <trkpt lat="43.58775" lon="6.23221">
        <ele>365.7</ele>
        <time>2023-03-15T13:15:46.000Z</time>
      </trkpt>
      <trkpt lat="43.5878" lon="6.23223">
        <ele>365.8</ele>
        <time>2023-03-15T13:15:49.000Z</time>
      </trkpt>
      <trkpt lat="43.58786" lon="6.23227">
        <ele>365.9</ele>
        <time>2023-03-15T13:15:52.000Z</time>
      </trkpt>
      <trkpt lat="43.58791" lon="6.23227">
        <ele>366</ele>
        <time>2023-03-15T13:15:56.000Z</time>
      </trkpt>
      <trkpt lat="43.58796" lon="6.23228">
        <ele>366.1</ele>
        <time>2023-03-15T13:16:02.000Z</time>
      </trkpt>
      <trkpt lat="43.58799" lon="6.23234">
        <ele>365.8</ele>
        <time>2023-03-15T13:16:07.000Z</time>
      </trkpt>
      <trkpt lat="43.588" lon="6.2324">
        <ele>365.7</ele>
        <time>2023-03-15T13:16:10.000Z</time>
      </trkpt>
      <trkpt lat="43.58799" lon="6.23247">
        <ele>365.6</ele>
        <time>2023-03-15T13:16:13.000Z</time>
      </trkpt>
      <trkpt lat="43.58797" lon="6.23254">
        <ele>365.3</ele>
        <time>2023-03-15T13:16:16.000Z</time>
      </trkpt>
      <trkpt lat="43.58797" lon="6.23261">
        <ele>365.5</ele>
        <time>2023-03-15T13:16:20.000Z</time>
      </trkpt>
      <trkpt lat="43.58795" lon="6.23267">
        <ele>365.1</ele>
        <time>2023-03-15T13:16:24.000Z</time>
      </trkpt>
      <trkpt lat="43.58795" lon="6.23275">
        <ele>364.9</ele>
        <time>2023-03-15T13:16:30.000Z</time>
      </trkpt>
      <trkpt lat="43.58795" lon="6.23283">
        <ele>365</ele>
        <time>2023-03-15T13:16:35.000Z</time>
      </trkpt>
      <trkpt lat="43.58792" lon="6.23288">
        <ele>365.1</ele>
        <time>2023-03-15T13:16:39.000Z</time>
      </trkpt>
      <trkpt lat="43.58791" lon="6.23295">
        <ele>365.3</ele>
        <time>2023-03-15T13:16:43.000Z</time>
      </trkpt>
      <trkpt lat="43.58789" lon="6.233">
        <ele>365.5</ele>
        <time>2023-03-15T13:16:47.000Z</time>
      </trkpt>
      <trkpt lat="43.58789" lon="6.23307">
        <ele>365.9</ele>
        <time>2023-03-15T13:16:52.000Z</time>
      </trkpt>
      <trkpt lat="43.58791" lon="6.23313">
        <ele>366.5</ele>
        <time>2023-03-15T13:17:01.000Z</time>
      </trkpt>
      <trkpt lat="43.58789" lon="6.23319">
        <ele>366.4</ele>
        <time>2023-03-15T13:17:05.000Z</time>
      </trkpt>
      <trkpt lat="43.58787" lon="6.23325">
        <ele>366.3</ele>
        <time>2023-03-15T13:17:10.000Z</time>
      </trkpt>
      <trkpt lat="43.58785" lon="6.23331">
        <ele>366.5</ele>
        <time>2023-03-15T13:17:14.000Z</time>
      </trkpt>
      <trkpt lat="43.58786" lon="6.23338">
        <ele>366.5</ele>
        <time>2023-03-15T13:17:18.000Z</time>
      </trkpt>
      <trkpt lat="43.58787" lon="6.23345">
        <ele>367</ele>
        <time>2023-03-15T13:17:22.000Z</time>
      </trkpt>
      <trkpt lat="43.58784" lon="6.23352">
        <ele>367</ele>
        <time>2023-03-15T13:17:26.000Z</time>
      </trkpt>
      <trkpt lat="43.5878" lon="6.23356">
        <ele>367.1</ele>
        <time>2023-03-15T13:17:30.000Z</time>
      </trkpt>
      <trkpt lat="43.58776" lon="6.23359">
        <ele>367.2</ele>
        <time>2023-03-15T13:17:34.000Z</time>
      </trkpt>
      <trkpt lat="43.58772" lon="6.23365">
        <ele>367.3</ele>
        <time>2023-03-15T13:17:41.000Z</time>
      </trkpt>
      <trkpt lat="43.58768" lon="6.2337">
        <ele>367.3</ele>
        <time>2023-03-15T13:17:45.000Z</time>
      </trkpt>
      <trkpt lat="43.58764" lon="6.23374">
        <ele>367.5</ele>
        <time>2023-03-15T13:18:06.000Z</time>
      </trkpt>
      <trkpt lat="43.58762" lon="6.23379">
        <ele>367.4</ele>
        <time>2023-03-15T13:18:15.000Z</time>
      </trkpt>
      <trkpt lat="43.58762" lon="6.23386">
        <ele>367.6</ele>
        <time>2023-03-15T13:18:24.000Z</time>
      </trkpt>
      <trkpt lat="43.58763" lon="6.23392">
        <ele>367.7</ele>
        <time>2023-03-15T13:18:31.000Z</time>
      </trkpt>
      <trkpt lat="43.58767" lon="6.23398">
        <ele>367.7</ele>
        <time>2023-03-15T13:18:35.000Z</time>
      </trkpt>
      <trkpt lat="43.5877" lon="6.23404">
        <ele>367.6</ele>
        <time>2023-03-15T13:18:39.000Z</time>
      </trkpt>
      <trkpt lat="43.58774" lon="6.23408">
        <ele>367.7</ele>
        <time>2023-03-15T13:18:42.000Z</time>
      </trkpt>
      <trkpt lat="43.58777" lon="6.23413">
        <ele>367.7</ele>
        <time>2023-03-15T13:18:45.000Z</time>
      </trkpt>
      <trkpt lat="43.5878" lon="6.23418">
        <ele>367.7</ele>
        <time>2023-03-15T13:18:49.000Z</time>
      </trkpt>
      <trkpt lat="43.58782" lon="6.23424">
        <ele>367.8</ele>
        <time>2023-03-15T13:18:54.000Z</time>
      </trkpt>
      <trkpt lat="43.58785" lon="6.23429">
        <ele>368</ele>
        <time>2023-03-15T13:18:58.000Z</time>
      </trkpt>
      <trkpt lat="43.58785" lon="6.23436">
        <ele>368.4</ele>
        <time>2023-03-15T13:19:09.000Z</time>
      </trkpt>
      <trkpt lat="43.58781" lon="6.2344">
        <ele>368.3</ele>
        <time>2023-03-15T13:19:14.000Z</time>
      </trkpt>
      <trkpt lat="43.58781" lon="6.23448">
        <ele>366.7</ele>
        <time>2023-03-15T13:19:50.000Z</time>
      </trkpt>
      <trkpt lat="43.5878" lon="6.23454">
        <ele>366.3</ele>
        <time>2023-03-15T13:20:06.000Z</time>
      </trkpt>
      <trkpt lat="43.58778" lon="6.2346">
        <ele>366.8</ele>
        <time>2023-03-15T13:20:16.000Z</time>
      </trkpt>
      <trkpt lat="43.58773" lon="6.2346">
        <ele>369.2</ele>
        <time>2023-03-15T13:20:38.000Z</time>
      </trkpt>
      <trkpt lat="43.58774" lon="6.23453">
        <ele>371.2</ele>
        <time>2023-03-15T13:20:52.000Z</time>
      </trkpt>
      <trkpt lat="43.58769" lon="6.23454">
        <ele>372</ele>
        <time>2023-03-15T13:21:24.000Z</time>
      </trkpt>
      <trkpt lat="43.58766" lon="6.23448">
        <ele>372.7</ele>
        <time>2023-03-15T13:21:30.000Z</time>
      </trkpt>
      <trkpt lat="43.58765" lon="6.23442">
        <ele>373.1</ele>
        <time>2023-03-15T13:21:41.000Z</time>
      </trkpt>
      <trkpt lat="43.5877" lon="6.23448">
        <ele>373</ele>
        <time>2023-03-15T13:22:03.000Z</time>
      </trkpt>
      <trkpt lat="43.58764" lon="6.23461">
        <ele>373</ele>
        <time>2023-03-15T13:22:21.000Z</time>
      </trkpt>
      <trkpt lat="43.58751" lon="6.2347">
        <ele>374</ele>
        <time>2023-03-15T13:22:48.000Z</time>
      </trkpt>
      <trkpt lat="43.58757" lon="6.23467">
        <ele>373.9</ele>
        <time>2023-03-15T13:22:55.000Z</time>
      </trkpt>
      <trkpt lat="43.58761" lon="6.23461">
        <ele>374.1</ele>
        <time>2023-03-15T13:23:22.000Z</time>
      </trkpt>
      <trkpt lat="43.58764" lon="6.23456">
        <ele>374.2</ele>
        <time>2023-03-15T13:23:41.000Z</time>
      </trkpt>
      <trkpt lat="43.58761" lon="6.23461">
        <ele>374.6</ele>
        <time>2023-03-15T13:23:52.000Z</time>
      </trkpt>
      <trkpt lat="43.58766" lon="6.2346">
        <ele>374.5</ele>
        <time>2023-03-15T13:24:09.000Z</time>
      </trkpt>
      <trkpt lat="43.58768" lon="6.23455">
        <ele>374.4</ele>
        <time>2023-03-15T13:24:12.000Z</time>
      </trkpt>
      <trkpt lat="43.58771" lon="6.23449">
        <ele>374.2</ele>
        <time>2023-03-15T13:24:16.000Z</time>
      </trkpt>
      <trkpt lat="43.58774" lon="6.23444">
        <ele>372.9</ele>
        <time>2023-03-15T13:24:31.000Z</time>
      </trkpt>
      <trkpt lat="43.58778" lon="6.23442">
        <ele>369.5</ele>
        <time>2023-03-15T13:25:01.000Z</time>
      </trkpt>
      <trkpt lat="43.58783" lon="6.2344">
        <ele>368.8</ele>
        <time>2023-03-15T13:25:06.000Z</time>
      </trkpt>
      <trkpt lat="43.58781" lon="6.23434">
        <ele>367.3</ele>
        <time>2023-03-15T13:25:19.000Z</time>
      </trkpt>
      <trkpt lat="43.58779" lon="6.23429">
        <ele>366.9</ele>
        <time>2023-03-15T13:25:28.000Z</time>
      </trkpt>
      <trkpt lat="43.58783" lon="6.23432">
        <ele>368</ele>
        <time>2023-03-15T13:25:54.000Z</time>
      </trkpt>
      <trkpt lat="43.58785" lon="6.23438">
        <ele>367.9</ele>
        <time>2023-03-15T13:26:04.000Z</time>
      </trkpt>
      <trkpt lat="43.5879" lon="6.23439">
        <ele>367.9</ele>
        <time>2023-03-15T13:26:10.000Z</time>
      </trkpt>
      <trkpt lat="43.58793" lon="6.23445">
        <ele>367.8</ele>
        <time>2023-03-15T13:26:18.000Z</time>
      </trkpt>
      <trkpt lat="43.58789" lon="6.23443">
        <ele>368.5</ele>
        <time>2023-03-15T13:26:34.000Z</time>
      </trkpt>
      <trkpt lat="43.58783" lon="6.23442">
        <ele>368.6</ele>
        <time>2023-03-15T13:26:39.000Z</time>
      </trkpt>
      <trkpt lat="43.58786" lon="6.23447">
        <ele>368.6</ele>
        <time>2023-03-15T13:26:59.000Z</time>
      </trkpt>
      <trkpt lat="43.58792" lon="6.23447">
        <ele>368.5</ele>
        <time>2023-03-15T13:27:02.000Z</time>
      </trkpt>
      <trkpt lat="43.58796" lon="6.23448">
        <ele>368.5</ele>
        <time>2023-03-15T13:27:05.000Z</time>
      </trkpt>
      <trkpt lat="43.58802" lon="6.23445">
        <ele>368.6</ele>
        <time>2023-03-15T13:27:08.000Z</time>
      </trkpt>
      <trkpt lat="43.58808" lon="6.23441">
        <ele>368.7</ele>
        <time>2023-03-15T13:27:11.000Z</time>
      </trkpt>
      <trkpt lat="43.58813" lon="6.23437">
        <ele>368.8</ele>
        <time>2023-03-15T13:27:13.000Z</time>
      </trkpt>
      <trkpt lat="43.58818" lon="6.23433">
        <ele>368.9</ele>
        <time>2023-03-15T13:27:16.000Z</time>
      </trkpt>
      <trkpt lat="43.58822" lon="6.23427">
        <ele>368.8</ele>
        <time>2023-03-15T13:27:19.000Z</time>
      </trkpt>
      <trkpt lat="43.58827" lon="6.23425">
        <ele>368.8</ele>
        <time>2023-03-15T13:27:22.000Z</time>
      </trkpt>
      <trkpt lat="43.5883" lon="6.2342">
        <ele>368.7</ele>
        <time>2023-03-15T13:27:26.000Z</time>
      </trkpt>
      <trkpt lat="43.58834" lon="6.23414">
        <ele>368.6</ele>
        <time>2023-03-15T13:27:30.000Z</time>
      </trkpt>
      <trkpt lat="43.58835" lon="6.23408">
        <ele>368.8</ele>
        <time>2023-03-15T13:27:35.000Z</time>
      </trkpt>
      <trkpt lat="43.58836" lon="6.23402">
        <ele>369.1</ele>
        <time>2023-03-15T13:27:44.000Z</time>
      </trkpt>
      <trkpt lat="43.5884" lon="6.23407">
        <ele>369.1</ele>
        <time>2023-03-15T13:27:50.000Z</time>
      </trkpt>
      <trkpt lat="43.58845" lon="6.23408">
        <ele>369.1</ele>
        <time>2023-03-15T13:27:56.000Z</time>
      </trkpt>
      <trkpt lat="43.58848" lon="6.23414">
        <ele>369</ele>
        <time>2023-03-15T13:28:04.000Z</time>
      </trkpt>
      <trkpt lat="43.58843" lon="6.23415">
        <ele>368.9</ele>
        <time>2023-03-15T13:28:12.000Z</time>
      </trkpt>
      <trkpt lat="43.58839" lon="6.23412">
        <ele>368.8</ele>
        <time>2023-03-15T13:28:17.000Z</time>
      </trkpt>
      <trkpt lat="43.58835" lon="6.23408">
        <ele>368.8</ele>
        <time>2023-03-15T13:28:24.000Z</time>
      </trkpt>
      <trkpt lat="43.58834" lon="6.23415">
        <ele>368.8</ele>
        <time>2023-03-15T13:28:33.000Z</time>
      </trkpt>
      <trkpt lat="43.58832" lon="6.23422">
        <ele>368.5</ele>
        <time>2023-03-15T13:28:39.000Z</time>
      </trkpt>
      <trkpt lat="43.58828" lon="6.23425">
        <ele>368.4</ele>
        <time>2023-03-15T13:28:43.000Z</time>
      </trkpt>
      <trkpt lat="43.58826" lon="6.23431">
        <ele>368.2</ele>
        <time>2023-03-15T13:28:47.000Z</time>
      </trkpt>
      <trkpt lat="43.58822" lon="6.23436">
        <ele>368.2</ele>
        <time>2023-03-15T13:28:50.000Z</time>
      </trkpt>
      <trkpt lat="43.5882" lon="6.23442">
        <ele>368.2</ele>
        <time>2023-03-15T13:28:54.000Z</time>
      </trkpt>
      <trkpt lat="43.58814" lon="6.23446">
        <ele>368.3</ele>
        <time>2023-03-15T13:28:59.000Z</time>
      </trkpt>
      <trkpt lat="43.58809" lon="6.23446">
        <ele>368.5</ele>
        <time>2023-03-15T13:29:03.000Z</time>
      </trkpt>
      <trkpt lat="43.58805" lon="6.23445">
        <ele>368.5</ele>
        <time>2023-03-15T13:29:06.000Z</time>
      </trkpt>
      <trkpt lat="43.58799" lon="6.23445">
        <ele>368.6</ele>
        <time>2023-03-15T13:29:10.000Z</time>
      </trkpt>
      <trkpt lat="43.58794" lon="6.23446">
        <ele>368.8</ele>
        <time>2023-03-15T13:29:13.000Z</time>
      </trkpt>
      <trkpt lat="43.58789" lon="6.23447">
        <ele>368.9</ele>
        <time>2023-03-15T13:29:16.000Z</time>
      </trkpt>
      <trkpt lat="43.58785" lon="6.23443">
        <ele>369.1</ele>
        <time>2023-03-15T13:29:20.000Z</time>
      </trkpt>
      <trkpt lat="43.58779" lon="6.2344">
        <ele>369.2</ele>
        <time>2023-03-15T13:29:25.000Z</time>
      </trkpt>
      <trkpt lat="43.58775" lon="6.23437">
        <ele>369.3</ele>
        <time>2023-03-15T13:29:29.000Z</time>
      </trkpt>
      <trkpt lat="43.58772" lon="6.2343">
        <ele>369.4</ele>
        <time>2023-03-15T13:29:34.000Z</time>
      </trkpt>
      <trkpt lat="43.58772" lon="6.23423">
        <ele>369.3</ele>
        <time>2023-03-15T13:29:39.000Z</time>
      </trkpt>
      <trkpt lat="43.5877" lon="6.23418">
        <ele>369.1</ele>
        <time>2023-03-15T13:29:48.000Z</time>
      </trkpt>
      <trkpt lat="43.58767" lon="6.23411">
        <ele>369.1</ele>
        <time>2023-03-15T13:29:52.000Z</time>
      </trkpt>
      <trkpt lat="43.58765" lon="6.23404">
        <ele>369.2</ele>
        <time>2023-03-15T13:29:56.000Z</time>
      </trkpt>
      <trkpt lat="43.58765" lon="6.23396">
        <ele>369.4</ele>
        <time>2023-03-15T13:30:01.000Z</time>
      </trkpt>
      <trkpt lat="43.58765" lon="6.2339">
        <ele>369.6</ele>
        <time>2023-03-15T13:30:13.000Z</time>
      </trkpt>
      <trkpt lat="43.58767" lon="6.23384">
        <ele>369.7</ele>
        <time>2023-03-15T13:30:27.000Z</time>
      </trkpt>
      <trkpt lat="43.58765" lon="6.23377">
        <ele>369.8</ele>
        <time>2023-03-15T13:30:32.000Z</time>
      </trkpt>
      <trkpt lat="43.58763" lon="6.2337">
        <ele>369.9</ele>
        <time>2023-03-15T13:30:36.000Z</time>
      </trkpt>
      <trkpt lat="43.58763" lon="6.23364">
        <ele>369.8</ele>
        <time>2023-03-15T13:30:40.000Z</time>
      </trkpt>
      <trkpt lat="43.58763" lon="6.23358">
        <ele>369.7</ele>
        <time>2023-03-15T13:30:48.000Z</time>
      </trkpt>
      <trkpt lat="43.58766" lon="6.23352">
        <ele>369.7</ele>
        <time>2023-03-15T13:30:54.000Z</time>
      </trkpt>
      <trkpt lat="43.58768" lon="6.23346">
        <ele>369.8</ele>
        <time>2023-03-15T13:30:59.000Z</time>
      </trkpt>
      <trkpt lat="43.58772" lon="6.23343">
        <ele>369.8</ele>
        <time>2023-03-15T13:31:05.000Z</time>
      </trkpt>
      <trkpt lat="43.58774" lon="6.23337">
        <ele>370</ele>
        <time>2023-03-15T13:31:11.000Z</time>
      </trkpt>
      <trkpt lat="43.58774" lon="6.23329">
        <ele>370.1</ele>
        <time>2023-03-15T13:31:17.000Z</time>
      </trkpt>
      <trkpt lat="43.58775" lon="6.23322">
        <ele>370.1</ele>
        <time>2023-03-15T13:31:22.000Z</time>
      </trkpt>
      <trkpt lat="43.58775" lon="6.23314">
        <ele>370.1</ele>
        <time>2023-03-15T13:31:26.000Z</time>
      </trkpt>
      <trkpt lat="43.58776" lon="6.23307">
        <ele>370</ele>
        <time>2023-03-15T13:31:30.000Z</time>
      </trkpt>
      <trkpt lat="43.5878" lon="6.23305">
        <ele>369.8</ele>
        <time>2023-03-15T13:31:38.000Z</time>
      </trkpt>
      <trkpt lat="43.58783" lon="6.23299">
        <ele>369.6</ele>
        <time>2023-03-15T13:31:44.000Z</time>
      </trkpt>
      <trkpt lat="43.58785" lon="6.23292">
        <ele>369.5</ele>
        <time>2023-03-15T13:31:48.000Z</time>
      </trkpt>
      <trkpt lat="43.58786" lon="6.23285">
        <ele>369.4</ele>
        <time>2023-03-15T13:31:52.000Z</time>
      </trkpt>
      <trkpt lat="43.58785" lon="6.23277">
        <ele>369.4</ele>
        <time>2023-03-15T13:31:56.000Z</time>
      </trkpt>
      <trkpt lat="43.58786" lon="6.2327">
        <ele>369.4</ele>
        <time>2023-03-15T13:32:02.000Z</time>
      </trkpt>
      <trkpt lat="43.58789" lon="6.23264">
        <ele>369.3</ele>
        <time>2023-03-15T13:32:06.000Z</time>
      </trkpt>
      <trkpt lat="43.58792" lon="6.23259">
        <ele>369.2</ele>
        <time>2023-03-15T13:32:09.000Z</time>
      </trkpt>
      <trkpt lat="43.58793" lon="6.23253">
        <ele>369.1</ele>
        <time>2023-03-15T13:32:13.000Z</time>
      </trkpt>
      <trkpt lat="43.58793" lon="6.23245">
        <ele>368.9</ele>
        <time>2023-03-15T13:32:17.000Z</time>
      </trkpt>
      <trkpt lat="43.5879" lon="6.23238">
        <ele>368.9</ele>
        <time>2023-03-15T13:32:21.000Z</time>
      </trkpt>
      <trkpt lat="43.58785" lon="6.23237">
        <ele>368.8</ele>
        <time>2023-03-15T13:32:26.000Z</time>
      </trkpt>
      <trkpt lat="43.58781" lon="6.23236">
        <ele>368.7</ele>
        <time>2023-03-15T13:32:29.000Z</time>
      </trkpt>
      <trkpt lat="43.58776" lon="6.23232">
        <ele>368.7</ele>
        <time>2023-03-15T13:32:33.000Z</time>
      </trkpt>
      <trkpt lat="43.58772" lon="6.23228">
        <ele>368.6</ele>
        <time>2023-03-15T13:32:37.000Z</time>
      </trkpt>
      <trkpt lat="43.58767" lon="6.23226">
        <ele>368.6</ele>
        <time>2023-03-15T13:32:41.000Z</time>
      </trkpt>
      <trkpt lat="43.58762" lon="6.23227">
        <ele>368.5</ele>
        <time>2023-03-15T13:32:44.000Z</time>
      </trkpt>
      <trkpt lat="43.58757" lon="6.23227">
        <ele>368.5</ele>
        <time>2023-03-15T13:32:47.000Z</time>
      </trkpt>
      <trkpt lat="43.58762" lon="6.23224">
        <ele>368.3</ele>
        <time>2023-03-15T13:32:53.000Z</time>
      </trkpt>
      <trkpt lat="43.58756" lon="6.23224">
        <ele>368.3</ele>
        <time>2023-03-15T13:33:04.000Z</time>
      </trkpt>
      <trkpt lat="43.58752" lon="6.23223">
        <ele>368.3</ele>
        <time>2023-03-15T13:33:07.000Z</time>
      </trkpt>
      <trkpt lat="43.58746" lon="6.23224">
        <ele>368</ele>
        <time>2023-03-15T13:33:12.000Z</time>
      </trkpt>
      <trkpt lat="43.58741" lon="6.23225">
        <ele>367.6</ele>
        <time>2023-03-15T13:33:21.000Z</time>
      </trkpt>
      <trkpt lat="43.58736" lon="6.23225">
        <ele>367.3</ele>
        <time>2023-03-15T13:33:27.000Z</time>
      </trkpt>
      <trkpt lat="43.58731" lon="6.23222">
        <ele>367.2</ele>
        <time>2023-03-15T13:33:32.000Z</time>
      </trkpt>
      <trkpt lat="43.58726" lon="6.23223">
        <ele>367.2</ele>
        <time>2023-03-15T13:33:35.000Z</time>
      </trkpt>
      <trkpt lat="43.58721" lon="6.23225">
        <ele>367.1</ele>
        <time>2023-03-15T13:33:39.000Z</time>
      </trkpt>
      <trkpt lat="43.58715" lon="6.23227">
        <ele>367</ele>
        <time>2023-03-15T13:33:44.000Z</time>
      </trkpt>
      <trkpt lat="43.5871" lon="6.23229">
        <ele>366.9</ele>
        <time>2023-03-15T13:33:47.000Z</time>
      </trkpt>
      <trkpt lat="43.58705" lon="6.23231">
        <ele>366.9</ele>
        <time>2023-03-15T13:33:50.000Z</time>
      </trkpt>
      <trkpt lat="43.587" lon="6.23232">
        <ele>366.9</ele>
        <time>2023-03-15T13:33:53.000Z</time>
      </trkpt>
      <trkpt lat="43.58695" lon="6.23234">
        <ele>366.8</ele>
        <time>2023-03-15T13:33:57.000Z</time>
      </trkpt>
      <trkpt lat="43.5869" lon="6.23237">
        <ele>366.8</ele>
        <time>2023-03-15T13:34:01.000Z</time>
      </trkpt>
      <trkpt lat="43.58685" lon="6.23241">
        <ele>366.7</ele>
        <time>2023-03-15T13:34:04.000Z</time>
      </trkpt>
      <trkpt lat="43.5868" lon="6.23243">
        <ele>366.7</ele>
        <time>2023-03-15T13:34:07.000Z</time>
      </trkpt>
      <trkpt lat="43.58674" lon="6.23245">
        <ele>366.7</ele>
        <time>2023-03-15T13:34:11.000Z</time>
      </trkpt>
      <trkpt lat="43.5867" lon="6.23247">
        <ele>366.7</ele>
        <time>2023-03-15T13:34:15.000Z</time>
      </trkpt>
      <trkpt lat="43.58664" lon="6.2325">
        <ele>366.7</ele>
        <time>2023-03-15T13:34:19.000Z</time>
      </trkpt>
      <trkpt lat="43.58658" lon="6.23253">
        <ele>366.7</ele>
        <time>2023-03-15T13:34:22.000Z</time>
      </trkpt>
      <trkpt lat="43.58653" lon="6.23255">
        <ele>366.6</ele>
        <time>2023-03-15T13:34:25.000Z</time>
      </trkpt>
      <trkpt lat="43.58648" lon="6.23256">
        <ele>366.6</ele>
        <time>2023-03-15T13:34:28.000Z</time>
      </trkpt>
      <trkpt lat="43.58642" lon="6.23257">
        <ele>366.6</ele>
        <time>2023-03-15T13:34:32.000Z</time>
      </trkpt>
      <trkpt lat="43.58637" lon="6.23259">
        <ele>366.6</ele>
        <time>2023-03-15T13:34:35.000Z</time>
      </trkpt>
      <trkpt lat="43.58632" lon="6.2326">
        <ele>366.5</ele>
        <time>2023-03-15T13:34:38.000Z</time>
      </trkpt>
      <trkpt lat="43.58627" lon="6.23259">
        <ele>366.4</ele>
        <time>2023-03-15T13:34:42.000Z</time>
      </trkpt>
      <trkpt lat="43.58621" lon="6.2326">
        <ele>366.2</ele>
        <time>2023-03-15T13:34:46.000Z</time>
      </trkpt>
      <trkpt lat="43.58616" lon="6.23262">
        <ele>366.2</ele>
        <time>2023-03-15T13:34:49.000Z</time>
      </trkpt>
      <trkpt lat="43.58611" lon="6.2326">
        <ele>366.1</ele>
        <time>2023-03-15T13:34:53.000Z</time>
      </trkpt>
      <trkpt lat="43.58606" lon="6.23258">
        <ele>366</ele>
        <time>2023-03-15T13:34:57.000Z</time>
      </trkpt>
      <trkpt lat="43.58601" lon="6.23256">
        <ele>365.9</ele>
        <time>2023-03-15T13:35:02.000Z</time>
      </trkpt>
      <trkpt lat="43.58596" lon="6.23255">
        <ele>365.8</ele>
        <time>2023-03-15T13:35:06.000Z</time>
      </trkpt>
      <trkpt lat="43.58592" lon="6.23255">
        <ele>365.6</ele>
        <time>2023-03-15T13:35:10.000Z</time>
      </trkpt>
      <trkpt lat="43.58588" lon="6.23258">
        <ele>365.4</ele>
        <time>2023-03-15T13:35:13.000Z</time>
      </trkpt>
      <trkpt lat="43.58584" lon="6.23264">
        <ele>365.2</ele>
        <time>2023-03-15T13:35:16.000Z</time>
      </trkpt>
      <trkpt lat="43.58579" lon="6.23264">
        <ele>365</ele>
        <time>2023-03-15T13:35:20.000Z</time>
      </trkpt>
      <trkpt lat="43.58576" lon="6.23269">
        <ele>363.6</ele>
        <time>2023-03-15T13:35:34.000Z</time>
      </trkpt>
      <trkpt lat="43.58572" lon="6.23274">
        <ele>363.2</ele>
        <time>2023-03-15T13:35:41.000Z</time>
      </trkpt>
      <trkpt lat="43.58567" lon="6.23277">
        <ele>363</ele>
        <time>2023-03-15T13:35:46.000Z</time>
      </trkpt>
      <trkpt lat="43.58562" lon="6.23275">
        <ele>362.9</ele>
        <time>2023-03-15T13:35:49.000Z</time>
      </trkpt>
      <trkpt lat="43.58557" lon="6.23273">
        <ele>362.8</ele>
        <time>2023-03-15T13:35:52.000Z</time>
      </trkpt>
      <trkpt lat="43.58552" lon="6.2327">
        <ele>362.7</ele>
        <time>2023-03-15T13:35:57.000Z</time>
      </trkpt>
      <trkpt lat="43.58548" lon="6.2327">
        <ele>362.7</ele>
        <time>2023-03-15T13:36:00.000Z</time>
      </trkpt>
      <trkpt lat="43.58543" lon="6.2327">
        <ele>362.7</ele>
        <time>2023-03-15T13:36:03.000Z</time>
      </trkpt>
      <trkpt lat="43.58538" lon="6.2327">
        <ele>362.7</ele>
        <time>2023-03-15T13:36:06.000Z</time>
      </trkpt>
      <trkpt lat="43.58533" lon="6.23272">
        <ele>362.7</ele>
        <time>2023-03-15T13:36:10.000Z</time>
      </trkpt>
      <trkpt lat="43.58529" lon="6.23275">
        <ele>362.7</ele>
        <time>2023-03-15T13:36:13.000Z</time>
      </trkpt>
      <trkpt lat="43.58524" lon="6.23279">
        <ele>362.7</ele>
        <time>2023-03-15T13:36:17.000Z</time>
      </trkpt>
      <trkpt lat="43.5852" lon="6.23283">
        <ele>362.6</ele>
        <time>2023-03-15T13:36:23.000Z</time>
      </trkpt>
      <trkpt lat="43.58517" lon="6.23287">
        <ele>362.5</ele>
        <time>2023-03-15T13:36:27.000Z</time>
      </trkpt>
      <trkpt lat="43.58513" lon="6.23291">
        <ele>362.4</ele>
        <time>2023-03-15T13:36:31.000Z</time>
      </trkpt>
      <trkpt lat="43.58508" lon="6.23296">
        <ele>362.3</ele>
        <time>2023-03-15T13:36:36.000Z</time>
      </trkpt>
      <trkpt lat="43.58503" lon="6.23299">
        <ele>362.3</ele>
        <time>2023-03-15T13:36:40.000Z</time>
      </trkpt>
      <trkpt lat="43.58498" lon="6.233">
        <ele>362.2</ele>
        <time>2023-03-15T13:36:43.000Z</time>
      </trkpt>
      <trkpt lat="43.58498" lon="6.233">
        <ele>362.2</ele>
        <time>2023-03-15T13:36:43.000Z</time>
      </trkpt>
      <trkpt lat="43.58448" lon="6.23337">
        <ele>372.8</ele>
        <time>2023-03-15T13:44:50.000Z</time>
      </trkpt>
      <trkpt lat="43.58443" lon="6.23336">
        <ele>372.1</ele>
        <time>2023-03-15T13:45:00.000Z</time>
      </trkpt>
      <trkpt lat="43.58441" lon="6.23335">
        <ele>371.6</ele>
        <time>2023-03-15T13:45:10.000Z</time>
      </trkpt>
      <trkpt lat="43.58437" lon="6.23327">
        <ele>371.3</ele>
        <time>2023-03-15T13:45:20.000Z</time>
      </trkpt>
      <trkpt lat="43.58423" lon="6.23324">
        <ele>371.7</ele>
        <time>2023-03-15T13:45:30.000Z</time>
      </trkpt>
      <trkpt lat="43.58413" lon="6.23315">
        <ele>372.3</ele>
        <time>2023-03-15T13:45:40.000Z</time>
      </trkpt>
      <trkpt lat="43.58409" lon="6.233">
        <ele>371.4</ele>
        <time>2023-03-15T13:45:50.000Z</time>
      </trkpt>
      <trkpt lat="43.5839" lon="6.23285">
        <ele>370.7</ele>
        <time>2023-03-15T13:46:00.000Z</time>
      </trkpt>
      <trkpt lat="43.58382" lon="6.23273">
        <ele>370.4</ele>
        <time>2023-03-15T13:46:10.000Z</time>
      </trkpt>
      <trkpt lat="43.58379" lon="6.2326">
        <ele>369.7</ele>
        <time>2023-03-15T13:46:20.000Z</time>
      </trkpt>
      <trkpt lat="43.58374" lon="6.23252">
        <ele>369.8</ele>
        <time>2023-03-15T13:46:30.000Z</time>
      </trkpt>
      <trkpt lat="43.5837" lon="6.2324">
        <ele>369.7</ele>
        <time>2023-03-15T13:46:40.000Z</time>
      </trkpt>
      <trkpt lat="43.5836" lon="6.23223">
        <ele>369.9</ele>
        <time>2023-03-15T13:46:50.000Z</time>
      </trkpt>
      <trkpt lat="43.58347" lon="6.23215">
        <ele>371</ele>
        <time>2023-03-15T13:47:00.000Z</time>
      </trkpt>
      <trkpt lat="43.58335" lon="6.23212">
        <ele>370.9</ele>
        <time>2023-03-15T13:47:10.000Z</time>
      </trkpt>
      <trkpt lat="43.58325" lon="6.23207">
        <ele>371.7</ele>
        <time>2023-03-15T13:47:20.000Z</time>
      </trkpt>
      <trkpt lat="43.58312" lon="6.23201">
        <ele>371.9</ele>
        <time>2023-03-15T13:47:30.000Z</time>
      </trkpt>
      <trkpt lat="43.58298" lon="6.23194">
        <ele>372</ele>
        <time>2023-03-15T13:47:40.000Z</time>
      </trkpt>
      <trkpt lat="43.58286" lon="6.23189">
        <ele>372</ele>
        <time>2023-03-15T13:47:50.000Z</time>
      </trkpt>
      <trkpt lat="43.58271" lon="6.23183">
        <ele>372</ele>
        <time>2023-03-15T13:48:00.000Z</time>
      </trkpt>
      <trkpt lat="43.58256" lon="6.23179">
        <ele>371.9</ele>
        <time>2023-03-15T13:48:10.000Z</time>
      </trkpt>
      <trkpt lat="43.58243" lon="6.23175">
        <ele>371.7</ele>
        <time>2023-03-15T13:48:20.000Z</time>
      </trkpt>
      <trkpt lat="43.58232" lon="6.23174">
        <ele>371.6</ele>
        <time>2023-03-15T13:48:30.000Z</time>
      </trkpt>
      <trkpt lat="43.58219" lon="6.2317">
        <ele>371.9</ele>
        <time>2023-03-15T13:48:40.000Z</time>
      </trkpt>
      <trkpt lat="43.58206" lon="6.23172">
        <ele>371.7</ele>
        <time>2023-03-15T13:48:50.000Z</time>
      </trkpt>
      <trkpt lat="43.582" lon="6.23165">
        <ele>372.5</ele>
        <time>2023-03-15T13:49:00.000Z</time>
      </trkpt>
      <trkpt lat="43.58189" lon="6.23167">
        <ele>373.6</ele>
        <time>2023-03-15T13:49:10.000Z</time>
      </trkpt>
      <trkpt lat="43.58179" lon="6.23174">
        <ele>373.1</ele>
        <time>2023-03-15T13:49:20.000Z</time>
      </trkpt>
      <trkpt lat="43.58169" lon="6.2318">
        <ele>372.5</ele>
        <time>2023-03-15T13:49:30.000Z</time>
      </trkpt>
      <trkpt lat="43.58166" lon="6.23182">
        <ele>371.6</ele>
        <time>2023-03-15T13:49:40.000Z</time>
      </trkpt>
      <trkpt lat="43.58161" lon="6.23185">
        <ele>373.7</ele>
        <time>2023-03-15T13:49:50.000Z</time>
      </trkpt>
      <trkpt lat="43.58158" lon="6.23186">
        <ele>373.2</ele>
        <time>2023-03-15T13:50:00.000Z</time>
      </trkpt>
      <trkpt lat="43.58155" lon="6.23187">
        <ele>373.3</ele>
        <time>2023-03-15T13:50:10.000Z</time>
      </trkpt>
      <trkpt lat="43.58152" lon="6.23188">
        <ele>374.9</ele>
        <time>2023-03-15T13:50:20.000Z</time>
      </trkpt>
      <trkpt lat="43.58151" lon="6.23191">
        <ele>376</ele>
        <time>2023-03-15T13:50:30.000Z</time>
      </trkpt>
      <trkpt lat="43.58149" lon="6.2319">
        <ele>377.8</ele>
        <time>2023-03-15T13:50:40.000Z</time>
      </trkpt>
      <trkpt lat="43.58149" lon="6.23192">
        <ele>379.2</ele>
        <time>2023-03-15T13:50:50.000Z</time>
      </trkpt>
      <trkpt lat="43.58151" lon="6.2319">
        <ele>379.4</ele>
        <time>2023-03-15T13:51:00.000Z</time>
      </trkpt>
      <trkpt lat="43.58154" lon="6.23186">
        <ele>381.3</ele>
        <time>2023-03-15T13:51:10.000Z</time>
      </trkpt>
      <trkpt lat="43.58153" lon="6.23181">
        <ele>382.9</ele>
        <time>2023-03-15T13:51:20.000Z</time>
      </trkpt>
      <trkpt lat="43.58148" lon="6.23177">
        <ele>383.5</ele>
        <time>2023-03-15T13:51:30.000Z</time>
      </trkpt>
      <trkpt lat="43.58142" lon="6.23179">
        <ele>384.9</ele>
        <time>2023-03-15T13:51:40.000Z</time>
      </trkpt>
      <trkpt lat="43.58137" lon="6.23178">
        <ele>384.1</ele>
        <time>2023-03-15T13:51:50.000Z</time>
      </trkpt>
      <trkpt lat="43.58129" lon="6.23177">
        <ele>385.2</ele>
        <time>2023-03-15T13:52:00.000Z</time>
      </trkpt>
      <trkpt lat="43.5812" lon="6.23178">
        <ele>384.6</ele>
        <time>2023-03-15T13:52:10.000Z</time>
      </trkpt>
      <trkpt lat="43.58115" lon="6.23178">
        <ele>384.9</ele>
        <time>2023-03-15T13:52:20.000Z</time>
      </trkpt>
      <trkpt lat="43.58107" lon="6.23176">
        <ele>386.6</ele>
        <time>2023-03-15T13:52:30.000Z</time>
      </trkpt>
      <trkpt lat="43.58097" lon="6.23182">
        <ele>386</ele>
        <time>2023-03-15T13:52:40.000Z</time>
      </trkpt>
      <trkpt lat="43.58087" lon="6.23187">
        <ele>385.8</ele>
        <time>2023-03-15T13:52:50.000Z</time>
      </trkpt>
      <trkpt lat="43.58078" lon="6.2319">
        <ele>385.7</ele>
        <time>2023-03-15T13:53:00.000Z</time>
      </trkpt>
      <trkpt lat="43.58066" lon="6.23194">
        <ele>386.3</ele>
        <time>2023-03-15T13:53:10.000Z</time>
      </trkpt>
      <trkpt lat="43.58059" lon="6.23204">
        <ele>385.1</ele>
        <time>2023-03-15T13:53:20.000Z</time>
      </trkpt>
      <trkpt lat="43.58052" lon="6.23213">
        <ele>384</ele>
        <time>2023-03-15T13:53:30.000Z</time>
      </trkpt>
      <trkpt lat="43.58046" lon="6.23223">
        <ele>383.7</ele>
        <time>2023-03-15T13:53:40.000Z</time>
      </trkpt>
      <trkpt lat="43.58042" lon="6.23234">
        <ele>382.1</ele>
        <time>2023-03-15T13:53:50.000Z</time>
      </trkpt>
      <trkpt lat="43.58038" lon="6.2324">
        <ele>380.6</ele>
        <time>2023-03-15T13:54:00.000Z</time>
      </trkpt>
      <trkpt lat="43.58034" lon="6.23242">
        <ele>380.5</ele>
        <time>2023-03-15T13:54:10.000Z</time>
      </trkpt>
      <trkpt lat="43.58031" lon="6.23245">
        <ele>380.8</ele>
        <time>2023-03-15T13:54:20.000Z</time>
      </trkpt>
      <trkpt lat="43.5803" lon="6.23241">
        <ele>379.2</ele>
        <time>2023-03-15T13:54:30.000Z</time>
      </trkpt>
      <trkpt lat="43.58027" lon="6.23237">
        <ele>377.1</ele>
        <time>2023-03-15T13:54:40.000Z</time>
      </trkpt>
      <trkpt lat="43.58025" lon="6.23239">
        <ele>374.8</ele>
        <time>2023-03-15T13:54:50.000Z</time>
      </trkpt>
      <trkpt lat="43.5802" lon="6.23241">
        <ele>376</ele>
        <time>2023-03-15T13:55:00.000Z</time>
      </trkpt>
      <trkpt lat="43.58013" lon="6.23248">
        <ele>373.4</ele>
        <time>2023-03-15T13:55:10.000Z</time>
      </trkpt>
      <trkpt lat="43.58003" lon="6.23251">
        <ele>372.3</ele>
        <time>2023-03-15T13:55:20.000Z</time>
      </trkpt>
      <trkpt lat="43.58" lon="6.23262">
        <ele>371.7</ele>
        <time>2023-03-15T13:55:30.000Z</time>
      </trkpt>
      <trkpt lat="43.57999" lon="6.23264">
        <ele>369.6</ele>
        <time>2023-03-15T13:55:40.000Z</time>
      </trkpt>
      <trkpt lat="43.57999" lon="6.23265">
        <ele>370.5</ele>
        <time>2023-03-15T13:55:50.000Z</time>
      </trkpt>
      <trkpt lat="43.57998" lon="6.23269">
        <ele>369.7</ele>
        <time>2023-03-15T13:56:00.000Z</time>
      </trkpt>
      <trkpt lat="43.57999" lon="6.23273">
        <ele>369.8</ele>
        <time>2023-03-15T13:56:10.000Z</time>
      </trkpt>
      <trkpt lat="43.58" lon="6.23275">
        <ele>370.9</ele>
        <time>2023-03-15T13:56:20.000Z</time>
      </trkpt>
      <trkpt lat="43.58003" lon="6.23276">
        <ele>370.3</ele>
        <time>2023-03-15T13:56:30.000Z</time>
      </trkpt>
      <trkpt lat="43.58003" lon="6.23276">
        <ele>370.4</ele>
        <time>2023-03-15T13:56:40.000Z</time>
      </trkpt>
      <trkpt lat="43.58" lon="6.23281">
        <ele>368.5</ele>
        <time>2023-03-15T13:56:50.000Z</time>
      </trkpt>
      <trkpt lat="43.57995" lon="6.23283">
        <ele>370.8</ele>
        <time>2023-03-15T13:57:00.000Z</time>
      </trkpt>
      <trkpt lat="43.57991" lon="6.23289">
        <ele>372.7</ele>
        <time>2023-03-15T13:57:10.000Z</time>
      </trkpt>
      <trkpt lat="43.57987" lon="6.2329">
        <ele>374.6</ele>
        <time>2023-03-15T13:57:20.000Z</time>
      </trkpt>
      <trkpt lat="43.57984" lon="6.23286">
        <ele>376.7</ele>
        <time>2023-03-15T13:57:30.000Z</time>
      </trkpt>
      <trkpt lat="43.57979" lon="6.23282">
        <ele>377.7</ele>
        <time>2023-03-15T13:57:40.000Z</time>
      </trkpt>
      <trkpt lat="43.57972" lon="6.23282">
        <ele>382.3</ele>
        <time>2023-03-15T13:57:50.000Z</time>
      </trkpt>
      <trkpt lat="43.57966" lon="6.23285">
        <ele>381.4</ele>
        <time>2023-03-15T13:58:00.000Z</time>
      </trkpt>
      <trkpt lat="43.57957" lon="6.23291">
        <ele>380.8</ele>
        <time>2023-03-15T13:58:10.000Z</time>
      </trkpt>
      <trkpt lat="43.57953" lon="6.23301">
        <ele>382.6</ele>
        <time>2023-03-15T13:58:20.000Z</time>
      </trkpt>
      <trkpt lat="43.57948" lon="6.23312">
        <ele>381.5</ele>
        <time>2023-03-15T13:58:30.000Z</time>
      </trkpt>
      <trkpt lat="43.57944" lon="6.23322">
        <ele>380.8</ele>
        <time>2023-03-15T13:58:40.000Z</time>
      </trkpt>
      <trkpt lat="43.5794" lon="6.23329">
        <ele>380.2</ele>
        <time>2023-03-15T13:58:50.000Z</time>
      </trkpt>
      <trkpt lat="43.57933" lon="6.23333">
        <ele>378.8</ele>
        <time>2023-03-15T13:59:00.000Z</time>
      </trkpt>
      <trkpt lat="43.57929" lon="6.23333">
        <ele>381.7</ele>
        <time>2023-03-15T13:59:10.000Z</time>
      </trkpt>
      <trkpt lat="43.57927" lon="6.2333">
        <ele>383.6</ele>
        <time>2023-03-15T13:59:20.000Z</time>
      </trkpt>
      <trkpt lat="43.57926" lon="6.23325">
        <ele>382.9</ele>
        <time>2023-03-15T13:59:30.000Z</time>
      </trkpt>
      <trkpt lat="43.57925" lon="6.23315">
        <ele>386.5</ele>
        <time>2023-03-15T13:59:40.000Z</time>
      </trkpt>
      <trkpt lat="43.57921" lon="6.23302">
        <ele>387.1</ele>
        <time>2023-03-15T13:59:50.000Z</time>
      </trkpt>
      <trkpt lat="43.57916" lon="6.23291">
        <ele>385.1</ele>
        <time>2023-03-15T14:00:00.000Z</time>
      </trkpt>
      <trkpt lat="43.57911" lon="6.23277">
        <ele>385.8</ele>
        <time>2023-03-15T14:00:10.000Z</time>
      </trkpt>
      <trkpt lat="43.57909" lon="6.23264">
        <ele>386.5</ele>
        <time>2023-03-15T14:00:20.000Z</time>
      </trkpt>
      <trkpt lat="43.57905" lon="6.23253">
        <ele>386.4</ele>
        <time>2023-03-15T14:00:30.000Z</time>
      </trkpt>
      <trkpt lat="43.57901" lon="6.2324">
        <ele>386.5</ele>
        <time>2023-03-15T14:00:40.000Z</time>
      </trkpt>
      <trkpt lat="43.57899" lon="6.23231">
        <ele>389.2</ele>
        <time>2023-03-15T14:00:50.000Z</time>
      </trkpt>
      <trkpt lat="43.57896" lon="6.23218">
        <ele>389.8</ele>
        <time>2023-03-15T14:01:00.000Z</time>
      </trkpt>
      <trkpt lat="43.57888" lon="6.23209">
        <ele>390.2</ele>
        <time>2023-03-15T14:01:10.000Z</time>
      </trkpt>
      <trkpt lat="43.5788" lon="6.23203">
        <ele>392.5</ele>
        <time>2023-03-15T14:01:20.000Z</time>
      </trkpt>
      <trkpt lat="43.57872" lon="6.23193">
        <ele>390.5</ele>
        <time>2023-03-15T14:01:30.000Z</time>
      </trkpt>
      <trkpt lat="43.57862" lon="6.23185">
        <ele>389</ele>
        <time>2023-03-15T14:01:40.000Z</time>
      </trkpt>
      <trkpt lat="43.57859" lon="6.23177">
        <ele>388.7</ele>
        <time>2023-03-15T14:01:50.000Z</time>
      </trkpt>
      <trkpt lat="43.57855" lon="6.23165">
        <ele>388.8</ele>
        <time>2023-03-15T14:02:00.000Z</time>
      </trkpt>
      <trkpt lat="43.57848" lon="6.23163">
        <ele>390.2</ele>
        <time>2023-03-15T14:02:10.000Z</time>
      </trkpt>
      <trkpt lat="43.57838" lon="6.23163">
        <ele>391.4</ele>
        <time>2023-03-15T14:02:20.000Z</time>
      </trkpt>
      <trkpt lat="43.57829" lon="6.23161">
        <ele>391.5</ele>
        <time>2023-03-15T14:02:30.000Z</time>
      </trkpt>
      <trkpt lat="43.57827" lon="6.23155">
        <ele>391.6</ele>
        <time>2023-03-15T14:02:40.000Z</time>
      </trkpt>
      <trkpt lat="43.57826" lon="6.23151">
        <ele>393</ele>
        <time>2023-03-15T14:02:50.000Z</time>
      </trkpt>
      <trkpt lat="43.57823" lon="6.23143">
        <ele>393.6</ele>
        <time>2023-03-15T14:03:00.000Z</time>
      </trkpt>
      <trkpt lat="43.5782" lon="6.23138">
        <ele>393.9</ele>
        <time>2023-03-15T14:03:10.000Z</time>
      </trkpt>
      <trkpt lat="43.57818" lon="6.23138">
        <ele>392.6</ele>
        <time>2023-03-15T14:03:20.000Z</time>
      </trkpt>
      <trkpt lat="43.57815" lon="6.23139">
        <ele>394.2</ele>
        <time>2023-03-15T14:03:30.000Z</time>
      </trkpt>
      <trkpt lat="43.57813" lon="6.23139">
        <ele>393.9</ele>
        <time>2023-03-15T14:03:40.000Z</time>
      </trkpt>
      <trkpt lat="43.57812" lon="6.23138">
        <ele>393.4</ele>
        <time>2023-03-15T14:03:50.000Z</time>
      </trkpt>
      <trkpt lat="43.57816" lon="6.23133">
        <ele>394.4</ele>
        <time>2023-03-15T14:04:00.000Z</time>
      </trkpt>
      <trkpt lat="43.57817" lon="6.2313">
        <ele>393.8</ele>
        <time>2023-03-15T14:04:10.000Z</time>
      </trkpt>
      <trkpt lat="43.5782" lon="6.23122">
        <ele>394.7</ele>
        <time>2023-03-15T14:04:20.000Z</time>
      </trkpt>
      <trkpt lat="43.57822" lon="6.23114">
        <ele>397.4</ele>
        <time>2023-03-15T14:04:30.000Z</time>
      </trkpt>
      <trkpt lat="43.57823" lon="6.2311">
        <ele>397.6</ele>
        <time>2023-03-15T14:04:40.000Z</time>
      </trkpt>
      <trkpt lat="43.57824" lon="6.23099">
        <ele>397</ele>
        <time>2023-03-15T14:04:50.000Z</time>
      </trkpt>
      <trkpt lat="43.57826" lon="6.23087">
        <ele>397.3</ele>
        <time>2023-03-15T14:05:00.000Z</time>
      </trkpt>
      <trkpt lat="43.57825" lon="6.23075">
        <ele>398</ele>
        <time>2023-03-15T14:05:10.000Z</time>
      </trkpt>
      <trkpt lat="43.57822" lon="6.23065">
        <ele>400.3</ele>
        <time>2023-03-15T14:05:20.000Z</time>
      </trkpt>
      <trkpt lat="43.57817" lon="6.23059">
        <ele>401.2</ele>
        <time>2023-03-15T14:05:30.000Z</time>
      </trkpt>
      <trkpt lat="43.57812" lon="6.23054">
        <ele>400.6</ele>
        <time>2023-03-15T14:05:40.000Z</time>
      </trkpt>
      <trkpt lat="43.57806" lon="6.23052">
        <ele>403.4</ele>
        <time>2023-03-15T14:05:50.000Z</time>
      </trkpt>
      <trkpt lat="43.57803" lon="6.2305">
        <ele>405.9</ele>
        <time>2023-03-15T14:06:00.000Z</time>
      </trkpt>
      <trkpt lat="43.578" lon="6.23053">
        <ele>405</ele>
        <time>2023-03-15T14:06:10.000Z</time>
      </trkpt>
      <trkpt lat="43.57799" lon="6.23054">
        <ele>403</ele>
        <time>2023-03-15T14:06:20.000Z</time>
      </trkpt>
      <trkpt lat="43.57799" lon="6.23054">
        <ele>405.4</ele>
        <time>2023-03-15T14:06:30.000Z</time>
      </trkpt>
      <trkpt lat="43.57798" lon="6.23053">
        <ele>405.4</ele>
        <time>2023-03-15T14:06:40.000Z</time>
      </trkpt>
      <trkpt lat="43.57798" lon="6.23053">
        <ele>406.1</ele>
        <time>2023-03-15T14:06:50.000Z</time>
      </trkpt>
      <trkpt lat="43.57798" lon="6.23054">
        <ele>405.7</ele>
        <time>2023-03-15T14:07:00.000Z</time>
      </trkpt>
      <trkpt lat="43.57797" lon="6.23049">
        <ele>407.3</ele>
        <time>2023-03-15T14:07:10.000Z</time>
      </trkpt>
      <trkpt lat="43.57797" lon="6.23048">
        <ele>407.1</ele>
        <time>2023-03-15T14:07:20.000Z</time>
      </trkpt>
      <trkpt lat="43.57797" lon="6.23048">
        <ele>406.4</ele>
        <time>2023-03-15T14:07:30.000Z</time>
      </trkpt>
      <trkpt lat="43.57798" lon="6.23046">
        <ele>406.2</ele>
        <time>2023-03-15T14:07:40.000Z</time>
      </trkpt>
      <trkpt lat="43.57799" lon="6.23044">
        <ele>405.9</ele>
        <time>2023-03-15T14:07:50.000Z</time>
      </trkpt>
      <trkpt lat="43.578" lon="6.23042">
        <ele>405.6</ele>
        <time>2023-03-15T14:08:00.000Z</time>
      </trkpt>
      <trkpt lat="43.57795" lon="6.23038">
        <ele>404.2</ele>
        <time>2023-03-15T14:08:10.000Z</time>
      </trkpt>
      <trkpt lat="43.57793" lon="6.23032">
        <ele>407</ele>
        <time>2023-03-15T14:08:20.000Z</time>
      </trkpt>
      <trkpt lat="43.57788" lon="6.23024">
        <ele>408.2</ele>
        <time>2023-03-15T14:08:30.000Z</time>
      </trkpt>
      <trkpt lat="43.57785" lon="6.23015">
        <ele>410</ele>
        <time>2023-03-15T14:08:40.000Z</time>
      </trkpt>
      <trkpt lat="43.57785" lon="6.23003">
        <ele>410</ele>
        <time>2023-03-15T14:08:50.000Z</time>
      </trkpt>
      <trkpt lat="43.57789" lon="6.22994">
        <ele>409.8</ele>
        <time>2023-03-15T14:09:00.000Z</time>
      </trkpt>
      <trkpt lat="43.57791" lon="6.22988">
        <ele>410.6</ele>
        <time>2023-03-15T14:09:10.000Z</time>
      </trkpt>
      <trkpt lat="43.5779" lon="6.22989">
        <ele>410.2</ele>
        <time>2023-03-15T14:09:20.000Z</time>
      </trkpt>
      <trkpt lat="43.57789" lon="6.22991">
        <ele>410.5</ele>
        <time>2023-03-15T14:09:30.000Z</time>
      </trkpt>
      <trkpt lat="43.5779" lon="6.22988">
        <ele>411</ele>
        <time>2023-03-15T14:09:40.000Z</time>
      </trkpt>
      <trkpt lat="43.5779" lon="6.22978">
        <ele>411.6</ele>
        <time>2023-03-15T14:09:50.000Z</time>
      </trkpt>
      <trkpt lat="43.57791" lon="6.22966">
        <ele>412.5</ele>
        <time>2023-03-15T14:10:00.000Z</time>
      </trkpt>
      <trkpt lat="43.57791" lon="6.22954">
        <ele>413.8</ele>
        <time>2023-03-15T14:10:10.000Z</time>
      </trkpt>
      <trkpt lat="43.5779" lon="6.22946">
        <ele>414.6</ele>
        <time>2023-03-15T14:10:20.000Z</time>
      </trkpt>
      <trkpt lat="43.57787" lon="6.22937">
        <ele>415.3</ele>
        <time>2023-03-15T14:10:30.000Z</time>
      </trkpt>
      <trkpt lat="43.57783" lon="6.22924">
        <ele>416</ele>
        <time>2023-03-15T14:10:40.000Z</time>
      </trkpt>
      <trkpt lat="43.57777" lon="6.22913">
        <ele>415.7</ele>
        <time>2023-03-15T14:10:50.000Z</time>
      </trkpt>
      <trkpt lat="43.5777" lon="6.22907">
        <ele>416.9</ele>
        <time>2023-03-15T14:11:00.000Z</time>
      </trkpt>
      <trkpt lat="43.57763" lon="6.22902">
        <ele>417.2</ele>
        <time>2023-03-15T14:11:10.000Z</time>
      </trkpt>
      <trkpt lat="43.57762" lon="6.22891">
        <ele>417.7</ele>
        <time>2023-03-15T14:11:20.000Z</time>
      </trkpt>
      <trkpt lat="43.57763" lon="6.22881">
        <ele>418</ele>
        <time>2023-03-15T14:11:30.000Z</time>
      </trkpt>
      <trkpt lat="43.57761" lon="6.22874">
        <ele>417.6</ele>
        <time>2023-03-15T14:11:40.000Z</time>
      </trkpt>
      <trkpt lat="43.5776" lon="6.22872">
        <ele>417.4</ele>
        <time>2023-03-15T14:11:50.000Z</time>
      </trkpt>
      <trkpt lat="43.57759" lon="6.22877">
        <ele>417.5</ele>
        <time>2023-03-15T14:12:00.000Z</time>
      </trkpt>
      <trkpt lat="43.57752" lon="6.22883">
        <ele>417.1</ele>
        <time>2023-03-15T14:12:10.000Z</time>
      </trkpt>
      <trkpt lat="43.57748" lon="6.22884">
        <ele>416.2</ele>
        <time>2023-03-15T14:12:20.000Z</time>
      </trkpt>
      <trkpt lat="43.57746" lon="6.22884">
        <ele>416.3</ele>
        <time>2023-03-15T14:12:30.000Z</time>
      </trkpt>
      <trkpt lat="43.57745" lon="6.22884">
        <ele>416.5</ele>
        <time>2023-03-15T14:12:40.000Z</time>
      </trkpt>
      <trkpt lat="43.57746" lon="6.22889">
        <ele>416.2</ele>
        <time>2023-03-15T14:12:50.000Z</time>
      </trkpt>
      <trkpt lat="43.57744" lon="6.22892">
        <ele>415.3</ele>
        <time>2023-03-15T14:13:00.000Z</time>
      </trkpt>
      <trkpt lat="43.57745" lon="6.22894">
        <ele>415.6</ele>
        <time>2023-03-15T14:13:10.000Z</time>
      </trkpt>
      <trkpt lat="43.57745" lon="6.22894">
        <ele>414.6</ele>
        <time>2023-03-15T14:13:20.000Z</time>
      </trkpt>
      <trkpt lat="43.57745" lon="6.22894">
        <ele>415.8</ele>
        <time>2023-03-15T14:13:30.000Z</time>
      </trkpt>
      <trkpt lat="43.57746" lon="6.22895">
        <ele>416.7</ele>
        <time>2023-03-15T14:13:40.000Z</time>
      </trkpt>
      <trkpt lat="43.57746" lon="6.22895">
        <ele>416.4</ele>
        <time>2023-03-15T14:13:50.000Z</time>
      </trkpt>
      <trkpt lat="43.57747" lon="6.22895">
        <ele>415.9</ele>
        <time>2023-03-15T14:14:00.000Z</time>
      </trkpt>
      <trkpt lat="43.57747" lon="6.22895">
        <ele>416.1</ele>
        <time>2023-03-15T14:14:10.000Z</time>
      </trkpt>
      <trkpt lat="43.57748" lon="6.22895">
        <ele>414.4</ele>
        <time>2023-03-15T14:14:20.000Z</time>
      </trkpt>
      <trkpt lat="43.57748" lon="6.22895">
        <ele>416.1</ele>
        <time>2023-03-15T14:14:30.000Z</time>
      </trkpt>
      <trkpt lat="43.57748" lon="6.22894">
        <ele>418</ele>
        <time>2023-03-15T14:14:40.000Z</time>
      </trkpt>
      <trkpt lat="43.57748" lon="6.22894">
        <ele>416.6</ele>
        <time>2023-03-15T14:14:50.000Z</time>
      </trkpt>
      <trkpt lat="43.57748" lon="6.22894">
        <ele>415.9</ele>
        <time>2023-03-15T14:15:00.000Z</time>
      </trkpt>
      <trkpt lat="43.57748" lon="6.22894">
        <ele>415.5</ele>
        <time>2023-03-15T14:15:10.000Z</time>
      </trkpt>
      <trkpt lat="43.57748" lon="6.22894">
        <ele>414.6</ele>
        <time>2023-03-15T14:15:20.000Z</time>
      </trkpt>
      <trkpt lat="43.57748" lon="6.22894">
        <ele>414.6</ele>
        <time>2023-03-15T14:15:30.000Z</time>
      </trkpt>
      <trkpt lat="43.57748" lon="6.22894">
        <ele>416</ele>
        <time>2023-03-15T14:15:40.000Z</time>
      </trkpt>
      <trkpt lat="43.57749" lon="6.22893">
        <ele>415.5</ele>
        <time>2023-03-15T14:15:50.000Z</time>
      </trkpt>
      <trkpt lat="43.57754" lon="6.22886">
        <ele>415.9</ele>
        <time>2023-03-15T14:16:00.000Z</time>
      </trkpt>
      <trkpt lat="43.57759" lon="6.22878">
        <ele>415.4</ele>
        <time>2023-03-15T14:16:10.000Z</time>
      </trkpt>
      <trkpt lat="43.5776" lon="6.22877">
        <ele>414.9</ele>
        <time>2023-03-15T14:16:20.000Z</time>
      </trkpt>
      <trkpt lat="43.57761" lon="6.22875">
        <ele>414.5</ele>
        <time>2023-03-15T14:16:30.000Z</time>
      </trkpt>
      <trkpt lat="43.57761" lon="6.22874">
        <ele>414.3</ele>
        <time>2023-03-15T14:16:40.000Z</time>
      </trkpt>
      <trkpt lat="43.57761" lon="6.22873">
        <ele>414</ele>
        <time>2023-03-15T14:16:50.000Z</time>
      </trkpt>
      <trkpt lat="43.57764" lon="6.22864">
        <ele>414.3</ele>
        <time>2023-03-15T14:17:00.000Z</time>
      </trkpt>
      <trkpt lat="43.57767" lon="6.22851">
        <ele>414.1</ele>
        <time>2023-03-15T14:17:10.000Z</time>
      </trkpt>
      <trkpt lat="43.57773" lon="6.22837">
        <ele>413.8</ele>
        <time>2023-03-15T14:17:20.000Z</time>
      </trkpt>
      <trkpt lat="43.57778" lon="6.22822">
        <ele>413.7</ele>
        <time>2023-03-15T14:17:30.000Z</time>
      </trkpt>
      <trkpt lat="43.57783" lon="6.22808">
        <ele>413.6</ele>
        <time>2023-03-15T14:17:40.000Z</time>
      </trkpt>
      <trkpt lat="43.57788" lon="6.22795">
        <ele>413.5</ele>
        <time>2023-03-15T14:17:50.000Z</time>
      </trkpt>
      <trkpt lat="43.57793" lon="6.22781">
        <ele>412.9</ele>
        <time>2023-03-15T14:18:00.000Z</time>
      </trkpt>
      <trkpt lat="43.57799" lon="6.22766">
        <ele>413</ele>
        <time>2023-03-15T14:18:10.000Z</time>
      </trkpt>
      <trkpt lat="43.57803" lon="6.22756">
        <ele>412.9</ele>
        <time>2023-03-15T14:18:20.000Z</time>
      </trkpt>
      <trkpt lat="43.57808" lon="6.22751">
        <ele>413.1</ele>
        <time>2023-03-15T14:18:30.000Z</time>
      </trkpt>
      <trkpt lat="43.57816" lon="6.22746">
        <ele>412.9</ele>
        <time>2023-03-15T14:18:40.000Z</time>
      </trkpt>
      <trkpt lat="43.57826" lon="6.22735">
        <ele>413</ele>
        <time>2023-03-15T14:18:50.000Z</time>
      </trkpt>
      <trkpt lat="43.57834" lon="6.22722">
        <ele>413.3</ele>
        <time>2023-03-15T14:19:00.000Z</time>
      </trkpt>
      <trkpt lat="43.57842" lon="6.2271">
        <ele>413.4</ele>
        <time>2023-03-15T14:19:10.000Z</time>
      </trkpt>
      <trkpt lat="43.5785" lon="6.22699">
        <ele>413.9</ele>
        <time>2023-03-15T14:19:20.000Z</time>
      </trkpt>
      <trkpt lat="43.57859" lon="6.22691">
        <ele>413.9</ele>
        <time>2023-03-15T14:19:30.000Z</time>
      </trkpt>
      <trkpt lat="43.57868" lon="6.22683">
        <ele>413.8</ele>
        <time>2023-03-15T14:19:40.000Z</time>
      </trkpt>
      <trkpt lat="43.57878" lon="6.22678">
        <ele>414</ele>
        <time>2023-03-15T14:19:50.000Z</time>
      </trkpt>
      <trkpt lat="43.57885" lon="6.22674">
        <ele>414.5</ele>
        <time>2023-03-15T14:20:00.000Z</time>
      </trkpt>
      <trkpt lat="43.57892" lon="6.22662">
        <ele>414.8</ele>
        <time>2023-03-15T14:20:10.000Z</time>
      </trkpt>
      <trkpt lat="43.579" lon="6.2265">
        <ele>414.5</ele>
        <time>2023-03-15T14:20:20.000Z</time>
      </trkpt>
      <trkpt lat="43.57901" lon="6.22655">
        <ele>414.7</ele>
        <time>2023-03-15T14:20:30.000Z</time>
      </trkpt>
      <trkpt lat="43.57911" lon="6.22661">
        <ele>415.1</ele>
        <time>2023-03-15T14:20:40.000Z</time>
      </trkpt>
      <trkpt lat="43.57922" lon="6.22654">
        <ele>414.4</ele>
        <time>2023-03-15T14:20:50.000Z</time>
      </trkpt>
      <trkpt lat="43.5793" lon="6.22649">
        <ele>415.6</ele>
        <time>2023-03-15T14:21:00.000Z</time>
      </trkpt>
      <trkpt lat="43.57941" lon="6.22649">
        <ele>415.8</ele>
        <time>2023-03-15T14:21:10.000Z</time>
      </trkpt>
      <trkpt lat="43.57952" lon="6.22652">
        <ele>416.5</ele>
        <time>2023-03-15T14:21:20.000Z</time>
      </trkpt>
      <trkpt lat="43.57963" lon="6.22651">
        <ele>416.6</ele>
        <time>2023-03-15T14:21:30.000Z</time>
      </trkpt>
      <trkpt lat="43.57975" lon="6.22653">
        <ele>418.2</ele>
        <time>2023-03-15T14:21:40.000Z</time>
      </trkpt>
      <trkpt lat="43.57986" lon="6.22658">
        <ele>418.1</ele>
        <time>2023-03-15T14:21:50.000Z</time>
      </trkpt>
      <trkpt lat="43.57995" lon="6.22659">
        <ele>418.9</ele>
        <time>2023-03-15T14:22:00.000Z</time>
      </trkpt>
      <trkpt lat="43.58007" lon="6.2266">
        <ele>419</ele>
        <time>2023-03-15T14:22:10.000Z</time>
      </trkpt>
      <trkpt lat="43.58018" lon="6.2266">
        <ele>419.5</ele>
        <time>2023-03-15T14:22:20.000Z</time>
      </trkpt>
      <trkpt lat="43.5803" lon="6.22664">
        <ele>420.2</ele>
        <time>2023-03-15T14:22:30.000Z</time>
      </trkpt>
      <trkpt lat="43.58041" lon="6.22668">
        <ele>420.5</ele>
        <time>2023-03-15T14:22:40.000Z</time>
      </trkpt>
      <trkpt lat="43.58053" lon="6.22672">
        <ele>420.6</ele>
        <time>2023-03-15T14:22:50.000Z</time>
      </trkpt>
      <trkpt lat="43.58065" lon="6.22673">
        <ele>420.9</ele>
        <time>2023-03-15T14:23:00.000Z</time>
      </trkpt>
      <trkpt lat="43.58075" lon="6.22676">
        <ele>420.8</ele>
        <time>2023-03-15T14:23:10.000Z</time>
      </trkpt>
      <trkpt lat="43.58085" lon="6.2268">
        <ele>421</ele>
        <time>2023-03-15T14:23:20.000Z</time>
      </trkpt>
      <trkpt lat="43.58096" lon="6.22684">
        <ele>421.5</ele>
        <time>2023-03-15T14:23:30.000Z</time>
      </trkpt>
      <trkpt lat="43.58107" lon="6.22689">
        <ele>422</ele>
        <time>2023-03-15T14:23:40.000Z</time>
      </trkpt>
      <trkpt lat="43.58116" lon="6.22694">
        <ele>422.4</ele>
        <time>2023-03-15T14:23:50.000Z</time>
      </trkpt>
      <trkpt lat="43.58127" lon="6.22699">
        <ele>424.2</ele>
        <time>2023-03-15T14:24:00.000Z</time>
      </trkpt>
      <trkpt lat="43.58138" lon="6.22702">
        <ele>425.2</ele>
        <time>2023-03-15T14:24:10.000Z</time>
      </trkpt>
      <trkpt lat="43.58149" lon="6.22705">
        <ele>425.9</ele>
        <time>2023-03-15T14:24:20.000Z</time>
      </trkpt>
      <trkpt lat="43.58161" lon="6.22711">
        <ele>427.4</ele>
        <time>2023-03-15T14:24:30.000Z</time>
      </trkpt>
      <trkpt lat="43.58172" lon="6.22719">
        <ele>428.6</ele>
        <time>2023-03-15T14:24:40.000Z</time>
      </trkpt>
      <trkpt lat="43.58185" lon="6.22723">
        <ele>428.8</ele>
        <time>2023-03-15T14:24:50.000Z</time>
      </trkpt>
      <trkpt lat="43.58195" lon="6.2273">
        <ele>428.8</ele>
        <time>2023-03-15T14:25:00.000Z</time>
      </trkpt>
      <trkpt lat="43.58203" lon="6.22732">
        <ele>428.9</ele>
        <time>2023-03-15T14:25:10.000Z</time>
      </trkpt>
      <trkpt lat="43.5821" lon="6.22731">
        <ele>428.8</ele>
        <time>2023-03-15T14:25:20.000Z</time>
      </trkpt>
      <trkpt lat="43.5822" lon="6.22728">
        <ele>429.8</ele>
        <time>2023-03-15T14:25:30.000Z</time>
      </trkpt>
      <trkpt lat="43.58233" lon="6.22728">
        <ele>429.8</ele>
        <time>2023-03-15T14:25:40.000Z</time>
      </trkpt>
      <trkpt lat="43.58243" lon="6.22726">
        <ele>429</ele>
        <time>2023-03-15T14:25:50.000Z</time>
      </trkpt>
      <trkpt lat="43.58256" lon="6.22715">
        <ele>428.4</ele>
        <time>2023-03-15T14:26:00.000Z</time>
      </trkpt>
      <trkpt lat="43.58267" lon="6.22703">
        <ele>427.4</ele>
        <time>2023-03-15T14:26:10.000Z</time>
      </trkpt>
      <trkpt lat="43.58277" lon="6.22689">
        <ele>426.8</ele>
        <time>2023-03-15T14:26:20.000Z</time>
      </trkpt>
      <trkpt lat="43.58284" lon="6.22674">
        <ele>426.3</ele>
        <time>2023-03-15T14:26:30.000Z</time>
      </trkpt>
      <trkpt lat="43.5829" lon="6.22656">
        <ele>426</ele>
        <time>2023-03-15T14:26:40.000Z</time>
      </trkpt>
      <trkpt lat="43.58298" lon="6.22641">
        <ele>425.9</ele>
        <time>2023-03-15T14:26:50.000Z</time>
      </trkpt>
      <trkpt lat="43.58302" lon="6.22632">
        <ele>425.9</ele>
        <time>2023-03-15T14:27:00.000Z</time>
      </trkpt>
      <trkpt lat="43.58305" lon="6.22622">
        <ele>425.6</ele>
        <time>2023-03-15T14:27:10.000Z</time>
      </trkpt>
      <trkpt lat="43.5831" lon="6.2261">
        <ele>425.6</ele>
        <time>2023-03-15T14:27:20.000Z</time>
      </trkpt>
      <trkpt lat="43.58311" lon="6.226">
        <ele>426</ele>
        <time>2023-03-15T14:27:30.000Z</time>
      </trkpt>
      <trkpt lat="43.58313" lon="6.22585">
        <ele>426.7</ele>
        <time>2023-03-15T14:27:40.000Z</time>
      </trkpt>
      <trkpt lat="43.58302" lon="6.22578">
        <ele>426.9</ele>
        <time>2023-03-15T14:27:50.000Z</time>
      </trkpt>
      <trkpt lat="43.58293" lon="6.22575">
        <ele>427.7</ele>
        <time>2023-03-15T14:28:00.000Z</time>
      </trkpt>
      <trkpt lat="43.58286" lon="6.2257">
        <ele>427.7</ele>
        <time>2023-03-15T14:28:10.000Z</time>
      </trkpt>
      <trkpt lat="43.58284" lon="6.22568">
        <ele>428.1</ele>
        <time>2023-03-15T14:28:20.000Z</time>
      </trkpt>
    </trkseg>
  </trk>
</gpx>